<?xml version="1.0" encoding="UTF-8" standalone="no" ?>
<gpx xmlns="http://www.topografix.com/GPX/1/1" xmlns:xsi="http://www.w3.org/2001/XMLSchema-instance" xsi:schemaLocation="http://www.topografix.com/GPX/1/1 http://www.topografix.com/GPX/1/1/gpx.xsd" version="1.1" creator="VisuGPX - https://www.visugpx.com">
  <metadata>
    <name>Randonnée Auzouville sur Ry</name>
    <desc><![CDATA[Circuit au départ de Auzouville sur Ry avec un retour par Vasceuil]]></desc>
  </metadata>
  <trk>
    <name><![CDATA[Randonnée Auzouville sur Ry_1]]></name>
    <trkseg>
      <trkpt lat="49.44259" lon="1.31049">
        <ele>146</ele>
        <time>2017-07-04T13:59:39Z</time>
      </trkpt>
      <trkpt lat="49.44259" lon="1.31049">
        <ele>146</ele>
        <time>2017-07-04T13:59:39Z</time>
      </trkpt>
      <trkpt lat="49.44259" lon="1.31049">
        <ele>146</ele>
        <time>2017-07-04T13:59:39Z</time>
      </trkpt>
      <trkpt lat="49.44259" lon="1.31049">
        <ele>146</ele>
        <time>2017-07-04T13:59:39Z</time>
      </trkpt>
      <trkpt lat="49.44255" lon="1.31051">
        <ele>146</ele>
        <time>2017-07-04T13:59:39Z</time>
      </trkpt>
      <trkpt lat="49.44256" lon="1.3105">
        <ele>146</ele>
        <time>2017-07-04T14:07:03Z</time>
      </trkpt>
      <trkpt lat="49.44256" lon="1.3105">
        <ele>146</ele>
        <time>2017-07-04T14:07:03Z</time>
      </trkpt>
      <trkpt lat="49.4426" lon="1.31061">
        <ele>146</ele>
        <time>2017-07-04T14:07:03Z</time>
      </trkpt>
      <trkpt lat="49.44264" lon="1.31069">
        <ele>146</ele>
        <time>2017-07-04T14:07:03Z</time>
      </trkpt>
      <trkpt lat="49.44268" lon="1.31072">
        <ele>146</ele>
        <time>2017-07-04T14:07:03Z</time>
      </trkpt>
      <trkpt lat="49.44273" lon="1.31073">
        <ele>146</ele>
        <time>2017-07-04T14:07:19Z</time>
      </trkpt>
      <trkpt lat="49.44278" lon="1.31074">
        <ele>146</ele>
        <time>2017-07-04T14:07:19Z</time>
      </trkpt>
      <trkpt lat="49.44282" lon="1.31075">
        <ele>146</ele>
        <time>2017-07-04T14:07:19Z</time>
      </trkpt>
      <trkpt lat="49.44287" lon="1.31076">
        <ele>146</ele>
        <time>2017-07-04T14:07:19Z</time>
      </trkpt>
      <trkpt lat="49.44291" lon="1.31078">
        <ele>146</ele>
        <time>2017-07-04T14:07:34Z</time>
      </trkpt>
      <trkpt lat="49.44294" lon="1.31081">
        <ele>145</ele>
        <time>2017-07-04T14:07:34Z</time>
      </trkpt>
      <trkpt lat="49.44299" lon="1.31086">
        <ele>145</ele>
        <time>2017-07-04T14:07:34Z</time>
      </trkpt>
      <trkpt lat="49.443" lon="1.31091">
        <ele>145</ele>
        <time>2017-07-04T14:07:34Z</time>
      </trkpt>
      <trkpt lat="49.44298" lon="1.31101">
        <ele>145</ele>
        <time>2017-07-04T14:07:50Z</time>
      </trkpt>
      <trkpt lat="49.44298" lon="1.31105">
        <ele>145</ele>
        <time>2017-07-04T14:07:50Z</time>
      </trkpt>
      <trkpt lat="49.44299" lon="1.31113">
        <ele>145</ele>
        <time>2017-07-04T14:07:50Z</time>
      </trkpt>
      <trkpt lat="49.443" lon="1.31118">
        <ele>145</ele>
        <time>2017-07-04T14:07:50Z</time>
      </trkpt>
      <trkpt lat="49.44302" lon="1.31125">
        <ele>145</ele>
        <time>2017-07-04T14:08:07Z</time>
      </trkpt>
      <trkpt lat="49.44301" lon="1.3113">
        <ele>145</ele>
        <time>2017-07-04T14:08:07Z</time>
      </trkpt>
      <trkpt lat="49.44299" lon="1.31137">
        <ele>145</ele>
        <time>2017-07-04T14:08:07Z</time>
      </trkpt>
      <trkpt lat="49.443" lon="1.31142">
        <ele>145</ele>
        <time>2017-07-04T14:08:07Z</time>
      </trkpt>
      <trkpt lat="49.44301" lon="1.31151">
        <ele>145</ele>
        <time>2017-07-04T14:08:23Z</time>
      </trkpt>
      <trkpt lat="49.44301" lon="1.3116">
        <ele>145</ele>
        <time>2017-07-04T14:08:23Z</time>
      </trkpt>
      <trkpt lat="49.44302" lon="1.31163">
        <ele>145</ele>
        <time>2017-07-04T14:08:23Z</time>
      </trkpt>
      <trkpt lat="49.44304" lon="1.31168">
        <ele>145</ele>
        <time>2017-07-04T14:08:23Z</time>
      </trkpt>
      <trkpt lat="49.44305" lon="1.31176">
        <ele>145</ele>
        <time>2017-07-04T14:08:40Z</time>
      </trkpt>
      <trkpt lat="49.44306" lon="1.31181">
        <ele>145</ele>
        <time>2017-07-04T14:08:40Z</time>
      </trkpt>
      <trkpt lat="49.44306" lon="1.31186">
        <ele>145</ele>
        <time>2017-07-04T14:08:40Z</time>
      </trkpt>
      <trkpt lat="49.44307" lon="1.31197">
        <ele>145</ele>
        <time>2017-07-04T14:08:40Z</time>
      </trkpt>
      <trkpt lat="49.44309" lon="1.31203">
        <ele>145</ele>
        <time>2017-07-04T14:08:56Z</time>
      </trkpt>
      <trkpt lat="49.44311" lon="1.31212">
        <ele>143</ele>
        <time>2017-07-04T14:08:56Z</time>
      </trkpt>
      <trkpt lat="49.44311" lon="1.31219">
        <ele>143</ele>
        <time>2017-07-04T14:08:56Z</time>
      </trkpt>
      <trkpt lat="49.44312" lon="1.31228">
        <ele>143</ele>
        <time>2017-07-04T14:08:56Z</time>
      </trkpt>
      <trkpt lat="49.44313" lon="1.31234">
        <ele>143</ele>
        <time>2017-07-04T14:09:11Z</time>
      </trkpt>
      <trkpt lat="49.44312" lon="1.31242">
        <ele>143</ele>
        <time>2017-07-04T14:09:11Z</time>
      </trkpt>
      <trkpt lat="49.44311" lon="1.3125">
        <ele>143</ele>
        <time>2017-07-04T14:09:11Z</time>
      </trkpt>
      <trkpt lat="49.44312" lon="1.31255">
        <ele>143</ele>
        <time>2017-07-04T14:09:11Z</time>
      </trkpt>
      <trkpt lat="49.44311" lon="1.31264">
        <ele>143</ele>
        <time>2017-07-04T14:09:28Z</time>
      </trkpt>
      <trkpt lat="49.4431" lon="1.31272">
        <ele>143</ele>
        <time>2017-07-04T14:09:28Z</time>
      </trkpt>
      <trkpt lat="49.4431" lon="1.31277">
        <ele>143</ele>
        <time>2017-07-04T14:09:28Z</time>
      </trkpt>
      <trkpt lat="49.44311" lon="1.31284">
        <ele>143</ele>
        <time>2017-07-04T14:09:28Z</time>
      </trkpt>
      <trkpt lat="49.44312" lon="1.31289">
        <ele>143</ele>
        <time>2017-07-04T14:09:43Z</time>
      </trkpt>
      <trkpt lat="49.44314" lon="1.31297">
        <ele>142</ele>
        <time>2017-07-04T14:09:43Z</time>
      </trkpt>
      <trkpt lat="49.44315" lon="1.31304">
        <ele>142</ele>
        <time>2017-07-04T14:09:43Z</time>
      </trkpt>
      <trkpt lat="49.44315" lon="1.31313">
        <ele>142</ele>
        <time>2017-07-04T14:09:43Z</time>
      </trkpt>
      <trkpt lat="49.44316" lon="1.31319">
        <ele>142</ele>
        <time>2017-07-04T14:09:59Z</time>
      </trkpt>
      <trkpt lat="49.44316" lon="1.31324">
        <ele>142</ele>
        <time>2017-07-04T14:09:59Z</time>
      </trkpt>
      <trkpt lat="49.44317" lon="1.31332">
        <ele>142</ele>
        <time>2017-07-04T14:10:00Z</time>
      </trkpt>
      <trkpt lat="49.44317" lon="1.31341">
        <ele>142</ele>
        <time>2017-07-04T14:10:00Z</time>
      </trkpt>
      <trkpt lat="49.44317" lon="1.31348">
        <ele>142</ele>
        <time>2017-07-04T14:10:15Z</time>
      </trkpt>
      <trkpt lat="49.44315" lon="1.31358">
        <ele>142</ele>
        <time>2017-07-04T14:10:15Z</time>
      </trkpt>
      <trkpt lat="49.44315" lon="1.31366">
        <ele>142</ele>
        <time>2017-07-04T14:10:15Z</time>
      </trkpt>
      <trkpt lat="49.44315" lon="1.31374">
        <ele>142</ele>
        <time>2017-07-04T14:10:15Z</time>
      </trkpt>
      <trkpt lat="49.44314" lon="1.31382">
        <ele>140</ele>
        <time>2017-07-04T14:10:31Z</time>
      </trkpt>
      <trkpt lat="49.44313" lon="1.31391">
        <ele>140</ele>
        <time>2017-07-04T14:10:31Z</time>
      </trkpt>
      <trkpt lat="49.44312" lon="1.314">
        <ele>140</ele>
        <time>2017-07-04T14:10:31Z</time>
      </trkpt>
      <trkpt lat="49.44311" lon="1.31405">
        <ele>140</ele>
        <time>2017-07-04T14:10:31Z</time>
      </trkpt>
      <trkpt lat="49.44313" lon="1.31414">
        <ele>140</ele>
        <time>2017-07-04T14:10:48Z</time>
      </trkpt>
      <trkpt lat="49.44313" lon="1.3142">
        <ele>140</ele>
        <time>2017-07-04T14:10:48Z</time>
      </trkpt>
      <trkpt lat="49.44313" lon="1.31429">
        <ele>140</ele>
        <time>2017-07-04T14:10:48Z</time>
      </trkpt>
      <trkpt lat="49.44312" lon="1.31441">
        <ele>140</ele>
        <time>2017-07-04T14:10:48Z</time>
      </trkpt>
      <trkpt lat="49.44311" lon="1.31447">
        <ele>140</ele>
        <time>2017-07-04T14:11:03Z</time>
      </trkpt>
      <trkpt lat="49.44312" lon="1.31454">
        <ele>140</ele>
        <time>2017-07-04T14:11:03Z</time>
      </trkpt>
      <trkpt lat="49.44313" lon="1.31457">
        <ele>140</ele>
        <time>2017-07-04T14:11:03Z</time>
      </trkpt>
      <trkpt lat="49.44313" lon="1.31463">
        <ele>138</ele>
        <time>2017-07-04T14:11:03Z</time>
      </trkpt>
      <trkpt lat="49.44311" lon="1.3147">
        <ele>138</ele>
        <time>2017-07-04T14:11:19Z</time>
      </trkpt>
      <trkpt lat="49.44309" lon="1.31479">
        <ele>138</ele>
        <time>2017-07-04T14:11:19Z</time>
      </trkpt>
      <trkpt lat="49.44308" lon="1.31487">
        <ele>138</ele>
        <time>2017-07-04T14:11:19Z</time>
      </trkpt>
      <trkpt lat="49.44306" lon="1.31493">
        <ele>138</ele>
        <time>2017-07-04T14:11:19Z</time>
      </trkpt>
      <trkpt lat="49.44304" lon="1.31499">
        <ele>138</ele>
        <time>2017-07-04T14:11:35Z</time>
      </trkpt>
      <trkpt lat="49.44302" lon="1.31508">
        <ele>138</ele>
        <time>2017-07-04T14:11:35Z</time>
      </trkpt>
      <trkpt lat="49.44301" lon="1.31517">
        <ele>138</ele>
        <time>2017-07-04T14:11:35Z</time>
      </trkpt>
      <trkpt lat="49.44301" lon="1.31523">
        <ele>138</ele>
        <time>2017-07-04T14:11:35Z</time>
      </trkpt>
      <trkpt lat="49.44298" lon="1.31537">
        <ele>138</ele>
        <time>2017-07-04T14:12:43Z</time>
      </trkpt>
      <trkpt lat="49.44296" lon="1.31541">
        <ele>138</ele>
        <time>2017-07-04T14:12:43Z</time>
      </trkpt>
      <trkpt lat="49.44293" lon="1.31549">
        <ele>139</ele>
        <time>2017-07-04T14:12:43Z</time>
      </trkpt>
      <trkpt lat="49.44293" lon="1.31557">
        <ele>139</ele>
        <time>2017-07-04T14:12:43Z</time>
      </trkpt>
      <trkpt lat="49.44294" lon="1.31565">
        <ele>139</ele>
        <time>2017-07-04T14:12:43Z</time>
      </trkpt>
      <trkpt lat="49.44295" lon="1.31571">
        <ele>139</ele>
        <time>2017-07-04T14:12:59Z</time>
      </trkpt>
      <trkpt lat="49.44293" lon="1.31577">
        <ele>139</ele>
        <time>2017-07-04T14:12:59Z</time>
      </trkpt>
      <trkpt lat="49.44293" lon="1.31585">
        <ele>139</ele>
        <time>2017-07-04T14:12:59Z</time>
      </trkpt>
      <trkpt lat="49.44292" lon="1.31594">
        <ele>139</ele>
        <time>2017-07-04T14:12:59Z</time>
      </trkpt>
      <trkpt lat="49.44291" lon="1.316">
        <ele>141</ele>
        <time>2017-07-04T14:13:15Z</time>
      </trkpt>
      <trkpt lat="49.4429" lon="1.31608">
        <ele>141</ele>
        <time>2017-07-04T14:13:15Z</time>
      </trkpt>
      <trkpt lat="49.44292" lon="1.31617">
        <ele>139</ele>
        <time>2017-07-04T14:13:15Z</time>
      </trkpt>
      <trkpt lat="49.44291" lon="1.31618">
        <ele>141</ele>
        <time>2017-07-04T14:13:15Z</time>
      </trkpt>
      <trkpt lat="49.44289" lon="1.31616">
        <ele>141</ele>
        <time>2017-07-04T14:14:15Z</time>
      </trkpt>
      <trkpt lat="49.44288" lon="1.31616">
        <ele>141</ele>
        <time>2017-07-04T14:14:15Z</time>
      </trkpt>
      <trkpt lat="49.44289" lon="1.31614">
        <ele>141</ele>
        <time>2017-07-04T14:14:15Z</time>
      </trkpt>
      <trkpt lat="49.4429" lon="1.31605">
        <ele>141</ele>
        <time>2017-07-04T14:14:15Z</time>
      </trkpt>
      <trkpt lat="49.44292" lon="1.31601">
        <ele>139</ele>
        <time>2017-07-04T14:14:15Z</time>
      </trkpt>
      <trkpt lat="49.44292" lon="1.31596">
        <ele>139</ele>
        <time>2017-07-04T14:14:32Z</time>
      </trkpt>
      <trkpt lat="49.44291" lon="1.31588">
        <ele>141</ele>
        <time>2017-07-04T14:14:32Z</time>
      </trkpt>
      <trkpt lat="49.44291" lon="1.31585">
        <ele>141</ele>
        <time>2017-07-04T14:14:32Z</time>
      </trkpt>
      <trkpt lat="49.44292" lon="1.31577">
        <ele>141</ele>
        <time>2017-07-04T14:14:32Z</time>
      </trkpt>
      <trkpt lat="49.44292" lon="1.31574">
        <ele>139</ele>
        <time>2017-07-04T14:14:47Z</time>
      </trkpt>
      <trkpt lat="49.44294" lon="1.31566">
        <ele>139</ele>
        <time>2017-07-04T14:14:47Z</time>
      </trkpt>
      <trkpt lat="49.44294" lon="1.31559">
        <ele>139</ele>
        <time>2017-07-04T14:14:47Z</time>
      </trkpt>
      <trkpt lat="49.44294" lon="1.31553">
        <ele>139</ele>
        <time>2017-07-04T14:14:47Z</time>
      </trkpt>
      <trkpt lat="49.44295" lon="1.31545">
        <ele>139</ele>
        <time>2017-07-04T14:15:02Z</time>
      </trkpt>
      <trkpt lat="49.44296" lon="1.31536">
        <ele>138</ele>
        <time>2017-07-04T14:15:02Z</time>
      </trkpt>
      <trkpt lat="49.44296" lon="1.3153">
        <ele>138</ele>
        <time>2017-07-04T14:15:02Z</time>
      </trkpt>
      <trkpt lat="49.44294" lon="1.31523">
        <ele>138</ele>
        <time>2017-07-04T14:15:02Z</time>
      </trkpt>
      <trkpt lat="49.44288" lon="1.3152">
        <ele>141</ele>
        <time>2017-07-04T14:15:18Z</time>
      </trkpt>
      <trkpt lat="49.44284" lon="1.3152">
        <ele>141</ele>
        <time>2017-07-04T14:15:18Z</time>
      </trkpt>
      <trkpt lat="49.44279" lon="1.31519">
        <ele>141</ele>
        <time>2017-07-04T14:15:18Z</time>
      </trkpt>
      <trkpt lat="49.44277" lon="1.31519">
        <ele>141</ele>
        <time>2017-07-04T14:15:18Z</time>
      </trkpt>
      <trkpt lat="49.4427" lon="1.31517">
        <ele>141</ele>
        <time>2017-07-04T14:15:35Z</time>
      </trkpt>
      <trkpt lat="49.44268" lon="1.31517">
        <ele>141</ele>
        <time>2017-07-04T14:15:35Z</time>
      </trkpt>
      <trkpt lat="49.44261" lon="1.31517">
        <ele>141</ele>
        <time>2017-07-04T14:15:35Z</time>
      </trkpt>
      <trkpt lat="49.44257" lon="1.31516">
        <ele>141</ele>
        <time>2017-07-04T14:15:35Z</time>
      </trkpt>
      <trkpt lat="49.44251" lon="1.31516">
        <ele>141</ele>
        <time>2017-07-04T14:15:50Z</time>
      </trkpt>
      <trkpt lat="49.44248" lon="1.31515">
        <ele>141</ele>
        <time>2017-07-04T14:15:50Z</time>
      </trkpt>
      <trkpt lat="49.44243" lon="1.31514">
        <ele>141</ele>
        <time>2017-07-04T14:15:50Z</time>
      </trkpt>
      <trkpt lat="49.44241" lon="1.31515">
        <ele>141</ele>
        <time>2017-07-04T14:15:50Z</time>
      </trkpt>
      <trkpt lat="49.4424" lon="1.31521">
        <ele>141</ele>
        <time>2017-07-04T14:16:06Z</time>
      </trkpt>
      <trkpt lat="49.44238" lon="1.31529">
        <ele>141</ele>
        <time>2017-07-04T14:16:06Z</time>
      </trkpt>
      <trkpt lat="49.44238" lon="1.31538">
        <ele>141</ele>
        <time>2017-07-04T14:16:06Z</time>
      </trkpt>
      <trkpt lat="49.44237" lon="1.31543">
        <ele>141</ele>
        <time>2017-07-04T14:16:06Z</time>
      </trkpt>
      <trkpt lat="49.44235" lon="1.31547">
        <ele>141</ele>
        <time>2017-07-04T14:16:35Z</time>
      </trkpt>
      <trkpt lat="49.44234" lon="1.31544">
        <ele>141</ele>
        <time>2017-07-04T14:16:35Z</time>
      </trkpt>
      <trkpt lat="49.44234" lon="1.31543">
        <ele>141</ele>
        <time>2017-07-04T14:16:35Z</time>
      </trkpt>
      <trkpt lat="49.44233" lon="1.31544">
        <ele>141</ele>
        <time>2017-07-04T14:16:35Z</time>
      </trkpt>
      <trkpt lat="49.44229" lon="1.31544">
        <ele>141</ele>
        <time>2017-07-04T14:16:35Z</time>
      </trkpt>
      <trkpt lat="49.44223" lon="1.31544">
        <ele>141</ele>
        <time>2017-07-04T14:16:51Z</time>
      </trkpt>
      <trkpt lat="49.44219" lon="1.31544">
        <ele>141</ele>
        <time>2017-07-04T14:16:51Z</time>
      </trkpt>
      <trkpt lat="49.44215" lon="1.31543">
        <ele>141</ele>
        <time>2017-07-04T14:16:51Z</time>
      </trkpt>
      <trkpt lat="49.4421" lon="1.31545">
        <ele>141</ele>
        <time>2017-07-04T14:16:51Z</time>
      </trkpt>
      <trkpt lat="49.44204" lon="1.31541">
        <ele>145</ele>
        <time>2017-07-04T14:17:07Z</time>
      </trkpt>
      <trkpt lat="49.44199" lon="1.31541">
        <ele>145</ele>
        <time>2017-07-04T14:17:07Z</time>
      </trkpt>
      <trkpt lat="49.44193" lon="1.31542">
        <ele>146</ele>
        <time>2017-07-04T14:17:07Z</time>
      </trkpt>
      <trkpt lat="49.4419" lon="1.31543">
        <ele>146</ele>
        <time>2017-07-04T14:17:07Z</time>
      </trkpt>
      <trkpt lat="49.44185" lon="1.31543">
        <ele>146</ele>
        <time>2017-07-04T14:17:23Z</time>
      </trkpt>
      <trkpt lat="49.44182" lon="1.31544">
        <ele>146</ele>
        <time>2017-07-04T14:17:23Z</time>
      </trkpt>
      <trkpt lat="49.44178" lon="1.31543">
        <ele>146</ele>
        <time>2017-07-04T14:17:23Z</time>
      </trkpt>
      <trkpt lat="49.44173" lon="1.31545">
        <ele>146</ele>
        <time>2017-07-04T14:17:23Z</time>
      </trkpt>
      <trkpt lat="49.44168" lon="1.31546">
        <ele>146</ele>
        <time>2017-07-04T14:17:39Z</time>
      </trkpt>
      <trkpt lat="49.44163" lon="1.31542">
        <ele>146</ele>
        <time>2017-07-04T14:17:39Z</time>
      </trkpt>
      <trkpt lat="49.44161" lon="1.31541">
        <ele>145</ele>
        <time>2017-07-04T14:17:39Z</time>
      </trkpt>
      <trkpt lat="49.44156" lon="1.3154">
        <ele>145</ele>
        <time>2017-07-04T14:17:39Z</time>
      </trkpt>
      <trkpt lat="49.44155" lon="1.3154">
        <ele>145</ele>
        <time>2017-07-04T14:17:55Z</time>
      </trkpt>
      <trkpt lat="49.44148" lon="1.31537">
        <ele>145</ele>
        <time>2017-07-04T14:17:55Z</time>
      </trkpt>
      <trkpt lat="49.44144" lon="1.31535">
        <ele>145</ele>
        <time>2017-07-04T14:17:55Z</time>
      </trkpt>
      <trkpt lat="49.44143" lon="1.31535">
        <ele>145</ele>
        <time>2017-07-04T14:17:55Z</time>
      </trkpt>
      <trkpt lat="49.44141" lon="1.31535">
        <ele>145</ele>
        <time>2017-07-04T14:18:11Z</time>
      </trkpt>
      <trkpt lat="49.44136" lon="1.31532">
        <ele>145</ele>
        <time>2017-07-04T14:18:11Z</time>
      </trkpt>
      <trkpt lat="49.44134" lon="1.31534">
        <ele>145</ele>
        <time>2017-07-04T14:18:11Z</time>
      </trkpt>
      <trkpt lat="49.44127" lon="1.31533">
        <ele>145</ele>
        <time>2017-07-04T14:18:11Z</time>
      </trkpt>
      <trkpt lat="49.44116" lon="1.31526">
        <ele>147</ele>
        <time>2017-07-04T14:18:51Z</time>
      </trkpt>
      <trkpt lat="49.44116" lon="1.31524">
        <ele>147</ele>
        <time>2017-07-04T14:18:51Z</time>
      </trkpt>
      <trkpt lat="49.44116" lon="1.31524">
        <ele>147</ele>
        <time>2017-07-04T14:18:51Z</time>
      </trkpt>
      <trkpt lat="49.44115" lon="1.31525">
        <ele>147</ele>
        <time>2017-07-04T14:18:51Z</time>
      </trkpt>
      <trkpt lat="49.44111" lon="1.31526">
        <ele>147</ele>
        <time>2017-07-04T14:18:51Z</time>
      </trkpt>
      <trkpt lat="49.4411" lon="1.31525">
        <ele>147</ele>
        <time>2017-07-04T14:19:23Z</time>
      </trkpt>
      <trkpt lat="49.44109" lon="1.31524">
        <ele>147</ele>
        <time>2017-07-04T14:19:23Z</time>
      </trkpt>
      <trkpt lat="49.44105" lon="1.31521">
        <ele>147</ele>
        <time>2017-07-04T14:19:23Z</time>
      </trkpt>
      <trkpt lat="49.441" lon="1.3152">
        <ele>147</ele>
        <time>2017-07-04T14:19:23Z</time>
      </trkpt>
      <trkpt lat="49.44096" lon="1.31516">
        <ele>147</ele>
        <time>2017-07-04T14:19:23Z</time>
      </trkpt>
      <trkpt lat="49.44092" lon="1.31515">
        <ele>147</ele>
        <time>2017-07-04T14:19:39Z</time>
      </trkpt>
      <trkpt lat="49.44088" lon="1.31515">
        <ele>147</ele>
        <time>2017-07-04T14:19:39Z</time>
      </trkpt>
      <trkpt lat="49.44081" lon="1.31508">
        <ele>147</ele>
        <time>2017-07-04T14:19:39Z</time>
      </trkpt>
      <trkpt lat="49.4408" lon="1.31509">
        <ele>147</ele>
        <time>2017-07-04T14:19:39Z</time>
      </trkpt>
      <trkpt lat="49.44077" lon="1.31508">
        <ele>147</ele>
        <time>2017-07-04T14:19:55Z</time>
      </trkpt>
      <trkpt lat="49.44073" lon="1.31511">
        <ele>147</ele>
        <time>2017-07-04T14:19:55Z</time>
      </trkpt>
      <trkpt lat="49.4407" lon="1.31511">
        <ele>147</ele>
        <time>2017-07-04T14:19:55Z</time>
      </trkpt>
      <trkpt lat="49.44067" lon="1.31508">
        <ele>147</ele>
        <time>2017-07-04T14:19:55Z</time>
      </trkpt>
      <trkpt lat="49.44066" lon="1.31504">
        <ele>147</ele>
        <time>2017-07-04T14:20:11Z</time>
      </trkpt>
      <trkpt lat="49.44063" lon="1.31499">
        <ele>147</ele>
        <time>2017-07-04T14:20:11Z</time>
      </trkpt>
      <trkpt lat="49.4406" lon="1.31494">
        <ele>147</ele>
        <time>2017-07-04T14:20:11Z</time>
      </trkpt>
      <trkpt lat="49.44059" lon="1.3149">
        <ele>147</ele>
        <time>2017-07-04T14:20:11Z</time>
      </trkpt>
      <trkpt lat="49.44057" lon="1.31486">
        <ele>147</ele>
        <time>2017-07-04T14:20:27Z</time>
      </trkpt>
      <trkpt lat="49.44055" lon="1.31482">
        <ele>147</ele>
        <time>2017-07-04T14:20:27Z</time>
      </trkpt>
      <trkpt lat="49.44054" lon="1.31477">
        <ele>147</ele>
        <time>2017-07-04T14:20:27Z</time>
      </trkpt>
      <trkpt lat="49.44054" lon="1.31472">
        <ele>147</ele>
        <time>2017-07-04T14:20:27Z</time>
      </trkpt>
      <trkpt lat="49.44053" lon="1.31466">
        <ele>147</ele>
        <time>2017-07-04T14:20:43Z</time>
      </trkpt>
      <trkpt lat="49.4405" lon="1.31461">
        <ele>147</ele>
        <time>2017-07-04T14:20:43Z</time>
      </trkpt>
      <trkpt lat="49.44049" lon="1.31456">
        <ele>147</ele>
        <time>2017-07-04T14:20:43Z</time>
      </trkpt>
      <trkpt lat="49.44047" lon="1.31453">
        <ele>147</ele>
        <time>2017-07-04T14:20:43Z</time>
      </trkpt>
      <trkpt lat="49.44043" lon="1.31447">
        <ele>147</ele>
        <time>2017-07-04T14:21:00Z</time>
      </trkpt>
      <trkpt lat="49.44039" lon="1.31442">
        <ele>148</ele>
        <time>2017-07-04T14:21:00Z</time>
      </trkpt>
      <trkpt lat="49.44036" lon="1.31437">
        <ele>148</ele>
        <time>2017-07-04T14:21:00Z</time>
      </trkpt>
      <trkpt lat="49.44034" lon="1.3143">
        <ele>148</ele>
        <time>2017-07-04T14:21:00Z</time>
      </trkpt>
      <trkpt lat="49.44034" lon="1.31431">
        <ele>148</ele>
        <time>2017-07-04T14:21:35Z</time>
      </trkpt>
      <trkpt lat="49.44034" lon="1.31434">
        <ele>148</ele>
        <time>2017-07-04T14:21:35Z</time>
      </trkpt>
      <trkpt lat="49.4403" lon="1.31435">
        <ele>148</ele>
        <time>2017-07-04T14:21:35Z</time>
      </trkpt>
      <trkpt lat="49.44028" lon="1.31439">
        <ele>148</ele>
        <time>2017-07-04T14:21:35Z</time>
      </trkpt>
      <trkpt lat="49.44026" lon="1.31447">
        <ele>148</ele>
        <time>2017-07-04T14:21:35Z</time>
      </trkpt>
      <trkpt lat="49.4402" lon="1.31463">
        <ele>148</ele>
        <time>2017-07-04T14:28:50Z</time>
      </trkpt>
      <trkpt lat="49.43955" lon="1.31284">
        <ele>147</ele>
        <time>2017-07-04T14:28:50Z</time>
      </trkpt>
      <trkpt lat="49.43955" lon="1.31283">
        <ele>147</ele>
        <time>2017-07-04T14:28:50Z</time>
      </trkpt>
      <trkpt lat="49.43953" lon="1.31279">
        <ele>147</ele>
        <time>2017-07-04T14:28:50Z</time>
      </trkpt>
      <trkpt lat="49.43952" lon="1.31277">
        <ele>147</ele>
        <time>2017-07-04T14:28:50Z</time>
      </trkpt>
      <trkpt lat="49.43946" lon="1.31272">
        <ele>147</ele>
        <time>2017-07-04T14:29:08Z</time>
      </trkpt>
      <trkpt lat="49.43943" lon="1.31268">
        <ele>147</ele>
        <time>2017-07-04T14:29:08Z</time>
      </trkpt>
      <trkpt lat="49.43937" lon="1.31264">
        <ele>147</ele>
        <time>2017-07-04T14:29:08Z</time>
      </trkpt>
      <trkpt lat="49.43933" lon="1.31261">
        <ele>147</ele>
        <time>2017-07-04T14:29:08Z</time>
      </trkpt>
      <trkpt lat="49.43931" lon="1.31259">
        <ele>147</ele>
        <time>2017-07-04T14:29:24Z</time>
      </trkpt>
      <trkpt lat="49.43926" lon="1.31256">
        <ele>147</ele>
        <time>2017-07-04T14:29:24Z</time>
      </trkpt>
      <trkpt lat="49.43923" lon="1.31253">
        <ele>147</ele>
        <time>2017-07-04T14:29:24Z</time>
      </trkpt>
      <trkpt lat="49.43918" lon="1.31249">
        <ele>147</ele>
        <time>2017-07-04T14:29:24Z</time>
      </trkpt>
      <trkpt lat="49.43915" lon="1.31249">
        <ele>147</ele>
        <time>2017-07-04T14:29:39Z</time>
      </trkpt>
      <trkpt lat="49.43909" lon="1.31253">
        <ele>147</ele>
        <time>2017-07-04T14:29:39Z</time>
      </trkpt>
      <trkpt lat="49.43907" lon="1.31249">
        <ele>147</ele>
        <time>2017-07-04T14:29:39Z</time>
      </trkpt>
      <trkpt lat="49.43904" lon="1.31247">
        <ele>147</ele>
        <time>2017-07-04T14:29:39Z</time>
      </trkpt>
      <trkpt lat="49.43899" lon="1.31246">
        <ele>147</ele>
        <time>2017-07-04T14:29:55Z</time>
      </trkpt>
      <trkpt lat="49.43895" lon="1.31245">
        <ele>147</ele>
        <time>2017-07-04T14:29:55Z</time>
      </trkpt>
      <trkpt lat="49.43888" lon="1.31236">
        <ele>147</ele>
        <time>2017-07-04T14:29:55Z</time>
      </trkpt>
      <trkpt lat="49.43884" lon="1.31236">
        <ele>147</ele>
        <time>2017-07-04T14:29:55Z</time>
      </trkpt>
      <trkpt lat="49.43878" lon="1.31236">
        <ele>147</ele>
        <time>2017-07-04T14:30:11Z</time>
      </trkpt>
      <trkpt lat="49.43875" lon="1.31237">
        <ele>147</ele>
        <time>2017-07-04T14:30:11Z</time>
      </trkpt>
      <trkpt lat="49.43868" lon="1.31239">
        <ele>143</ele>
        <time>2017-07-04T14:30:11Z</time>
      </trkpt>
      <trkpt lat="49.43863" lon="1.31237">
        <ele>143</ele>
        <time>2017-07-04T14:30:11Z</time>
      </trkpt>
      <trkpt lat="49.43858" lon="1.31234">
        <ele>143</ele>
        <time>2017-07-04T14:30:26Z</time>
      </trkpt>
      <trkpt lat="49.43855" lon="1.31232">
        <ele>143</ele>
        <time>2017-07-04T14:30:26Z</time>
      </trkpt>
      <trkpt lat="49.43852" lon="1.3123">
        <ele>143</ele>
        <time>2017-07-04T14:30:26Z</time>
      </trkpt>
      <trkpt lat="49.43849" lon="1.31232">
        <ele>143</ele>
        <time>2017-07-04T14:30:26Z</time>
      </trkpt>
      <trkpt lat="49.43845" lon="1.31229">
        <ele>143</ele>
        <time>2017-07-04T14:30:43Z</time>
      </trkpt>
      <trkpt lat="49.4384" lon="1.31227">
        <ele>143</ele>
        <time>2017-07-04T14:30:43Z</time>
      </trkpt>
      <trkpt lat="49.43834" lon="1.31227">
        <ele>143</ele>
        <time>2017-07-04T14:30:43Z</time>
      </trkpt>
      <trkpt lat="49.4383" lon="1.31229">
        <ele>143</ele>
        <time>2017-07-04T14:30:43Z</time>
      </trkpt>
      <trkpt lat="49.43825" lon="1.31232">
        <ele>143</ele>
        <time>2017-07-04T14:30:59Z</time>
      </trkpt>
      <trkpt lat="49.43819" lon="1.31229">
        <ele>143</ele>
        <time>2017-07-04T14:30:59Z</time>
      </trkpt>
      <trkpt lat="49.43813" lon="1.31226">
        <ele>143</ele>
        <time>2017-07-04T14:30:59Z</time>
      </trkpt>
      <trkpt lat="49.43809" lon="1.31224">
        <ele>143</ele>
        <time>2017-07-04T14:30:59Z</time>
      </trkpt>
      <trkpt lat="49.438" lon="1.31223">
        <ele>143</ele>
        <time>2017-07-04T14:31:14Z</time>
      </trkpt>
      <trkpt lat="49.43797" lon="1.31224">
        <ele>143</ele>
        <time>2017-07-04T14:31:14Z</time>
      </trkpt>
      <trkpt lat="49.43792" lon="1.31222">
        <ele>143</ele>
        <time>2017-07-04T14:31:14Z</time>
      </trkpt>
      <trkpt lat="49.4379" lon="1.31222">
        <ele>140</ele>
        <time>2017-07-04T14:31:14Z</time>
      </trkpt>
      <trkpt lat="49.43787" lon="1.3122">
        <ele>140</ele>
        <time>2017-07-04T14:31:31Z</time>
      </trkpt>
      <trkpt lat="49.43785" lon="1.31217">
        <ele>140</ele>
        <time>2017-07-04T14:31:31Z</time>
      </trkpt>
      <trkpt lat="49.43781" lon="1.3122">
        <ele>140</ele>
        <time>2017-07-04T14:31:31Z</time>
      </trkpt>
      <trkpt lat="49.43777" lon="1.31221">
        <ele>140</ele>
        <time>2017-07-04T14:31:31Z</time>
      </trkpt>
      <trkpt lat="49.43771" lon="1.31218">
        <ele>140</ele>
        <time>2017-07-04T14:31:48Z</time>
      </trkpt>
      <trkpt lat="49.43768" lon="1.3122">
        <ele>140</ele>
        <time>2017-07-04T14:31:48Z</time>
      </trkpt>
      <trkpt lat="49.43763" lon="1.31219">
        <ele>140</ele>
        <time>2017-07-04T14:31:48Z</time>
      </trkpt>
      <trkpt lat="49.43758" lon="1.31221">
        <ele>140</ele>
        <time>2017-07-04T14:31:48Z</time>
      </trkpt>
      <trkpt lat="49.43755" lon="1.31222">
        <ele>140</ele>
        <time>2017-07-04T14:32:03Z</time>
      </trkpt>
      <trkpt lat="49.43749" lon="1.31222">
        <ele>140</ele>
        <time>2017-07-04T14:32:03Z</time>
      </trkpt>
      <trkpt lat="49.43742" lon="1.31222">
        <ele>140</ele>
        <time>2017-07-04T14:32:03Z</time>
      </trkpt>
      <trkpt lat="49.43738" lon="1.31223">
        <ele>140</ele>
        <time>2017-07-04T14:32:03Z</time>
      </trkpt>
      <trkpt lat="49.43734" lon="1.3122">
        <ele>140</ele>
        <time>2017-07-04T14:32:19Z</time>
      </trkpt>
      <trkpt lat="49.43731" lon="1.31215">
        <ele>140</ele>
        <time>2017-07-04T14:32:19Z</time>
      </trkpt>
      <trkpt lat="49.43726" lon="1.31215">
        <ele>140</ele>
        <time>2017-07-04T14:32:19Z</time>
      </trkpt>
      <trkpt lat="49.43724" lon="1.31216">
        <ele>140</ele>
        <time>2017-07-04T14:32:19Z</time>
      </trkpt>
      <trkpt lat="49.4372" lon="1.31215">
        <ele>140</ele>
        <time>2017-07-04T14:32:35Z</time>
      </trkpt>
      <trkpt lat="49.43715" lon="1.31213">
        <ele>140</ele>
        <time>2017-07-04T14:32:35Z</time>
      </trkpt>
      <trkpt lat="49.43708" lon="1.3121">
        <ele>140</ele>
        <time>2017-07-04T14:32:35Z</time>
      </trkpt>
      <trkpt lat="49.43704" lon="1.31212">
        <ele>140</ele>
        <time>2017-07-04T14:32:35Z</time>
      </trkpt>
      <trkpt lat="49.43702" lon="1.31215">
        <ele>140</ele>
        <time>2017-07-04T14:32:51Z</time>
      </trkpt>
      <trkpt lat="49.43697" lon="1.31216">
        <ele>140</ele>
        <time>2017-07-04T14:32:51Z</time>
      </trkpt>
      <trkpt lat="49.43693" lon="1.31218">
        <ele>140</ele>
        <time>2017-07-04T14:32:51Z</time>
      </trkpt>
      <trkpt lat="49.43686" lon="1.31214">
        <ele>140</ele>
        <time>2017-07-04T14:32:51Z</time>
      </trkpt>
      <trkpt lat="49.43682" lon="1.31212">
        <ele>140</ele>
        <time>2017-07-04T14:33:08Z</time>
      </trkpt>
      <trkpt lat="49.43678" lon="1.31211">
        <ele>140</ele>
        <time>2017-07-04T14:33:08Z</time>
      </trkpt>
      <trkpt lat="49.43674" lon="1.31211">
        <ele>140</ele>
        <time>2017-07-04T14:33:08Z</time>
      </trkpt>
      <trkpt lat="49.43667" lon="1.31209">
        <ele>140</ele>
        <time>2017-07-04T14:33:08Z</time>
      </trkpt>
      <trkpt lat="49.43664" lon="1.3121">
        <ele>140</ele>
        <time>2017-07-04T14:33:24Z</time>
      </trkpt>
      <trkpt lat="49.43659" lon="1.3121">
        <ele>140</ele>
        <time>2017-07-04T14:33:24Z</time>
      </trkpt>
      <trkpt lat="49.43656" lon="1.31209">
        <ele>140</ele>
        <time>2017-07-04T14:33:24Z</time>
      </trkpt>
      <trkpt lat="49.43653" lon="1.31205">
        <ele>140</ele>
        <time>2017-07-04T14:33:24Z</time>
      </trkpt>
      <trkpt lat="49.43649" lon="1.31206">
        <ele>140</ele>
        <time>2017-07-04T14:33:38Z</time>
      </trkpt>
      <trkpt lat="49.43642" lon="1.31205">
        <ele>140</ele>
        <time>2017-07-04T14:33:38Z</time>
      </trkpt>
      <trkpt lat="49.43637" lon="1.31207">
        <ele>140</ele>
        <time>2017-07-04T14:33:38Z</time>
      </trkpt>
      <trkpt lat="49.43635" lon="1.31206">
        <ele>140</ele>
        <time>2017-07-04T14:33:38Z</time>
      </trkpt>
      <trkpt lat="49.43629" lon="1.31204">
        <ele>140</ele>
        <time>2017-07-04T14:33:55Z</time>
      </trkpt>
      <trkpt lat="49.43626" lon="1.31207">
        <ele>140</ele>
        <time>2017-07-04T14:33:55Z</time>
      </trkpt>
      <trkpt lat="49.43624" lon="1.31206">
        <ele>142</ele>
        <time>2017-07-04T14:33:55Z</time>
      </trkpt>
      <trkpt lat="49.4362" lon="1.31203">
        <ele>142</ele>
        <time>2017-07-04T14:33:55Z</time>
      </trkpt>
      <trkpt lat="49.43613" lon="1.312">
        <ele>142</ele>
        <time>2017-07-04T14:34:11Z</time>
      </trkpt>
      <trkpt lat="49.43608" lon="1.31197">
        <ele>142</ele>
        <time>2017-07-04T14:34:11Z</time>
      </trkpt>
      <trkpt lat="49.43605" lon="1.31198">
        <ele>142</ele>
        <time>2017-07-04T14:34:11Z</time>
      </trkpt>
      <trkpt lat="49.43601" lon="1.31196">
        <ele>142</ele>
        <time>2017-07-04T14:34:11Z</time>
      </trkpt>
      <trkpt lat="49.4359" lon="1.31192">
        <ele>142</ele>
        <time>2017-07-04T14:35:59Z</time>
      </trkpt>
      <trkpt lat="49.4359" lon="1.31192">
        <ele>142</ele>
        <time>2017-07-04T14:35:59Z</time>
      </trkpt>
      <trkpt lat="49.4359" lon="1.31192">
        <ele>142</ele>
        <time>2017-07-04T14:35:59Z</time>
      </trkpt>
      <trkpt lat="49.4359" lon="1.31192">
        <ele>142</ele>
        <time>2017-07-04T14:35:59Z</time>
      </trkpt>
      <trkpt lat="49.43602" lon="1.31214">
        <ele>140</ele>
        <time>2017-07-04T14:35:59Z</time>
      </trkpt>
      <trkpt lat="49.43581" lon="1.31261">
        <ele>140</ele>
        <time>2017-07-04T14:36:16Z</time>
      </trkpt>
      <trkpt lat="49.43581" lon="1.31267">
        <ele>140</ele>
        <time>2017-07-04T14:36:16Z</time>
      </trkpt>
      <trkpt lat="49.43582" lon="1.31273">
        <ele>140</ele>
        <time>2017-07-04T14:36:16Z</time>
      </trkpt>
      <trkpt lat="49.43582" lon="1.31279">
        <ele>140</ele>
        <time>2017-07-04T14:36:16Z</time>
      </trkpt>
      <trkpt lat="49.43582" lon="1.31284">
        <ele>140</ele>
        <time>2017-07-04T14:36:31Z</time>
      </trkpt>
      <trkpt lat="49.43582" lon="1.31292">
        <ele>138</ele>
        <time>2017-07-04T14:36:31Z</time>
      </trkpt>
      <trkpt lat="49.43583" lon="1.31297">
        <ele>138</ele>
        <time>2017-07-04T14:36:31Z</time>
      </trkpt>
      <trkpt lat="49.43583" lon="1.31307">
        <ele>138</ele>
        <time>2017-07-04T14:36:31Z</time>
      </trkpt>
      <trkpt lat="49.43583" lon="1.31316">
        <ele>138</ele>
        <time>2017-07-04T14:36:47Z</time>
      </trkpt>
      <trkpt lat="49.43582" lon="1.31323">
        <ele>138</ele>
        <time>2017-07-04T14:36:47Z</time>
      </trkpt>
      <trkpt lat="49.43582" lon="1.31331">
        <ele>138</ele>
        <time>2017-07-04T14:36:47Z</time>
      </trkpt>
      <trkpt lat="49.43582" lon="1.31341">
        <ele>138</ele>
        <time>2017-07-04T14:36:47Z</time>
      </trkpt>
      <trkpt lat="49.43581" lon="1.31349">
        <ele>138</ele>
        <time>2017-07-04T14:37:03Z</time>
      </trkpt>
      <trkpt lat="49.4358" lon="1.31358">
        <ele>138</ele>
        <time>2017-07-04T14:37:03Z</time>
      </trkpt>
      <trkpt lat="49.4358" lon="1.31363">
        <ele>138</ele>
        <time>2017-07-04T14:37:03Z</time>
      </trkpt>
      <trkpt lat="49.4358" lon="1.31371">
        <ele>138</ele>
        <time>2017-07-04T14:37:03Z</time>
      </trkpt>
      <trkpt lat="49.43579" lon="1.31378">
        <ele>138</ele>
        <time>2017-07-04T14:37:19Z</time>
      </trkpt>
      <trkpt lat="49.43579" lon="1.31387">
        <ele>138</ele>
        <time>2017-07-04T14:37:19Z</time>
      </trkpt>
      <trkpt lat="49.43578" lon="1.31396">
        <ele>138</ele>
        <time>2017-07-04T14:37:19Z</time>
      </trkpt>
      <trkpt lat="49.43578" lon="1.31403">
        <ele>138</ele>
        <time>2017-07-04T14:37:19Z</time>
      </trkpt>
      <trkpt lat="49.43578" lon="1.31413">
        <ele>138</ele>
        <time>2017-07-04T14:37:34Z</time>
      </trkpt>
      <trkpt lat="49.43577" lon="1.3142">
        <ele>138</ele>
        <time>2017-07-04T14:37:34Z</time>
      </trkpt>
      <trkpt lat="49.43576" lon="1.31428">
        <ele>138</ele>
        <time>2017-07-04T14:37:34Z</time>
      </trkpt>
      <trkpt lat="49.43575" lon="1.31433">
        <ele>138</ele>
        <time>2017-07-04T14:37:34Z</time>
      </trkpt>
      <trkpt lat="49.43573" lon="1.31442">
        <ele>138</ele>
        <time>2017-07-04T14:37:51Z</time>
      </trkpt>
      <trkpt lat="49.43571" lon="1.31449">
        <ele>138</ele>
        <time>2017-07-04T14:37:51Z</time>
      </trkpt>
      <trkpt lat="49.4357" lon="1.31455">
        <ele>138</ele>
        <time>2017-07-04T14:37:51Z</time>
      </trkpt>
      <trkpt lat="49.43569" lon="1.31462">
        <ele>137</ele>
        <time>2017-07-04T14:37:51Z</time>
      </trkpt>
      <trkpt lat="49.43569" lon="1.31473">
        <ele>137</ele>
        <time>2017-07-04T14:38:07Z</time>
      </trkpt>
      <trkpt lat="49.43569" lon="1.31479">
        <ele>137</ele>
        <time>2017-07-04T14:38:07Z</time>
      </trkpt>
      <trkpt lat="49.43568" lon="1.31487">
        <ele>137</ele>
        <time>2017-07-04T14:38:07Z</time>
      </trkpt>
      <trkpt lat="49.43567" lon="1.31494">
        <ele>137</ele>
        <time>2017-07-04T14:38:07Z</time>
      </trkpt>
      <trkpt lat="49.43565" lon="1.31506">
        <ele>137</ele>
        <time>2017-07-04T14:38:23Z</time>
      </trkpt>
      <trkpt lat="49.43565" lon="1.31515">
        <ele>137</ele>
        <time>2017-07-04T14:38:23Z</time>
      </trkpt>
      <trkpt lat="49.43565" lon="1.31522">
        <ele>137</ele>
        <time>2017-07-04T14:38:23Z</time>
      </trkpt>
      <trkpt lat="49.43563" lon="1.31531">
        <ele>137</ele>
        <time>2017-07-04T14:38:23Z</time>
      </trkpt>
      <trkpt lat="49.43561" lon="1.3154">
        <ele>137</ele>
        <time>2017-07-04T14:38:39Z</time>
      </trkpt>
      <trkpt lat="49.4356" lon="1.31548">
        <ele>135</ele>
        <time>2017-07-04T14:38:39Z</time>
      </trkpt>
      <trkpt lat="49.4356" lon="1.31554">
        <ele>135</ele>
        <time>2017-07-04T14:38:39Z</time>
      </trkpt>
      <trkpt lat="49.4356" lon="1.31562">
        <ele>135</ele>
        <time>2017-07-04T14:38:39Z</time>
      </trkpt>
      <trkpt lat="49.43559" lon="1.31571">
        <ele>135</ele>
        <time>2017-07-04T14:38:55Z</time>
      </trkpt>
      <trkpt lat="49.4356" lon="1.31578">
        <ele>135</ele>
        <time>2017-07-04T14:38:55Z</time>
      </trkpt>
      <trkpt lat="49.43561" lon="1.31585">
        <ele>135</ele>
        <time>2017-07-04T14:38:55Z</time>
      </trkpt>
      <trkpt lat="49.43562" lon="1.31598">
        <ele>135</ele>
        <time>2017-07-04T14:38:55Z</time>
      </trkpt>
      <trkpt lat="49.43563" lon="1.31603">
        <ele>135</ele>
        <time>2017-07-04T14:39:11Z</time>
      </trkpt>
      <trkpt lat="49.43563" lon="1.31611">
        <ele>135</ele>
        <time>2017-07-04T14:39:11Z</time>
      </trkpt>
      <trkpt lat="49.43564" lon="1.3162">
        <ele>135</ele>
        <time>2017-07-04T14:39:11Z</time>
      </trkpt>
      <trkpt lat="49.43564" lon="1.31626">
        <ele>133</ele>
        <time>2017-07-04T14:39:11Z</time>
      </trkpt>
      <trkpt lat="49.43565" lon="1.31634">
        <ele>133</ele>
        <time>2017-07-04T14:39:26Z</time>
      </trkpt>
      <trkpt lat="49.43566" lon="1.31642">
        <ele>133</ele>
        <time>2017-07-04T14:39:26Z</time>
      </trkpt>
      <trkpt lat="49.43567" lon="1.31651">
        <ele>133</ele>
        <time>2017-07-04T14:39:26Z</time>
      </trkpt>
      <trkpt lat="49.43568" lon="1.31659">
        <ele>133</ele>
        <time>2017-07-04T14:39:26Z</time>
      </trkpt>
      <trkpt lat="49.43569" lon="1.31667">
        <ele>133</ele>
        <time>2017-07-04T14:39:42Z</time>
      </trkpt>
      <trkpt lat="49.43568" lon="1.31676">
        <ele>133</ele>
        <time>2017-07-04T14:39:42Z</time>
      </trkpt>
      <trkpt lat="49.43568" lon="1.31683">
        <ele>133</ele>
        <time>2017-07-04T14:39:42Z</time>
      </trkpt>
      <trkpt lat="49.43568" lon="1.31689">
        <ele>133</ele>
        <time>2017-07-04T14:39:42Z</time>
      </trkpt>
      <trkpt lat="49.43569" lon="1.31696">
        <ele>133</ele>
        <time>2017-07-04T14:39:59Z</time>
      </trkpt>
      <trkpt lat="49.43571" lon="1.31704">
        <ele>133</ele>
        <time>2017-07-04T14:39:59Z</time>
      </trkpt>
      <trkpt lat="49.43571" lon="1.31713">
        <ele>133</ele>
        <time>2017-07-04T14:39:59Z</time>
      </trkpt>
      <trkpt lat="49.43571" lon="1.31719">
        <ele>133</ele>
        <time>2017-07-04T14:39:59Z</time>
      </trkpt>
      <trkpt lat="49.43568" lon="1.31728">
        <ele>133</ele>
        <time>2017-07-04T14:40:15Z</time>
      </trkpt>
      <trkpt lat="49.43567" lon="1.31733">
        <ele>133</ele>
        <time>2017-07-04T14:40:15Z</time>
      </trkpt>
      <trkpt lat="49.43564" lon="1.31741">
        <ele>133</ele>
        <time>2017-07-04T14:40:15Z</time>
      </trkpt>
      <trkpt lat="49.43563" lon="1.31746">
        <ele>133</ele>
        <time>2017-07-04T14:40:15Z</time>
      </trkpt>
      <trkpt lat="49.43561" lon="1.31753">
        <ele>133</ele>
        <time>2017-07-04T14:40:32Z</time>
      </trkpt>
      <trkpt lat="49.43549" lon="1.31773">
        <ele>133</ele>
        <time>2017-07-04T14:40:32Z</time>
      </trkpt>
      <trkpt lat="49.43558" lon="1.31786">
        <ele>133</ele>
        <time>2017-07-04T14:40:32Z</time>
      </trkpt>
      <trkpt lat="49.43559" lon="1.31791">
        <ele>133</ele>
        <time>2017-07-04T14:40:32Z</time>
      </trkpt>
      <trkpt lat="49.43559" lon="1.31795">
        <ele>134</ele>
        <time>2017-07-04T14:40:47Z</time>
      </trkpt>
      <trkpt lat="49.4356" lon="1.31803">
        <ele>134</ele>
        <time>2017-07-04T14:40:47Z</time>
      </trkpt>
      <trkpt lat="49.43559" lon="1.31811">
        <ele>134</ele>
        <time>2017-07-04T14:40:47Z</time>
      </trkpt>
      <trkpt lat="49.43561" lon="1.31817">
        <ele>134</ele>
        <time>2017-07-04T14:40:47Z</time>
      </trkpt>
      <trkpt lat="49.43563" lon="1.31822">
        <ele>134</ele>
        <time>2017-07-04T14:41:04Z</time>
      </trkpt>
      <trkpt lat="49.43563" lon="1.31832">
        <ele>134</ele>
        <time>2017-07-04T14:41:04Z</time>
      </trkpt>
      <trkpt lat="49.43563" lon="1.3184">
        <ele>134</ele>
        <time>2017-07-04T14:41:04Z</time>
      </trkpt>
      <trkpt lat="49.43564" lon="1.31849">
        <ele>134</ele>
        <time>2017-07-04T14:41:04Z</time>
      </trkpt>
      <trkpt lat="49.43563" lon="1.31853">
        <ele>134</ele>
        <time>2017-07-04T14:41:19Z</time>
      </trkpt>
      <trkpt lat="49.43561" lon="1.31861">
        <ele>134</ele>
        <time>2017-07-04T14:41:19Z</time>
      </trkpt>
      <trkpt lat="49.43559" lon="1.31866">
        <ele>134</ele>
        <time>2017-07-04T14:41:19Z</time>
      </trkpt>
      <trkpt lat="49.43558" lon="1.31873">
        <ele>134</ele>
        <time>2017-07-04T14:41:19Z</time>
      </trkpt>
      <trkpt lat="49.43558" lon="1.3188">
        <ele>135</ele>
        <time>2017-07-04T14:41:35Z</time>
      </trkpt>
      <trkpt lat="49.43556" lon="1.31889">
        <ele>135</ele>
        <time>2017-07-04T14:41:35Z</time>
      </trkpt>
      <trkpt lat="49.43554" lon="1.319">
        <ele>135</ele>
        <time>2017-07-04T14:41:35Z</time>
      </trkpt>
      <trkpt lat="49.43551" lon="1.31906">
        <ele>135</ele>
        <time>2017-07-04T14:41:35Z</time>
      </trkpt>
      <trkpt lat="49.43548" lon="1.31912">
        <ele>135</ele>
        <time>2017-07-04T14:41:51Z</time>
      </trkpt>
      <trkpt lat="49.43546" lon="1.31917">
        <ele>135</ele>
        <time>2017-07-04T14:41:51Z</time>
      </trkpt>
      <trkpt lat="49.43543" lon="1.31923">
        <ele>135</ele>
        <time>2017-07-04T14:41:51Z</time>
      </trkpt>
      <trkpt lat="49.4354" lon="1.31929">
        <ele>130</ele>
        <time>2017-07-04T14:41:51Z</time>
      </trkpt>
      <trkpt lat="49.43538" lon="1.31942">
        <ele>130</ele>
        <time>2017-07-04T14:42:08Z</time>
      </trkpt>
      <trkpt lat="49.43535" lon="1.31949">
        <ele>130</ele>
        <time>2017-07-04T14:42:08Z</time>
      </trkpt>
      <trkpt lat="49.43534" lon="1.31959">
        <ele>129</ele>
        <time>2017-07-04T14:42:08Z</time>
      </trkpt>
      <trkpt lat="49.43533" lon="1.31967">
        <ele>129</ele>
        <time>2017-07-04T14:42:08Z</time>
      </trkpt>
      <trkpt lat="49.43531" lon="1.31972">
        <ele>129</ele>
        <time>2017-07-04T14:42:22Z</time>
      </trkpt>
      <trkpt lat="49.4353" lon="1.31979">
        <ele>129</ele>
        <time>2017-07-04T14:42:22Z</time>
      </trkpt>
      <trkpt lat="49.43529" lon="1.31987">
        <ele>129</ele>
        <time>2017-07-04T14:42:22Z</time>
      </trkpt>
      <trkpt lat="49.43527" lon="1.31994">
        <ele>129</ele>
        <time>2017-07-04T14:42:22Z</time>
      </trkpt>
      <trkpt lat="49.43524" lon="1.32">
        <ele>129</ele>
        <time>2017-07-04T14:42:39Z</time>
      </trkpt>
      <trkpt lat="49.43522" lon="1.32007">
        <ele>129</ele>
        <time>2017-07-04T14:42:39Z</time>
      </trkpt>
      <trkpt lat="49.4352" lon="1.32014">
        <ele>129</ele>
        <time>2017-07-04T14:42:39Z</time>
      </trkpt>
      <trkpt lat="49.43518" lon="1.32021">
        <ele>129</ele>
        <time>2017-07-04T14:42:39Z</time>
      </trkpt>
      <trkpt lat="49.43517" lon="1.3203">
        <ele>129</ele>
        <time>2017-07-04T14:42:55Z</time>
      </trkpt>
      <trkpt lat="49.43519" lon="1.32037">
        <ele>129</ele>
        <time>2017-07-04T14:42:55Z</time>
      </trkpt>
      <trkpt lat="49.43518" lon="1.32047">
        <ele>132</ele>
        <time>2017-07-04T14:42:55Z</time>
      </trkpt>
      <trkpt lat="49.43517" lon="1.32052">
        <ele>132</ele>
        <time>2017-07-04T14:42:55Z</time>
      </trkpt>
      <trkpt lat="49.43516" lon="1.32059">
        <ele>132</ele>
        <time>2017-07-04T14:43:12Z</time>
      </trkpt>
      <trkpt lat="49.43516" lon="1.32061">
        <ele>132</ele>
        <time>2017-07-04T14:43:12Z</time>
      </trkpt>
      <trkpt lat="49.43513" lon="1.32068">
        <ele>132</ele>
        <time>2017-07-04T14:43:12Z</time>
      </trkpt>
      <trkpt lat="49.4351" lon="1.32073">
        <ele>132</ele>
        <time>2017-07-04T14:43:12Z</time>
      </trkpt>
      <trkpt lat="49.43507" lon="1.32076">
        <ele>132</ele>
        <time>2017-07-04T14:43:26Z</time>
      </trkpt>
      <trkpt lat="49.43503" lon="1.32082">
        <ele>132</ele>
        <time>2017-07-04T14:43:26Z</time>
      </trkpt>
      <trkpt lat="49.43498" lon="1.32088">
        <ele>132</ele>
        <time>2017-07-04T14:43:26Z</time>
      </trkpt>
      <trkpt lat="49.43495" lon="1.32091">
        <ele>132</ele>
        <time>2017-07-04T14:43:26Z</time>
      </trkpt>
      <trkpt lat="49.43488" lon="1.32091">
        <ele>132</ele>
        <time>2017-07-04T14:46:39Z</time>
      </trkpt>
      <trkpt lat="49.43488" lon="1.32091">
        <ele>132</ele>
        <time>2017-07-04T14:46:39Z</time>
      </trkpt>
      <trkpt lat="49.43488" lon="1.32091">
        <ele>132</ele>
        <time>2017-07-04T14:46:39Z</time>
      </trkpt>
      <trkpt lat="49.43488" lon="1.32091">
        <ele>132</ele>
        <time>2017-07-04T14:46:40Z</time>
      </trkpt>
      <trkpt lat="49.43482" lon="1.32101">
        <ele>132</ele>
        <time>2017-07-04T14:46:40Z</time>
      </trkpt>
      <trkpt lat="49.43478" lon="1.32105">
        <ele>132</ele>
        <time>2017-07-04T14:46:55Z</time>
      </trkpt>
      <trkpt lat="49.43474" lon="1.3211">
        <ele>132</ele>
        <time>2017-07-04T14:46:55Z</time>
      </trkpt>
      <trkpt lat="49.43469" lon="1.32118">
        <ele>132</ele>
        <time>2017-07-04T14:46:55Z</time>
      </trkpt>
      <trkpt lat="49.43463" lon="1.32126">
        <ele>134</ele>
        <time>2017-07-04T14:46:55Z</time>
      </trkpt>
      <trkpt lat="49.43458" lon="1.32133">
        <ele>134</ele>
        <time>2017-07-04T14:47:11Z</time>
      </trkpt>
      <trkpt lat="49.43458" lon="1.32139">
        <ele>131</ele>
        <time>2017-07-04T14:47:11Z</time>
      </trkpt>
      <trkpt lat="49.43454" lon="1.32148">
        <ele>131</ele>
        <time>2017-07-04T14:47:11Z</time>
      </trkpt>
      <trkpt lat="49.43452" lon="1.32152">
        <ele>131</ele>
        <time>2017-07-04T14:47:11Z</time>
      </trkpt>
      <trkpt lat="49.43447" lon="1.32156">
        <ele>131</ele>
        <time>2017-07-04T14:47:27Z</time>
      </trkpt>
      <trkpt lat="49.43443" lon="1.32159">
        <ele>131</ele>
        <time>2017-07-04T14:47:27Z</time>
      </trkpt>
      <trkpt lat="49.43439" lon="1.32163">
        <ele>131</ele>
        <time>2017-07-04T14:47:27Z</time>
      </trkpt>
      <trkpt lat="49.43435" lon="1.32167">
        <ele>131</ele>
        <time>2017-07-04T14:47:27Z</time>
      </trkpt>
      <trkpt lat="49.4343" lon="1.32172">
        <ele>131</ele>
        <time>2017-07-04T14:47:44Z</time>
      </trkpt>
      <trkpt lat="49.43426" lon="1.32175">
        <ele>131</ele>
        <time>2017-07-04T14:47:44Z</time>
      </trkpt>
      <trkpt lat="49.43423" lon="1.32187">
        <ele>131</ele>
        <time>2017-07-04T14:47:44Z</time>
      </trkpt>
      <trkpt lat="49.43422" lon="1.32205">
        <ele>131</ele>
        <time>2017-07-04T14:47:44Z</time>
      </trkpt>
      <trkpt lat="49.43421" lon="1.32211">
        <ele>133</ele>
        <time>2017-07-04T14:47:59Z</time>
      </trkpt>
      <trkpt lat="49.43421" lon="1.32222">
        <ele>133</ele>
        <time>2017-07-04T14:47:59Z</time>
      </trkpt>
      <trkpt lat="49.43418" lon="1.32228">
        <ele>133</ele>
        <time>2017-07-04T14:47:59Z</time>
      </trkpt>
      <trkpt lat="49.43414" lon="1.32238">
        <ele>133</ele>
        <time>2017-07-04T14:47:59Z</time>
      </trkpt>
      <trkpt lat="49.43413" lon="1.32245">
        <ele>133</ele>
        <time>2017-07-04T14:48:14Z</time>
      </trkpt>
      <trkpt lat="49.4341" lon="1.32255">
        <ele>133</ele>
        <time>2017-07-04T14:48:14Z</time>
      </trkpt>
      <trkpt lat="49.43408" lon="1.32259">
        <ele>133</ele>
        <time>2017-07-04T14:48:14Z</time>
      </trkpt>
      <trkpt lat="49.43406" lon="1.32265">
        <ele>133</ele>
        <time>2017-07-04T14:48:14Z</time>
      </trkpt>
      <trkpt lat="49.43404" lon="1.32272">
        <ele>133</ele>
        <time>2017-07-04T14:48:32Z</time>
      </trkpt>
      <trkpt lat="49.43401" lon="1.32283">
        <ele>133</ele>
        <time>2017-07-04T14:48:32Z</time>
      </trkpt>
      <trkpt lat="49.43399" lon="1.32288">
        <ele>133</ele>
        <time>2017-07-04T14:48:32Z</time>
      </trkpt>
      <trkpt lat="49.43395" lon="1.32298">
        <ele>133</ele>
        <time>2017-07-04T14:48:32Z</time>
      </trkpt>
      <trkpt lat="49.43394" lon="1.32303">
        <ele>133</ele>
        <time>2017-07-04T14:48:48Z</time>
      </trkpt>
      <trkpt lat="49.43391" lon="1.32311">
        <ele>133</ele>
        <time>2017-07-04T14:48:48Z</time>
      </trkpt>
      <trkpt lat="49.43389" lon="1.32316">
        <ele>133</ele>
        <time>2017-07-04T14:48:48Z</time>
      </trkpt>
      <trkpt lat="49.43386" lon="1.32324">
        <ele>133</ele>
        <time>2017-07-04T14:48:48Z</time>
      </trkpt>
      <trkpt lat="49.43384" lon="1.32329">
        <ele>133</ele>
        <time>2017-07-04T14:49:03Z</time>
      </trkpt>
      <trkpt lat="49.4338" lon="1.32341">
        <ele>133</ele>
        <time>2017-07-04T14:49:03Z</time>
      </trkpt>
      <trkpt lat="49.4338" lon="1.32346">
        <ele>133</ele>
        <time>2017-07-04T14:49:03Z</time>
      </trkpt>
      <trkpt lat="49.43379" lon="1.32354">
        <ele>133</ele>
        <time>2017-07-04T14:49:03Z</time>
      </trkpt>
      <trkpt lat="49.43378" lon="1.32363">
        <ele>133</ele>
        <time>2017-07-04T14:49:19Z</time>
      </trkpt>
      <trkpt lat="49.43376" lon="1.32368">
        <ele>133</ele>
        <time>2017-07-04T14:49:19Z</time>
      </trkpt>
      <trkpt lat="49.43371" lon="1.32376">
        <ele>126</ele>
        <time>2017-07-04T14:49:19Z</time>
      </trkpt>
      <trkpt lat="49.43367" lon="1.32381">
        <ele>126</ele>
        <time>2017-07-04T14:49:19Z</time>
      </trkpt>
      <trkpt lat="49.43364" lon="1.32387">
        <ele>126</ele>
        <time>2017-07-04T14:49:35Z</time>
      </trkpt>
      <trkpt lat="49.43362" lon="1.32392">
        <ele>126</ele>
        <time>2017-07-04T14:49:35Z</time>
      </trkpt>
      <trkpt lat="49.4336" lon="1.32402">
        <ele>126</ele>
        <time>2017-07-04T14:49:35Z</time>
      </trkpt>
      <trkpt lat="49.43358" lon="1.32408">
        <ele>126</ele>
        <time>2017-07-04T14:49:35Z</time>
      </trkpt>
      <trkpt lat="49.43355" lon="1.32416">
        <ele>126</ele>
        <time>2017-07-04T14:49:52Z</time>
      </trkpt>
      <trkpt lat="49.43356" lon="1.32424">
        <ele>126</ele>
        <time>2017-07-04T14:49:52Z</time>
      </trkpt>
      <trkpt lat="49.43361" lon="1.32434">
        <ele>126</ele>
        <time>2017-07-04T14:49:52Z</time>
      </trkpt>
      <trkpt lat="49.43362" lon="1.32446">
        <ele>126</ele>
        <time>2017-07-04T14:49:52Z</time>
      </trkpt>
      <trkpt lat="49.43361" lon="1.32453">
        <ele>126</ele>
        <time>2017-07-04T14:50:07Z</time>
      </trkpt>
      <trkpt lat="49.43363" lon="1.32468">
        <ele>124</ele>
        <time>2017-07-04T14:50:07Z</time>
      </trkpt>
      <trkpt lat="49.43365" lon="1.32473">
        <ele>124</ele>
        <time>2017-07-04T14:50:07Z</time>
      </trkpt>
      <trkpt lat="49.43364" lon="1.3248">
        <ele>124</ele>
        <time>2017-07-04T14:50:08Z</time>
      </trkpt>
      <trkpt lat="49.43364" lon="1.32487">
        <ele>124</ele>
        <time>2017-07-04T14:50:23Z</time>
      </trkpt>
      <trkpt lat="49.43362" lon="1.32492">
        <ele>124</ele>
        <time>2017-07-04T14:50:23Z</time>
      </trkpt>
      <trkpt lat="49.43361" lon="1.32495">
        <ele>124</ele>
        <time>2017-07-04T14:50:23Z</time>
      </trkpt>
      <trkpt lat="49.43364" lon="1.32501">
        <ele>124</ele>
        <time>2017-07-04T14:50:23Z</time>
      </trkpt>
      <trkpt lat="49.43363" lon="1.32511">
        <ele>124</ele>
        <time>2017-07-04T14:50:39Z</time>
      </trkpt>
      <trkpt lat="49.4336" lon="1.32519">
        <ele>124</ele>
        <time>2017-07-04T14:50:39Z</time>
      </trkpt>
      <trkpt lat="49.43359" lon="1.32524">
        <ele>124</ele>
        <time>2017-07-04T14:50:39Z</time>
      </trkpt>
      <trkpt lat="49.4336" lon="1.32534">
        <ele>124</ele>
        <time>2017-07-04T14:50:39Z</time>
      </trkpt>
      <trkpt lat="49.43361" lon="1.32549">
        <ele>120</ele>
        <time>2017-07-04T14:50:55Z</time>
      </trkpt>
      <trkpt lat="49.4336" lon="1.32558">
        <ele>120</ele>
        <time>2017-07-04T14:50:55Z</time>
      </trkpt>
      <trkpt lat="49.43361" lon="1.32566">
        <ele>120</ele>
        <time>2017-07-04T14:50:55Z</time>
      </trkpt>
      <trkpt lat="49.43362" lon="1.32573">
        <ele>120</ele>
        <time>2017-07-04T14:50:55Z</time>
      </trkpt>
      <trkpt lat="49.43361" lon="1.3258">
        <ele>120</ele>
        <time>2017-07-04T14:51:10Z</time>
      </trkpt>
      <trkpt lat="49.43359" lon="1.32587">
        <ele>120</ele>
        <time>2017-07-04T14:51:10Z</time>
      </trkpt>
      <trkpt lat="49.43359" lon="1.32598">
        <ele>120</ele>
        <time>2017-07-04T14:51:10Z</time>
      </trkpt>
      <trkpt lat="49.43359" lon="1.32602">
        <ele>120</ele>
        <time>2017-07-04T14:51:10Z</time>
      </trkpt>
      <trkpt lat="49.43359" lon="1.32613">
        <ele>120</ele>
        <time>2017-07-04T14:51:27Z</time>
      </trkpt>
      <trkpt lat="49.43358" lon="1.32619">
        <ele>120</ele>
        <time>2017-07-04T14:51:27Z</time>
      </trkpt>
      <trkpt lat="49.43357" lon="1.32624">
        <ele>120</ele>
        <time>2017-07-04T14:51:27Z</time>
      </trkpt>
      <trkpt lat="49.43358" lon="1.32629">
        <ele>116</ele>
        <time>2017-07-04T14:51:27Z</time>
      </trkpt>
      <trkpt lat="49.43358" lon="1.32637">
        <ele>116</ele>
        <time>2017-07-04T14:51:43Z</time>
      </trkpt>
      <trkpt lat="49.43356" lon="1.32649">
        <ele>116</ele>
        <time>2017-07-04T14:51:43Z</time>
      </trkpt>
      <trkpt lat="49.43355" lon="1.32658">
        <ele>116</ele>
        <time>2017-07-04T14:51:43Z</time>
      </trkpt>
      <trkpt lat="49.43355" lon="1.32664">
        <ele>116</ele>
        <time>2017-07-04T14:51:43Z</time>
      </trkpt>
      <trkpt lat="49.43356" lon="1.3267">
        <ele>116</ele>
        <time>2017-07-04T14:51:59Z</time>
      </trkpt>
      <trkpt lat="49.43357" lon="1.3268">
        <ele>116</ele>
        <time>2017-07-04T14:51:59Z</time>
      </trkpt>
      <trkpt lat="49.43357" lon="1.32689">
        <ele>116</ele>
        <time>2017-07-04T14:51:59Z</time>
      </trkpt>
      <trkpt lat="49.43355" lon="1.32697">
        <ele>116</ele>
        <time>2017-07-04T14:51:59Z</time>
      </trkpt>
      <trkpt lat="49.43353" lon="1.32705">
        <ele>116</ele>
        <time>2017-07-04T14:52:15Z</time>
      </trkpt>
      <trkpt lat="49.43353" lon="1.32713">
        <ele>118</ele>
        <time>2017-07-04T14:52:15Z</time>
      </trkpt>
      <trkpt lat="49.43356" lon="1.32721">
        <ele>118</ele>
        <time>2017-07-04T14:52:15Z</time>
      </trkpt>
      <trkpt lat="49.43356" lon="1.32724">
        <ele>118</ele>
        <time>2017-07-04T14:52:15Z</time>
      </trkpt>
      <trkpt lat="49.43356" lon="1.32731">
        <ele>118</ele>
        <time>2017-07-04T14:52:31Z</time>
      </trkpt>
      <trkpt lat="49.43355" lon="1.32738">
        <ele>118</ele>
        <time>2017-07-04T14:52:31Z</time>
      </trkpt>
      <trkpt lat="49.43354" lon="1.32751">
        <ele>118</ele>
        <time>2017-07-04T14:52:31Z</time>
      </trkpt>
      <trkpt lat="49.43355" lon="1.32757">
        <ele>118</ele>
        <time>2017-07-04T14:52:31Z</time>
      </trkpt>
      <trkpt lat="49.43355" lon="1.32768">
        <ele>118</ele>
        <time>2017-07-04T14:52:47Z</time>
      </trkpt>
      <trkpt lat="49.43356" lon="1.32772">
        <ele>118</ele>
        <time>2017-07-04T14:52:47Z</time>
      </trkpt>
      <trkpt lat="49.43357" lon="1.32777">
        <ele>118</ele>
        <time>2017-07-04T14:52:47Z</time>
      </trkpt>
      <trkpt lat="49.43356" lon="1.32784">
        <ele>118</ele>
        <time>2017-07-04T14:52:47Z</time>
      </trkpt>
      <trkpt lat="49.43357" lon="1.32787">
        <ele>118</ele>
        <time>2017-07-04T14:53:03Z</time>
      </trkpt>
      <trkpt lat="49.43358" lon="1.32797">
        <ele>121</ele>
        <time>2017-07-04T14:53:03Z</time>
      </trkpt>
      <trkpt lat="49.43359" lon="1.32804">
        <ele>121</ele>
        <time>2017-07-04T14:53:03Z</time>
      </trkpt>
      <trkpt lat="49.43362" lon="1.3281">
        <ele>121</ele>
        <time>2017-07-04T14:53:03Z</time>
      </trkpt>
      <trkpt lat="49.43369" lon="1.32821">
        <ele>121</ele>
        <time>2017-07-04T14:54:30Z</time>
      </trkpt>
      <trkpt lat="49.43371" lon="1.32822">
        <ele>121</ele>
        <time>2017-07-04T14:54:30Z</time>
      </trkpt>
      <trkpt lat="49.43374" lon="1.32822">
        <ele>121</ele>
        <time>2017-07-04T14:54:30Z</time>
      </trkpt>
      <trkpt lat="49.43381" lon="1.32823">
        <ele>131</ele>
        <time>2017-07-04T14:54:30Z</time>
      </trkpt>
      <trkpt lat="49.43383" lon="1.32825">
        <ele>131</ele>
        <time>2017-07-04T14:54:30Z</time>
      </trkpt>
      <trkpt lat="49.43381" lon="1.32827">
        <ele>131</ele>
        <time>2017-07-04T14:54:46Z</time>
      </trkpt>
      <trkpt lat="49.43381" lon="1.32827">
        <ele>131</ele>
        <time>2017-07-04T14:54:46Z</time>
      </trkpt>
      <trkpt lat="49.43394" lon="1.328">
        <ele>131</ele>
        <time>2017-07-04T14:54:46Z</time>
      </trkpt>
      <trkpt lat="49.43395" lon="1.328">
        <ele>131</ele>
        <time>2017-07-04T14:54:46Z</time>
      </trkpt>
      <trkpt lat="49.43395" lon="1.328">
        <ele>131</ele>
        <time>2017-07-04T14:55:14Z</time>
      </trkpt>
      <trkpt lat="49.43395" lon="1.328">
        <ele>131</ele>
        <time>2017-07-04T14:55:14Z</time>
      </trkpt>
      <trkpt lat="49.43395" lon="1.328">
        <ele>131</ele>
        <time>2017-07-04T14:55:14Z</time>
      </trkpt>
      <trkpt lat="49.43394" lon="1.32791">
        <ele>130</ele>
        <time>2017-07-04T14:55:14Z</time>
      </trkpt>
      <trkpt lat="49.43394" lon="1.32784">
        <ele>130</ele>
        <time>2017-07-04T14:55:14Z</time>
      </trkpt>
      <trkpt lat="49.43394" lon="1.32784">
        <ele>130</ele>
        <time>2017-07-04T14:55:58Z</time>
      </trkpt>
      <trkpt lat="49.43394" lon="1.32784">
        <ele>130</ele>
        <time>2017-07-04T14:55:58Z</time>
      </trkpt>
      <trkpt lat="49.43394" lon="1.32785">
        <ele>130</ele>
        <time>2017-07-04T14:55:58Z</time>
      </trkpt>
      <trkpt lat="49.43389" lon="1.32792">
        <ele>131</ele>
        <time>2017-07-04T14:55:58Z</time>
      </trkpt>
      <trkpt lat="49.43386" lon="1.32795">
        <ele>131</ele>
        <time>2017-07-04T14:55:58Z</time>
      </trkpt>
      <trkpt lat="49.43388" lon="1.32794">
        <ele>131</ele>
        <time>2017-07-04T14:56:26Z</time>
      </trkpt>
      <trkpt lat="49.43387" lon="1.32794">
        <ele>131</ele>
        <time>2017-07-04T14:56:26Z</time>
      </trkpt>
      <trkpt lat="49.43387" lon="1.32794">
        <ele>131</ele>
        <time>2017-07-04T14:56:26Z</time>
      </trkpt>
      <trkpt lat="49.43381" lon="1.32829">
        <ele>131</ele>
        <time>2017-07-04T14:56:26Z</time>
      </trkpt>
      <trkpt lat="49.43381" lon="1.32837">
        <ele>131</ele>
        <time>2017-07-04T14:56:42Z</time>
      </trkpt>
      <trkpt lat="49.43383" lon="1.3285">
        <ele>131</ele>
        <time>2017-07-04T14:56:42Z</time>
      </trkpt>
      <trkpt lat="49.43385" lon="1.32853">
        <ele>131</ele>
        <time>2017-07-04T14:56:42Z</time>
      </trkpt>
      <trkpt lat="49.4338" lon="1.32862">
        <ele>131</ele>
        <time>2017-07-04T14:56:43Z</time>
      </trkpt>
      <trkpt lat="49.43376" lon="1.32869">
        <ele>131</ele>
        <time>2017-07-04T14:56:59Z</time>
      </trkpt>
      <trkpt lat="49.43373" lon="1.32876">
        <ele>126</ele>
        <time>2017-07-04T14:56:59Z</time>
      </trkpt>
      <trkpt lat="49.43371" lon="1.32879">
        <ele>126</ele>
        <time>2017-07-04T14:56:59Z</time>
      </trkpt>
      <trkpt lat="49.43368" lon="1.32887">
        <ele>126</ele>
        <time>2017-07-04T14:56:59Z</time>
      </trkpt>
      <trkpt lat="49.43365" lon="1.32889">
        <ele>126</ele>
        <time>2017-07-04T14:57:15Z</time>
      </trkpt>
      <trkpt lat="49.43361" lon="1.32892">
        <ele>126</ele>
        <time>2017-07-04T14:57:15Z</time>
      </trkpt>
      <trkpt lat="49.43358" lon="1.32897">
        <ele>126</ele>
        <time>2017-07-04T14:57:15Z</time>
      </trkpt>
      <trkpt lat="49.43355" lon="1.32903">
        <ele>126</ele>
        <time>2017-07-04T14:57:15Z</time>
      </trkpt>
      <trkpt lat="49.43353" lon="1.32909">
        <ele>126</ele>
        <time>2017-07-04T14:57:31Z</time>
      </trkpt>
      <trkpt lat="49.43349" lon="1.32919">
        <ele>126</ele>
        <time>2017-07-04T14:57:31Z</time>
      </trkpt>
      <trkpt lat="49.43347" lon="1.32922">
        <ele>126</ele>
        <time>2017-07-04T14:57:31Z</time>
      </trkpt>
      <trkpt lat="49.43344" lon="1.32928">
        <ele>126</ele>
        <time>2017-07-04T14:57:31Z</time>
      </trkpt>
      <trkpt lat="49.43341" lon="1.32934">
        <ele>126</ele>
        <time>2017-07-04T14:57:48Z</time>
      </trkpt>
      <trkpt lat="49.43336" lon="1.32942">
        <ele>126</ele>
        <time>2017-07-04T14:57:48Z</time>
      </trkpt>
      <trkpt lat="49.43335" lon="1.32945">
        <ele>126</ele>
        <time>2017-07-04T14:57:48Z</time>
      </trkpt>
      <trkpt lat="49.43331" lon="1.32953">
        <ele>126</ele>
        <time>2017-07-04T14:57:48Z</time>
      </trkpt>
      <trkpt lat="49.43329" lon="1.32957">
        <ele>126</ele>
        <time>2017-07-04T14:58:03Z</time>
      </trkpt>
      <trkpt lat="49.43326" lon="1.32965">
        <ele>131</ele>
        <time>2017-07-04T14:58:03Z</time>
      </trkpt>
      <trkpt lat="49.43324" lon="1.3297">
        <ele>131</ele>
        <time>2017-07-04T14:58:03Z</time>
      </trkpt>
      <trkpt lat="49.43321" lon="1.32977">
        <ele>131</ele>
        <time>2017-07-04T14:58:03Z</time>
      </trkpt>
      <trkpt lat="49.43319" lon="1.32989">
        <ele>131</ele>
        <time>2017-07-04T14:58:31Z</time>
      </trkpt>
      <trkpt lat="49.43313" lon="1.32994">
        <ele>131</ele>
        <time>2017-07-04T14:58:31Z</time>
      </trkpt>
      <trkpt lat="49.43309" lon="1.33002">
        <ele>131</ele>
        <time>2017-07-04T14:58:31Z</time>
      </trkpt>
      <trkpt lat="49.43307" lon="1.33008">
        <ele>131</ele>
        <time>2017-07-04T14:58:31Z</time>
      </trkpt>
      <trkpt lat="49.43304" lon="1.33014">
        <ele>131</ele>
        <time>2017-07-04T14:58:31Z</time>
      </trkpt>
      <trkpt lat="49.43301" lon="1.33022">
        <ele>131</ele>
        <time>2017-07-04T14:58:47Z</time>
      </trkpt>
      <trkpt lat="49.43299" lon="1.33027">
        <ele>131</ele>
        <time>2017-07-04T14:58:47Z</time>
      </trkpt>
      <trkpt lat="49.43296" lon="1.33035">
        <ele>131</ele>
        <time>2017-07-04T14:58:47Z</time>
      </trkpt>
      <trkpt lat="49.43294" lon="1.3304">
        <ele>131</ele>
        <time>2017-07-04T14:58:47Z</time>
      </trkpt>
      <trkpt lat="49.43291" lon="1.33047">
        <ele>127</ele>
        <time>2017-07-04T14:59:03Z</time>
      </trkpt>
      <trkpt lat="49.43289" lon="1.33053">
        <ele>127</ele>
        <time>2017-07-04T14:59:03Z</time>
      </trkpt>
      <trkpt lat="49.43285" lon="1.33061">
        <ele>127</ele>
        <time>2017-07-04T14:59:03Z</time>
      </trkpt>
      <trkpt lat="49.43284" lon="1.33066">
        <ele>127</ele>
        <time>2017-07-04T14:59:03Z</time>
      </trkpt>
      <trkpt lat="49.43281" lon="1.33074">
        <ele>127</ele>
        <time>2017-07-04T14:59:18Z</time>
      </trkpt>
      <trkpt lat="49.43279" lon="1.33081">
        <ele>127</ele>
        <time>2017-07-04T14:59:18Z</time>
      </trkpt>
      <trkpt lat="49.43277" lon="1.33085">
        <ele>127</ele>
        <time>2017-07-04T14:59:18Z</time>
      </trkpt>
      <trkpt lat="49.43276" lon="1.33088">
        <ele>127</ele>
        <time>2017-07-04T14:59:18Z</time>
      </trkpt>
      <trkpt lat="49.43273" lon="1.33095">
        <ele>127</ele>
        <time>2017-07-04T14:59:34Z</time>
      </trkpt>
      <trkpt lat="49.43272" lon="1.33099">
        <ele>127</ele>
        <time>2017-07-04T14:59:34Z</time>
      </trkpt>
      <trkpt lat="49.43269" lon="1.33107">
        <ele>127</ele>
        <time>2017-07-04T14:59:34Z</time>
      </trkpt>
      <trkpt lat="49.43271" lon="1.33111">
        <ele>127</ele>
        <time>2017-07-04T14:59:34Z</time>
      </trkpt>
      <trkpt lat="49.43276" lon="1.33119">
        <ele>127</ele>
        <time>2017-07-04T14:59:51Z</time>
      </trkpt>
      <trkpt lat="49.4328" lon="1.33121">
        <ele>127</ele>
        <time>2017-07-04T14:59:51Z</time>
      </trkpt>
      <trkpt lat="49.43284" lon="1.33127">
        <ele>130</ele>
        <time>2017-07-04T14:59:51Z</time>
      </trkpt>
      <trkpt lat="49.43286" lon="1.33131">
        <ele>130</ele>
        <time>2017-07-04T14:59:51Z</time>
      </trkpt>
      <trkpt lat="49.43289" lon="1.33134">
        <ele>130</ele>
        <time>2017-07-04T15:00:08Z</time>
      </trkpt>
      <trkpt lat="49.43296" lon="1.3314">
        <ele>134</ele>
        <time>2017-07-04T15:00:08Z</time>
      </trkpt>
      <trkpt lat="49.43299" lon="1.33142">
        <ele>134</ele>
        <time>2017-07-04T15:00:08Z</time>
      </trkpt>
      <trkpt lat="49.43303" lon="1.33145">
        <ele>134</ele>
        <time>2017-07-04T15:00:08Z</time>
      </trkpt>
      <trkpt lat="49.43306" lon="1.33147">
        <ele>134</ele>
        <time>2017-07-04T15:00:23Z</time>
      </trkpt>
      <trkpt lat="49.43309" lon="1.3315">
        <ele>134</ele>
        <time>2017-07-04T15:00:23Z</time>
      </trkpt>
      <trkpt lat="49.43316" lon="1.3315">
        <ele>134</ele>
        <time>2017-07-04T15:00:23Z</time>
      </trkpt>
      <trkpt lat="49.4332" lon="1.33155">
        <ele>134</ele>
        <time>2017-07-04T15:00:23Z</time>
      </trkpt>
      <trkpt lat="49.43323" lon="1.3316">
        <ele>134</ele>
        <time>2017-07-04T15:00:40Z</time>
      </trkpt>
      <trkpt lat="49.43326" lon="1.33164">
        <ele>134</ele>
        <time>2017-07-04T15:00:40Z</time>
      </trkpt>
      <trkpt lat="49.4333" lon="1.33167">
        <ele>134</ele>
        <time>2017-07-04T15:00:40Z</time>
      </trkpt>
      <trkpt lat="49.43337" lon="1.3317">
        <ele>134</ele>
        <time>2017-07-04T15:00:40Z</time>
      </trkpt>
      <trkpt lat="49.43339" lon="1.33167">
        <ele>134</ele>
        <time>2017-07-04T15:00:56Z</time>
      </trkpt>
      <trkpt lat="49.43345" lon="1.33168">
        <ele>134</ele>
        <time>2017-07-04T15:00:56Z</time>
      </trkpt>
      <trkpt lat="49.43347" lon="1.33173">
        <ele>134</ele>
        <time>2017-07-04T15:00:56Z</time>
      </trkpt>
      <trkpt lat="49.43351" lon="1.3318">
        <ele>134</ele>
        <time>2017-07-04T15:00:56Z</time>
      </trkpt>
      <trkpt lat="49.43356" lon="1.3318">
        <ele>134</ele>
        <time>2017-07-04T15:01:12Z</time>
      </trkpt>
      <trkpt lat="49.43362" lon="1.3318">
        <ele>134</ele>
        <time>2017-07-04T15:01:12Z</time>
      </trkpt>
      <trkpt lat="49.43365" lon="1.33184">
        <ele>134</ele>
        <time>2017-07-04T15:01:12Z</time>
      </trkpt>
      <trkpt lat="49.4337" lon="1.33188">
        <ele>134</ele>
        <time>2017-07-04T15:01:12Z</time>
      </trkpt>
      <trkpt lat="49.43374" lon="1.33189">
        <ele>134</ele>
        <time>2017-07-04T15:01:27Z</time>
      </trkpt>
      <trkpt lat="49.43378" lon="1.33191">
        <ele>136</ele>
        <time>2017-07-04T15:01:27Z</time>
      </trkpt>
      <trkpt lat="49.43384" lon="1.33194">
        <ele>136</ele>
        <time>2017-07-04T15:01:27Z</time>
      </trkpt>
      <trkpt lat="49.43389" lon="1.33195">
        <ele>136</ele>
        <time>2017-07-04T15:01:27Z</time>
      </trkpt>
      <trkpt lat="49.43394" lon="1.33202">
        <ele>136</ele>
        <time>2017-07-04T15:01:44Z</time>
      </trkpt>
      <trkpt lat="49.43396" lon="1.33204">
        <ele>136</ele>
        <time>2017-07-04T15:01:44Z</time>
      </trkpt>
      <trkpt lat="49.434" lon="1.33208">
        <ele>136</ele>
        <time>2017-07-04T15:01:44Z</time>
      </trkpt>
      <trkpt lat="49.43407" lon="1.33213">
        <ele>137</ele>
        <time>2017-07-04T15:01:44Z</time>
      </trkpt>
      <trkpt lat="49.43411" lon="1.33209">
        <ele>137</ele>
        <time>2017-07-04T15:01:58Z</time>
      </trkpt>
      <trkpt lat="49.43416" lon="1.33211">
        <ele>137</ele>
        <time>2017-07-04T15:01:58Z</time>
      </trkpt>
      <trkpt lat="49.43422" lon="1.33212">
        <ele>137</ele>
        <time>2017-07-04T15:01:58Z</time>
      </trkpt>
      <trkpt lat="49.43425" lon="1.33215">
        <ele>137</ele>
        <time>2017-07-04T15:01:58Z</time>
      </trkpt>
      <trkpt lat="49.4343" lon="1.33219">
        <ele>137</ele>
        <time>2017-07-04T15:02:15Z</time>
      </trkpt>
      <trkpt lat="49.43434" lon="1.33221">
        <ele>137</ele>
        <time>2017-07-04T15:02:15Z</time>
      </trkpt>
      <trkpt lat="49.43438" lon="1.33223">
        <ele>137</ele>
        <time>2017-07-04T15:02:15Z</time>
      </trkpt>
      <trkpt lat="49.43443" lon="1.33221">
        <ele>137</ele>
        <time>2017-07-04T15:02:15Z</time>
      </trkpt>
      <trkpt lat="49.43447" lon="1.33218">
        <ele>137</ele>
        <time>2017-07-04T15:02:31Z</time>
      </trkpt>
      <trkpt lat="49.43452" lon="1.33212">
        <ele>137</ele>
        <time>2017-07-04T15:02:31Z</time>
      </trkpt>
      <trkpt lat="49.43454" lon="1.33209">
        <ele>137</ele>
        <time>2017-07-04T15:02:31Z</time>
      </trkpt>
      <trkpt lat="49.43459" lon="1.33204">
        <ele>137</ele>
        <time>2017-07-04T15:02:31Z</time>
      </trkpt>
      <trkpt lat="49.43462" lon="1.33197">
        <ele>137</ele>
        <time>2017-07-04T15:02:46Z</time>
      </trkpt>
      <trkpt lat="49.43464" lon="1.33194">
        <ele>137</ele>
        <time>2017-07-04T15:02:46Z</time>
      </trkpt>
      <trkpt lat="49.43468" lon="1.3319">
        <ele>137</ele>
        <time>2017-07-04T15:02:46Z</time>
      </trkpt>
      <trkpt lat="49.43471" lon="1.33188">
        <ele>137</ele>
        <time>2017-07-04T15:02:46Z</time>
      </trkpt>
      <trkpt lat="49.43477" lon="1.33182">
        <ele>137</ele>
        <time>2017-07-04T15:03:04Z</time>
      </trkpt>
      <trkpt lat="49.43479" lon="1.33178">
        <ele>137</ele>
        <time>2017-07-04T15:03:04Z</time>
      </trkpt>
      <trkpt lat="49.43483" lon="1.33172">
        <ele>137</ele>
        <time>2017-07-04T15:03:04Z</time>
      </trkpt>
      <trkpt lat="49.43485" lon="1.33168">
        <ele>137</ele>
        <time>2017-07-04T15:03:04Z</time>
      </trkpt>
      <trkpt lat="49.43489" lon="1.33164">
        <ele>137</ele>
        <time>2017-07-04T15:03:18Z</time>
      </trkpt>
      <trkpt lat="49.43496" lon="1.33155">
        <ele>137</ele>
        <time>2017-07-04T15:03:18Z</time>
      </trkpt>
      <trkpt lat="49.43499" lon="1.33151">
        <ele>137</ele>
        <time>2017-07-04T15:03:18Z</time>
      </trkpt>
      <trkpt lat="49.43502" lon="1.33146">
        <ele>137</ele>
        <time>2017-07-04T15:03:18Z</time>
      </trkpt>
      <trkpt lat="49.43508" lon="1.3314">
        <ele>137</ele>
        <time>2017-07-04T15:03:35Z</time>
      </trkpt>
      <trkpt lat="49.43511" lon="1.33137">
        <ele>137</ele>
        <time>2017-07-04T15:03:35Z</time>
      </trkpt>
      <trkpt lat="49.43515" lon="1.33134">
        <ele>137</ele>
        <time>2017-07-04T15:03:35Z</time>
      </trkpt>
      <trkpt lat="49.43519" lon="1.33131">
        <ele>137</ele>
        <time>2017-07-04T15:03:35Z</time>
      </trkpt>
      <trkpt lat="49.43524" lon="1.33126">
        <ele>137</ele>
        <time>2017-07-04T15:03:51Z</time>
      </trkpt>
      <trkpt lat="49.43529" lon="1.3312">
        <ele>137</ele>
        <time>2017-07-04T15:03:51Z</time>
      </trkpt>
      <trkpt lat="49.43533" lon="1.33115">
        <ele>137</ele>
        <time>2017-07-04T15:03:51Z</time>
      </trkpt>
      <trkpt lat="49.43535" lon="1.33112">
        <ele>137</ele>
        <time>2017-07-04T15:03:51Z</time>
      </trkpt>
      <trkpt lat="49.4354" lon="1.33108">
        <ele>137</ele>
        <time>2017-07-04T15:04:07Z</time>
      </trkpt>
      <trkpt lat="49.43543" lon="1.33102">
        <ele>138</ele>
        <time>2017-07-04T15:04:07Z</time>
      </trkpt>
      <trkpt lat="49.43547" lon="1.33097">
        <ele>138</ele>
        <time>2017-07-04T15:04:07Z</time>
      </trkpt>
      <trkpt lat="49.43549" lon="1.33092">
        <ele>138</ele>
        <time>2017-07-04T15:04:07Z</time>
      </trkpt>
      <trkpt lat="49.43554" lon="1.33086">
        <ele>138</ele>
        <time>2017-07-04T15:04:22Z</time>
      </trkpt>
      <trkpt lat="49.43558" lon="1.33087">
        <ele>138</ele>
        <time>2017-07-04T15:04:22Z</time>
      </trkpt>
      <trkpt lat="49.43562" lon="1.3309">
        <ele>138</ele>
        <time>2017-07-04T15:04:22Z</time>
      </trkpt>
      <trkpt lat="49.43564" lon="1.33094">
        <ele>138</ele>
        <time>2017-07-04T15:04:22Z</time>
      </trkpt>
      <trkpt lat="49.43566" lon="1.33101">
        <ele>138</ele>
        <time>2017-07-04T15:04:39Z</time>
      </trkpt>
      <trkpt lat="49.43564" lon="1.33109">
        <ele>138</ele>
        <time>2017-07-04T15:04:39Z</time>
      </trkpt>
      <trkpt lat="49.43563" lon="1.33117">
        <ele>138</ele>
        <time>2017-07-04T15:04:39Z</time>
      </trkpt>
      <trkpt lat="49.43562" lon="1.33124">
        <ele>138</ele>
        <time>2017-07-04T15:04:39Z</time>
      </trkpt>
      <trkpt lat="49.4356" lon="1.33132">
        <ele>139</ele>
        <time>2017-07-04T15:04:56Z</time>
      </trkpt>
      <trkpt lat="49.43558" lon="1.33139">
        <ele>139</ele>
        <time>2017-07-04T15:04:56Z</time>
      </trkpt>
      <trkpt lat="49.43557" lon="1.33143">
        <ele>139</ele>
        <time>2017-07-04T15:04:56Z</time>
      </trkpt>
      <trkpt lat="49.43557" lon="1.33151">
        <ele>139</ele>
        <time>2017-07-04T15:04:56Z</time>
      </trkpt>
      <trkpt lat="49.43556" lon="1.33157">
        <ele>139</ele>
        <time>2017-07-04T15:05:11Z</time>
      </trkpt>
      <trkpt lat="49.43556" lon="1.33163">
        <ele>139</ele>
        <time>2017-07-04T15:05:11Z</time>
      </trkpt>
      <trkpt lat="49.43555" lon="1.3317">
        <ele>139</ele>
        <time>2017-07-04T15:05:11Z</time>
      </trkpt>
      <trkpt lat="49.43554" lon="1.33178">
        <ele>139</ele>
        <time>2017-07-04T15:05:11Z</time>
      </trkpt>
      <trkpt lat="49.43554" lon="1.33188">
        <ele>139</ele>
        <time>2017-07-04T15:05:27Z</time>
      </trkpt>
      <trkpt lat="49.43553" lon="1.33194">
        <ele>139</ele>
        <time>2017-07-04T15:05:27Z</time>
      </trkpt>
      <trkpt lat="49.43552" lon="1.33201">
        <ele>139</ele>
        <time>2017-07-04T15:05:27Z</time>
      </trkpt>
      <trkpt lat="49.43552" lon="1.33209">
        <ele>139</ele>
        <time>2017-07-04T15:05:27Z</time>
      </trkpt>
      <trkpt lat="49.43553" lon="1.33217">
        <ele>139</ele>
        <time>2017-07-04T15:05:44Z</time>
      </trkpt>
      <trkpt lat="49.43554" lon="1.33224">
        <ele>139</ele>
        <time>2017-07-04T15:05:44Z</time>
      </trkpt>
      <trkpt lat="49.43554" lon="1.33233">
        <ele>139</ele>
        <time>2017-07-04T15:05:44Z</time>
      </trkpt>
      <trkpt lat="49.43556" lon="1.33242">
        <ele>139</ele>
        <time>2017-07-04T15:05:44Z</time>
      </trkpt>
      <trkpt lat="49.43558" lon="1.33247">
        <ele>139</ele>
        <time>2017-07-04T15:05:59Z</time>
      </trkpt>
      <trkpt lat="49.43557" lon="1.33255">
        <ele>139</ele>
        <time>2017-07-04T15:05:59Z</time>
      </trkpt>
      <trkpt lat="49.43556" lon="1.33263">
        <ele>139</ele>
        <time>2017-07-04T15:05:59Z</time>
      </trkpt>
      <trkpt lat="49.43556" lon="1.33268">
        <ele>139</ele>
        <time>2017-07-04T15:05:59Z</time>
      </trkpt>
      <trkpt lat="49.43555" lon="1.33277">
        <ele>139</ele>
        <time>2017-07-04T15:06:15Z</time>
      </trkpt>
      <trkpt lat="49.43553" lon="1.33286">
        <ele>139</ele>
        <time>2017-07-04T15:06:15Z</time>
      </trkpt>
      <trkpt lat="49.43553" lon="1.33296">
        <ele>138</ele>
        <time>2017-07-04T15:06:15Z</time>
      </trkpt>
      <trkpt lat="49.43553" lon="1.33306">
        <ele>138</ele>
        <time>2017-07-04T15:06:15Z</time>
      </trkpt>
      <trkpt lat="49.43553" lon="1.33312">
        <ele>138</ele>
        <time>2017-07-04T15:06:31Z</time>
      </trkpt>
      <trkpt lat="49.43553" lon="1.33319">
        <ele>138</ele>
        <time>2017-07-04T15:06:31Z</time>
      </trkpt>
      <trkpt lat="49.43553" lon="1.33325">
        <ele>138</ele>
        <time>2017-07-04T15:06:31Z</time>
      </trkpt>
      <trkpt lat="49.43552" lon="1.33332">
        <ele>138</ele>
        <time>2017-07-04T15:06:31Z</time>
      </trkpt>
      <trkpt lat="49.43551" lon="1.33342">
        <ele>138</ele>
        <time>2017-07-04T15:06:47Z</time>
      </trkpt>
      <trkpt lat="49.4355" lon="1.33351">
        <ele>138</ele>
        <time>2017-07-04T15:06:47Z</time>
      </trkpt>
      <trkpt lat="49.43551" lon="1.33356">
        <ele>138</ele>
        <time>2017-07-04T15:06:47Z</time>
      </trkpt>
      <trkpt lat="49.43553" lon="1.33366">
        <ele>138</ele>
        <time>2017-07-04T15:06:47Z</time>
      </trkpt>
      <trkpt lat="49.43553" lon="1.33371">
        <ele>138</ele>
        <time>2017-07-04T15:07:03Z</time>
      </trkpt>
      <trkpt lat="49.43553" lon="1.33377">
        <ele>137</ele>
        <time>2017-07-04T15:07:03Z</time>
      </trkpt>
      <trkpt lat="49.43554" lon="1.33388">
        <ele>137</ele>
        <time>2017-07-04T15:07:03Z</time>
      </trkpt>
      <trkpt lat="49.43554" lon="1.33395">
        <ele>137</ele>
        <time>2017-07-04T15:07:03Z</time>
      </trkpt>
      <trkpt lat="49.43553" lon="1.33401">
        <ele>137</ele>
        <time>2017-07-04T15:07:24Z</time>
      </trkpt>
      <trkpt lat="49.43553" lon="1.33402">
        <ele>137</ele>
        <time>2017-07-04T15:07:24Z</time>
      </trkpt>
      <trkpt lat="49.43553" lon="1.33404">
        <ele>137</ele>
        <time>2017-07-04T15:07:24Z</time>
      </trkpt>
      <trkpt lat="49.43554" lon="1.33411">
        <ele>137</ele>
        <time>2017-07-04T15:07:24Z</time>
      </trkpt>
      <trkpt lat="49.43553" lon="1.33424">
        <ele>137</ele>
        <time>2017-07-04T15:07:24Z</time>
      </trkpt>
      <trkpt lat="49.43552" lon="1.3343">
        <ele>137</ele>
        <time>2017-07-04T15:07:39Z</time>
      </trkpt>
      <trkpt lat="49.43551" lon="1.33441">
        <ele>137</ele>
        <time>2017-07-04T15:07:39Z</time>
      </trkpt>
      <trkpt lat="49.43551" lon="1.33449">
        <ele>137</ele>
        <time>2017-07-04T15:07:39Z</time>
      </trkpt>
      <trkpt lat="49.43551" lon="1.33455">
        <ele>137</ele>
        <time>2017-07-04T15:07:39Z</time>
      </trkpt>
      <trkpt lat="49.4355" lon="1.33461">
        <ele>137</ele>
        <time>2017-07-04T15:07:55Z</time>
      </trkpt>
      <trkpt lat="49.43549" lon="1.3347">
        <ele>137</ele>
        <time>2017-07-04T15:07:55Z</time>
      </trkpt>
      <trkpt lat="49.4355" lon="1.33477">
        <ele>137</ele>
        <time>2017-07-04T15:07:55Z</time>
      </trkpt>
      <trkpt lat="49.4355" lon="1.33483">
        <ele>137</ele>
        <time>2017-07-04T15:07:55Z</time>
      </trkpt>
      <trkpt lat="49.4355" lon="1.3349">
        <ele>137</ele>
        <time>2017-07-04T15:08:10Z</time>
      </trkpt>
      <trkpt lat="49.43549" lon="1.33495">
        <ele>137</ele>
        <time>2017-07-04T15:08:10Z</time>
      </trkpt>
      <trkpt lat="49.43548" lon="1.33504">
        <ele>137</ele>
        <time>2017-07-04T15:08:10Z</time>
      </trkpt>
      <trkpt lat="49.43548" lon="1.3351">
        <ele>137</ele>
        <time>2017-07-04T15:08:10Z</time>
      </trkpt>
      <trkpt lat="49.43548" lon="1.33518">
        <ele>137</ele>
        <time>2017-07-04T15:08:27Z</time>
      </trkpt>
      <trkpt lat="49.43547" lon="1.33521">
        <ele>137</ele>
        <time>2017-07-04T15:08:27Z</time>
      </trkpt>
      <trkpt lat="49.43547" lon="1.33529">
        <ele>137</ele>
        <time>2017-07-04T15:08:27Z</time>
      </trkpt>
      <trkpt lat="49.43547" lon="1.33538">
        <ele>137</ele>
        <time>2017-07-04T15:08:27Z</time>
      </trkpt>
      <trkpt lat="49.43546" lon="1.33544">
        <ele>134</ele>
        <time>2017-07-04T15:08:43Z</time>
      </trkpt>
      <trkpt lat="49.43545" lon="1.33549">
        <ele>134</ele>
        <time>2017-07-04T15:08:43Z</time>
      </trkpt>
      <trkpt lat="49.43545" lon="1.33559">
        <ele>134</ele>
        <time>2017-07-04T15:08:43Z</time>
      </trkpt>
      <trkpt lat="49.43546" lon="1.33564">
        <ele>134</ele>
        <time>2017-07-04T15:08:43Z</time>
      </trkpt>
      <trkpt lat="49.43545" lon="1.33574">
        <ele>134</ele>
        <time>2017-07-04T15:09:00Z</time>
      </trkpt>
      <trkpt lat="49.43545" lon="1.33584">
        <ele>134</ele>
        <time>2017-07-04T15:09:00Z</time>
      </trkpt>
      <trkpt lat="49.43544" lon="1.3359">
        <ele>134</ele>
        <time>2017-07-04T15:09:00Z</time>
      </trkpt>
      <trkpt lat="49.43545" lon="1.33605">
        <ele>134</ele>
        <time>2017-07-04T15:09:00Z</time>
      </trkpt>
      <trkpt lat="49.43544" lon="1.33609">
        <ele>134</ele>
        <time>2017-07-04T15:09:15Z</time>
      </trkpt>
      <trkpt lat="49.43544" lon="1.33618">
        <ele>134</ele>
        <time>2017-07-04T15:09:15Z</time>
      </trkpt>
      <trkpt lat="49.43545" lon="1.33623">
        <ele>134</ele>
        <time>2017-07-04T15:09:15Z</time>
      </trkpt>
      <trkpt lat="49.43546" lon="1.33631">
        <ele>133</ele>
        <time>2017-07-04T15:09:15Z</time>
      </trkpt>
      <trkpt lat="49.43546" lon="1.33638">
        <ele>133</ele>
        <time>2017-07-04T15:09:32Z</time>
      </trkpt>
      <trkpt lat="49.43546" lon="1.33645">
        <ele>133</ele>
        <time>2017-07-04T15:09:32Z</time>
      </trkpt>
      <trkpt lat="49.43547" lon="1.33653">
        <ele>133</ele>
        <time>2017-07-04T15:09:32Z</time>
      </trkpt>
      <trkpt lat="49.43546" lon="1.33666">
        <ele>133</ele>
        <time>2017-07-04T15:09:32Z</time>
      </trkpt>
      <trkpt lat="49.43544" lon="1.33671">
        <ele>133</ele>
        <time>2017-07-04T15:09:47Z</time>
      </trkpt>
      <trkpt lat="49.43545" lon="1.3368">
        <ele>133</ele>
        <time>2017-07-04T15:09:47Z</time>
      </trkpt>
      <trkpt lat="49.43546" lon="1.3369">
        <ele>133</ele>
        <time>2017-07-04T15:09:47Z</time>
      </trkpt>
      <trkpt lat="49.43547" lon="1.33697">
        <ele>133</ele>
        <time>2017-07-04T15:09:47Z</time>
      </trkpt>
      <trkpt lat="49.43548" lon="1.33705">
        <ele>133</ele>
        <time>2017-07-04T15:10:03Z</time>
      </trkpt>
      <trkpt lat="49.43548" lon="1.3371">
        <ele>130</ele>
        <time>2017-07-04T15:10:03Z</time>
      </trkpt>
      <trkpt lat="49.43546" lon="1.33718">
        <ele>130</ele>
        <time>2017-07-04T15:10:03Z</time>
      </trkpt>
      <trkpt lat="49.43545" lon="1.33723">
        <ele>130</ele>
        <time>2017-07-04T15:10:03Z</time>
      </trkpt>
      <trkpt lat="49.43544" lon="1.33729">
        <ele>130</ele>
        <time>2017-07-04T15:10:19Z</time>
      </trkpt>
      <trkpt lat="49.43544" lon="1.33736">
        <ele>130</ele>
        <time>2017-07-04T15:10:19Z</time>
      </trkpt>
      <trkpt lat="49.43544" lon="1.33741">
        <ele>130</ele>
        <time>2017-07-04T15:10:19Z</time>
      </trkpt>
      <trkpt lat="49.43544" lon="1.33752">
        <ele>130</ele>
        <time>2017-07-04T15:10:19Z</time>
      </trkpt>
      <trkpt lat="49.43545" lon="1.33762">
        <ele>130</ele>
        <time>2017-07-04T15:10:35Z</time>
      </trkpt>
      <trkpt lat="49.43544" lon="1.3377">
        <ele>130</ele>
        <time>2017-07-04T15:10:35Z</time>
      </trkpt>
      <trkpt lat="49.43544" lon="1.33779">
        <ele>130</ele>
        <time>2017-07-04T15:10:35Z</time>
      </trkpt>
      <trkpt lat="49.43544" lon="1.33785">
        <ele>130</ele>
        <time>2017-07-04T15:10:35Z</time>
      </trkpt>
      <trkpt lat="49.43544" lon="1.33793">
        <ele>127</ele>
        <time>2017-07-04T15:10:51Z</time>
      </trkpt>
      <trkpt lat="49.43543" lon="1.33801">
        <ele>127</ele>
        <time>2017-07-04T15:10:51Z</time>
      </trkpt>
      <trkpt lat="49.43541" lon="1.3381">
        <ele>131</ele>
        <time>2017-07-04T15:10:51Z</time>
      </trkpt>
      <trkpt lat="49.4354" lon="1.33817">
        <ele>131</ele>
        <time>2017-07-04T15:10:51Z</time>
      </trkpt>
      <trkpt lat="49.43541" lon="1.33826">
        <ele>131</ele>
        <time>2017-07-04T15:11:07Z</time>
      </trkpt>
      <trkpt lat="49.4354" lon="1.33834">
        <ele>131</ele>
        <time>2017-07-04T15:11:07Z</time>
      </trkpt>
      <trkpt lat="49.43543" lon="1.33841">
        <ele>127</ele>
        <time>2017-07-04T15:11:07Z</time>
      </trkpt>
      <trkpt lat="49.43547" lon="1.33845">
        <ele>127</ele>
        <time>2017-07-04T15:11:07Z</time>
      </trkpt>
      <trkpt lat="49.43549" lon="1.3385">
        <ele>127</ele>
        <time>2017-07-04T15:11:23Z</time>
      </trkpt>
      <trkpt lat="49.43551" lon="1.33863">
        <ele>127</ele>
        <time>2017-07-04T15:11:23Z</time>
      </trkpt>
      <trkpt lat="49.43549" lon="1.3387">
        <ele>127</ele>
        <time>2017-07-04T15:11:23Z</time>
      </trkpt>
      <trkpt lat="49.43552" lon="1.33876">
        <ele>118</ele>
        <time>2017-07-04T15:11:24Z</time>
      </trkpt>
      <trkpt lat="49.43553" lon="1.33883">
        <ele>118</ele>
        <time>2017-07-04T15:11:39Z</time>
      </trkpt>
      <trkpt lat="49.43555" lon="1.33889">
        <ele>118</ele>
        <time>2017-07-04T15:11:39Z</time>
      </trkpt>
      <trkpt lat="49.4356" lon="1.33894">
        <ele>118</ele>
        <time>2017-07-04T15:11:39Z</time>
      </trkpt>
      <trkpt lat="49.43563" lon="1.33899">
        <ele>118</ele>
        <time>2017-07-04T15:11:39Z</time>
      </trkpt>
      <trkpt lat="49.43564" lon="1.33907">
        <ele>118</ele>
        <time>2017-07-04T15:11:55Z</time>
      </trkpt>
      <trkpt lat="49.43567" lon="1.33911">
        <ele>118</ele>
        <time>2017-07-04T15:11:55Z</time>
      </trkpt>
      <trkpt lat="49.43569" lon="1.33919">
        <ele>118</ele>
        <time>2017-07-04T15:11:55Z</time>
      </trkpt>
      <trkpt lat="49.43574" lon="1.33923">
        <ele>118</ele>
        <time>2017-07-04T15:11:55Z</time>
      </trkpt>
      <trkpt lat="49.43575" lon="1.33928">
        <ele>118</ele>
        <time>2017-07-04T15:12:10Z</time>
      </trkpt>
      <trkpt lat="49.43576" lon="1.33935">
        <ele>118</ele>
        <time>2017-07-04T15:12:10Z</time>
      </trkpt>
      <trkpt lat="49.43576" lon="1.33942">
        <ele>118</ele>
        <time>2017-07-04T15:12:10Z</time>
      </trkpt>
      <trkpt lat="49.43575" lon="1.33952">
        <ele>118</ele>
        <time>2017-07-04T15:12:10Z</time>
      </trkpt>
      <trkpt lat="49.43573" lon="1.33961">
        <ele>112</ele>
        <time>2017-07-04T15:12:28Z</time>
      </trkpt>
      <trkpt lat="49.43574" lon="1.33972">
        <ele>112</ele>
        <time>2017-07-04T15:12:28Z</time>
      </trkpt>
      <trkpt lat="49.43576" lon="1.33978">
        <ele>112</ele>
        <time>2017-07-04T15:12:28Z</time>
      </trkpt>
      <trkpt lat="49.43576" lon="1.33988">
        <ele>112</ele>
        <time>2017-07-04T15:12:28Z</time>
      </trkpt>
      <trkpt lat="49.43577" lon="1.3399">
        <ele>112</ele>
        <time>2017-07-04T15:12:43Z</time>
      </trkpt>
      <trkpt lat="49.43578" lon="1.33997">
        <ele>112</ele>
        <time>2017-07-04T15:12:43Z</time>
      </trkpt>
      <trkpt lat="49.43576" lon="1.34006">
        <ele>112</ele>
        <time>2017-07-04T15:12:43Z</time>
      </trkpt>
      <trkpt lat="49.43576" lon="1.34014">
        <ele>112</ele>
        <time>2017-07-04T15:12:43Z</time>
      </trkpt>
      <trkpt lat="49.43578" lon="1.34019">
        <ele>112</ele>
        <time>2017-07-04T15:12:59Z</time>
      </trkpt>
      <trkpt lat="49.43578" lon="1.34028">
        <ele>112</ele>
        <time>2017-07-04T15:12:59Z</time>
      </trkpt>
      <trkpt lat="49.43579" lon="1.34033">
        <ele>112</ele>
        <time>2017-07-04T15:12:59Z</time>
      </trkpt>
      <trkpt lat="49.43581" lon="1.34038">
        <ele>112</ele>
        <time>2017-07-04T15:12:59Z</time>
      </trkpt>
      <trkpt lat="49.43581" lon="1.34049">
        <ele>106</ele>
        <time>2017-07-04T15:13:15Z</time>
      </trkpt>
      <trkpt lat="49.43578" lon="1.3406">
        <ele>106</ele>
        <time>2017-07-04T15:13:15Z</time>
      </trkpt>
      <trkpt lat="49.43576" lon="1.34064">
        <ele>106</ele>
        <time>2017-07-04T15:13:15Z</time>
      </trkpt>
      <trkpt lat="49.43576" lon="1.34073">
        <ele>106</ele>
        <time>2017-07-04T15:13:15Z</time>
      </trkpt>
      <trkpt lat="49.43575" lon="1.34082">
        <ele>106</ele>
        <time>2017-07-04T15:13:31Z</time>
      </trkpt>
      <trkpt lat="49.43574" lon="1.34087">
        <ele>106</ele>
        <time>2017-07-04T15:13:31Z</time>
      </trkpt>
      <trkpt lat="49.43576" lon="1.3409">
        <ele>106</ele>
        <time>2017-07-04T15:13:31Z</time>
      </trkpt>
      <trkpt lat="49.43576" lon="1.34098">
        <ele>106</ele>
        <time>2017-07-04T15:13:31Z</time>
      </trkpt>
      <trkpt lat="49.43575" lon="1.34107">
        <ele>106</ele>
        <time>2017-07-04T15:13:47Z</time>
      </trkpt>
      <trkpt lat="49.43576" lon="1.34115">
        <ele>106</ele>
        <time>2017-07-04T15:13:47Z</time>
      </trkpt>
      <trkpt lat="49.43578" lon="1.34125">
        <ele>99</ele>
        <time>2017-07-04T15:13:47Z</time>
      </trkpt>
      <trkpt lat="49.43576" lon="1.3413">
        <ele>99</ele>
        <time>2017-07-04T15:13:47Z</time>
      </trkpt>
      <trkpt lat="49.43575" lon="1.34137">
        <ele>99</ele>
        <time>2017-07-04T15:14:03Z</time>
      </trkpt>
      <trkpt lat="49.43574" lon="1.34149">
        <ele>99</ele>
        <time>2017-07-04T15:14:03Z</time>
      </trkpt>
      <trkpt lat="49.43571" lon="1.34161">
        <ele>99</ele>
        <time>2017-07-04T15:14:03Z</time>
      </trkpt>
      <trkpt lat="49.4357" lon="1.34166">
        <ele>99</ele>
        <time>2017-07-04T15:14:03Z</time>
      </trkpt>
      <trkpt lat="49.43568" lon="1.34175">
        <ele>99</ele>
        <time>2017-07-04T15:14:19Z</time>
      </trkpt>
      <trkpt lat="49.43569" lon="1.34179">
        <ele>99</ele>
        <time>2017-07-04T15:14:19Z</time>
      </trkpt>
      <trkpt lat="49.4357" lon="1.34187">
        <ele>99</ele>
        <time>2017-07-04T15:14:19Z</time>
      </trkpt>
      <trkpt lat="49.43569" lon="1.34192">
        <ele>99</ele>
        <time>2017-07-04T15:14:19Z</time>
      </trkpt>
      <trkpt lat="49.43569" lon="1.342">
        <ele>99</ele>
        <time>2017-07-04T15:14:35Z</time>
      </trkpt>
      <trkpt lat="49.43569" lon="1.34211">
        <ele>95</ele>
        <time>2017-07-04T15:14:35Z</time>
      </trkpt>
      <trkpt lat="49.43568" lon="1.34216">
        <ele>95</ele>
        <time>2017-07-04T15:14:35Z</time>
      </trkpt>
      <trkpt lat="49.43567" lon="1.34224">
        <ele>95</ele>
        <time>2017-07-04T15:14:35Z</time>
      </trkpt>
      <trkpt lat="49.43565" lon="1.34232">
        <ele>95</ele>
        <time>2017-07-04T15:14:51Z</time>
      </trkpt>
      <trkpt lat="49.43563" lon="1.34235">
        <ele>95</ele>
        <time>2017-07-04T15:14:51Z</time>
      </trkpt>
      <trkpt lat="49.4356" lon="1.34242">
        <ele>95</ele>
        <time>2017-07-04T15:14:51Z</time>
      </trkpt>
      <trkpt lat="49.43556" lon="1.34248">
        <ele>95</ele>
        <time>2017-07-04T15:14:51Z</time>
      </trkpt>
      <trkpt lat="49.43554" lon="1.34254">
        <ele>95</ele>
        <time>2017-07-04T15:15:07Z</time>
      </trkpt>
      <trkpt lat="49.43552" lon="1.34259">
        <ele>95</ele>
        <time>2017-07-04T15:15:07Z</time>
      </trkpt>
      <trkpt lat="49.4355" lon="1.34267">
        <ele>95</ele>
        <time>2017-07-04T15:15:07Z</time>
      </trkpt>
      <trkpt lat="49.43548" lon="1.34273">
        <ele>95</ele>
        <time>2017-07-04T15:15:07Z</time>
      </trkpt>
      <trkpt lat="49.43549" lon="1.34281">
        <ele>95</ele>
        <time>2017-07-04T15:15:23Z</time>
      </trkpt>
      <trkpt lat="49.4355" lon="1.34286">
        <ele>95</ele>
        <time>2017-07-04T15:15:23Z</time>
      </trkpt>
      <trkpt lat="49.43552" lon="1.34299">
        <ele>91</ele>
        <time>2017-07-04T15:15:23Z</time>
      </trkpt>
      <trkpt lat="49.43554" lon="1.34304">
        <ele>91</ele>
        <time>2017-07-04T15:15:23Z</time>
      </trkpt>
      <trkpt lat="49.43553" lon="1.34312">
        <ele>91</ele>
        <time>2017-07-04T15:15:40Z</time>
      </trkpt>
      <trkpt lat="49.43552" lon="1.3432">
        <ele>91</ele>
        <time>2017-07-04T15:15:40Z</time>
      </trkpt>
      <trkpt lat="49.43552" lon="1.34332">
        <ele>91</ele>
        <time>2017-07-04T15:15:40Z</time>
      </trkpt>
      <trkpt lat="49.43552" lon="1.34339">
        <ele>91</ele>
        <time>2017-07-04T15:15:40Z</time>
      </trkpt>
      <trkpt lat="49.43547" lon="1.34348">
        <ele>91</ele>
        <time>2017-07-04T15:16:11Z</time>
      </trkpt>
      <trkpt lat="49.43548" lon="1.34356">
        <ele>91</ele>
        <time>2017-07-04T15:16:11Z</time>
      </trkpt>
      <trkpt lat="49.43548" lon="1.34364">
        <ele>91</ele>
        <time>2017-07-04T15:16:11Z</time>
      </trkpt>
      <trkpt lat="49.43548" lon="1.34373">
        <ele>91</ele>
        <time>2017-07-04T15:16:11Z</time>
      </trkpt>
      <trkpt lat="49.43547" lon="1.34381">
        <ele>87</ele>
        <time>2017-07-04T15:16:11Z</time>
      </trkpt>
      <trkpt lat="49.43545" lon="1.34398">
        <ele>87</ele>
        <time>2017-07-04T15:16:43Z</time>
      </trkpt>
      <trkpt lat="49.43549" lon="1.34404">
        <ele>87</ele>
        <time>2017-07-04T15:16:43Z</time>
      </trkpt>
      <trkpt lat="49.43553" lon="1.34415">
        <ele>87</ele>
        <time>2017-07-04T15:16:43Z</time>
      </trkpt>
      <trkpt lat="49.43555" lon="1.34419">
        <ele>87</ele>
        <time>2017-07-04T15:16:43Z</time>
      </trkpt>
      <trkpt lat="49.43557" lon="1.34421">
        <ele>87</ele>
        <time>2017-07-04T15:16:43Z</time>
      </trkpt>
      <trkpt lat="49.43557" lon="1.34427">
        <ele>87</ele>
        <time>2017-07-04T15:17:00Z</time>
      </trkpt>
      <trkpt lat="49.43559" lon="1.34434">
        <ele>87</ele>
        <time>2017-07-04T15:17:00Z</time>
      </trkpt>
      <trkpt lat="49.43557" lon="1.34441">
        <ele>87</ele>
        <time>2017-07-04T15:17:00Z</time>
      </trkpt>
      <trkpt lat="49.43554" lon="1.34447">
        <ele>87</ele>
        <time>2017-07-04T15:17:00Z</time>
      </trkpt>
      <trkpt lat="49.43551" lon="1.34448">
        <ele>87</ele>
        <time>2017-07-04T15:17:15Z</time>
      </trkpt>
      <trkpt lat="49.4355" lon="1.34463">
        <ele>87</ele>
        <time>2017-07-04T15:17:15Z</time>
      </trkpt>
      <trkpt lat="49.43551" lon="1.34471">
        <ele>87</ele>
        <time>2017-07-04T15:17:15Z</time>
      </trkpt>
      <trkpt lat="49.43551" lon="1.34477">
        <ele>87</ele>
        <time>2017-07-04T15:17:15Z</time>
      </trkpt>
      <trkpt lat="49.43549" lon="1.34483">
        <ele>87</ele>
        <time>2017-07-04T15:17:31Z</time>
      </trkpt>
      <trkpt lat="49.43548" lon="1.34486">
        <ele>87</ele>
        <time>2017-07-04T15:17:31Z</time>
      </trkpt>
      <trkpt lat="49.43545" lon="1.34492">
        <ele>87</ele>
        <time>2017-07-04T15:17:31Z</time>
      </trkpt>
      <trkpt lat="49.43545" lon="1.345">
        <ele>87</ele>
        <time>2017-07-04T15:17:31Z</time>
      </trkpt>
      <trkpt lat="49.43547" lon="1.34506">
        <ele>87</ele>
        <time>2017-07-04T15:17:47Z</time>
      </trkpt>
      <trkpt lat="49.43543" lon="1.34512">
        <ele>87</ele>
        <time>2017-07-04T15:17:47Z</time>
      </trkpt>
      <trkpt lat="49.43542" lon="1.34515">
        <ele>87</ele>
        <time>2017-07-04T15:17:47Z</time>
      </trkpt>
      <trkpt lat="49.43541" lon="1.34521">
        <ele>88</ele>
        <time>2017-07-04T15:17:47Z</time>
      </trkpt>
      <trkpt lat="49.43539" lon="1.34529">
        <ele>88</ele>
        <time>2017-07-04T15:18:03Z</time>
      </trkpt>
      <trkpt lat="49.43537" lon="1.34538">
        <ele>88</ele>
        <time>2017-07-04T15:18:03Z</time>
      </trkpt>
      <trkpt lat="49.43535" lon="1.34544">
        <ele>84</ele>
        <time>2017-07-04T15:18:03Z</time>
      </trkpt>
      <trkpt lat="49.43531" lon="1.34556">
        <ele>84</ele>
        <time>2017-07-04T15:18:03Z</time>
      </trkpt>
      <trkpt lat="49.43528" lon="1.34562">
        <ele>84</ele>
        <time>2017-07-04T15:18:19Z</time>
      </trkpt>
      <trkpt lat="49.43529" lon="1.3457">
        <ele>84</ele>
        <time>2017-07-04T15:18:19Z</time>
      </trkpt>
      <trkpt lat="49.43528" lon="1.34572">
        <ele>84</ele>
        <time>2017-07-04T15:18:19Z</time>
      </trkpt>
      <trkpt lat="49.43524" lon="1.34578">
        <ele>84</ele>
        <time>2017-07-04T15:18:19Z</time>
      </trkpt>
      <trkpt lat="49.43524" lon="1.34584">
        <ele>84</ele>
        <time>2017-07-04T15:18:35Z</time>
      </trkpt>
      <trkpt lat="49.43522" lon="1.34597">
        <ele>84</ele>
        <time>2017-07-04T15:18:35Z</time>
      </trkpt>
      <trkpt lat="49.43525" lon="1.34603">
        <ele>84</ele>
        <time>2017-07-04T15:18:35Z</time>
      </trkpt>
      <trkpt lat="49.43524" lon="1.34608">
        <ele>84</ele>
        <time>2017-07-04T15:18:35Z</time>
      </trkpt>
      <trkpt lat="49.43519" lon="1.34616">
        <ele>84</ele>
        <time>2017-07-04T15:18:51Z</time>
      </trkpt>
      <trkpt lat="49.43517" lon="1.34623">
        <ele>84</ele>
        <time>2017-07-04T15:18:51Z</time>
      </trkpt>
      <trkpt lat="49.43514" lon="1.3463">
        <ele>86</ele>
        <time>2017-07-04T15:18:51Z</time>
      </trkpt>
      <trkpt lat="49.43513" lon="1.34636">
        <ele>86</ele>
        <time>2017-07-04T15:18:51Z</time>
      </trkpt>
      <trkpt lat="49.43512" lon="1.34641">
        <ele>86</ele>
        <time>2017-07-04T15:19:07Z</time>
      </trkpt>
      <trkpt lat="49.43508" lon="1.34646">
        <ele>86</ele>
        <time>2017-07-04T15:19:07Z</time>
      </trkpt>
      <trkpt lat="49.43506" lon="1.34655">
        <ele>86</ele>
        <time>2017-07-04T15:19:07Z</time>
      </trkpt>
      <trkpt lat="49.43504" lon="1.3466">
        <ele>86</ele>
        <time>2017-07-04T15:19:07Z</time>
      </trkpt>
      <trkpt lat="49.43502" lon="1.34668">
        <ele>86</ele>
        <time>2017-07-04T15:19:22Z</time>
      </trkpt>
      <trkpt lat="49.43499" lon="1.34675">
        <ele>86</ele>
        <time>2017-07-04T15:19:22Z</time>
      </trkpt>
      <trkpt lat="49.43497" lon="1.34678">
        <ele>86</ele>
        <time>2017-07-04T15:19:22Z</time>
      </trkpt>
      <trkpt lat="49.43494" lon="1.34685">
        <ele>86</ele>
        <time>2017-07-04T15:19:22Z</time>
      </trkpt>
      <trkpt lat="49.43492" lon="1.34691">
        <ele>86</ele>
        <time>2017-07-04T15:19:38Z</time>
      </trkpt>
      <trkpt lat="49.4349" lon="1.34698">
        <ele>86</ele>
        <time>2017-07-04T15:19:38Z</time>
      </trkpt>
      <trkpt lat="49.43488" lon="1.34704">
        <ele>86</ele>
        <time>2017-07-04T15:19:38Z</time>
      </trkpt>
      <trkpt lat="49.43486" lon="1.34711">
        <ele>93</ele>
        <time>2017-07-04T15:19:38Z</time>
      </trkpt>
      <trkpt lat="49.43483" lon="1.34719">
        <ele>93</ele>
        <time>2017-07-04T15:19:55Z</time>
      </trkpt>
      <trkpt lat="49.43481" lon="1.34723">
        <ele>93</ele>
        <time>2017-07-04T15:19:55Z</time>
      </trkpt>
      <trkpt lat="49.43478" lon="1.34731">
        <ele>93</ele>
        <time>2017-07-04T15:19:55Z</time>
      </trkpt>
      <trkpt lat="49.43476" lon="1.34736">
        <ele>93</ele>
        <time>2017-07-04T15:19:55Z</time>
      </trkpt>
      <trkpt lat="49.43473" lon="1.34744">
        <ele>93</ele>
        <time>2017-07-04T15:20:11Z</time>
      </trkpt>
      <trkpt lat="49.43471" lon="1.34748">
        <ele>93</ele>
        <time>2017-07-04T15:20:11Z</time>
      </trkpt>
      <trkpt lat="49.43471" lon="1.34756">
        <ele>93</ele>
        <time>2017-07-04T15:20:11Z</time>
      </trkpt>
      <trkpt lat="49.43471" lon="1.34764">
        <ele>93</ele>
        <time>2017-07-04T15:20:11Z</time>
      </trkpt>
      <trkpt lat="49.43473" lon="1.34774">
        <ele>93</ele>
        <time>2017-07-04T15:20:27Z</time>
      </trkpt>
      <trkpt lat="49.43474" lon="1.3478">
        <ele>93</ele>
        <time>2017-07-04T15:20:27Z</time>
      </trkpt>
      <trkpt lat="49.43475" lon="1.34785">
        <ele>93</ele>
        <time>2017-07-04T15:20:27Z</time>
      </trkpt>
      <trkpt lat="49.43478" lon="1.34794">
        <ele>95</ele>
        <time>2017-07-04T15:20:27Z</time>
      </trkpt>
      <trkpt lat="49.4348" lon="1.348">
        <ele>95</ele>
        <time>2017-07-04T15:20:43Z</time>
      </trkpt>
      <trkpt lat="49.43482" lon="1.34806">
        <ele>95</ele>
        <time>2017-07-04T15:20:43Z</time>
      </trkpt>
      <trkpt lat="49.43484" lon="1.34812">
        <ele>95</ele>
        <time>2017-07-04T15:20:43Z</time>
      </trkpt>
      <trkpt lat="49.43494" lon="1.34813">
        <ele>95</ele>
        <time>2017-07-04T15:20:43Z</time>
      </trkpt>
      <trkpt lat="49.43501" lon="1.34813">
        <ele>95</ele>
        <time>2017-07-04T15:20:58Z</time>
      </trkpt>
      <trkpt lat="49.43504" lon="1.34817">
        <ele>95</ele>
        <time>2017-07-04T15:20:58Z</time>
      </trkpt>
      <trkpt lat="49.43507" lon="1.34824">
        <ele>95</ele>
        <time>2017-07-04T15:20:58Z</time>
      </trkpt>
      <trkpt lat="49.43509" lon="1.34829">
        <ele>95</ele>
        <time>2017-07-04T15:20:58Z</time>
      </trkpt>
      <trkpt lat="49.43511" lon="1.34833">
        <ele>95</ele>
        <time>2017-07-04T15:21:14Z</time>
      </trkpt>
      <trkpt lat="49.43513" lon="1.3484">
        <ele>95</ele>
        <time>2017-07-04T15:21:14Z</time>
      </trkpt>
      <trkpt lat="49.43515" lon="1.34844">
        <ele>95</ele>
        <time>2017-07-04T15:21:14Z</time>
      </trkpt>
      <trkpt lat="49.43517" lon="1.34852">
        <ele>95</ele>
        <time>2017-07-04T15:21:14Z</time>
      </trkpt>
      <trkpt lat="49.43518" lon="1.34859">
        <ele>95</ele>
        <time>2017-07-04T15:21:31Z</time>
      </trkpt>
      <trkpt lat="49.43519" lon="1.34866">
        <ele>95</ele>
        <time>2017-07-04T15:21:31Z</time>
      </trkpt>
      <trkpt lat="49.43521" lon="1.34874">
        <ele>95</ele>
        <time>2017-07-04T15:21:31Z</time>
      </trkpt>
      <trkpt lat="49.43522" lon="1.34879">
        <ele>104</ele>
        <time>2017-07-04T15:21:31Z</time>
      </trkpt>
      <trkpt lat="49.43523" lon="1.34886">
        <ele>104</ele>
        <time>2017-07-04T15:21:47Z</time>
      </trkpt>
      <trkpt lat="49.43525" lon="1.34895">
        <ele>104</ele>
        <time>2017-07-04T15:21:47Z</time>
      </trkpt>
      <trkpt lat="49.43526" lon="1.34902">
        <ele>104</ele>
        <time>2017-07-04T15:21:47Z</time>
      </trkpt>
      <trkpt lat="49.43526" lon="1.34907">
        <ele>104</ele>
        <time>2017-07-04T15:21:47Z</time>
      </trkpt>
      <trkpt lat="49.4353" lon="1.34928">
        <ele>104</ele>
        <time>2017-07-04T15:22:11Z</time>
      </trkpt>
      <trkpt lat="49.4353" lon="1.34937">
        <ele>104</ele>
        <time>2017-07-04T15:22:11Z</time>
      </trkpt>
      <trkpt lat="49.4353" lon="1.34942">
        <ele>104</ele>
        <time>2017-07-04T15:22:11Z</time>
      </trkpt>
      <trkpt lat="49.4353" lon="1.34951">
        <ele>104</ele>
        <time>2017-07-04T15:22:11Z</time>
      </trkpt>
      <trkpt lat="49.43531" lon="1.34956">
        <ele>104</ele>
        <time>2017-07-04T15:22:27Z</time>
      </trkpt>
      <trkpt lat="49.43531" lon="1.34963">
        <ele>114</ele>
        <time>2017-07-04T15:22:27Z</time>
      </trkpt>
      <trkpt lat="49.43531" lon="1.3497">
        <ele>114</ele>
        <time>2017-07-04T15:22:27Z</time>
      </trkpt>
      <trkpt lat="49.43531" lon="1.34979">
        <ele>114</ele>
        <time>2017-07-04T15:22:27Z</time>
      </trkpt>
      <trkpt lat="49.4353" lon="1.34984">
        <ele>114</ele>
        <time>2017-07-04T15:22:43Z</time>
      </trkpt>
      <trkpt lat="49.43531" lon="1.34991">
        <ele>114</ele>
        <time>2017-07-04T15:22:43Z</time>
      </trkpt>
      <trkpt lat="49.43531" lon="1.34996">
        <ele>114</ele>
        <time>2017-07-04T15:22:43Z</time>
      </trkpt>
      <trkpt lat="49.43529" lon="1.35004">
        <ele>114</ele>
        <time>2017-07-04T15:22:43Z</time>
      </trkpt>
      <trkpt lat="49.43528" lon="1.35009">
        <ele>114</ele>
        <time>2017-07-04T15:22:59Z</time>
      </trkpt>
      <trkpt lat="49.43528" lon="1.35015">
        <ele>114</ele>
        <time>2017-07-04T15:22:59Z</time>
      </trkpt>
      <trkpt lat="49.43528" lon="1.35023">
        <ele>114</ele>
        <time>2017-07-04T15:22:59Z</time>
      </trkpt>
      <trkpt lat="49.43527" lon="1.35028">
        <ele>114</ele>
        <time>2017-07-04T15:22:59Z</time>
      </trkpt>
      <trkpt lat="49.43527" lon="1.35035">
        <ele>114</ele>
        <time>2017-07-04T15:23:19Z</time>
      </trkpt>
      <trkpt lat="49.43526" lon="1.3504">
        <ele>114</ele>
        <time>2017-07-04T15:23:19Z</time>
      </trkpt>
      <trkpt lat="49.43526" lon="1.35045">
        <ele>120</ele>
        <time>2017-07-04T15:23:19Z</time>
      </trkpt>
      <trkpt lat="49.43526" lon="1.35048">
        <ele>120</ele>
        <time>2017-07-04T15:23:19Z</time>
      </trkpt>
      <trkpt lat="49.43526" lon="1.35054">
        <ele>120</ele>
        <time>2017-07-04T15:23:19Z</time>
      </trkpt>
      <trkpt lat="49.43526" lon="1.3506">
        <ele>120</ele>
        <time>2017-07-04T15:23:36Z</time>
      </trkpt>
      <trkpt lat="49.43526" lon="1.35066">
        <ele>120</ele>
        <time>2017-07-04T15:23:36Z</time>
      </trkpt>
      <trkpt lat="49.43526" lon="1.35071">
        <ele>120</ele>
        <time>2017-07-04T15:23:36Z</time>
      </trkpt>
      <trkpt lat="49.43526" lon="1.35077">
        <ele>120</ele>
        <time>2017-07-04T15:23:36Z</time>
      </trkpt>
      <trkpt lat="49.43526" lon="1.35083">
        <ele>120</ele>
        <time>2017-07-04T15:23:50Z</time>
      </trkpt>
      <trkpt lat="49.43527" lon="1.3509">
        <ele>120</ele>
        <time>2017-07-04T15:23:50Z</time>
      </trkpt>
      <trkpt lat="49.43527" lon="1.35095">
        <ele>120</ele>
        <time>2017-07-04T15:23:50Z</time>
      </trkpt>
      <trkpt lat="49.43528" lon="1.35102">
        <ele>120</ele>
        <time>2017-07-04T15:23:50Z</time>
      </trkpt>
      <trkpt lat="49.43528" lon="1.35109">
        <ele>120</ele>
        <time>2017-07-04T15:24:07Z</time>
      </trkpt>
      <trkpt lat="49.43529" lon="1.35118">
        <ele>120</ele>
        <time>2017-07-04T15:24:07Z</time>
      </trkpt>
      <trkpt lat="49.43529" lon="1.35125">
        <ele>125</ele>
        <time>2017-07-04T15:24:07Z</time>
      </trkpt>
      <trkpt lat="49.4353" lon="1.3513">
        <ele>125</ele>
        <time>2017-07-04T15:24:07Z</time>
      </trkpt>
      <trkpt lat="49.43532" lon="1.35139">
        <ele>125</ele>
        <time>2017-07-04T15:24:22Z</time>
      </trkpt>
      <trkpt lat="49.43533" lon="1.35143">
        <ele>125</ele>
        <time>2017-07-04T15:24:22Z</time>
      </trkpt>
      <trkpt lat="49.43536" lon="1.35149">
        <ele>125</ele>
        <time>2017-07-04T15:24:22Z</time>
      </trkpt>
      <trkpt lat="49.43539" lon="1.35152">
        <ele>125</ele>
        <time>2017-07-04T15:24:22Z</time>
      </trkpt>
      <trkpt lat="49.43544" lon="1.35154">
        <ele>124</ele>
        <time>2017-07-04T15:24:39Z</time>
      </trkpt>
      <trkpt lat="49.43547" lon="1.35156">
        <ele>124</ele>
        <time>2017-07-04T15:24:39Z</time>
      </trkpt>
      <trkpt lat="49.43551" lon="1.35161">
        <ele>124</ele>
        <time>2017-07-04T15:24:39Z</time>
      </trkpt>
      <trkpt lat="49.43554" lon="1.35164">
        <ele>124</ele>
        <time>2017-07-04T15:24:39Z</time>
      </trkpt>
      <trkpt lat="49.43558" lon="1.35163">
        <ele>124</ele>
        <time>2017-07-04T15:24:55Z</time>
      </trkpt>
      <trkpt lat="49.43562" lon="1.35165">
        <ele>124</ele>
        <time>2017-07-04T15:24:55Z</time>
      </trkpt>
      <trkpt lat="49.43564" lon="1.35165">
        <ele>124</ele>
        <time>2017-07-04T15:24:55Z</time>
      </trkpt>
      <trkpt lat="49.4357" lon="1.35165">
        <ele>124</ele>
        <time>2017-07-04T15:24:55Z</time>
      </trkpt>
      <trkpt lat="49.43574" lon="1.35162">
        <ele>124</ele>
        <time>2017-07-04T15:25:11Z</time>
      </trkpt>
      <trkpt lat="49.43577" lon="1.35161">
        <ele>124</ele>
        <time>2017-07-04T15:25:11Z</time>
      </trkpt>
      <trkpt lat="49.43583" lon="1.35163">
        <ele>124</ele>
        <time>2017-07-04T15:25:11Z</time>
      </trkpt>
      <trkpt lat="49.43586" lon="1.35166">
        <ele>124</ele>
        <time>2017-07-04T15:25:11Z</time>
      </trkpt>
      <trkpt lat="49.4359" lon="1.35171">
        <ele>124</ele>
        <time>2017-07-04T15:25:27Z</time>
      </trkpt>
      <trkpt lat="49.43592" lon="1.35175">
        <ele>124</ele>
        <time>2017-07-04T15:25:27Z</time>
      </trkpt>
      <trkpt lat="49.43595" lon="1.35176">
        <ele>124</ele>
        <time>2017-07-04T15:25:27Z</time>
      </trkpt>
      <trkpt lat="49.43618" lon="1.35124">
        <ele>113</ele>
        <time>2017-07-04T15:25:27Z</time>
      </trkpt>
      <trkpt lat="49.43631" lon="1.35115">
        <ele>122</ele>
        <time>2017-07-04T15:25:43Z</time>
      </trkpt>
      <trkpt lat="49.43637" lon="1.35112">
        <ele>122</ele>
        <time>2017-07-04T15:25:43Z</time>
      </trkpt>
      <trkpt lat="49.43643" lon="1.35113">
        <ele>122</ele>
        <time>2017-07-04T15:25:43Z</time>
      </trkpt>
      <trkpt lat="49.43645" lon="1.35118">
        <ele>122</ele>
        <time>2017-07-04T15:25:43Z</time>
      </trkpt>
      <trkpt lat="49.43648" lon="1.35122">
        <ele>122</ele>
        <time>2017-07-04T15:26:00Z</time>
      </trkpt>
      <trkpt lat="49.43652" lon="1.35128">
        <ele>125</ele>
        <time>2017-07-04T15:26:00Z</time>
      </trkpt>
      <trkpt lat="49.43654" lon="1.35131">
        <ele>125</ele>
        <time>2017-07-04T15:26:00Z</time>
      </trkpt>
      <trkpt lat="49.43659" lon="1.35136">
        <ele>125</ele>
        <time>2017-07-04T15:26:00Z</time>
      </trkpt>
      <trkpt lat="49.43662" lon="1.3514">
        <ele>125</ele>
        <time>2017-07-04T15:26:15Z</time>
      </trkpt>
      <trkpt lat="49.43667" lon="1.35145">
        <ele>125</ele>
        <time>2017-07-04T15:26:15Z</time>
      </trkpt>
      <trkpt lat="49.43674" lon="1.35144">
        <ele>125</ele>
        <time>2017-07-04T15:26:15Z</time>
      </trkpt>
      <trkpt lat="49.43688" lon="1.35134">
        <ele>125</ele>
        <time>2017-07-04T15:26:15Z</time>
      </trkpt>
      <trkpt lat="49.43695" lon="1.35131">
        <ele>125</ele>
        <time>2017-07-04T15:26:30Z</time>
      </trkpt>
      <trkpt lat="49.437" lon="1.35133">
        <ele>125</ele>
        <time>2017-07-04T15:26:30Z</time>
      </trkpt>
      <trkpt lat="49.43703" lon="1.35135">
        <ele>125</ele>
        <time>2017-07-04T15:26:30Z</time>
      </trkpt>
      <trkpt lat="49.4371" lon="1.35132">
        <ele>132</ele>
        <time>2017-07-04T15:26:30Z</time>
      </trkpt>
      <trkpt lat="49.43716" lon="1.35129">
        <ele>132</ele>
        <time>2017-07-04T15:26:47Z</time>
      </trkpt>
      <trkpt lat="49.4372" lon="1.3513">
        <ele>132</ele>
        <time>2017-07-04T15:26:47Z</time>
      </trkpt>
      <trkpt lat="49.43724" lon="1.35134">
        <ele>132</ele>
        <time>2017-07-04T15:26:47Z</time>
      </trkpt>
      <trkpt lat="49.43728" lon="1.35138">
        <ele>132</ele>
        <time>2017-07-04T15:26:47Z</time>
      </trkpt>
      <trkpt lat="49.43731" lon="1.35143">
        <ele>132</ele>
        <time>2017-07-04T15:27:03Z</time>
      </trkpt>
      <trkpt lat="49.43734" lon="1.35147">
        <ele>132</ele>
        <time>2017-07-04T15:27:03Z</time>
      </trkpt>
      <trkpt lat="49.43739" lon="1.35152">
        <ele>132</ele>
        <time>2017-07-04T15:27:03Z</time>
      </trkpt>
      <trkpt lat="49.4374" lon="1.35155">
        <ele>132</ele>
        <time>2017-07-04T15:27:03Z</time>
      </trkpt>
      <trkpt lat="49.43743" lon="1.35157">
        <ele>132</ele>
        <time>2017-07-04T15:27:19Z</time>
      </trkpt>
      <trkpt lat="49.43746" lon="1.35159">
        <ele>132</ele>
        <time>2017-07-04T15:27:19Z</time>
      </trkpt>
      <trkpt lat="49.4375" lon="1.35163">
        <ele>132</ele>
        <time>2017-07-04T15:27:19Z</time>
      </trkpt>
      <trkpt lat="49.43753" lon="1.35166">
        <ele>132</ele>
        <time>2017-07-04T15:27:19Z</time>
      </trkpt>
      <trkpt lat="49.43757" lon="1.35171">
        <ele>132</ele>
        <time>2017-07-04T15:27:35Z</time>
      </trkpt>
      <trkpt lat="49.4376" lon="1.35166">
        <ele>132</ele>
        <time>2017-07-04T15:27:35Z</time>
      </trkpt>
      <trkpt lat="49.43767" lon="1.35162">
        <ele>132</ele>
        <time>2017-07-04T15:27:35Z</time>
      </trkpt>
      <trkpt lat="49.43771" lon="1.35162">
        <ele>132</ele>
        <time>2017-07-04T15:27:35Z</time>
      </trkpt>
      <trkpt lat="49.43777" lon="1.35171">
        <ele>132</ele>
        <time>2017-07-04T15:34:51Z</time>
      </trkpt>
      <trkpt lat="49.43777" lon="1.35171">
        <ele>132</ele>
        <time>2017-07-04T15:34:51Z</time>
      </trkpt>
      <trkpt lat="49.43778" lon="1.35179">
        <ele>132</ele>
        <time>2017-07-04T15:34:51Z</time>
      </trkpt>
      <trkpt lat="49.43778" lon="1.35184">
        <ele>132</ele>
        <time>2017-07-04T15:34:51Z</time>
      </trkpt>
      <trkpt lat="49.43775" lon="1.3519">
        <ele>132</ele>
        <time>2017-07-04T15:34:51Z</time>
      </trkpt>
      <trkpt lat="49.43772" lon="1.35192">
        <ele>132</ele>
        <time>2017-07-04T15:35:07Z</time>
      </trkpt>
      <trkpt lat="49.43766" lon="1.35195">
        <ele>132</ele>
        <time>2017-07-04T15:35:07Z</time>
      </trkpt>
      <trkpt lat="49.43762" lon="1.35193">
        <ele>132</ele>
        <time>2017-07-04T15:35:07Z</time>
      </trkpt>
      <trkpt lat="49.43757" lon="1.35192">
        <ele>132</ele>
        <time>2017-07-04T15:35:07Z</time>
      </trkpt>
      <trkpt lat="49.43752" lon="1.35192">
        <ele>132</ele>
        <time>2017-07-04T15:35:27Z</time>
      </trkpt>
      <trkpt lat="49.43746" lon="1.35193">
        <ele>132</ele>
        <time>2017-07-04T15:35:27Z</time>
      </trkpt>
      <trkpt lat="49.43738" lon="1.35192">
        <ele>132</ele>
        <time>2017-07-04T15:35:27Z</time>
      </trkpt>
      <trkpt lat="49.43733" lon="1.3519">
        <ele>132</ele>
        <time>2017-07-04T15:35:27Z</time>
      </trkpt>
      <trkpt lat="49.4373" lon="1.3519">
        <ele>132</ele>
        <time>2017-07-04T15:35:44Z</time>
      </trkpt>
      <trkpt lat="49.43724" lon="1.35187">
        <ele>132</ele>
        <time>2017-07-04T15:35:44Z</time>
      </trkpt>
      <trkpt lat="49.4372" lon="1.35187">
        <ele>132</ele>
        <time>2017-07-04T15:35:44Z</time>
      </trkpt>
      <trkpt lat="49.43716" lon="1.35187">
        <ele>132</ele>
        <time>2017-07-04T15:35:44Z</time>
      </trkpt>
      <trkpt lat="49.43714" lon="1.35188">
        <ele>132</ele>
        <time>2017-07-04T15:36:00Z</time>
      </trkpt>
      <trkpt lat="49.43709" lon="1.35191">
        <ele>132</ele>
        <time>2017-07-04T15:36:00Z</time>
      </trkpt>
      <trkpt lat="49.43705" lon="1.35193">
        <ele>125</ele>
        <time>2017-07-04T15:36:00Z</time>
      </trkpt>
      <trkpt lat="49.43702" lon="1.35197">
        <ele>125</ele>
        <time>2017-07-04T15:36:00Z</time>
      </trkpt>
      <trkpt lat="49.43699" lon="1.35198">
        <ele>125</ele>
        <time>2017-07-04T15:36:15Z</time>
      </trkpt>
      <trkpt lat="49.43696" lon="1.352">
        <ele>125</ele>
        <time>2017-07-04T15:36:15Z</time>
      </trkpt>
      <trkpt lat="49.43691" lon="1.35202">
        <ele>125</ele>
        <time>2017-07-04T15:36:15Z</time>
      </trkpt>
      <trkpt lat="49.43686" lon="1.35203">
        <ele>125</ele>
        <time>2017-07-04T15:36:15Z</time>
      </trkpt>
      <trkpt lat="49.43683" lon="1.35204">
        <ele>125</ele>
        <time>2017-07-04T15:36:31Z</time>
      </trkpt>
      <trkpt lat="49.43681" lon="1.35208">
        <ele>125</ele>
        <time>2017-07-04T15:36:31Z</time>
      </trkpt>
      <trkpt lat="49.43677" lon="1.35213">
        <ele>132</ele>
        <time>2017-07-04T15:36:31Z</time>
      </trkpt>
      <trkpt lat="49.43674" lon="1.35215">
        <ele>132</ele>
        <time>2017-07-04T15:36:31Z</time>
      </trkpt>
      <trkpt lat="49.43671" lon="1.35216">
        <ele>132</ele>
        <time>2017-07-04T15:36:47Z</time>
      </trkpt>
      <trkpt lat="49.43673" lon="1.35217">
        <ele>132</ele>
        <time>2017-07-04T15:36:47Z</time>
      </trkpt>
      <trkpt lat="49.43677" lon="1.3522">
        <ele>132</ele>
        <time>2017-07-04T15:36:47Z</time>
      </trkpt>
      <trkpt lat="49.4368" lon="1.35224">
        <ele>132</ele>
        <time>2017-07-04T15:36:47Z</time>
      </trkpt>
      <trkpt lat="49.43685" lon="1.35228">
        <ele>132</ele>
        <time>2017-07-04T15:37:03Z</time>
      </trkpt>
      <trkpt lat="49.43688" lon="1.3523">
        <ele>132</ele>
        <time>2017-07-04T15:37:03Z</time>
      </trkpt>
      <trkpt lat="49.43691" lon="1.35237">
        <ele>132</ele>
        <time>2017-07-04T15:37:03Z</time>
      </trkpt>
      <trkpt lat="49.43693" lon="1.35242">
        <ele>132</ele>
        <time>2017-07-04T15:37:03Z</time>
      </trkpt>
      <trkpt lat="49.43695" lon="1.3525">
        <ele>132</ele>
        <time>2017-07-04T15:37:19Z</time>
      </trkpt>
      <trkpt lat="49.43695" lon="1.35257">
        <ele>132</ele>
        <time>2017-07-04T15:37:19Z</time>
      </trkpt>
      <trkpt lat="49.43695" lon="1.35268">
        <ele>132</ele>
        <time>2017-07-04T15:37:19Z</time>
      </trkpt>
      <trkpt lat="49.43695" lon="1.35272">
        <ele>132</ele>
        <time>2017-07-04T15:37:19Z</time>
      </trkpt>
      <trkpt lat="49.43694" lon="1.35279">
        <ele>132</ele>
        <time>2017-07-04T15:37:34Z</time>
      </trkpt>
      <trkpt lat="49.43692" lon="1.35287">
        <ele>132</ele>
        <time>2017-07-04T15:37:34Z</time>
      </trkpt>
      <trkpt lat="49.43691" lon="1.35293">
        <ele>134</ele>
        <time>2017-07-04T15:37:34Z</time>
      </trkpt>
      <trkpt lat="49.4369" lon="1.35298">
        <ele>134</ele>
        <time>2017-07-04T15:37:34Z</time>
      </trkpt>
      <trkpt lat="49.4369" lon="1.35307">
        <ele>134</ele>
        <time>2017-07-04T15:37:51Z</time>
      </trkpt>
      <trkpt lat="49.4369" lon="1.35311">
        <ele>134</ele>
        <time>2017-07-04T15:37:51Z</time>
      </trkpt>
      <trkpt lat="49.43692" lon="1.35317">
        <ele>134</ele>
        <time>2017-07-04T15:37:51Z</time>
      </trkpt>
      <trkpt lat="49.43693" lon="1.35327">
        <ele>134</ele>
        <time>2017-07-04T15:37:51Z</time>
      </trkpt>
      <trkpt lat="49.43693" lon="1.35332">
        <ele>134</ele>
        <time>2017-07-04T15:38:07Z</time>
      </trkpt>
      <trkpt lat="49.43691" lon="1.35339">
        <ele>134</ele>
        <time>2017-07-04T15:38:07Z</time>
      </trkpt>
      <trkpt lat="49.43691" lon="1.35344">
        <ele>134</ele>
        <time>2017-07-04T15:38:07Z</time>
      </trkpt>
      <trkpt lat="49.4369" lon="1.3535">
        <ele>134</ele>
        <time>2017-07-04T15:38:07Z</time>
      </trkpt>
      <trkpt lat="49.43691" lon="1.35358">
        <ele>134</ele>
        <time>2017-07-04T15:38:24Z</time>
      </trkpt>
      <trkpt lat="49.4369" lon="1.35363">
        <ele>134</ele>
        <time>2017-07-04T15:38:24Z</time>
      </trkpt>
      <trkpt lat="49.43687" lon="1.35373">
        <ele>134</ele>
        <time>2017-07-04T15:38:24Z</time>
      </trkpt>
      <trkpt lat="49.43685" lon="1.3538">
        <ele>133</ele>
        <time>2017-07-04T15:38:24Z</time>
      </trkpt>
      <trkpt lat="49.43683" lon="1.35384">
        <ele>133</ele>
        <time>2017-07-04T15:38:40Z</time>
      </trkpt>
      <trkpt lat="49.4368" lon="1.3539">
        <ele>133</ele>
        <time>2017-07-04T15:38:40Z</time>
      </trkpt>
      <trkpt lat="49.43679" lon="1.35396">
        <ele>133</ele>
        <time>2017-07-04T15:38:40Z</time>
      </trkpt>
      <trkpt lat="49.43683" lon="1.35402">
        <ele>133</ele>
        <time>2017-07-04T15:38:40Z</time>
      </trkpt>
      <trkpt lat="49.43687" lon="1.35405">
        <ele>133</ele>
        <time>2017-07-04T15:38:55Z</time>
      </trkpt>
      <trkpt lat="49.43692" lon="1.35409">
        <ele>133</ele>
        <time>2017-07-04T15:38:55Z</time>
      </trkpt>
      <trkpt lat="49.43696" lon="1.35413">
        <ele>133</ele>
        <time>2017-07-04T15:38:55Z</time>
      </trkpt>
      <trkpt lat="49.43699" lon="1.35415">
        <ele>133</ele>
        <time>2017-07-04T15:38:55Z</time>
      </trkpt>
      <trkpt lat="49.43703" lon="1.35419">
        <ele>133</ele>
        <time>2017-07-04T15:39:12Z</time>
      </trkpt>
      <trkpt lat="49.43708" lon="1.35425">
        <ele>133</ele>
        <time>2017-07-04T15:39:12Z</time>
      </trkpt>
      <trkpt lat="49.43711" lon="1.35428">
        <ele>133</ele>
        <time>2017-07-04T15:39:12Z</time>
      </trkpt>
      <trkpt lat="49.43715" lon="1.35429">
        <ele>133</ele>
        <time>2017-07-04T15:39:12Z</time>
      </trkpt>
      <trkpt lat="49.43719" lon="1.35424">
        <ele>133</ele>
        <time>2017-07-04T15:39:59Z</time>
      </trkpt>
      <trkpt lat="49.43719" lon="1.35424">
        <ele>133</ele>
        <time>2017-07-04T15:39:59Z</time>
      </trkpt>
      <trkpt lat="49.4372" lon="1.35425">
        <ele>133</ele>
        <time>2017-07-04T15:39:59Z</time>
      </trkpt>
      <trkpt lat="49.43724" lon="1.35427">
        <ele>133</ele>
        <time>2017-07-04T15:39:59Z</time>
      </trkpt>
      <trkpt lat="49.43729" lon="1.35429">
        <ele>133</ele>
        <time>2017-07-04T15:39:59Z</time>
      </trkpt>
      <trkpt lat="49.43731" lon="1.35435">
        <ele>133</ele>
        <time>2017-07-04T15:40:15Z</time>
      </trkpt>
      <trkpt lat="49.43735" lon="1.35439">
        <ele>133</ele>
        <time>2017-07-04T15:40:15Z</time>
      </trkpt>
      <trkpt lat="49.4374" lon="1.35443">
        <ele>133</ele>
        <time>2017-07-04T15:40:15Z</time>
      </trkpt>
      <trkpt lat="49.43743" lon="1.35446">
        <ele>133</ele>
        <time>2017-07-04T15:40:15Z</time>
      </trkpt>
      <trkpt lat="49.4375" lon="1.35445">
        <ele>133</ele>
        <time>2017-07-04T15:40:32Z</time>
      </trkpt>
      <trkpt lat="49.43755" lon="1.35446">
        <ele>133</ele>
        <time>2017-07-04T15:40:32Z</time>
      </trkpt>
      <trkpt lat="49.4376" lon="1.3545">
        <ele>133</ele>
        <time>2017-07-04T15:40:32Z</time>
      </trkpt>
      <trkpt lat="49.43764" lon="1.35453">
        <ele>133</ele>
        <time>2017-07-04T15:40:32Z</time>
      </trkpt>
      <trkpt lat="49.43767" lon="1.35455">
        <ele>133</ele>
        <time>2017-07-04T15:40:48Z</time>
      </trkpt>
      <trkpt lat="49.43769" lon="1.3546">
        <ele>133</ele>
        <time>2017-07-04T15:40:48Z</time>
      </trkpt>
      <trkpt lat="49.43772" lon="1.35463">
        <ele>133</ele>
        <time>2017-07-04T15:40:48Z</time>
      </trkpt>
      <trkpt lat="49.43778" lon="1.35468">
        <ele>133</ele>
        <time>2017-07-04T15:40:48Z</time>
      </trkpt>
      <trkpt lat="49.43782" lon="1.3547">
        <ele>133</ele>
        <time>2017-07-04T15:41:04Z</time>
      </trkpt>
      <trkpt lat="49.43788" lon="1.35474">
        <ele>133</ele>
        <time>2017-07-04T15:41:04Z</time>
      </trkpt>
      <trkpt lat="49.43791" lon="1.35476">
        <ele>133</ele>
        <time>2017-07-04T15:41:04Z</time>
      </trkpt>
      <trkpt lat="49.43795" lon="1.35482">
        <ele>134</ele>
        <time>2017-07-04T15:41:04Z</time>
      </trkpt>
      <trkpt lat="49.43798" lon="1.35486">
        <ele>134</ele>
        <time>2017-07-04T15:41:19Z</time>
      </trkpt>
      <trkpt lat="49.43802" lon="1.35488">
        <ele>134</ele>
        <time>2017-07-04T15:41:19Z</time>
      </trkpt>
      <trkpt lat="49.43807" lon="1.35488">
        <ele>134</ele>
        <time>2017-07-04T15:41:19Z</time>
      </trkpt>
      <trkpt lat="49.43813" lon="1.35488">
        <ele>134</ele>
        <time>2017-07-04T15:41:19Z</time>
      </trkpt>
      <trkpt lat="49.43819" lon="1.35489">
        <ele>134</ele>
        <time>2017-07-04T15:41:34Z</time>
      </trkpt>
      <trkpt lat="49.43825" lon="1.3549">
        <ele>134</ele>
        <time>2017-07-04T15:41:34Z</time>
      </trkpt>
      <trkpt lat="49.43831" lon="1.35491">
        <ele>134</ele>
        <time>2017-07-04T15:41:34Z</time>
      </trkpt>
      <trkpt lat="49.43834" lon="1.35494">
        <ele>134</ele>
        <time>2017-07-04T15:41:34Z</time>
      </trkpt>
      <trkpt lat="49.43837" lon="1.35498">
        <ele>134</ele>
        <time>2017-07-04T15:41:51Z</time>
      </trkpt>
      <trkpt lat="49.43838" lon="1.35502">
        <ele>134</ele>
        <time>2017-07-04T15:41:51Z</time>
      </trkpt>
      <trkpt lat="49.43838" lon="1.3551">
        <ele>134</ele>
        <time>2017-07-04T15:41:51Z</time>
      </trkpt>
      <trkpt lat="49.43839" lon="1.35515">
        <ele>134</ele>
        <time>2017-07-04T15:41:51Z</time>
      </trkpt>
      <trkpt lat="49.43841" lon="1.35522">
        <ele>134</ele>
        <time>2017-07-04T15:42:08Z</time>
      </trkpt>
      <trkpt lat="49.43843" lon="1.35527">
        <ele>134</ele>
        <time>2017-07-04T15:42:08Z</time>
      </trkpt>
      <trkpt lat="49.43844" lon="1.35536">
        <ele>134</ele>
        <time>2017-07-04T15:42:08Z</time>
      </trkpt>
      <trkpt lat="49.43846" lon="1.35544">
        <ele>135</ele>
        <time>2017-07-04T15:42:08Z</time>
      </trkpt>
      <trkpt lat="49.43846" lon="1.35548">
        <ele>135</ele>
        <time>2017-07-04T15:42:23Z</time>
      </trkpt>
      <trkpt lat="49.43846" lon="1.35559">
        <ele>135</ele>
        <time>2017-07-04T15:42:23Z</time>
      </trkpt>
      <trkpt lat="49.43848" lon="1.35566">
        <ele>135</ele>
        <time>2017-07-04T15:42:23Z</time>
      </trkpt>
      <trkpt lat="49.43849" lon="1.3557">
        <ele>135</ele>
        <time>2017-07-04T15:42:23Z</time>
      </trkpt>
      <trkpt lat="49.43851" lon="1.35577">
        <ele>135</ele>
        <time>2017-07-04T15:42:38Z</time>
      </trkpt>
      <trkpt lat="49.43853" lon="1.3558">
        <ele>135</ele>
        <time>2017-07-04T15:42:38Z</time>
      </trkpt>
      <trkpt lat="49.43855" lon="1.35587">
        <ele>135</ele>
        <time>2017-07-04T15:42:38Z</time>
      </trkpt>
      <trkpt lat="49.43856" lon="1.35595">
        <ele>135</ele>
        <time>2017-07-04T15:42:38Z</time>
      </trkpt>
      <trkpt lat="49.43857" lon="1.35604">
        <ele>135</ele>
        <time>2017-07-04T15:42:56Z</time>
      </trkpt>
      <trkpt lat="49.43858" lon="1.35611">
        <ele>135</ele>
        <time>2017-07-04T15:42:56Z</time>
      </trkpt>
      <trkpt lat="49.43859" lon="1.35615">
        <ele>135</ele>
        <time>2017-07-04T15:42:56Z</time>
      </trkpt>
      <trkpt lat="49.43861" lon="1.35626">
        <ele>136</ele>
        <time>2017-07-04T15:42:56Z</time>
      </trkpt>
      <trkpt lat="49.43863" lon="1.35631">
        <ele>136</ele>
        <time>2017-07-04T15:43:11Z</time>
      </trkpt>
      <trkpt lat="49.43865" lon="1.35637">
        <ele>136</ele>
        <time>2017-07-04T15:43:11Z</time>
      </trkpt>
      <trkpt lat="49.43867" lon="1.35647">
        <ele>136</ele>
        <time>2017-07-04T15:43:11Z</time>
      </trkpt>
      <trkpt lat="49.43868" lon="1.35653">
        <ele>136</ele>
        <time>2017-07-04T15:43:11Z</time>
      </trkpt>
      <trkpt lat="49.4387" lon="1.35657">
        <ele>136</ele>
        <time>2017-07-04T15:43:27Z</time>
      </trkpt>
      <trkpt lat="49.43872" lon="1.35662">
        <ele>136</ele>
        <time>2017-07-04T15:43:27Z</time>
      </trkpt>
      <trkpt lat="49.43874" lon="1.35667">
        <ele>136</ele>
        <time>2017-07-04T15:43:27Z</time>
      </trkpt>
      <trkpt lat="49.43877" lon="1.35678">
        <ele>135</ele>
        <time>2017-07-04T15:43:27Z</time>
      </trkpt>
      <trkpt lat="49.43879" lon="1.35686">
        <ele>135</ele>
        <time>2017-07-04T15:43:42Z</time>
      </trkpt>
      <trkpt lat="49.4388" lon="1.35693">
        <ele>135</ele>
        <time>2017-07-04T15:43:42Z</time>
      </trkpt>
      <trkpt lat="49.43883" lon="1.35699">
        <ele>135</ele>
        <time>2017-07-04T15:43:42Z</time>
      </trkpt>
      <trkpt lat="49.43885" lon="1.35705">
        <ele>135</ele>
        <time>2017-07-04T15:43:42Z</time>
      </trkpt>
      <trkpt lat="49.43886" lon="1.3571">
        <ele>135</ele>
        <time>2017-07-04T15:44:00Z</time>
      </trkpt>
      <trkpt lat="49.43889" lon="1.35717">
        <ele>135</ele>
        <time>2017-07-04T15:44:00Z</time>
      </trkpt>
      <trkpt lat="49.43892" lon="1.35721">
        <ele>135</ele>
        <time>2017-07-04T15:44:00Z</time>
      </trkpt>
      <trkpt lat="49.43894" lon="1.3573">
        <ele>135</ele>
        <time>2017-07-04T15:44:00Z</time>
      </trkpt>
      <trkpt lat="49.43896" lon="1.35735">
        <ele>135</ele>
        <time>2017-07-04T15:44:16Z</time>
      </trkpt>
      <trkpt lat="49.43899" lon="1.3574">
        <ele>135</ele>
        <time>2017-07-04T15:44:16Z</time>
      </trkpt>
      <trkpt lat="49.439" lon="1.35745">
        <ele>135</ele>
        <time>2017-07-04T15:44:16Z</time>
      </trkpt>
      <trkpt lat="49.43904" lon="1.35753">
        <ele>135</ele>
        <time>2017-07-04T15:44:16Z</time>
      </trkpt>
      <trkpt lat="49.43906" lon="1.35755">
        <ele>135</ele>
        <time>2017-07-04T15:44:31Z</time>
      </trkpt>
      <trkpt lat="49.4391" lon="1.35761">
        <ele>135</ele>
        <time>2017-07-04T15:44:31Z</time>
      </trkpt>
      <trkpt lat="49.43915" lon="1.35768">
        <ele>135</ele>
        <time>2017-07-04T15:44:31Z</time>
      </trkpt>
      <trkpt lat="49.43918" lon="1.35773">
        <ele>135</ele>
        <time>2017-07-04T15:44:31Z</time>
      </trkpt>
      <trkpt lat="49.4392" lon="1.35777">
        <ele>135</ele>
        <time>2017-07-04T15:44:47Z</time>
      </trkpt>
      <trkpt lat="49.43925" lon="1.35784">
        <ele>135</ele>
        <time>2017-07-04T15:44:47Z</time>
      </trkpt>
      <trkpt lat="49.43928" lon="1.35789">
        <ele>135</ele>
        <time>2017-07-04T15:44:47Z</time>
      </trkpt>
      <trkpt lat="49.43932" lon="1.35795">
        <ele>135</ele>
        <time>2017-07-04T15:44:47Z</time>
      </trkpt>
      <trkpt lat="49.43934" lon="1.35802">
        <ele>135</ele>
        <time>2017-07-04T15:45:03Z</time>
      </trkpt>
      <trkpt lat="49.43938" lon="1.35809">
        <ele>135</ele>
        <time>2017-07-04T15:45:03Z</time>
      </trkpt>
      <trkpt lat="49.43941" lon="1.35815">
        <ele>135</ele>
        <time>2017-07-04T15:45:03Z</time>
      </trkpt>
      <trkpt lat="49.43944" lon="1.35822">
        <ele>135</ele>
        <time>2017-07-04T15:45:03Z</time>
      </trkpt>
      <trkpt lat="49.43947" lon="1.35829">
        <ele>135</ele>
        <time>2017-07-04T15:45:19Z</time>
      </trkpt>
      <trkpt lat="49.43949" lon="1.35836">
        <ele>135</ele>
        <time>2017-07-04T15:45:19Z</time>
      </trkpt>
      <trkpt lat="49.43952" lon="1.35844">
        <ele>135</ele>
        <time>2017-07-04T15:45:19Z</time>
      </trkpt>
      <trkpt lat="49.43954" lon="1.35851">
        <ele>135</ele>
        <time>2017-07-04T15:45:19Z</time>
      </trkpt>
      <trkpt lat="49.43957" lon="1.35859">
        <ele>135</ele>
        <time>2017-07-04T15:45:35Z</time>
      </trkpt>
      <trkpt lat="49.43959" lon="1.35864">
        <ele>135</ele>
        <time>2017-07-04T15:45:35Z</time>
      </trkpt>
      <trkpt lat="49.43963" lon="1.35872">
        <ele>135</ele>
        <time>2017-07-04T15:45:35Z</time>
      </trkpt>
      <trkpt lat="49.43965" lon="1.35876">
        <ele>134</ele>
        <time>2017-07-04T15:45:35Z</time>
      </trkpt>
      <trkpt lat="49.43967" lon="1.35879">
        <ele>134</ele>
        <time>2017-07-04T15:45:50Z</time>
      </trkpt>
      <trkpt lat="49.4397" lon="1.35886">
        <ele>134</ele>
        <time>2017-07-04T15:45:50Z</time>
      </trkpt>
      <trkpt lat="49.43971" lon="1.35891">
        <ele>134</ele>
        <time>2017-07-04T15:45:50Z</time>
      </trkpt>
      <trkpt lat="49.43974" lon="1.35896">
        <ele>134</ele>
        <time>2017-07-04T15:45:50Z</time>
      </trkpt>
      <trkpt lat="49.43977" lon="1.35904">
        <ele>134</ele>
        <time>2017-07-04T15:46:07Z</time>
      </trkpt>
      <trkpt lat="49.43979" lon="1.35909">
        <ele>134</ele>
        <time>2017-07-04T15:46:07Z</time>
      </trkpt>
      <trkpt lat="49.4398" lon="1.35917">
        <ele>134</ele>
        <time>2017-07-04T15:46:07Z</time>
      </trkpt>
      <trkpt lat="49.43984" lon="1.35927">
        <ele>134</ele>
        <time>2017-07-04T15:46:08Z</time>
      </trkpt>
      <trkpt lat="49.43986" lon="1.35931">
        <ele>134</ele>
        <time>2017-07-04T15:46:23Z</time>
      </trkpt>
      <trkpt lat="49.43989" lon="1.35937">
        <ele>134</ele>
        <time>2017-07-04T15:46:23Z</time>
      </trkpt>
      <trkpt lat="49.43992" lon="1.35943">
        <ele>134</ele>
        <time>2017-07-04T15:46:23Z</time>
      </trkpt>
      <trkpt lat="49.43995" lon="1.35951">
        <ele>134</ele>
        <time>2017-07-04T15:46:23Z</time>
      </trkpt>
      <trkpt lat="49.43999" lon="1.35957">
        <ele>134</ele>
        <time>2017-07-04T15:46:39Z</time>
      </trkpt>
      <trkpt lat="49.44003" lon="1.35963">
        <ele>134</ele>
        <time>2017-07-04T15:46:39Z</time>
      </trkpt>
      <trkpt lat="49.44005" lon="1.35967">
        <ele>134</ele>
        <time>2017-07-04T15:46:39Z</time>
      </trkpt>
      <trkpt lat="49.44008" lon="1.35973">
        <ele>134</ele>
        <time>2017-07-04T15:46:39Z</time>
      </trkpt>
      <trkpt lat="49.44012" lon="1.35981">
        <ele>134</ele>
        <time>2017-07-04T15:46:55Z</time>
      </trkpt>
      <trkpt lat="49.44015" lon="1.35985">
        <ele>134</ele>
        <time>2017-07-04T15:46:55Z</time>
      </trkpt>
      <trkpt lat="49.44019" lon="1.35991">
        <ele>134</ele>
        <time>2017-07-04T15:46:55Z</time>
      </trkpt>
      <trkpt lat="49.44023" lon="1.35995">
        <ele>134</ele>
        <time>2017-07-04T15:46:55Z</time>
      </trkpt>
      <trkpt lat="49.44027" lon="1.36">
        <ele>134</ele>
        <time>2017-07-04T15:47:10Z</time>
      </trkpt>
      <trkpt lat="49.44031" lon="1.36002">
        <ele>134</ele>
        <time>2017-07-04T15:47:10Z</time>
      </trkpt>
      <trkpt lat="49.44034" lon="1.36006">
        <ele>134</ele>
        <time>2017-07-04T15:47:10Z</time>
      </trkpt>
      <trkpt lat="49.44039" lon="1.3601">
        <ele>134</ele>
        <time>2017-07-04T15:47:10Z</time>
      </trkpt>
      <trkpt lat="49.44043" lon="1.36015">
        <ele>133</ele>
        <time>2017-07-04T15:47:27Z</time>
      </trkpt>
      <trkpt lat="49.44049" lon="1.36021">
        <ele>133</ele>
        <time>2017-07-04T15:47:27Z</time>
      </trkpt>
      <trkpt lat="49.44052" lon="1.36024">
        <ele>133</ele>
        <time>2017-07-04T15:47:27Z</time>
      </trkpt>
      <trkpt lat="49.44056" lon="1.36031">
        <ele>133</ele>
        <time>2017-07-04T15:47:27Z</time>
      </trkpt>
      <trkpt lat="49.44058" lon="1.36035">
        <ele>133</ele>
        <time>2017-07-04T15:47:43Z</time>
      </trkpt>
      <trkpt lat="49.44061" lon="1.3604">
        <ele>133</ele>
        <time>2017-07-04T15:47:43Z</time>
      </trkpt>
      <trkpt lat="49.44065" lon="1.36044">
        <ele>131</ele>
        <time>2017-07-04T15:47:43Z</time>
      </trkpt>
      <trkpt lat="49.44073" lon="1.36049">
        <ele>131</ele>
        <time>2017-07-04T15:47:43Z</time>
      </trkpt>
      <trkpt lat="49.44076" lon="1.36052">
        <ele>131</ele>
        <time>2017-07-04T15:47:59Z</time>
      </trkpt>
      <trkpt lat="49.4408" lon="1.36058">
        <ele>131</ele>
        <time>2017-07-04T15:47:59Z</time>
      </trkpt>
      <trkpt lat="49.44083" lon="1.3606">
        <ele>131</ele>
        <time>2017-07-04T15:47:59Z</time>
      </trkpt>
      <trkpt lat="49.44084" lon="1.36065">
        <ele>131</ele>
        <time>2017-07-04T15:47:59Z</time>
      </trkpt>
      <trkpt lat="49.44089" lon="1.36071">
        <ele>131</ele>
        <time>2017-07-04T15:48:15Z</time>
      </trkpt>
      <trkpt lat="49.44093" lon="1.36072">
        <ele>131</ele>
        <time>2017-07-04T15:48:15Z</time>
      </trkpt>
      <trkpt lat="49.44098" lon="1.36074">
        <ele>131</ele>
        <time>2017-07-04T15:48:15Z</time>
      </trkpt>
      <trkpt lat="49.44102" lon="1.36078">
        <ele>131</ele>
        <time>2017-07-04T15:48:15Z</time>
      </trkpt>
      <trkpt lat="49.44107" lon="1.36082">
        <ele>131</ele>
        <time>2017-07-04T15:48:31Z</time>
      </trkpt>
      <trkpt lat="49.44111" lon="1.36085">
        <ele>131</ele>
        <time>2017-07-04T15:48:31Z</time>
      </trkpt>
      <trkpt lat="49.44115" lon="1.36093">
        <ele>131</ele>
        <time>2017-07-04T15:48:31Z</time>
      </trkpt>
      <trkpt lat="49.44117" lon="1.36096">
        <ele>131</ele>
        <time>2017-07-04T15:48:31Z</time>
      </trkpt>
      <trkpt lat="49.44119" lon="1.36105">
        <ele>131</ele>
        <time>2017-07-04T15:48:46Z</time>
      </trkpt>
      <trkpt lat="49.44119" lon="1.36115">
        <ele>131</ele>
        <time>2017-07-04T15:48:46Z</time>
      </trkpt>
      <trkpt lat="49.44121" lon="1.36122">
        <ele>131</ele>
        <time>2017-07-04T15:48:46Z</time>
      </trkpt>
      <trkpt lat="49.44122" lon="1.36127">
        <ele>130</ele>
        <time>2017-07-04T15:48:46Z</time>
      </trkpt>
      <trkpt lat="49.44122" lon="1.36133">
        <ele>130</ele>
        <time>2017-07-04T15:49:03Z</time>
      </trkpt>
      <trkpt lat="49.44121" lon="1.36143">
        <ele>130</ele>
        <time>2017-07-04T15:49:03Z</time>
      </trkpt>
      <trkpt lat="49.44121" lon="1.36149">
        <ele>130</ele>
        <time>2017-07-04T15:49:03Z</time>
      </trkpt>
      <trkpt lat="49.44122" lon="1.36157">
        <ele>130</ele>
        <time>2017-07-04T15:49:03Z</time>
      </trkpt>
      <trkpt lat="49.44122" lon="1.36164">
        <ele>130</ele>
        <time>2017-07-04T15:49:20Z</time>
      </trkpt>
      <trkpt lat="49.44123" lon="1.3617">
        <ele>130</ele>
        <time>2017-07-04T15:49:20Z</time>
      </trkpt>
      <trkpt lat="49.44125" lon="1.36175">
        <ele>130</ele>
        <time>2017-07-04T15:49:20Z</time>
      </trkpt>
      <trkpt lat="49.44129" lon="1.36182">
        <ele>123</ele>
        <time>2017-07-04T15:49:20Z</time>
      </trkpt>
      <trkpt lat="49.44131" lon="1.36185">
        <ele>123</ele>
        <time>2017-07-04T15:49:35Z</time>
      </trkpt>
      <trkpt lat="49.44136" lon="1.36187">
        <ele>123</ele>
        <time>2017-07-04T15:49:35Z</time>
      </trkpt>
      <trkpt lat="49.44139" lon="1.3619">
        <ele>123</ele>
        <time>2017-07-04T15:49:35Z</time>
      </trkpt>
      <trkpt lat="49.44143" lon="1.36191">
        <ele>123</ele>
        <time>2017-07-04T15:49:35Z</time>
      </trkpt>
      <trkpt lat="49.44147" lon="1.36197">
        <ele>123</ele>
        <time>2017-07-04T15:49:50Z</time>
      </trkpt>
      <trkpt lat="49.44151" lon="1.36197">
        <ele>123</ele>
        <time>2017-07-04T15:49:50Z</time>
      </trkpt>
      <trkpt lat="49.44156" lon="1.36201">
        <ele>123</ele>
        <time>2017-07-04T15:49:50Z</time>
      </trkpt>
      <trkpt lat="49.44159" lon="1.36205">
        <ele>123</ele>
        <time>2017-07-04T15:49:50Z</time>
      </trkpt>
      <trkpt lat="49.44163" lon="1.36211">
        <ele>119</ele>
        <time>2017-07-04T15:50:07Z</time>
      </trkpt>
      <trkpt lat="49.44166" lon="1.36214">
        <ele>119</ele>
        <time>2017-07-04T15:50:07Z</time>
      </trkpt>
      <trkpt lat="49.44168" lon="1.36222">
        <ele>119</ele>
        <time>2017-07-04T15:50:07Z</time>
      </trkpt>
      <trkpt lat="49.4417" lon="1.36228">
        <ele>119</ele>
        <time>2017-07-04T15:50:07Z</time>
      </trkpt>
      <trkpt lat="49.44172" lon="1.36236">
        <ele>119</ele>
        <time>2017-07-04T15:50:28Z</time>
      </trkpt>
      <trkpt lat="49.44173" lon="1.36239">
        <ele>119</ele>
        <time>2017-07-04T15:50:28Z</time>
      </trkpt>
      <trkpt lat="49.44173" lon="1.36245">
        <ele>119</ele>
        <time>2017-07-04T15:50:28Z</time>
      </trkpt>
      <trkpt lat="49.44174" lon="1.36249">
        <ele>119</ele>
        <time>2017-07-04T15:50:28Z</time>
      </trkpt>
      <trkpt lat="49.44175" lon="1.36258">
        <ele>119</ele>
        <time>2017-07-04T15:50:28Z</time>
      </trkpt>
      <trkpt lat="49.44175" lon="1.36262">
        <ele>119</ele>
        <time>2017-07-04T15:50:44Z</time>
      </trkpt>
      <trkpt lat="49.44176" lon="1.36269">
        <ele>119</ele>
        <time>2017-07-04T15:50:44Z</time>
      </trkpt>
      <trkpt lat="49.44176" lon="1.36275">
        <ele>119</ele>
        <time>2017-07-04T15:50:44Z</time>
      </trkpt>
      <trkpt lat="49.44176" lon="1.3628">
        <ele>119</ele>
        <time>2017-07-04T15:50:44Z</time>
      </trkpt>
      <trkpt lat="49.44175" lon="1.36285">
        <ele>119</ele>
        <time>2017-07-04T15:50:59Z</time>
      </trkpt>
      <trkpt lat="49.44171" lon="1.3629">
        <ele>119</ele>
        <time>2017-07-04T15:50:59Z</time>
      </trkpt>
      <trkpt lat="49.44172" lon="1.36299">
        <ele>111</ele>
        <time>2017-07-04T15:50:59Z</time>
      </trkpt>
      <trkpt lat="49.44172" lon="1.36304">
        <ele>111</ele>
        <time>2017-07-04T15:50:59Z</time>
      </trkpt>
      <trkpt lat="49.44171" lon="1.36309">
        <ele>111</ele>
        <time>2017-07-04T15:51:15Z</time>
      </trkpt>
      <trkpt lat="49.44171" lon="1.36314">
        <ele>111</ele>
        <time>2017-07-04T15:51:15Z</time>
      </trkpt>
      <trkpt lat="49.44171" lon="1.36322">
        <ele>111</ele>
        <time>2017-07-04T15:51:15Z</time>
      </trkpt>
      <trkpt lat="49.4417" lon="1.36328">
        <ele>111</ele>
        <time>2017-07-04T15:51:15Z</time>
      </trkpt>
      <trkpt lat="49.44171" lon="1.36337">
        <ele>111</ele>
        <time>2017-07-04T15:51:31Z</time>
      </trkpt>
      <trkpt lat="49.4417" lon="1.36341">
        <ele>111</ele>
        <time>2017-07-04T15:51:31Z</time>
      </trkpt>
      <trkpt lat="49.4417" lon="1.36348">
        <ele>111</ele>
        <time>2017-07-04T15:51:31Z</time>
      </trkpt>
      <trkpt lat="49.4417" lon="1.36354">
        <ele>111</ele>
        <time>2017-07-04T15:51:31Z</time>
      </trkpt>
      <trkpt lat="49.4417" lon="1.36363">
        <ele>111</ele>
        <time>2017-07-04T15:51:47Z</time>
      </trkpt>
      <trkpt lat="49.44169" lon="1.36368">
        <ele>111</ele>
        <time>2017-07-04T15:51:47Z</time>
      </trkpt>
      <trkpt lat="49.44168" lon="1.36376">
        <ele>104</ele>
        <time>2017-07-04T15:51:47Z</time>
      </trkpt>
      <trkpt lat="49.44168" lon="1.36382">
        <ele>104</ele>
        <time>2017-07-04T15:51:47Z</time>
      </trkpt>
      <trkpt lat="49.44167" lon="1.36385">
        <ele>104</ele>
        <time>2017-07-04T15:52:02Z</time>
      </trkpt>
      <trkpt lat="49.44167" lon="1.36395">
        <ele>104</ele>
        <time>2017-07-04T15:52:02Z</time>
      </trkpt>
      <trkpt lat="49.44167" lon="1.36398">
        <ele>104</ele>
        <time>2017-07-04T15:52:02Z</time>
      </trkpt>
      <trkpt lat="49.44169" lon="1.36406">
        <ele>104</ele>
        <time>2017-07-04T15:52:02Z</time>
      </trkpt>
      <trkpt lat="49.44169" lon="1.36414">
        <ele>104</ele>
        <time>2017-07-04T15:52:18Z</time>
      </trkpt>
      <trkpt lat="49.44168" lon="1.36421">
        <ele>104</ele>
        <time>2017-07-04T15:52:18Z</time>
      </trkpt>
      <trkpt lat="49.44166" lon="1.36429">
        <ele>104</ele>
        <time>2017-07-04T15:52:18Z</time>
      </trkpt>
      <trkpt lat="49.44165" lon="1.36437">
        <ele>104</ele>
        <time>2017-07-04T15:52:18Z</time>
      </trkpt>
      <trkpt lat="49.44164" lon="1.36444">
        <ele>104</ele>
        <time>2017-07-04T15:52:35Z</time>
      </trkpt>
      <trkpt lat="49.44164" lon="1.36449">
        <ele>104</ele>
        <time>2017-07-04T15:52:35Z</time>
      </trkpt>
      <trkpt lat="49.44164" lon="1.36456">
        <ele>104</ele>
        <time>2017-07-04T15:52:35Z</time>
      </trkpt>
      <trkpt lat="49.44166" lon="1.36462">
        <ele>99</ele>
        <time>2017-07-04T15:52:35Z</time>
      </trkpt>
      <trkpt lat="49.44168" lon="1.3647">
        <ele>99</ele>
        <time>2017-07-04T15:52:50Z</time>
      </trkpt>
      <trkpt lat="49.44169" lon="1.36477">
        <ele>99</ele>
        <time>2017-07-04T15:52:50Z</time>
      </trkpt>
      <trkpt lat="49.4417" lon="1.36481">
        <ele>99</ele>
        <time>2017-07-04T15:52:50Z</time>
      </trkpt>
      <trkpt lat="49.4417" lon="1.36487">
        <ele>99</ele>
        <time>2017-07-04T15:52:50Z</time>
      </trkpt>
      <trkpt lat="49.4417" lon="1.36495">
        <ele>99</ele>
        <time>2017-07-04T15:53:07Z</time>
      </trkpt>
      <trkpt lat="49.44169" lon="1.36502">
        <ele>99</ele>
        <time>2017-07-04T15:53:07Z</time>
      </trkpt>
      <trkpt lat="49.4417" lon="1.36512">
        <ele>99</ele>
        <time>2017-07-04T15:53:07Z</time>
      </trkpt>
      <trkpt lat="49.4417" lon="1.36519">
        <ele>99</ele>
        <time>2017-07-04T15:53:07Z</time>
      </trkpt>
      <trkpt lat="49.44171" lon="1.36525">
        <ele>99</ele>
        <time>2017-07-04T15:53:23Z</time>
      </trkpt>
      <trkpt lat="49.44171" lon="1.36529">
        <ele>99</ele>
        <time>2017-07-04T15:53:23Z</time>
      </trkpt>
      <trkpt lat="49.44172" lon="1.36536">
        <ele>99</ele>
        <time>2017-07-04T15:53:23Z</time>
      </trkpt>
      <trkpt lat="49.44171" lon="1.36545">
        <ele>94</ele>
        <time>2017-07-04T15:53:23Z</time>
      </trkpt>
      <trkpt lat="49.4417" lon="1.36553">
        <ele>94</ele>
        <time>2017-07-04T15:53:40Z</time>
      </trkpt>
      <trkpt lat="49.44169" lon="1.3656">
        <ele>94</ele>
        <time>2017-07-04T15:53:40Z</time>
      </trkpt>
      <trkpt lat="49.4417" lon="1.36572">
        <ele>94</ele>
        <time>2017-07-04T15:53:40Z</time>
      </trkpt>
      <trkpt lat="49.4417" lon="1.36579">
        <ele>94</ele>
        <time>2017-07-04T15:53:40Z</time>
      </trkpt>
      <trkpt lat="49.4417" lon="1.36584">
        <ele>94</ele>
        <time>2017-07-04T15:53:55Z</time>
      </trkpt>
      <trkpt lat="49.4417" lon="1.36593">
        <ele>94</ele>
        <time>2017-07-04T15:53:55Z</time>
      </trkpt>
      <trkpt lat="49.44169" lon="1.36598">
        <ele>94</ele>
        <time>2017-07-04T15:53:55Z</time>
      </trkpt>
      <trkpt lat="49.44169" lon="1.36604">
        <ele>94</ele>
        <time>2017-07-04T15:53:55Z</time>
      </trkpt>
      <trkpt lat="49.44169" lon="1.36608">
        <ele>94</ele>
        <time>2017-07-04T15:54:11Z</time>
      </trkpt>
      <trkpt lat="49.44169" lon="1.36618">
        <ele>94</ele>
        <time>2017-07-04T15:54:11Z</time>
      </trkpt>
      <trkpt lat="49.44169" lon="1.36623">
        <ele>94</ele>
        <time>2017-07-04T15:54:11Z</time>
      </trkpt>
      <trkpt lat="49.44169" lon="1.36633">
        <ele>91</ele>
        <time>2017-07-04T15:54:11Z</time>
      </trkpt>
      <trkpt lat="49.44169" lon="1.3664">
        <ele>91</ele>
        <time>2017-07-04T15:54:27Z</time>
      </trkpt>
      <trkpt lat="49.44169" lon="1.3665">
        <ele>91</ele>
        <time>2017-07-04T15:54:27Z</time>
      </trkpt>
      <trkpt lat="49.44169" lon="1.36655">
        <ele>91</ele>
        <time>2017-07-04T15:54:27Z</time>
      </trkpt>
      <trkpt lat="49.4417" lon="1.36662">
        <ele>91</ele>
        <time>2017-07-04T15:54:27Z</time>
      </trkpt>
      <trkpt lat="49.4417" lon="1.3667">
        <ele>91</ele>
        <time>2017-07-04T15:54:44Z</time>
      </trkpt>
      <trkpt lat="49.44171" lon="1.36676">
        <ele>91</ele>
        <time>2017-07-04T15:54:44Z</time>
      </trkpt>
      <trkpt lat="49.44173" lon="1.36684">
        <ele>91</ele>
        <time>2017-07-04T15:54:44Z</time>
      </trkpt>
      <trkpt lat="49.44174" lon="1.36691">
        <ele>91</ele>
        <time>2017-07-04T15:54:44Z</time>
      </trkpt>
      <trkpt lat="49.44176" lon="1.36697">
        <ele>91</ele>
        <time>2017-07-04T15:54:59Z</time>
      </trkpt>
      <trkpt lat="49.44177" lon="1.36705">
        <ele>91</ele>
        <time>2017-07-04T15:54:59Z</time>
      </trkpt>
      <trkpt lat="49.4418" lon="1.36714">
        <ele>92</ele>
        <time>2017-07-04T15:54:59Z</time>
      </trkpt>
      <trkpt lat="49.44181" lon="1.36718">
        <ele>92</ele>
        <time>2017-07-04T15:54:59Z</time>
      </trkpt>
      <trkpt lat="49.4418" lon="1.36725">
        <ele>92</ele>
        <time>2017-07-04T15:55:15Z</time>
      </trkpt>
      <trkpt lat="49.44182" lon="1.36732">
        <ele>92</ele>
        <time>2017-07-04T15:55:15Z</time>
      </trkpt>
      <trkpt lat="49.44182" lon="1.36736">
        <ele>92</ele>
        <time>2017-07-04T15:55:15Z</time>
      </trkpt>
      <trkpt lat="49.44185" lon="1.3674">
        <ele>92</ele>
        <time>2017-07-04T15:55:15Z</time>
      </trkpt>
      <trkpt lat="49.44184" lon="1.36741">
        <ele>92</ele>
        <time>2017-07-04T15:55:31Z</time>
      </trkpt>
      <trkpt lat="49.44184" lon="1.36741">
        <ele>92</ele>
        <time>2017-07-04T15:55:31Z</time>
      </trkpt>
      <trkpt lat="49.44186" lon="1.36749">
        <ele>92</ele>
        <time>2017-07-04T15:55:31Z</time>
      </trkpt>
      <trkpt lat="49.44188" lon="1.36755">
        <ele>92</ele>
        <time>2017-07-04T15:55:31Z</time>
      </trkpt>
      <trkpt lat="49.44188" lon="1.36764">
        <ele>92</ele>
        <time>2017-07-04T15:55:48Z</time>
      </trkpt>
      <trkpt lat="49.44188" lon="1.36769">
        <ele>92</ele>
        <time>2017-07-04T15:55:48Z</time>
      </trkpt>
      <trkpt lat="49.44187" lon="1.36774">
        <ele>92</ele>
        <time>2017-07-04T15:55:48Z</time>
      </trkpt>
      <trkpt lat="49.44187" lon="1.36782">
        <ele>92</ele>
        <time>2017-07-04T15:55:48Z</time>
      </trkpt>
      <trkpt lat="49.44188" lon="1.36788">
        <ele>92</ele>
        <time>2017-07-04T15:56:04Z</time>
      </trkpt>
      <trkpt lat="49.4419" lon="1.36796">
        <ele>91</ele>
        <time>2017-07-04T15:56:04Z</time>
      </trkpt>
      <trkpt lat="49.44191" lon="1.36802">
        <ele>91</ele>
        <time>2017-07-04T15:56:04Z</time>
      </trkpt>
      <trkpt lat="49.44192" lon="1.36812">
        <ele>91</ele>
        <time>2017-07-04T15:56:04Z</time>
      </trkpt>
      <trkpt lat="49.44193" lon="1.36815">
        <ele>91</ele>
        <time>2017-07-04T15:56:18Z</time>
      </trkpt>
      <trkpt lat="49.44192" lon="1.36818">
        <ele>91</ele>
        <time>2017-07-04T15:56:18Z</time>
      </trkpt>
      <trkpt lat="49.44193" lon="1.36825">
        <ele>91</ele>
        <time>2017-07-04T15:56:18Z</time>
      </trkpt>
      <trkpt lat="49.44193" lon="1.36833">
        <ele>91</ele>
        <time>2017-07-04T15:56:18Z</time>
      </trkpt>
      <trkpt lat="49.44193" lon="1.36839">
        <ele>91</ele>
        <time>2017-07-04T15:56:35Z</time>
      </trkpt>
      <trkpt lat="49.44193" lon="1.36846">
        <ele>91</ele>
        <time>2017-07-04T15:56:35Z</time>
      </trkpt>
      <trkpt lat="49.44193" lon="1.36856">
        <ele>91</ele>
        <time>2017-07-04T15:56:35Z</time>
      </trkpt>
      <trkpt lat="49.44193" lon="1.36862">
        <ele>91</ele>
        <time>2017-07-04T15:56:35Z</time>
      </trkpt>
      <trkpt lat="49.44193" lon="1.36867">
        <ele>91</ele>
        <time>2017-07-04T15:56:52Z</time>
      </trkpt>
      <trkpt lat="49.44195" lon="1.36874">
        <ele>91</ele>
        <time>2017-07-04T15:56:52Z</time>
      </trkpt>
      <trkpt lat="49.44195" lon="1.3688">
        <ele>84</ele>
        <time>2017-07-04T15:56:52Z</time>
      </trkpt>
      <trkpt lat="49.44194" lon="1.36888">
        <ele>84</ele>
        <time>2017-07-04T15:56:52Z</time>
      </trkpt>
      <trkpt lat="49.44193" lon="1.36895">
        <ele>84</ele>
        <time>2017-07-04T15:57:07Z</time>
      </trkpt>
      <trkpt lat="49.44194" lon="1.36902">
        <ele>84</ele>
        <time>2017-07-04T15:57:07Z</time>
      </trkpt>
      <trkpt lat="49.44194" lon="1.36908">
        <ele>84</ele>
        <time>2017-07-04T15:57:07Z</time>
      </trkpt>
      <trkpt lat="49.44194" lon="1.36913">
        <ele>84</ele>
        <time>2017-07-04T15:57:07Z</time>
      </trkpt>
      <trkpt lat="49.44192" lon="1.36918">
        <ele>84</ele>
        <time>2017-07-04T15:57:23Z</time>
      </trkpt>
      <trkpt lat="49.44191" lon="1.36924">
        <ele>84</ele>
        <time>2017-07-04T15:57:23Z</time>
      </trkpt>
      <trkpt lat="49.44189" lon="1.36932">
        <ele>84</ele>
        <time>2017-07-04T15:57:23Z</time>
      </trkpt>
      <trkpt lat="49.44188" lon="1.36939">
        <ele>84</ele>
        <time>2017-07-04T15:57:23Z</time>
      </trkpt>
      <trkpt lat="49.44188" lon="1.36948">
        <ele>84</ele>
        <time>2017-07-04T15:57:39Z</time>
      </trkpt>
      <trkpt lat="49.44189" lon="1.36953">
        <ele>84</ele>
        <time>2017-07-04T15:57:39Z</time>
      </trkpt>
      <trkpt lat="49.44189" lon="1.3696">
        <ele>73</ele>
        <time>2017-07-04T15:57:39Z</time>
      </trkpt>
      <trkpt lat="49.44189" lon="1.36966">
        <ele>73</ele>
        <time>2017-07-04T15:57:39Z</time>
      </trkpt>
      <trkpt lat="49.44189" lon="1.36974">
        <ele>73</ele>
        <time>2017-07-04T15:57:54Z</time>
      </trkpt>
      <trkpt lat="49.4419" lon="1.36981">
        <ele>73</ele>
        <time>2017-07-04T15:57:54Z</time>
      </trkpt>
      <trkpt lat="49.44189" lon="1.36986">
        <ele>73</ele>
        <time>2017-07-04T15:57:55Z</time>
      </trkpt>
      <trkpt lat="49.44189" lon="1.36994">
        <ele>73</ele>
        <time>2017-07-04T15:57:55Z</time>
      </trkpt>
      <trkpt lat="49.44187" lon="1.37006">
        <ele>73</ele>
        <time>2017-07-04T16:00:30Z</time>
      </trkpt>
      <trkpt lat="49.44186" lon="1.3701">
        <ele>73</ele>
        <time>2017-07-04T16:00:30Z</time>
      </trkpt>
      <trkpt lat="49.44193" lon="1.37015">
        <ele>73</ele>
        <time>2017-07-04T16:00:30Z</time>
      </trkpt>
      <trkpt lat="49.44196" lon="1.37023">
        <ele>73</ele>
        <time>2017-07-04T16:00:30Z</time>
      </trkpt>
      <trkpt lat="49.44195" lon="1.37033">
        <ele>73</ele>
        <time>2017-07-04T16:00:30Z</time>
      </trkpt>
      <trkpt lat="49.44194" lon="1.37038">
        <ele>73</ele>
        <time>2017-07-04T16:00:46Z</time>
      </trkpt>
      <trkpt lat="49.44192" lon="1.37043">
        <ele>64</ele>
        <time>2017-07-04T16:00:46Z</time>
      </trkpt>
      <trkpt lat="49.44189" lon="1.37051">
        <ele>64</ele>
        <time>2017-07-04T16:00:46Z</time>
      </trkpt>
      <trkpt lat="49.44189" lon="1.37057">
        <ele>64</ele>
        <time>2017-07-04T16:00:46Z</time>
      </trkpt>
      <trkpt lat="49.44188" lon="1.37066">
        <ele>64</ele>
        <time>2017-07-04T16:01:02Z</time>
      </trkpt>
      <trkpt lat="49.44187" lon="1.37075">
        <ele>64</ele>
        <time>2017-07-04T16:01:02Z</time>
      </trkpt>
      <trkpt lat="49.44189" lon="1.37086">
        <ele>64</ele>
        <time>2017-07-04T16:01:02Z</time>
      </trkpt>
      <trkpt lat="49.44191" lon="1.37092">
        <ele>64</ele>
        <time>2017-07-04T16:01:02Z</time>
      </trkpt>
      <trkpt lat="49.44193" lon="1.371">
        <ele>64</ele>
        <time>2017-07-04T16:01:20Z</time>
      </trkpt>
      <trkpt lat="49.44191" lon="1.37107">
        <ele>64</ele>
        <time>2017-07-04T16:01:20Z</time>
      </trkpt>
      <trkpt lat="49.44189" lon="1.37113">
        <ele>64</ele>
        <time>2017-07-04T16:01:20Z</time>
      </trkpt>
      <trkpt lat="49.4419" lon="1.37124">
        <ele>64</ele>
        <time>2017-07-04T16:01:20Z</time>
      </trkpt>
      <trkpt lat="49.44191" lon="1.37129">
        <ele>60</ele>
        <time>2017-07-04T16:01:36Z</time>
      </trkpt>
      <trkpt lat="49.44189" lon="1.37144">
        <ele>60</ele>
        <time>2017-07-04T16:01:36Z</time>
      </trkpt>
      <trkpt lat="49.44188" lon="1.37152">
        <ele>60</ele>
        <time>2017-07-04T16:01:36Z</time>
      </trkpt>
      <trkpt lat="49.4419" lon="1.37159">
        <ele>60</ele>
        <time>2017-07-04T16:01:36Z</time>
      </trkpt>
      <trkpt lat="49.4419" lon="1.37162">
        <ele>60</ele>
        <time>2017-07-04T16:01:51Z</time>
      </trkpt>
      <trkpt lat="49.44191" lon="1.3717">
        <ele>60</ele>
        <time>2017-07-04T16:01:51Z</time>
      </trkpt>
      <trkpt lat="49.44191" lon="1.37177">
        <ele>60</ele>
        <time>2017-07-04T16:01:51Z</time>
      </trkpt>
      <trkpt lat="49.4419" lon="1.37186">
        <ele>60</ele>
        <time>2017-07-04T16:01:51Z</time>
      </trkpt>
      <trkpt lat="49.4419" lon="1.37195">
        <ele>60</ele>
        <time>2017-07-04T16:02:07Z</time>
      </trkpt>
      <trkpt lat="49.4419" lon="1.37203">
        <ele>60</ele>
        <time>2017-07-04T16:02:07Z</time>
      </trkpt>
      <trkpt lat="49.4419" lon="1.37207">
        <ele>60</ele>
        <time>2017-07-04T16:02:07Z</time>
      </trkpt>
      <trkpt lat="49.44189" lon="1.37218">
        <ele>58</ele>
        <time>2017-07-04T16:02:07Z</time>
      </trkpt>
      <trkpt lat="49.44189" lon="1.37228">
        <ele>58</ele>
        <time>2017-07-04T16:02:24Z</time>
      </trkpt>
      <trkpt lat="49.44189" lon="1.37235">
        <ele>58</ele>
        <time>2017-07-04T16:02:24Z</time>
      </trkpt>
      <trkpt lat="49.4419" lon="1.37243">
        <ele>58</ele>
        <time>2017-07-04T16:02:24Z</time>
      </trkpt>
      <trkpt lat="49.4419" lon="1.37251">
        <ele>58</ele>
        <time>2017-07-04T16:02:24Z</time>
      </trkpt>
      <trkpt lat="49.44191" lon="1.37257">
        <ele>58</ele>
        <time>2017-07-04T16:02:39Z</time>
      </trkpt>
      <trkpt lat="49.44192" lon="1.37267">
        <ele>58</ele>
        <time>2017-07-04T16:02:39Z</time>
      </trkpt>
      <trkpt lat="49.44192" lon="1.37275">
        <ele>58</ele>
        <time>2017-07-04T16:02:39Z</time>
      </trkpt>
      <trkpt lat="49.44193" lon="1.37281">
        <ele>58</ele>
        <time>2017-07-04T16:02:39Z</time>
      </trkpt>
      <trkpt lat="49.44193" lon="1.37289">
        <ele>58</ele>
        <time>2017-07-04T16:02:55Z</time>
      </trkpt>
      <trkpt lat="49.44194" lon="1.373">
        <ele>57</ele>
        <time>2017-07-04T16:02:55Z</time>
      </trkpt>
      <trkpt lat="49.44194" lon="1.37306">
        <ele>57</ele>
        <time>2017-07-04T16:02:55Z</time>
      </trkpt>
      <trkpt lat="49.44193" lon="1.37314">
        <ele>57</ele>
        <time>2017-07-04T16:02:55Z</time>
      </trkpt>
      <trkpt lat="49.44193" lon="1.37322">
        <ele>57</ele>
        <time>2017-07-04T16:03:11Z</time>
      </trkpt>
      <trkpt lat="49.44194" lon="1.37328">
        <ele>57</ele>
        <time>2017-07-04T16:03:11Z</time>
      </trkpt>
      <trkpt lat="49.44194" lon="1.37336">
        <ele>57</ele>
        <time>2017-07-04T16:03:11Z</time>
      </trkpt>
      <trkpt lat="49.44194" lon="1.37343">
        <ele>57</ele>
        <time>2017-07-04T16:03:11Z</time>
      </trkpt>
      <trkpt lat="49.44194" lon="1.37342">
        <ele>57</ele>
        <time>2017-07-04T16:03:32Z</time>
      </trkpt>
      <trkpt lat="49.44194" lon="1.37342">
        <ele>57</ele>
        <time>2017-07-04T16:03:32Z</time>
      </trkpt>
      <trkpt lat="49.44193" lon="1.37348">
        <ele>57</ele>
        <time>2017-07-04T16:03:32Z</time>
      </trkpt>
      <trkpt lat="49.44193" lon="1.37354">
        <ele>57</ele>
        <time>2017-07-04T16:03:32Z</time>
      </trkpt>
      <trkpt lat="49.44194" lon="1.37365">
        <ele>57</ele>
        <time>2017-07-04T16:03:32Z</time>
      </trkpt>
      <trkpt lat="49.44193" lon="1.37371">
        <ele>57</ele>
        <time>2017-07-04T16:03:46Z</time>
      </trkpt>
      <trkpt lat="49.44193" lon="1.37378">
        <ele>55</ele>
        <time>2017-07-04T16:03:46Z</time>
      </trkpt>
      <trkpt lat="49.44193" lon="1.37385">
        <ele>55</ele>
        <time>2017-07-04T16:03:46Z</time>
      </trkpt>
      <trkpt lat="49.44193" lon="1.37391">
        <ele>55</ele>
        <time>2017-07-04T16:03:46Z</time>
      </trkpt>
      <trkpt lat="49.44193" lon="1.37396">
        <ele>55</ele>
        <time>2017-07-04T16:04:02Z</time>
      </trkpt>
      <trkpt lat="49.44194" lon="1.37406">
        <ele>55</ele>
        <time>2017-07-04T16:04:02Z</time>
      </trkpt>
      <trkpt lat="49.44194" lon="1.37412">
        <ele>55</ele>
        <time>2017-07-04T16:04:02Z</time>
      </trkpt>
      <trkpt lat="49.44194" lon="1.37417">
        <ele>55</ele>
        <time>2017-07-04T16:04:02Z</time>
      </trkpt>
      <trkpt lat="49.44193" lon="1.37428">
        <ele>55</ele>
        <time>2017-07-04T16:04:19Z</time>
      </trkpt>
      <trkpt lat="49.44192" lon="1.37431">
        <ele>55</ele>
        <time>2017-07-04T16:04:19Z</time>
      </trkpt>
      <trkpt lat="49.44192" lon="1.37441">
        <ele>55</ele>
        <time>2017-07-04T16:04:19Z</time>
      </trkpt>
      <trkpt lat="49.44191" lon="1.37446">
        <ele>55</ele>
        <time>2017-07-04T16:04:19Z</time>
      </trkpt>
      <trkpt lat="49.4419" lon="1.37455">
        <ele>55</ele>
        <time>2017-07-04T16:04:35Z</time>
      </trkpt>
      <trkpt lat="49.4419" lon="1.37459">
        <ele>54</ele>
        <time>2017-07-04T16:04:35Z</time>
      </trkpt>
      <trkpt lat="49.4419" lon="1.37468">
        <ele>54</ele>
        <time>2017-07-04T16:04:35Z</time>
      </trkpt>
      <trkpt lat="49.44191" lon="1.37473">
        <ele>54</ele>
        <time>2017-07-04T16:04:35Z</time>
      </trkpt>
      <trkpt lat="49.4419" lon="1.37484">
        <ele>54</ele>
        <time>2017-07-04T16:04:51Z</time>
      </trkpt>
      <trkpt lat="49.4419" lon="1.37488">
        <ele>54</ele>
        <time>2017-07-04T16:04:51Z</time>
      </trkpt>
      <trkpt lat="49.44189" lon="1.37498">
        <ele>54</ele>
        <time>2017-07-04T16:04:51Z</time>
      </trkpt>
      <trkpt lat="49.44189" lon="1.37506">
        <ele>54</ele>
        <time>2017-07-04T16:04:51Z</time>
      </trkpt>
      <trkpt lat="49.44188" lon="1.37515">
        <ele>54</ele>
        <time>2017-07-04T16:05:08Z</time>
      </trkpt>
      <trkpt lat="49.44188" lon="1.37521">
        <ele>54</ele>
        <time>2017-07-04T16:05:08Z</time>
      </trkpt>
      <trkpt lat="49.44186" lon="1.37528">
        <ele>54</ele>
        <time>2017-07-04T16:05:08Z</time>
      </trkpt>
      <trkpt lat="49.44185" lon="1.37535">
        <ele>54</ele>
        <time>2017-07-04T16:05:08Z</time>
      </trkpt>
      <trkpt lat="49.44185" lon="1.37541">
        <ele>54</ele>
        <time>2017-07-04T16:05:23Z</time>
      </trkpt>
      <trkpt lat="49.44184" lon="1.37553">
        <ele>54</ele>
        <time>2017-07-04T16:05:23Z</time>
      </trkpt>
      <trkpt lat="49.44184" lon="1.37562">
        <ele>54</ele>
        <time>2017-07-04T16:05:23Z</time>
      </trkpt>
      <trkpt lat="49.44184" lon="1.37567">
        <ele>54</ele>
        <time>2017-07-04T16:05:23Z</time>
      </trkpt>
      <trkpt lat="49.44185" lon="1.37576">
        <ele>54</ele>
        <time>2017-07-04T16:05:39Z</time>
      </trkpt>
      <trkpt lat="49.44184" lon="1.37584">
        <ele>54</ele>
        <time>2017-07-04T16:05:39Z</time>
      </trkpt>
      <trkpt lat="49.44183" lon="1.37592">
        <ele>54</ele>
        <time>2017-07-04T16:05:39Z</time>
      </trkpt>
      <trkpt lat="49.44183" lon="1.376">
        <ele>54</ele>
        <time>2017-07-04T16:05:39Z</time>
      </trkpt>
      <trkpt lat="49.44182" lon="1.37609">
        <ele>54</ele>
        <time>2017-07-04T16:05:56Z</time>
      </trkpt>
      <trkpt lat="49.44182" lon="1.37618">
        <ele>54</ele>
        <time>2017-07-04T16:05:56Z</time>
      </trkpt>
      <trkpt lat="49.44183" lon="1.37622">
        <ele>54</ele>
        <time>2017-07-04T16:05:56Z</time>
      </trkpt>
      <trkpt lat="49.44186" lon="1.37628">
        <ele>54</ele>
        <time>2017-07-04T16:05:56Z</time>
      </trkpt>
      <trkpt lat="49.44186" lon="1.37633">
        <ele>54</ele>
        <time>2017-07-04T16:06:16Z</time>
      </trkpt>
      <trkpt lat="49.44187" lon="1.37633">
        <ele>54</ele>
        <time>2017-07-04T16:06:16Z</time>
      </trkpt>
      <trkpt lat="49.44188" lon="1.37633">
        <ele>54</ele>
        <time>2017-07-04T16:06:16Z</time>
      </trkpt>
      <trkpt lat="49.44191" lon="1.37633">
        <ele>54</ele>
        <time>2017-07-04T16:06:16Z</time>
      </trkpt>
      <trkpt lat="49.44195" lon="1.37636">
        <ele>54</ele>
        <time>2017-07-04T16:06:16Z</time>
      </trkpt>
      <trkpt lat="49.44198" lon="1.37637">
        <ele>54</ele>
        <time>2017-07-04T16:06:31Z</time>
      </trkpt>
      <trkpt lat="49.44204" lon="1.3764">
        <ele>54</ele>
        <time>2017-07-04T16:06:31Z</time>
      </trkpt>
      <trkpt lat="49.44206" lon="1.3764">
        <ele>54</ele>
        <time>2017-07-04T16:06:31Z</time>
      </trkpt>
      <trkpt lat="49.44211" lon="1.37646">
        <ele>54</ele>
        <time>2017-07-04T16:06:31Z</time>
      </trkpt>
      <trkpt lat="49.44213" lon="1.37648">
        <ele>54</ele>
        <time>2017-07-04T16:06:47Z</time>
      </trkpt>
      <trkpt lat="49.44219" lon="1.37653">
        <ele>54</ele>
        <time>2017-07-04T16:06:47Z</time>
      </trkpt>
      <trkpt lat="49.44222" lon="1.37656">
        <ele>54</ele>
        <time>2017-07-04T16:06:47Z</time>
      </trkpt>
      <trkpt lat="49.44228" lon="1.3766">
        <ele>54</ele>
        <time>2017-07-04T16:06:47Z</time>
      </trkpt>
      <trkpt lat="49.44232" lon="1.37663">
        <ele>54</ele>
        <time>2017-07-04T16:07:02Z</time>
      </trkpt>
      <trkpt lat="49.44237" lon="1.37666">
        <ele>54</ele>
        <time>2017-07-04T16:07:02Z</time>
      </trkpt>
      <trkpt lat="49.4424" lon="1.37668">
        <ele>54</ele>
        <time>2017-07-04T16:07:02Z</time>
      </trkpt>
      <trkpt lat="49.44243" lon="1.37673">
        <ele>54</ele>
        <time>2017-07-04T16:07:02Z</time>
      </trkpt>
      <trkpt lat="49.44249" lon="1.37675">
        <ele>54</ele>
        <time>2017-07-04T16:07:19Z</time>
      </trkpt>
      <trkpt lat="49.44254" lon="1.37678">
        <ele>54</ele>
        <time>2017-07-04T16:07:19Z</time>
      </trkpt>
      <trkpt lat="49.44259" lon="1.37683">
        <ele>54</ele>
        <time>2017-07-04T16:07:19Z</time>
      </trkpt>
      <trkpt lat="49.44262" lon="1.37686">
        <ele>54</ele>
        <time>2017-07-04T16:07:19Z</time>
      </trkpt>
      <trkpt lat="49.44266" lon="1.37688">
        <ele>54</ele>
        <time>2017-07-04T16:07:36Z</time>
      </trkpt>
      <trkpt lat="49.4427" lon="1.37693">
        <ele>54</ele>
        <time>2017-07-04T16:07:36Z</time>
      </trkpt>
      <trkpt lat="49.44274" lon="1.37696">
        <ele>54</ele>
        <time>2017-07-04T16:07:36Z</time>
      </trkpt>
      <trkpt lat="49.44281" lon="1.37697">
        <ele>54</ele>
        <time>2017-07-04T16:07:36Z</time>
      </trkpt>
      <trkpt lat="49.44284" lon="1.37698">
        <ele>54</ele>
        <time>2017-07-04T16:07:52Z</time>
      </trkpt>
      <trkpt lat="49.44291" lon="1.37701">
        <ele>54</ele>
        <time>2017-07-04T16:07:52Z</time>
      </trkpt>
      <trkpt lat="49.44295" lon="1.37703">
        <ele>55</ele>
        <time>2017-07-04T16:07:52Z</time>
      </trkpt>
      <trkpt lat="49.44301" lon="1.37708">
        <ele>55</ele>
        <time>2017-07-04T16:07:52Z</time>
      </trkpt>
      <trkpt lat="49.44304" lon="1.37711">
        <ele>55</ele>
        <time>2017-07-04T16:08:08Z</time>
      </trkpt>
      <trkpt lat="49.44308" lon="1.37715">
        <ele>55</ele>
        <time>2017-07-04T16:08:08Z</time>
      </trkpt>
      <trkpt lat="49.4431" lon="1.37716">
        <ele>55</ele>
        <time>2017-07-04T16:08:08Z</time>
      </trkpt>
      <trkpt lat="49.44316" lon="1.37719">
        <ele>55</ele>
        <time>2017-07-04T16:08:08Z</time>
      </trkpt>
      <trkpt lat="49.44319" lon="1.37721">
        <ele>55</ele>
        <time>2017-07-04T16:08:23Z</time>
      </trkpt>
      <trkpt lat="49.44324" lon="1.37723">
        <ele>55</ele>
        <time>2017-07-04T16:08:23Z</time>
      </trkpt>
      <trkpt lat="49.4433" lon="1.37721">
        <ele>55</ele>
        <time>2017-07-04T16:08:23Z</time>
      </trkpt>
      <trkpt lat="49.44333" lon="1.37721">
        <ele>55</ele>
        <time>2017-07-04T16:08:23Z</time>
      </trkpt>
      <trkpt lat="49.4434" lon="1.37725">
        <ele>55</ele>
        <time>2017-07-04T16:08:40Z</time>
      </trkpt>
      <trkpt lat="49.44346" lon="1.37727">
        <ele>55</ele>
        <time>2017-07-04T16:08:40Z</time>
      </trkpt>
      <trkpt lat="49.4435" lon="1.37729">
        <ele>55</ele>
        <time>2017-07-04T16:08:40Z</time>
      </trkpt>
      <trkpt lat="49.44358" lon="1.37732">
        <ele>55</ele>
        <time>2017-07-04T16:08:40Z</time>
      </trkpt>
      <trkpt lat="49.4436" lon="1.37735">
        <ele>55</ele>
        <time>2017-07-04T16:08:55Z</time>
      </trkpt>
      <trkpt lat="49.44364" lon="1.37737">
        <ele>55</ele>
        <time>2017-07-04T16:08:55Z</time>
      </trkpt>
      <trkpt lat="49.44365" lon="1.37736">
        <ele>55</ele>
        <time>2017-07-04T16:08:55Z</time>
      </trkpt>
      <trkpt lat="49.44369" lon="1.37739">
        <ele>55</ele>
        <time>2017-07-04T16:08:55Z</time>
      </trkpt>
      <trkpt lat="49.44372" lon="1.37743">
        <ele>55</ele>
        <time>2017-07-04T16:09:11Z</time>
      </trkpt>
      <trkpt lat="49.44376" lon="1.37743">
        <ele>58</ele>
        <time>2017-07-04T16:09:11Z</time>
      </trkpt>
      <trkpt lat="49.44381" lon="1.37746">
        <ele>58</ele>
        <time>2017-07-04T16:09:11Z</time>
      </trkpt>
      <trkpt lat="49.44385" lon="1.3775">
        <ele>58</ele>
        <time>2017-07-04T16:09:11Z</time>
      </trkpt>
      <trkpt lat="49.4439" lon="1.37751">
        <ele>58</ele>
        <time>2017-07-04T16:09:27Z</time>
      </trkpt>
      <trkpt lat="49.44396" lon="1.37755">
        <ele>58</ele>
        <time>2017-07-04T16:09:27Z</time>
      </trkpt>
      <trkpt lat="49.44399" lon="1.37758">
        <ele>58</ele>
        <time>2017-07-04T16:09:27Z</time>
      </trkpt>
      <trkpt lat="49.44405" lon="1.37761">
        <ele>58</ele>
        <time>2017-07-04T16:09:27Z</time>
      </trkpt>
      <trkpt lat="49.44409" lon="1.37763">
        <ele>58</ele>
        <time>2017-07-04T16:09:43Z</time>
      </trkpt>
      <trkpt lat="49.44415" lon="1.37767">
        <ele>58</ele>
        <time>2017-07-04T16:09:43Z</time>
      </trkpt>
      <trkpt lat="49.4442" lon="1.37769">
        <ele>58</ele>
        <time>2017-07-04T16:09:43Z</time>
      </trkpt>
      <trkpt lat="49.44423" lon="1.3777">
        <ele>58</ele>
        <time>2017-07-04T16:09:43Z</time>
      </trkpt>
      <trkpt lat="49.4443" lon="1.37772">
        <ele>58</ele>
        <time>2017-07-04T16:09:58Z</time>
      </trkpt>
      <trkpt lat="49.44434" lon="1.37776">
        <ele>58</ele>
        <time>2017-07-04T16:09:58Z</time>
      </trkpt>
      <trkpt lat="49.44438" lon="1.37778">
        <ele>58</ele>
        <time>2017-07-04T16:09:58Z</time>
      </trkpt>
      <trkpt lat="49.44441" lon="1.37779">
        <ele>58</ele>
        <time>2017-07-04T16:09:59Z</time>
      </trkpt>
      <trkpt lat="49.44443" lon="1.37783">
        <ele>58</ele>
        <time>2017-07-04T16:10:16Z</time>
      </trkpt>
      <trkpt lat="49.44443" lon="1.37793">
        <ele>56</ele>
        <time>2017-07-04T16:10:16Z</time>
      </trkpt>
      <trkpt lat="49.44443" lon="1.37796">
        <ele>56</ele>
        <time>2017-07-04T16:10:16Z</time>
      </trkpt>
      <trkpt lat="49.4444" lon="1.37805">
        <ele>56</ele>
        <time>2017-07-04T16:10:16Z</time>
      </trkpt>
      <trkpt lat="49.44437" lon="1.37809">
        <ele>56</ele>
        <time>2017-07-04T16:10:31Z</time>
      </trkpt>
      <trkpt lat="49.44434" lon="1.37813">
        <ele>56</ele>
        <time>2017-07-04T16:10:31Z</time>
      </trkpt>
      <trkpt lat="49.44431" lon="1.3782">
        <ele>56</ele>
        <time>2017-07-04T16:10:31Z</time>
      </trkpt>
      <trkpt lat="49.44429" lon="1.37826">
        <ele>56</ele>
        <time>2017-07-04T16:10:31Z</time>
      </trkpt>
      <trkpt lat="49.44426" lon="1.37832">
        <ele>56</ele>
        <time>2017-07-04T16:10:48Z</time>
      </trkpt>
      <trkpt lat="49.44424" lon="1.37837">
        <ele>56</ele>
        <time>2017-07-04T16:10:48Z</time>
      </trkpt>
      <trkpt lat="49.44427" lon="1.37842">
        <ele>56</ele>
        <time>2017-07-04T16:10:48Z</time>
      </trkpt>
      <trkpt lat="49.44432" lon="1.37848">
        <ele>56</ele>
        <time>2017-07-04T16:10:48Z</time>
      </trkpt>
      <trkpt lat="49.44434" lon="1.37855">
        <ele>56</ele>
        <time>2017-07-04T16:11:03Z</time>
      </trkpt>
      <trkpt lat="49.44438" lon="1.3786">
        <ele>56</ele>
        <time>2017-07-04T16:11:03Z</time>
      </trkpt>
      <trkpt lat="49.44442" lon="1.37863">
        <ele>56</ele>
        <time>2017-07-04T16:11:03Z</time>
      </trkpt>
      <trkpt lat="49.44447" lon="1.37865">
        <ele>56</ele>
        <time>2017-07-04T16:11:03Z</time>
      </trkpt>
      <trkpt lat="49.44452" lon="1.37865">
        <ele>56</ele>
        <time>2017-07-04T16:11:19Z</time>
      </trkpt>
      <trkpt lat="49.44459" lon="1.37866">
        <ele>56</ele>
        <time>2017-07-04T16:11:19Z</time>
      </trkpt>
      <trkpt lat="49.44463" lon="1.37866">
        <ele>56</ele>
        <time>2017-07-04T16:11:19Z</time>
      </trkpt>
      <trkpt lat="49.44469" lon="1.37868">
        <ele>56</ele>
        <time>2017-07-04T16:11:19Z</time>
      </trkpt>
      <trkpt lat="49.44474" lon="1.37868">
        <ele>56</ele>
        <time>2017-07-04T16:11:35Z</time>
      </trkpt>
      <trkpt lat="49.44479" lon="1.37871">
        <ele>56</ele>
        <time>2017-07-04T16:11:35Z</time>
      </trkpt>
      <trkpt lat="49.44482" lon="1.37872">
        <ele>56</ele>
        <time>2017-07-04T16:11:35Z</time>
      </trkpt>
      <trkpt lat="49.44488" lon="1.37874">
        <ele>56</ele>
        <time>2017-07-04T16:11:35Z</time>
      </trkpt>
      <trkpt lat="49.44491" lon="1.37874">
        <ele>56</ele>
        <time>2017-07-04T16:11:51Z</time>
      </trkpt>
      <trkpt lat="49.44499" lon="1.37874">
        <ele>56</ele>
        <time>2017-07-04T16:11:51Z</time>
      </trkpt>
      <trkpt lat="49.44504" lon="1.37875">
        <ele>56</ele>
        <time>2017-07-04T16:11:52Z</time>
      </trkpt>
      <trkpt lat="49.44511" lon="1.37874">
        <ele>56</ele>
        <time>2017-07-04T16:11:52Z</time>
      </trkpt>
      <trkpt lat="49.44516" lon="1.37874">
        <ele>56</ele>
        <time>2017-07-04T16:12:07Z</time>
      </trkpt>
      <trkpt lat="49.4452" lon="1.37874">
        <ele>56</ele>
        <time>2017-07-04T16:12:07Z</time>
      </trkpt>
      <trkpt lat="49.44525" lon="1.37873">
        <ele>56</ele>
        <time>2017-07-04T16:12:07Z</time>
      </trkpt>
      <trkpt lat="49.44531" lon="1.3787">
        <ele>56</ele>
        <time>2017-07-04T16:12:07Z</time>
      </trkpt>
      <trkpt lat="49.44536" lon="1.3787">
        <ele>56</ele>
        <time>2017-07-04T16:12:24Z</time>
      </trkpt>
      <trkpt lat="49.44541" lon="1.37868">
        <ele>56</ele>
        <time>2017-07-04T16:12:24Z</time>
      </trkpt>
      <trkpt lat="49.44546" lon="1.37866">
        <ele>56</ele>
        <time>2017-07-04T16:12:24Z</time>
      </trkpt>
      <trkpt lat="49.44551" lon="1.37865">
        <ele>56</ele>
        <time>2017-07-04T16:12:24Z</time>
      </trkpt>
      <trkpt lat="49.44555" lon="1.37863">
        <ele>56</ele>
        <time>2017-07-04T16:12:40Z</time>
      </trkpt>
      <trkpt lat="49.44562" lon="1.37862">
        <ele>56</ele>
        <time>2017-07-04T16:12:40Z</time>
      </trkpt>
      <trkpt lat="49.44566" lon="1.37861">
        <ele>56</ele>
        <time>2017-07-04T16:12:40Z</time>
      </trkpt>
      <trkpt lat="49.44571" lon="1.37858">
        <ele>56</ele>
        <time>2017-07-04T16:12:40Z</time>
      </trkpt>
      <trkpt lat="49.44581" lon="1.37852">
        <ele>56</ele>
        <time>2017-07-04T16:13:20Z</time>
      </trkpt>
      <trkpt lat="49.44581" lon="1.37852">
        <ele>56</ele>
        <time>2017-07-04T16:13:20Z</time>
      </trkpt>
      <trkpt lat="49.44583" lon="1.37849">
        <ele>56</ele>
        <time>2017-07-04T16:13:20Z</time>
      </trkpt>
      <trkpt lat="49.44587" lon="1.37848">
        <ele>56</ele>
        <time>2017-07-04T16:13:20Z</time>
      </trkpt>
      <trkpt lat="49.44592" lon="1.37844">
        <ele>56</ele>
        <time>2017-07-04T16:13:20Z</time>
      </trkpt>
      <trkpt lat="49.44595" lon="1.37842">
        <ele>56</ele>
        <time>2017-07-04T16:13:35Z</time>
      </trkpt>
      <trkpt lat="49.44599" lon="1.37842">
        <ele>56</ele>
        <time>2017-07-04T16:13:35Z</time>
      </trkpt>
      <trkpt lat="49.44603" lon="1.37837">
        <ele>56</ele>
        <time>2017-07-04T16:13:35Z</time>
      </trkpt>
      <trkpt lat="49.44606" lon="1.37834">
        <ele>56</ele>
        <time>2017-07-04T16:13:35Z</time>
      </trkpt>
      <trkpt lat="49.44608" lon="1.37829">
        <ele>56</ele>
        <time>2017-07-04T16:13:51Z</time>
      </trkpt>
      <trkpt lat="49.44611" lon="1.37825">
        <ele>56</ele>
        <time>2017-07-04T16:13:51Z</time>
      </trkpt>
      <trkpt lat="49.44616" lon="1.37823">
        <ele>56</ele>
        <time>2017-07-04T16:13:51Z</time>
      </trkpt>
      <trkpt lat="49.44618" lon="1.37821">
        <ele>56</ele>
        <time>2017-07-04T16:13:51Z</time>
      </trkpt>
      <trkpt lat="49.44622" lon="1.37817">
        <ele>56</ele>
        <time>2017-07-04T16:14:06Z</time>
      </trkpt>
      <trkpt lat="49.44628" lon="1.37811">
        <ele>58</ele>
        <time>2017-07-04T16:14:06Z</time>
      </trkpt>
      <trkpt lat="49.44632" lon="1.37809">
        <ele>58</ele>
        <time>2017-07-04T16:14:06Z</time>
      </trkpt>
      <trkpt lat="49.44635" lon="1.37806">
        <ele>58</ele>
        <time>2017-07-04T16:14:06Z</time>
      </trkpt>
      <trkpt lat="49.44638" lon="1.37802">
        <ele>58</ele>
        <time>2017-07-04T16:14:23Z</time>
      </trkpt>
      <trkpt lat="49.4464" lon="1.37798">
        <ele>58</ele>
        <time>2017-07-04T16:14:23Z</time>
      </trkpt>
      <trkpt lat="49.44645" lon="1.37792">
        <ele>58</ele>
        <time>2017-07-04T16:14:23Z</time>
      </trkpt>
      <trkpt lat="49.44649" lon="1.37787">
        <ele>59</ele>
        <time>2017-07-04T16:14:23Z</time>
      </trkpt>
      <trkpt lat="49.44653" lon="1.37782">
        <ele>59</ele>
        <time>2017-07-04T16:14:39Z</time>
      </trkpt>
      <trkpt lat="49.44655" lon="1.37779">
        <ele>59</ele>
        <time>2017-07-04T16:14:39Z</time>
      </trkpt>
      <trkpt lat="49.44659" lon="1.37774">
        <ele>59</ele>
        <time>2017-07-04T16:14:39Z</time>
      </trkpt>
      <trkpt lat="49.44661" lon="1.3777">
        <ele>59</ele>
        <time>2017-07-04T16:14:39Z</time>
      </trkpt>
      <trkpt lat="49.44664" lon="1.37764">
        <ele>59</ele>
        <time>2017-07-04T16:14:55Z</time>
      </trkpt>
      <trkpt lat="49.44667" lon="1.3776">
        <ele>59</ele>
        <time>2017-07-04T16:14:55Z</time>
      </trkpt>
      <trkpt lat="49.44671" lon="1.37753">
        <ele>59</ele>
        <time>2017-07-04T16:14:55Z</time>
      </trkpt>
      <trkpt lat="49.44672" lon="1.37746">
        <ele>59</ele>
        <time>2017-07-04T16:14:55Z</time>
      </trkpt>
      <trkpt lat="49.44675" lon="1.37739">
        <ele>59</ele>
        <time>2017-07-04T16:15:12Z</time>
      </trkpt>
      <trkpt lat="49.44675" lon="1.37734">
        <ele>59</ele>
        <time>2017-07-04T16:15:12Z</time>
      </trkpt>
      <trkpt lat="49.44677" lon="1.37732">
        <ele>59</ele>
        <time>2017-07-04T16:15:12Z</time>
      </trkpt>
      <trkpt lat="49.44681" lon="1.37724">
        <ele>59</ele>
        <time>2017-07-04T16:15:12Z</time>
      </trkpt>
      <trkpt lat="49.44682" lon="1.3772">
        <ele>59</ele>
        <time>2017-07-04T16:15:27Z</time>
      </trkpt>
      <trkpt lat="49.44685" lon="1.37711">
        <ele>59</ele>
        <time>2017-07-04T16:15:27Z</time>
      </trkpt>
      <trkpt lat="49.44687" lon="1.37705">
        <ele>60</ele>
        <time>2017-07-04T16:15:28Z</time>
      </trkpt>
      <trkpt lat="49.44689" lon="1.37695">
        <ele>60</ele>
        <time>2017-07-04T16:15:28Z</time>
      </trkpt>
      <trkpt lat="49.4469" lon="1.37692">
        <ele>60</ele>
        <time>2017-07-04T16:15:42Z</time>
      </trkpt>
      <trkpt lat="49.44692" lon="1.37687">
        <ele>60</ele>
        <time>2017-07-04T16:15:42Z</time>
      </trkpt>
      <trkpt lat="49.44693" lon="1.37682">
        <ele>60</ele>
        <time>2017-07-04T16:15:42Z</time>
      </trkpt>
      <trkpt lat="49.44695" lon="1.37675">
        <ele>60</ele>
        <time>2017-07-04T16:15:42Z</time>
      </trkpt>
      <trkpt lat="49.44697" lon="1.37668">
        <ele>60</ele>
        <time>2017-07-04T16:15:59Z</time>
      </trkpt>
      <trkpt lat="49.44699" lon="1.37663">
        <ele>60</ele>
        <time>2017-07-04T16:15:59Z</time>
      </trkpt>
      <trkpt lat="49.44702" lon="1.37658">
        <ele>60</ele>
        <time>2017-07-04T16:15:59Z</time>
      </trkpt>
      <trkpt lat="49.44705" lon="1.37653">
        <ele>60</ele>
        <time>2017-07-04T16:15:59Z</time>
      </trkpt>
      <trkpt lat="49.44709" lon="1.37653">
        <ele>57</ele>
        <time>2017-07-04T16:28:10Z</time>
      </trkpt>
      <trkpt lat="49.44709" lon="1.37653">
        <ele>57</ele>
        <time>2017-07-04T16:28:10Z</time>
      </trkpt>
      <trkpt lat="49.44709" lon="1.37653">
        <ele>57</ele>
        <time>2017-07-04T16:28:10Z</time>
      </trkpt>
      <trkpt lat="49.44711" lon="1.37644">
        <ele>57</ele>
        <time>2017-07-04T16:28:10Z</time>
      </trkpt>
      <trkpt lat="49.44713" lon="1.37644">
        <ele>57</ele>
        <time>2017-07-04T16:28:10Z</time>
      </trkpt>
      <trkpt lat="49.4471" lon="1.37647">
        <ele>57</ele>
        <time>2017-07-04T16:30:19Z</time>
      </trkpt>
      <trkpt lat="49.44707" lon="1.37645">
        <ele>60</ele>
        <time>2017-07-04T16:30:19Z</time>
      </trkpt>
      <trkpt lat="49.44705" lon="1.37649">
        <ele>60</ele>
        <time>2017-07-04T16:30:19Z</time>
      </trkpt>
      <trkpt lat="49.44705" lon="1.3765">
        <ele>60</ele>
        <time>2017-07-04T16:30:19Z</time>
      </trkpt>
      <trkpt lat="49.44705" lon="1.3765">
        <ele>60</ele>
        <time>2017-07-04T16:30:19Z</time>
      </trkpt>
      <trkpt lat="49.44705" lon="1.3765">
        <ele>60</ele>
        <time>2017-07-04T16:30:34Z</time>
      </trkpt>
      <trkpt lat="49.44709" lon="1.37649">
        <ele>57</ele>
        <time>2017-07-04T16:30:34Z</time>
      </trkpt>
      <trkpt lat="49.44712" lon="1.37642">
        <ele>57</ele>
        <time>2017-07-04T16:30:34Z</time>
      </trkpt>
      <trkpt lat="49.44711" lon="1.37639">
        <ele>57</ele>
        <time>2017-07-04T16:30:34Z</time>
      </trkpt>
      <trkpt lat="49.44714" lon="1.37643">
        <ele>57</ele>
        <time>2017-07-04T16:31:55Z</time>
      </trkpt>
      <trkpt lat="49.44714" lon="1.37643">
        <ele>57</ele>
        <time>2017-07-04T16:31:55Z</time>
      </trkpt>
      <trkpt lat="49.44714" lon="1.37643">
        <ele>57</ele>
        <time>2017-07-04T16:31:56Z</time>
      </trkpt>
      <trkpt lat="49.44717" lon="1.3764">
        <ele>57</ele>
        <time>2017-07-04T16:31:56Z</time>
      </trkpt>
      <trkpt lat="49.4472" lon="1.37644">
        <ele>57</ele>
        <time>2017-07-04T16:31:56Z</time>
      </trkpt>
      <trkpt lat="49.44723" lon="1.37646">
        <ele>57</ele>
        <time>2017-07-04T16:32:22Z</time>
      </trkpt>
      <trkpt lat="49.44723" lon="1.37643">
        <ele>57</ele>
        <time>2017-07-04T16:32:22Z</time>
      </trkpt>
      <trkpt lat="49.44724" lon="1.37638">
        <ele>57</ele>
        <time>2017-07-04T16:32:22Z</time>
      </trkpt>
      <trkpt lat="49.44724" lon="1.37638">
        <ele>57</ele>
        <time>2017-07-04T16:32:22Z</time>
      </trkpt>
      <trkpt lat="49.44728" lon="1.37638">
        <ele>57</ele>
        <time>2017-07-04T16:32:22Z</time>
      </trkpt>
      <trkpt lat="49.44732" lon="1.37639">
        <ele>57</ele>
        <time>2017-07-04T16:32:39Z</time>
      </trkpt>
      <trkpt lat="49.44737" lon="1.37634">
        <ele>57</ele>
        <time>2017-07-04T16:32:39Z</time>
      </trkpt>
      <trkpt lat="49.44741" lon="1.37628">
        <ele>57</ele>
        <time>2017-07-04T16:32:39Z</time>
      </trkpt>
      <trkpt lat="49.44743" lon="1.37623">
        <ele>58</ele>
        <time>2017-07-04T16:32:39Z</time>
      </trkpt>
      <trkpt lat="49.44746" lon="1.37617">
        <ele>58</ele>
        <time>2017-07-04T16:32:59Z</time>
      </trkpt>
      <trkpt lat="49.44747" lon="1.37616">
        <ele>58</ele>
        <time>2017-07-04T16:32:59Z</time>
      </trkpt>
      <trkpt lat="49.44748" lon="1.37614">
        <ele>58</ele>
        <time>2017-07-04T16:32:59Z</time>
      </trkpt>
      <trkpt lat="49.44753" lon="1.37611">
        <ele>58</ele>
        <time>2017-07-04T16:32:59Z</time>
      </trkpt>
      <trkpt lat="49.44758" lon="1.37609">
        <ele>58</ele>
        <time>2017-07-04T16:32:59Z</time>
      </trkpt>
      <trkpt lat="49.44762" lon="1.37607">
        <ele>58</ele>
        <time>2017-07-04T16:33:16Z</time>
      </trkpt>
      <trkpt lat="49.44765" lon="1.37602">
        <ele>58</ele>
        <time>2017-07-04T16:33:16Z</time>
      </trkpt>
      <trkpt lat="49.44768" lon="1.37599">
        <ele>58</ele>
        <time>2017-07-04T16:33:16Z</time>
      </trkpt>
      <trkpt lat="49.44771" lon="1.37599">
        <ele>58</ele>
        <time>2017-07-04T16:33:16Z</time>
      </trkpt>
      <trkpt lat="49.44773" lon="1.37596">
        <ele>58</ele>
        <time>2017-07-04T16:33:32Z</time>
      </trkpt>
      <trkpt lat="49.44776" lon="1.37593">
        <ele>58</ele>
        <time>2017-07-04T16:33:32Z</time>
      </trkpt>
      <trkpt lat="49.4478" lon="1.37589">
        <ele>58</ele>
        <time>2017-07-04T16:33:32Z</time>
      </trkpt>
      <trkpt lat="49.44783" lon="1.37584">
        <ele>58</ele>
        <time>2017-07-04T16:33:32Z</time>
      </trkpt>
      <trkpt lat="49.44785" lon="1.3758">
        <ele>58</ele>
        <time>2017-07-04T16:33:47Z</time>
      </trkpt>
      <trkpt lat="49.44788" lon="1.37573">
        <ele>58</ele>
        <time>2017-07-04T16:33:47Z</time>
      </trkpt>
      <trkpt lat="49.44793" lon="1.37567">
        <ele>57</ele>
        <time>2017-07-04T16:33:47Z</time>
      </trkpt>
      <trkpt lat="49.44796" lon="1.37564">
        <ele>57</ele>
        <time>2017-07-04T16:33:47Z</time>
      </trkpt>
      <trkpt lat="49.44797" lon="1.37559">
        <ele>57</ele>
        <time>2017-07-04T16:34:03Z</time>
      </trkpt>
      <trkpt lat="49.44796" lon="1.37555">
        <ele>57</ele>
        <time>2017-07-04T16:34:03Z</time>
      </trkpt>
      <trkpt lat="49.44795" lon="1.37549">
        <ele>57</ele>
        <time>2017-07-04T16:34:03Z</time>
      </trkpt>
      <trkpt lat="49.44794" lon="1.37545">
        <ele>57</ele>
        <time>2017-07-04T16:34:03Z</time>
      </trkpt>
      <trkpt lat="49.44791" lon="1.3754">
        <ele>59</ele>
        <time>2017-07-04T16:34:19Z</time>
      </trkpt>
      <trkpt lat="49.4479" lon="1.37536">
        <ele>59</ele>
        <time>2017-07-04T16:34:19Z</time>
      </trkpt>
      <trkpt lat="49.44787" lon="1.37528">
        <ele>59</ele>
        <time>2017-07-04T16:34:19Z</time>
      </trkpt>
      <trkpt lat="49.44785" lon="1.37525">
        <ele>59</ele>
        <time>2017-07-04T16:34:19Z</time>
      </trkpt>
      <trkpt lat="49.4478" lon="1.3752">
        <ele>59</ele>
        <time>2017-07-04T16:34:35Z</time>
      </trkpt>
      <trkpt lat="49.44778" lon="1.37516">
        <ele>59</ele>
        <time>2017-07-04T16:34:35Z</time>
      </trkpt>
      <trkpt lat="49.44775" lon="1.37508">
        <ele>59</ele>
        <time>2017-07-04T16:34:35Z</time>
      </trkpt>
      <trkpt lat="49.44771" lon="1.37501">
        <ele>59</ele>
        <time>2017-07-04T16:34:35Z</time>
      </trkpt>
      <trkpt lat="49.44769" lon="1.37497">
        <ele>59</ele>
        <time>2017-07-04T16:34:52Z</time>
      </trkpt>
      <trkpt lat="49.44765" lon="1.37489">
        <ele>59</ele>
        <time>2017-07-04T16:34:52Z</time>
      </trkpt>
      <trkpt lat="49.44762" lon="1.37483">
        <ele>59</ele>
        <time>2017-07-04T16:34:52Z</time>
      </trkpt>
      <trkpt lat="49.44759" lon="1.37475">
        <ele>59</ele>
        <time>2017-07-04T16:34:52Z</time>
      </trkpt>
      <trkpt lat="49.44757" lon="1.37469">
        <ele>59</ele>
        <time>2017-07-04T16:35:08Z</time>
      </trkpt>
      <trkpt lat="49.44753" lon="1.37464">
        <ele>59</ele>
        <time>2017-07-04T16:35:08Z</time>
      </trkpt>
      <trkpt lat="49.44752" lon="1.37461">
        <ele>59</ele>
        <time>2017-07-04T16:35:08Z</time>
      </trkpt>
      <trkpt lat="49.44749" lon="1.37454">
        <ele>61</ele>
        <time>2017-07-04T16:35:08Z</time>
      </trkpt>
      <trkpt lat="49.44746" lon="1.37448">
        <ele>61</ele>
        <time>2017-07-04T16:35:24Z</time>
      </trkpt>
      <trkpt lat="49.44742" lon="1.37441">
        <ele>61</ele>
        <time>2017-07-04T16:35:24Z</time>
      </trkpt>
      <trkpt lat="49.44741" lon="1.37436">
        <ele>61</ele>
        <time>2017-07-04T16:35:24Z</time>
      </trkpt>
      <trkpt lat="49.44738" lon="1.37427">
        <ele>61</ele>
        <time>2017-07-04T16:35:24Z</time>
      </trkpt>
      <trkpt lat="49.44737" lon="1.37423">
        <ele>61</ele>
        <time>2017-07-04T16:35:39Z</time>
      </trkpt>
      <trkpt lat="49.44734" lon="1.37416">
        <ele>61</ele>
        <time>2017-07-04T16:35:40Z</time>
      </trkpt>
      <trkpt lat="49.44732" lon="1.37412">
        <ele>61</ele>
        <time>2017-07-04T16:35:40Z</time>
      </trkpt>
      <trkpt lat="49.44729" lon="1.37403">
        <ele>61</ele>
        <time>2017-07-04T16:35:40Z</time>
      </trkpt>
      <trkpt lat="49.44728" lon="1.37398">
        <ele>61</ele>
        <time>2017-07-04T16:35:56Z</time>
      </trkpt>
      <trkpt lat="49.44726" lon="1.37389">
        <ele>61</ele>
        <time>2017-07-04T16:35:56Z</time>
      </trkpt>
      <trkpt lat="49.44723" lon="1.37383">
        <ele>61</ele>
        <time>2017-07-04T16:35:56Z</time>
      </trkpt>
      <trkpt lat="49.44727" lon="1.37377">
        <ele>61</ele>
        <time>2017-07-04T16:35:56Z</time>
      </trkpt>
      <trkpt lat="49.44728" lon="1.37373">
        <ele>63</ele>
        <time>2017-07-04T16:36:10Z</time>
      </trkpt>
      <trkpt lat="49.44728" lon="1.37365">
        <ele>63</ele>
        <time>2017-07-04T16:36:10Z</time>
      </trkpt>
      <trkpt lat="49.44726" lon="1.3736">
        <ele>63</ele>
        <time>2017-07-04T16:36:10Z</time>
      </trkpt>
      <trkpt lat="49.44724" lon="1.37355">
        <ele>63</ele>
        <time>2017-07-04T16:36:10Z</time>
      </trkpt>
      <trkpt lat="49.44724" lon="1.37345">
        <ele>63</ele>
        <time>2017-07-04T16:36:28Z</time>
      </trkpt>
      <trkpt lat="49.44725" lon="1.3734">
        <ele>63</ele>
        <time>2017-07-04T16:36:28Z</time>
      </trkpt>
      <trkpt lat="49.44728" lon="1.37333">
        <ele>63</ele>
        <time>2017-07-04T16:36:28Z</time>
      </trkpt>
      <trkpt lat="49.44732" lon="1.37328">
        <ele>63</ele>
        <time>2017-07-04T16:36:28Z</time>
      </trkpt>
      <trkpt lat="49.44736" lon="1.37325">
        <ele>63</ele>
        <time>2017-07-04T16:36:43Z</time>
      </trkpt>
      <trkpt lat="49.4474" lon="1.37322">
        <ele>63</ele>
        <time>2017-07-04T16:36:43Z</time>
      </trkpt>
      <trkpt lat="49.44743" lon="1.3732">
        <ele>63</ele>
        <time>2017-07-04T16:36:43Z</time>
      </trkpt>
      <trkpt lat="49.44747" lon="1.37318">
        <ele>63</ele>
        <time>2017-07-04T16:36:43Z</time>
      </trkpt>
      <trkpt lat="49.44751" lon="1.37315">
        <ele>63</ele>
        <time>2017-07-04T16:37:00Z</time>
      </trkpt>
      <trkpt lat="49.44754" lon="1.37313">
        <ele>63</ele>
        <time>2017-07-04T16:37:00Z</time>
      </trkpt>
      <trkpt lat="49.44758" lon="1.37308">
        <ele>63</ele>
        <time>2017-07-04T16:37:00Z</time>
      </trkpt>
      <trkpt lat="49.44763" lon="1.37304">
        <ele>63</ele>
        <time>2017-07-04T16:37:00Z</time>
      </trkpt>
      <trkpt lat="49.44767" lon="1.37301">
        <ele>63</ele>
        <time>2017-07-04T16:37:15Z</time>
      </trkpt>
      <trkpt lat="49.44773" lon="1.37299">
        <ele>63</ele>
        <time>2017-07-04T16:37:15Z</time>
      </trkpt>
      <trkpt lat="49.44777" lon="1.37298">
        <ele>63</ele>
        <time>2017-07-04T16:37:15Z</time>
      </trkpt>
      <trkpt lat="49.4478" lon="1.37294">
        <ele>63</ele>
        <time>2017-07-04T16:37:15Z</time>
      </trkpt>
      <trkpt lat="49.44783" lon="1.37291">
        <ele>66</ele>
        <time>2017-07-04T16:37:30Z</time>
      </trkpt>
      <trkpt lat="49.44788" lon="1.37287">
        <ele>66</ele>
        <time>2017-07-04T16:37:30Z</time>
      </trkpt>
      <trkpt lat="49.44792" lon="1.37283">
        <ele>63</ele>
        <time>2017-07-04T16:37:30Z</time>
      </trkpt>
      <trkpt lat="49.44796" lon="1.37282">
        <ele>63</ele>
        <time>2017-07-04T16:37:30Z</time>
      </trkpt>
      <trkpt lat="49.448" lon="1.37278">
        <ele>63</ele>
        <time>2017-07-04T16:37:47Z</time>
      </trkpt>
      <trkpt lat="49.44804" lon="1.37275">
        <ele>63</ele>
        <time>2017-07-04T16:37:47Z</time>
      </trkpt>
      <trkpt lat="49.44808" lon="1.37272">
        <ele>63</ele>
        <time>2017-07-04T16:37:47Z</time>
      </trkpt>
      <trkpt lat="49.44814" lon="1.37267">
        <ele>63</ele>
        <time>2017-07-04T16:37:47Z</time>
      </trkpt>
      <trkpt lat="49.44817" lon="1.37265">
        <ele>63</ele>
        <time>2017-07-04T16:38:04Z</time>
      </trkpt>
      <trkpt lat="49.44822" lon="1.3726">
        <ele>63</ele>
        <time>2017-07-04T16:38:04Z</time>
      </trkpt>
      <trkpt lat="49.44828" lon="1.37253">
        <ele>63</ele>
        <time>2017-07-04T16:38:04Z</time>
      </trkpt>
      <trkpt lat="49.4483" lon="1.3725">
        <ele>63</ele>
        <time>2017-07-04T16:38:04Z</time>
      </trkpt>
      <trkpt lat="49.44833" lon="1.37247">
        <ele>63</ele>
        <time>2017-07-04T16:38:19Z</time>
      </trkpt>
      <trkpt lat="49.44837" lon="1.37242">
        <ele>63</ele>
        <time>2017-07-04T16:38:19Z</time>
      </trkpt>
      <trkpt lat="49.44839" lon="1.37241">
        <ele>63</ele>
        <time>2017-07-04T16:38:19Z</time>
      </trkpt>
      <trkpt lat="49.44844" lon="1.37237">
        <ele>63</ele>
        <time>2017-07-04T16:38:19Z</time>
      </trkpt>
      <trkpt lat="49.4485" lon="1.37233">
        <ele>63</ele>
        <time>2017-07-04T16:38:35Z</time>
      </trkpt>
      <trkpt lat="49.44856" lon="1.37228">
        <ele>63</ele>
        <time>2017-07-04T16:38:35Z</time>
      </trkpt>
      <trkpt lat="49.44861" lon="1.37222">
        <ele>63</ele>
        <time>2017-07-04T16:38:35Z</time>
      </trkpt>
      <trkpt lat="49.44864" lon="1.37218">
        <ele>63</ele>
        <time>2017-07-04T16:38:35Z</time>
      </trkpt>
      <trkpt lat="49.44867" lon="1.37215">
        <ele>63</ele>
        <time>2017-07-04T16:38:50Z</time>
      </trkpt>
      <trkpt lat="49.44871" lon="1.37212">
        <ele>63</ele>
        <time>2017-07-04T16:38:50Z</time>
      </trkpt>
      <trkpt lat="49.44876" lon="1.37207">
        <ele>65</ele>
        <time>2017-07-04T16:38:50Z</time>
      </trkpt>
      <trkpt lat="49.4488" lon="1.37205">
        <ele>65</ele>
        <time>2017-07-04T16:38:50Z</time>
      </trkpt>
      <trkpt lat="49.44886" lon="1.37202">
        <ele>65</ele>
        <time>2017-07-04T16:39:07Z</time>
      </trkpt>
      <trkpt lat="49.4489" lon="1.37198">
        <ele>65</ele>
        <time>2017-07-04T16:39:07Z</time>
      </trkpt>
      <trkpt lat="49.44895" lon="1.37191">
        <ele>65</ele>
        <time>2017-07-04T16:39:07Z</time>
      </trkpt>
      <trkpt lat="49.44898" lon="1.37189">
        <ele>65</ele>
        <time>2017-07-04T16:39:07Z</time>
      </trkpt>
      <trkpt lat="49.44905" lon="1.37184">
        <ele>65</ele>
        <time>2017-07-04T16:39:23Z</time>
      </trkpt>
      <trkpt lat="49.44908" lon="1.37181">
        <ele>65</ele>
        <time>2017-07-04T16:39:23Z</time>
      </trkpt>
      <trkpt lat="49.44911" lon="1.37177">
        <ele>65</ele>
        <time>2017-07-04T16:39:23Z</time>
      </trkpt>
      <trkpt lat="49.44916" lon="1.37174">
        <ele>65</ele>
        <time>2017-07-04T16:39:23Z</time>
      </trkpt>
      <trkpt lat="49.44918" lon="1.37172">
        <ele>65</ele>
        <time>2017-07-04T16:39:39Z</time>
      </trkpt>
      <trkpt lat="49.44921" lon="1.37169">
        <ele>65</ele>
        <time>2017-07-04T16:39:39Z</time>
      </trkpt>
      <trkpt lat="49.44925" lon="1.37163">
        <ele>65</ele>
        <time>2017-07-04T16:39:39Z</time>
      </trkpt>
      <trkpt lat="49.44928" lon="1.37161">
        <ele>65</ele>
        <time>2017-07-04T16:39:39Z</time>
      </trkpt>
      <trkpt lat="49.44933" lon="1.37155">
        <ele>65</ele>
        <time>2017-07-04T16:39:55Z</time>
      </trkpt>
      <trkpt lat="49.44937" lon="1.3715">
        <ele>65</ele>
        <time>2017-07-04T16:39:55Z</time>
      </trkpt>
      <trkpt lat="49.44942" lon="1.37145">
        <ele>65</ele>
        <time>2017-07-04T16:39:55Z</time>
      </trkpt>
      <trkpt lat="49.44946" lon="1.37141">
        <ele>65</ele>
        <time>2017-07-04T16:39:55Z</time>
      </trkpt>
      <trkpt lat="49.44949" lon="1.37136">
        <ele>65</ele>
        <time>2017-07-04T16:40:12Z</time>
      </trkpt>
      <trkpt lat="49.44953" lon="1.3713">
        <ele>65</ele>
        <time>2017-07-04T16:40:12Z</time>
      </trkpt>
      <trkpt lat="49.44956" lon="1.37127">
        <ele>65</ele>
        <time>2017-07-04T16:40:12Z</time>
      </trkpt>
      <trkpt lat="49.44958" lon="1.37122">
        <ele>63</ele>
        <time>2017-07-04T16:40:12Z</time>
      </trkpt>
      <trkpt lat="49.4496" lon="1.37117">
        <ele>63</ele>
        <time>2017-07-04T16:40:28Z</time>
      </trkpt>
      <trkpt lat="49.44963" lon="1.3711">
        <ele>63</ele>
        <time>2017-07-04T16:40:28Z</time>
      </trkpt>
      <trkpt lat="49.44966" lon="1.37107">
        <ele>63</ele>
        <time>2017-07-04T16:40:28Z</time>
      </trkpt>
      <trkpt lat="49.44969" lon="1.37098">
        <ele>63</ele>
        <time>2017-07-04T16:40:28Z</time>
      </trkpt>
      <trkpt lat="49.4497" lon="1.37092">
        <ele>63</ele>
        <time>2017-07-04T16:40:43Z</time>
      </trkpt>
      <trkpt lat="49.44973" lon="1.37084">
        <ele>63</ele>
        <time>2017-07-04T16:40:43Z</time>
      </trkpt>
      <trkpt lat="49.44976" lon="1.37077">
        <ele>63</ele>
        <time>2017-07-04T16:40:43Z</time>
      </trkpt>
      <trkpt lat="49.44977" lon="1.37074">
        <ele>63</ele>
        <time>2017-07-04T16:40:43Z</time>
      </trkpt>
      <trkpt lat="49.44981" lon="1.37065">
        <ele>63</ele>
        <time>2017-07-04T16:40:59Z</time>
      </trkpt>
      <trkpt lat="49.44982" lon="1.37061">
        <ele>63</ele>
        <time>2017-07-04T16:40:59Z</time>
      </trkpt>
      <trkpt lat="49.44984" lon="1.37055">
        <ele>63</ele>
        <time>2017-07-04T16:40:59Z</time>
      </trkpt>
      <trkpt lat="49.44986" lon="1.37051">
        <ele>63</ele>
        <time>2017-07-04T16:40:59Z</time>
      </trkpt>
      <trkpt lat="49.44989" lon="1.37042">
        <ele>63</ele>
        <time>2017-07-04T16:41:15Z</time>
      </trkpt>
      <trkpt lat="49.44991" lon="1.37037">
        <ele>66</ele>
        <time>2017-07-04T16:41:15Z</time>
      </trkpt>
      <trkpt lat="49.44993" lon="1.37028">
        <ele>66</ele>
        <time>2017-07-04T16:41:15Z</time>
      </trkpt>
      <trkpt lat="49.44995" lon="1.37023">
        <ele>66</ele>
        <time>2017-07-04T16:41:15Z</time>
      </trkpt>
      <trkpt lat="49.44997" lon="1.37013">
        <ele>66</ele>
        <time>2017-07-04T16:41:30Z</time>
      </trkpt>
      <trkpt lat="49.44999" lon="1.37007">
        <ele>66</ele>
        <time>2017-07-04T16:41:30Z</time>
      </trkpt>
      <trkpt lat="49.45002" lon="1.37001">
        <ele>66</ele>
        <time>2017-07-04T16:41:30Z</time>
      </trkpt>
      <trkpt lat="49.45004" lon="1.36995">
        <ele>66</ele>
        <time>2017-07-04T16:41:30Z</time>
      </trkpt>
      <trkpt lat="49.45008" lon="1.36986">
        <ele>66</ele>
        <time>2017-07-04T16:41:47Z</time>
      </trkpt>
      <trkpt lat="49.4501" lon="1.36981">
        <ele>66</ele>
        <time>2017-07-04T16:41:47Z</time>
      </trkpt>
      <trkpt lat="49.45013" lon="1.36974">
        <ele>66</ele>
        <time>2017-07-04T16:41:47Z</time>
      </trkpt>
      <trkpt lat="49.45015" lon="1.36968">
        <ele>66</ele>
        <time>2017-07-04T16:41:47Z</time>
      </trkpt>
      <trkpt lat="49.45019" lon="1.36962">
        <ele>66</ele>
        <time>2017-07-04T16:42:04Z</time>
      </trkpt>
      <trkpt lat="49.45023" lon="1.36955">
        <ele>70</ele>
        <time>2017-07-04T16:42:04Z</time>
      </trkpt>
      <trkpt lat="49.45024" lon="1.3695">
        <ele>70</ele>
        <time>2017-07-04T16:42:04Z</time>
      </trkpt>
      <trkpt lat="49.45028" lon="1.36943">
        <ele>70</ele>
        <time>2017-07-04T16:42:04Z</time>
      </trkpt>
      <trkpt lat="49.45029" lon="1.36938">
        <ele>70</ele>
        <time>2017-07-04T16:42:20Z</time>
      </trkpt>
      <trkpt lat="49.45032" lon="1.36932">
        <ele>70</ele>
        <time>2017-07-04T16:42:20Z</time>
      </trkpt>
      <trkpt lat="49.45034" lon="1.36927">
        <ele>70</ele>
        <time>2017-07-04T16:42:20Z</time>
      </trkpt>
      <trkpt lat="49.45039" lon="1.36921">
        <ele>70</ele>
        <time>2017-07-04T16:42:20Z</time>
      </trkpt>
      <trkpt lat="49.45041" lon="1.36917">
        <ele>70</ele>
        <time>2017-07-04T16:42:36Z</time>
      </trkpt>
      <trkpt lat="49.45044" lon="1.3691">
        <ele>60</ele>
        <time>2017-07-04T16:42:36Z</time>
      </trkpt>
      <trkpt lat="49.45047" lon="1.36904">
        <ele>60</ele>
        <time>2017-07-04T16:42:36Z</time>
      </trkpt>
      <trkpt lat="49.45052" lon="1.36898">
        <ele>60</ele>
        <time>2017-07-04T16:42:36Z</time>
      </trkpt>
      <trkpt lat="49.45054" lon="1.36892">
        <ele>60</ele>
        <time>2017-07-04T16:42:50Z</time>
      </trkpt>
      <trkpt lat="49.45057" lon="1.36884">
        <ele>60</ele>
        <time>2017-07-04T16:42:50Z</time>
      </trkpt>
      <trkpt lat="49.4506" lon="1.36877">
        <ele>60</ele>
        <time>2017-07-04T16:42:50Z</time>
      </trkpt>
      <trkpt lat="49.45061" lon="1.36872">
        <ele>64</ele>
        <time>2017-07-04T16:42:50Z</time>
      </trkpt>
      <trkpt lat="49.45065" lon="1.36864">
        <ele>64</ele>
        <time>2017-07-04T16:43:07Z</time>
      </trkpt>
      <trkpt lat="49.45067" lon="1.36858">
        <ele>64</ele>
        <time>2017-07-04T16:43:07Z</time>
      </trkpt>
      <trkpt lat="49.4507" lon="1.3685">
        <ele>64</ele>
        <time>2017-07-04T16:43:07Z</time>
      </trkpt>
      <trkpt lat="49.45073" lon="1.36846">
        <ele>64</ele>
        <time>2017-07-04T16:43:07Z</time>
      </trkpt>
      <trkpt lat="49.45075" lon="1.36838">
        <ele>64</ele>
        <time>2017-07-04T16:43:23Z</time>
      </trkpt>
      <trkpt lat="49.45077" lon="1.36834">
        <ele>64</ele>
        <time>2017-07-04T16:43:23Z</time>
      </trkpt>
      <trkpt lat="49.45081" lon="1.36826">
        <ele>64</ele>
        <time>2017-07-04T16:43:23Z</time>
      </trkpt>
      <trkpt lat="49.45083" lon="1.36821">
        <ele>64</ele>
        <time>2017-07-04T16:43:23Z</time>
      </trkpt>
      <trkpt lat="49.45086" lon="1.36815">
        <ele>64</ele>
        <time>2017-07-04T16:43:39Z</time>
      </trkpt>
      <trkpt lat="49.4509" lon="1.36807">
        <ele>64</ele>
        <time>2017-07-04T16:43:39Z</time>
      </trkpt>
      <trkpt lat="49.45091" lon="1.36801">
        <ele>64</ele>
        <time>2017-07-04T16:43:39Z</time>
      </trkpt>
      <trkpt lat="49.45094" lon="1.36794">
        <ele>64</ele>
        <time>2017-07-04T16:43:39Z</time>
      </trkpt>
      <trkpt lat="49.45097" lon="1.36787">
        <ele>68</ele>
        <time>2017-07-04T16:43:56Z</time>
      </trkpt>
      <trkpt lat="49.45101" lon="1.36781">
        <ele>68</ele>
        <time>2017-07-04T16:43:56Z</time>
      </trkpt>
      <trkpt lat="49.45104" lon="1.36777">
        <ele>68</ele>
        <time>2017-07-04T16:43:56Z</time>
      </trkpt>
      <trkpt lat="49.45106" lon="1.36771">
        <ele>68</ele>
        <time>2017-07-04T16:43:56Z</time>
      </trkpt>
      <trkpt lat="49.45108" lon="1.36766">
        <ele>68</ele>
        <time>2017-07-04T16:44:12Z</time>
      </trkpt>
      <trkpt lat="49.4511" lon="1.36758">
        <ele>68</ele>
        <time>2017-07-04T16:44:12Z</time>
      </trkpt>
      <trkpt lat="49.45111" lon="1.3675">
        <ele>68</ele>
        <time>2017-07-04T16:44:12Z</time>
      </trkpt>
      <trkpt lat="49.45114" lon="1.36745">
        <ele>68</ele>
        <time>2017-07-04T16:44:12Z</time>
      </trkpt>
      <trkpt lat="49.45116" lon="1.36741">
        <ele>68</ele>
        <time>2017-07-04T16:44:28Z</time>
      </trkpt>
      <trkpt lat="49.45119" lon="1.36732">
        <ele>68</ele>
        <time>2017-07-04T16:44:28Z</time>
      </trkpt>
      <trkpt lat="49.4512" lon="1.36727">
        <ele>68</ele>
        <time>2017-07-04T16:44:28Z</time>
      </trkpt>
      <trkpt lat="49.45124" lon="1.36719">
        <ele>68</ele>
        <time>2017-07-04T16:44:28Z</time>
      </trkpt>
      <trkpt lat="49.45125" lon="1.36714">
        <ele>64</ele>
        <time>2017-07-04T16:44:44Z</time>
      </trkpt>
      <trkpt lat="49.4513" lon="1.36705">
        <ele>72</ele>
        <time>2017-07-04T16:44:44Z</time>
      </trkpt>
      <trkpt lat="49.45132" lon="1.367">
        <ele>72</ele>
        <time>2017-07-04T16:44:44Z</time>
      </trkpt>
      <trkpt lat="49.45134" lon="1.36693">
        <ele>72</ele>
        <time>2017-07-04T16:44:44Z</time>
      </trkpt>
      <trkpt lat="49.45135" lon="1.36688">
        <ele>72</ele>
        <time>2017-07-04T16:44:59Z</time>
      </trkpt>
      <trkpt lat="49.45136" lon="1.3668">
        <ele>72</ele>
        <time>2017-07-04T16:44:59Z</time>
      </trkpt>
      <trkpt lat="49.45139" lon="1.36672">
        <ele>72</ele>
        <time>2017-07-04T16:44:59Z</time>
      </trkpt>
      <trkpt lat="49.4514" lon="1.36665">
        <ele>72</ele>
        <time>2017-07-04T16:44:59Z</time>
      </trkpt>
      <trkpt lat="49.4514" lon="1.36664">
        <ele>72</ele>
        <time>2017-07-04T16:45:19Z</time>
      </trkpt>
      <trkpt lat="49.45144" lon="1.36647">
        <ele>72</ele>
        <time>2017-07-04T16:45:19Z</time>
      </trkpt>
      <trkpt lat="49.45148" lon="1.36643">
        <ele>72</ele>
        <time>2017-07-04T16:45:19Z</time>
      </trkpt>
      <trkpt lat="49.45149" lon="1.36638">
        <ele>72</ele>
        <time>2017-07-04T16:45:19Z</time>
      </trkpt>
      <trkpt lat="49.45151" lon="1.3663">
        <ele>72</ele>
        <time>2017-07-04T16:45:35Z</time>
      </trkpt>
      <trkpt lat="49.45152" lon="1.36625">
        <ele>72</ele>
        <time>2017-07-04T16:45:35Z</time>
      </trkpt>
      <trkpt lat="49.45154" lon="1.36617">
        <ele>77</ele>
        <time>2017-07-04T16:45:35Z</time>
      </trkpt>
      <trkpt lat="49.45156" lon="1.36612">
        <ele>77</ele>
        <time>2017-07-04T16:45:35Z</time>
      </trkpt>
      <trkpt lat="49.45158" lon="1.36603">
        <ele>77</ele>
        <time>2017-07-04T16:45:51Z</time>
      </trkpt>
      <trkpt lat="49.45159" lon="1.36599">
        <ele>77</ele>
        <time>2017-07-04T16:45:51Z</time>
      </trkpt>
      <trkpt lat="49.45161" lon="1.36592">
        <ele>77</ele>
        <time>2017-07-04T16:45:51Z</time>
      </trkpt>
      <trkpt lat="49.45162" lon="1.36585">
        <ele>77</ele>
        <time>2017-07-04T16:45:51Z</time>
      </trkpt>
      <trkpt lat="49.45164" lon="1.36579">
        <ele>77</ele>
        <time>2017-07-04T16:46:11Z</time>
      </trkpt>
      <trkpt lat="49.45166" lon="1.36575">
        <ele>77</ele>
        <time>2017-07-04T16:46:11Z</time>
      </trkpt>
      <trkpt lat="49.45166" lon="1.36575">
        <ele>77</ele>
        <time>2017-07-04T16:46:11Z</time>
      </trkpt>
      <trkpt lat="49.45166" lon="1.36571">
        <ele>77</ele>
        <time>2017-07-04T16:46:11Z</time>
      </trkpt>
      <trkpt lat="49.45174" lon="1.36559">
        <ele>77</ele>
        <time>2017-07-04T16:46:11Z</time>
      </trkpt>
      <trkpt lat="49.45181" lon="1.36549">
        <ele>77</ele>
        <time>2017-07-04T16:46:28Z</time>
      </trkpt>
      <trkpt lat="49.45184" lon="1.36542">
        <ele>77</ele>
        <time>2017-07-04T16:46:28Z</time>
      </trkpt>
      <trkpt lat="49.45186" lon="1.36537">
        <ele>78</ele>
        <time>2017-07-04T16:46:28Z</time>
      </trkpt>
      <trkpt lat="49.45188" lon="1.36532">
        <ele>78</ele>
        <time>2017-07-04T16:46:28Z</time>
      </trkpt>
      <trkpt lat="49.45189" lon="1.36528">
        <ele>78</ele>
        <time>2017-07-04T16:46:43Z</time>
      </trkpt>
      <trkpt lat="49.4519" lon="1.36521">
        <ele>78</ele>
        <time>2017-07-04T16:46:43Z</time>
      </trkpt>
      <trkpt lat="49.45191" lon="1.36513">
        <ele>78</ele>
        <time>2017-07-04T16:46:43Z</time>
      </trkpt>
      <trkpt lat="49.45192" lon="1.36507">
        <ele>78</ele>
        <time>2017-07-04T16:46:43Z</time>
      </trkpt>
      <trkpt lat="49.45193" lon="1.365">
        <ele>78</ele>
        <time>2017-07-04T16:46:59Z</time>
      </trkpt>
      <trkpt lat="49.45197" lon="1.36492">
        <ele>78</ele>
        <time>2017-07-04T16:46:59Z</time>
      </trkpt>
      <trkpt lat="49.452" lon="1.36488">
        <ele>78</ele>
        <time>2017-07-04T16:46:59Z</time>
      </trkpt>
      <trkpt lat="49.45202" lon="1.36484">
        <ele>78</ele>
        <time>2017-07-04T16:46:59Z</time>
      </trkpt>
      <trkpt lat="49.45205" lon="1.36476">
        <ele>78</ele>
        <time>2017-07-04T16:47:15Z</time>
      </trkpt>
      <trkpt lat="49.45208" lon="1.36473">
        <ele>78</ele>
        <time>2017-07-04T16:47:15Z</time>
      </trkpt>
      <trkpt lat="49.4521" lon="1.36466">
        <ele>80</ele>
        <time>2017-07-04T16:47:15Z</time>
      </trkpt>
      <trkpt lat="49.45212" lon="1.36463">
        <ele>80</ele>
        <time>2017-07-04T16:47:15Z</time>
      </trkpt>
      <trkpt lat="49.45217" lon="1.36458">
        <ele>82</ele>
        <time>2017-07-04T16:47:31Z</time>
      </trkpt>
      <trkpt lat="49.45219" lon="1.36451">
        <ele>82</ele>
        <time>2017-07-04T16:47:31Z</time>
      </trkpt>
      <trkpt lat="49.45222" lon="1.36446">
        <ele>82</ele>
        <time>2017-07-04T16:47:31Z</time>
      </trkpt>
      <trkpt lat="49.45225" lon="1.36439">
        <ele>82</ele>
        <time>2017-07-04T16:47:31Z</time>
      </trkpt>
      <trkpt lat="49.45229" lon="1.36433">
        <ele>82</ele>
        <time>2017-07-04T16:47:48Z</time>
      </trkpt>
      <trkpt lat="49.45232" lon="1.36427">
        <ele>82</ele>
        <time>2017-07-04T16:47:48Z</time>
      </trkpt>
      <trkpt lat="49.45235" lon="1.36423">
        <ele>82</ele>
        <time>2017-07-04T16:47:48Z</time>
      </trkpt>
      <trkpt lat="49.45238" lon="1.36417">
        <ele>82</ele>
        <time>2017-07-04T16:47:48Z</time>
      </trkpt>
      <trkpt lat="49.45242" lon="1.36412">
        <ele>82</ele>
        <time>2017-07-04T16:48:02Z</time>
      </trkpt>
      <trkpt lat="49.45245" lon="1.36406">
        <ele>82</ele>
        <time>2017-07-04T16:48:02Z</time>
      </trkpt>
      <trkpt lat="49.45249" lon="1.36398">
        <ele>82</ele>
        <time>2017-07-04T16:48:02Z</time>
      </trkpt>
      <trkpt lat="49.45251" lon="1.36393">
        <ele>82</ele>
        <time>2017-07-04T16:48:02Z</time>
      </trkpt>
      <trkpt lat="49.45254" lon="1.36388">
        <ele>82</ele>
        <time>2017-07-04T16:48:20Z</time>
      </trkpt>
      <trkpt lat="49.45257" lon="1.36383">
        <ele>82</ele>
        <time>2017-07-04T16:48:20Z</time>
      </trkpt>
      <trkpt lat="49.45261" lon="1.36379">
        <ele>82</ele>
        <time>2017-07-04T16:48:20Z</time>
      </trkpt>
      <trkpt lat="49.45264" lon="1.36374">
        <ele>83</ele>
        <time>2017-07-04T16:48:20Z</time>
      </trkpt>
      <trkpt lat="49.45266" lon="1.36368">
        <ele>83</ele>
        <time>2017-07-04T16:48:35Z</time>
      </trkpt>
      <trkpt lat="49.45269" lon="1.36363">
        <ele>83</ele>
        <time>2017-07-04T16:48:35Z</time>
      </trkpt>
      <trkpt lat="49.45275" lon="1.36354">
        <ele>83</ele>
        <time>2017-07-04T16:48:35Z</time>
      </trkpt>
      <trkpt lat="49.45276" lon="1.36353">
        <ele>83</ele>
        <time>2017-07-04T16:48:35Z</time>
      </trkpt>
      <trkpt lat="49.45281" lon="1.36345">
        <ele>83</ele>
        <time>2017-07-04T16:48:51Z</time>
      </trkpt>
      <trkpt lat="49.45285" lon="1.36342">
        <ele>83</ele>
        <time>2017-07-04T16:48:51Z</time>
      </trkpt>
      <trkpt lat="49.45289" lon="1.36338">
        <ele>83</ele>
        <time>2017-07-04T16:48:51Z</time>
      </trkpt>
      <trkpt lat="49.45293" lon="1.36335">
        <ele>83</ele>
        <time>2017-07-04T16:48:51Z</time>
      </trkpt>
      <trkpt lat="49.45296" lon="1.36331">
        <ele>83</ele>
        <time>2017-07-04T16:49:08Z</time>
      </trkpt>
      <trkpt lat="49.45297" lon="1.36328">
        <ele>83</ele>
        <time>2017-07-04T16:49:08Z</time>
      </trkpt>
      <trkpt lat="49.453" lon="1.36324">
        <ele>83</ele>
        <time>2017-07-04T16:49:08Z</time>
      </trkpt>
      <trkpt lat="49.45306" lon="1.36319">
        <ele>83</ele>
        <time>2017-07-04T16:49:08Z</time>
      </trkpt>
      <trkpt lat="49.4531" lon="1.36315">
        <ele>83</ele>
        <time>2017-07-04T16:49:24Z</time>
      </trkpt>
      <trkpt lat="49.45314" lon="1.3631">
        <ele>83</ele>
        <time>2017-07-04T16:49:24Z</time>
      </trkpt>
      <trkpt lat="49.45317" lon="1.36308">
        <ele>83</ele>
        <time>2017-07-04T16:49:24Z</time>
      </trkpt>
      <trkpt lat="49.4532" lon="1.36303">
        <ele>83</ele>
        <time>2017-07-04T16:49:24Z</time>
      </trkpt>
      <trkpt lat="49.45324" lon="1.36301">
        <ele>83</ele>
        <time>2017-07-04T16:49:39Z</time>
      </trkpt>
      <trkpt lat="49.45326" lon="1.36297">
        <ele>83</ele>
        <time>2017-07-04T16:49:39Z</time>
      </trkpt>
      <trkpt lat="49.45331" lon="1.36291">
        <ele>82</ele>
        <time>2017-07-04T16:49:39Z</time>
      </trkpt>
      <trkpt lat="49.45336" lon="1.36287">
        <ele>82</ele>
        <time>2017-07-04T16:49:39Z</time>
      </trkpt>
      <trkpt lat="49.45341" lon="1.36281">
        <ele>82</ele>
        <time>2017-07-04T16:49:55Z</time>
      </trkpt>
      <trkpt lat="49.45346" lon="1.36275">
        <ele>82</ele>
        <time>2017-07-04T16:49:55Z</time>
      </trkpt>
      <trkpt lat="49.4535" lon="1.36272">
        <ele>82</ele>
        <time>2017-07-04T16:49:55Z</time>
      </trkpt>
      <trkpt lat="49.45357" lon="1.36266">
        <ele>82</ele>
        <time>2017-07-04T16:49:55Z</time>
      </trkpt>
      <trkpt lat="49.45361" lon="1.36262">
        <ele>82</ele>
        <time>2017-07-04T16:50:11Z</time>
      </trkpt>
      <trkpt lat="49.45363" lon="1.3626">
        <ele>82</ele>
        <time>2017-07-04T16:50:11Z</time>
      </trkpt>
      <trkpt lat="49.45366" lon="1.36257">
        <ele>82</ele>
        <time>2017-07-04T16:50:11Z</time>
      </trkpt>
      <trkpt lat="49.45372" lon="1.36249">
        <ele>82</ele>
        <time>2017-07-04T16:50:11Z</time>
      </trkpt>
      <trkpt lat="49.45376" lon="1.36243">
        <ele>80</ele>
        <time>2017-07-04T16:50:28Z</time>
      </trkpt>
      <trkpt lat="49.4538" lon="1.36239">
        <ele>80</ele>
        <time>2017-07-04T16:50:28Z</time>
      </trkpt>
      <trkpt lat="49.45384" lon="1.36234">
        <ele>80</ele>
        <time>2017-07-04T16:50:28Z</time>
      </trkpt>
      <trkpt lat="49.45387" lon="1.36229">
        <ele>80</ele>
        <time>2017-07-04T16:50:28Z</time>
      </trkpt>
      <trkpt lat="49.4539" lon="1.36226">
        <ele>80</ele>
        <time>2017-07-04T16:50:43Z</time>
      </trkpt>
      <trkpt lat="49.45395" lon="1.36219">
        <ele>80</ele>
        <time>2017-07-04T16:50:43Z</time>
      </trkpt>
      <trkpt lat="49.45399" lon="1.36214">
        <ele>80</ele>
        <time>2017-07-04T16:50:43Z</time>
      </trkpt>
      <trkpt lat="49.45405" lon="1.36212">
        <ele>80</ele>
        <time>2017-07-04T16:50:43Z</time>
      </trkpt>
      <trkpt lat="49.4541" lon="1.36206">
        <ele>82</ele>
        <time>2017-07-04T16:50:59Z</time>
      </trkpt>
      <trkpt lat="49.45413" lon="1.36202">
        <ele>82</ele>
        <time>2017-07-04T16:50:59Z</time>
      </trkpt>
      <trkpt lat="49.45416" lon="1.36198">
        <ele>82</ele>
        <time>2017-07-04T16:50:59Z</time>
      </trkpt>
      <trkpt lat="49.45421" lon="1.36196">
        <ele>82</ele>
        <time>2017-07-04T16:50:59Z</time>
      </trkpt>
      <trkpt lat="49.45426" lon="1.36194">
        <ele>82</ele>
        <time>2017-07-04T16:51:16Z</time>
      </trkpt>
      <trkpt lat="49.45428" lon="1.3619">
        <ele>82</ele>
        <time>2017-07-04T16:51:16Z</time>
      </trkpt>
      <trkpt lat="49.4543" lon="1.36187">
        <ele>82</ele>
        <time>2017-07-04T16:51:16Z</time>
      </trkpt>
      <trkpt lat="49.45435" lon="1.36181">
        <ele>82</ele>
        <time>2017-07-04T16:51:16Z</time>
      </trkpt>
      <trkpt lat="49.45437" lon="1.36178">
        <ele>82</ele>
        <time>2017-07-04T16:51:31Z</time>
      </trkpt>
      <trkpt lat="49.45438" lon="1.36173">
        <ele>82</ele>
        <time>2017-07-04T16:51:31Z</time>
      </trkpt>
      <trkpt lat="49.45442" lon="1.36167">
        <ele>82</ele>
        <time>2017-07-04T16:51:31Z</time>
      </trkpt>
      <trkpt lat="49.45443" lon="1.36162">
        <ele>82</ele>
        <time>2017-07-04T16:51:31Z</time>
      </trkpt>
      <trkpt lat="49.45447" lon="1.36154">
        <ele>82</ele>
        <time>2017-07-04T16:51:48Z</time>
      </trkpt>
      <trkpt lat="49.45451" lon="1.36146">
        <ele>82</ele>
        <time>2017-07-04T16:51:48Z</time>
      </trkpt>
      <trkpt lat="49.45453" lon="1.36141">
        <ele>82</ele>
        <time>2017-07-04T16:51:48Z</time>
      </trkpt>
      <trkpt lat="49.45456" lon="1.36134">
        <ele>82</ele>
        <time>2017-07-04T16:51:48Z</time>
      </trkpt>
      <trkpt lat="49.45457" lon="1.36129">
        <ele>82</ele>
        <time>2017-07-04T16:52:02Z</time>
      </trkpt>
      <trkpt lat="49.45458" lon="1.36121">
        <ele>83</ele>
        <time>2017-07-04T16:52:02Z</time>
      </trkpt>
      <trkpt lat="49.4546" lon="1.36115">
        <ele>75</ele>
        <time>2017-07-04T16:52:02Z</time>
      </trkpt>
      <trkpt lat="49.45461" lon="1.36113">
        <ele>75</ele>
        <time>2017-07-04T16:52:02Z</time>
      </trkpt>
      <trkpt lat="49.45465" lon="1.36106">
        <ele>75</ele>
        <time>2017-07-04T16:52:19Z</time>
      </trkpt>
      <trkpt lat="49.45468" lon="1.36103">
        <ele>75</ele>
        <time>2017-07-04T16:52:19Z</time>
      </trkpt>
      <trkpt lat="49.45471" lon="1.361">
        <ele>75</ele>
        <time>2017-07-04T16:52:19Z</time>
      </trkpt>
      <trkpt lat="49.45474" lon="1.36096">
        <ele>75</ele>
        <time>2017-07-04T16:52:19Z</time>
      </trkpt>
      <trkpt lat="49.45479" lon="1.36092">
        <ele>75</ele>
        <time>2017-07-04T16:52:36Z</time>
      </trkpt>
      <trkpt lat="49.45485" lon="1.36085">
        <ele>75</ele>
        <time>2017-07-04T16:52:36Z</time>
      </trkpt>
      <trkpt lat="49.45488" lon="1.36082">
        <ele>75</ele>
        <time>2017-07-04T16:52:36Z</time>
      </trkpt>
      <trkpt lat="49.45493" lon="1.36071">
        <ele>75</ele>
        <time>2017-07-04T16:52:36Z</time>
      </trkpt>
      <trkpt lat="49.45495" lon="1.36066">
        <ele>75</ele>
        <time>2017-07-04T16:52:51Z</time>
      </trkpt>
      <trkpt lat="49.45499" lon="1.36059">
        <ele>75</ele>
        <time>2017-07-04T16:52:52Z</time>
      </trkpt>
      <trkpt lat="49.45501" lon="1.36055">
        <ele>75</ele>
        <time>2017-07-04T16:52:52Z</time>
      </trkpt>
      <trkpt lat="49.45508" lon="1.36053">
        <ele>75</ele>
        <time>2017-07-04T16:52:52Z</time>
      </trkpt>
      <trkpt lat="49.45512" lon="1.36053">
        <ele>75</ele>
        <time>2017-07-04T16:53:06Z</time>
      </trkpt>
      <trkpt lat="49.45518" lon="1.36049">
        <ele>75</ele>
        <time>2017-07-04T16:53:06Z</time>
      </trkpt>
      <trkpt lat="49.45525" lon="1.36048">
        <ele>75</ele>
        <time>2017-07-04T16:53:06Z</time>
      </trkpt>
      <trkpt lat="49.4553" lon="1.36046">
        <ele>75</ele>
        <time>2017-07-04T16:53:06Z</time>
      </trkpt>
      <trkpt lat="49.45539" lon="1.36042">
        <ele>75</ele>
        <time>2017-07-04T16:53:23Z</time>
      </trkpt>
      <trkpt lat="49.45542" lon="1.3604">
        <ele>73</ele>
        <time>2017-07-04T16:53:23Z</time>
      </trkpt>
      <trkpt lat="49.45544" lon="1.36035">
        <ele>73</ele>
        <time>2017-07-04T16:53:23Z</time>
      </trkpt>
      <trkpt lat="49.45546" lon="1.3603">
        <ele>73</ele>
        <time>2017-07-04T16:53:23Z</time>
      </trkpt>
      <trkpt lat="49.45551" lon="1.36023">
        <ele>73</ele>
        <time>2017-07-04T16:53:39Z</time>
      </trkpt>
      <trkpt lat="49.45554" lon="1.36021">
        <ele>73</ele>
        <time>2017-07-04T16:53:39Z</time>
      </trkpt>
      <trkpt lat="49.45559" lon="1.36014">
        <ele>73</ele>
        <time>2017-07-04T16:53:39Z</time>
      </trkpt>
      <trkpt lat="49.45563" lon="1.36011">
        <ele>73</ele>
        <time>2017-07-04T16:53:39Z</time>
      </trkpt>
      <trkpt lat="49.45567" lon="1.36007">
        <ele>73</ele>
        <time>2017-07-04T16:53:56Z</time>
      </trkpt>
      <trkpt lat="49.45571" lon="1.36002">
        <ele>73</ele>
        <time>2017-07-04T16:53:56Z</time>
      </trkpt>
      <trkpt lat="49.45575" lon="1.35999">
        <ele>73</ele>
        <time>2017-07-04T16:53:56Z</time>
      </trkpt>
      <trkpt lat="49.4558" lon="1.35992">
        <ele>73</ele>
        <time>2017-07-04T16:53:56Z</time>
      </trkpt>
      <trkpt lat="49.45582" lon="1.35988">
        <ele>73</ele>
        <time>2017-07-04T16:54:12Z</time>
      </trkpt>
      <trkpt lat="49.45586" lon="1.35983">
        <ele>73</ele>
        <time>2017-07-04T16:54:12Z</time>
      </trkpt>
      <trkpt lat="49.45589" lon="1.35982">
        <ele>73</ele>
        <time>2017-07-04T16:54:12Z</time>
      </trkpt>
      <trkpt lat="49.45595" lon="1.35975">
        <ele>73</ele>
        <time>2017-07-04T16:54:12Z</time>
      </trkpt>
      <trkpt lat="49.45598" lon="1.35972">
        <ele>73</ele>
        <time>2017-07-04T16:54:27Z</time>
      </trkpt>
      <trkpt lat="49.45602" lon="1.35969">
        <ele>73</ele>
        <time>2017-07-04T16:54:27Z</time>
      </trkpt>
      <trkpt lat="49.45607" lon="1.35963">
        <ele>73</ele>
        <time>2017-07-04T16:54:27Z</time>
      </trkpt>
      <trkpt lat="49.45611" lon="1.35958">
        <ele>73</ele>
        <time>2017-07-04T16:54:27Z</time>
      </trkpt>
      <trkpt lat="49.45614" lon="1.35955">
        <ele>72</ele>
        <time>2017-07-04T16:54:43Z</time>
      </trkpt>
      <trkpt lat="49.45617" lon="1.3595">
        <ele>72</ele>
        <time>2017-07-04T16:54:43Z</time>
      </trkpt>
      <trkpt lat="49.45624" lon="1.35942">
        <ele>72</ele>
        <time>2017-07-04T16:54:43Z</time>
      </trkpt>
      <trkpt lat="49.45627" lon="1.35939">
        <ele>75</ele>
        <time>2017-07-04T16:54:43Z</time>
      </trkpt>
      <trkpt lat="49.45633" lon="1.35935">
        <ele>75</ele>
        <time>2017-07-04T16:55:00Z</time>
      </trkpt>
      <trkpt lat="49.45637" lon="1.35932">
        <ele>75</ele>
        <time>2017-07-04T16:55:00Z</time>
      </trkpt>
      <trkpt lat="49.4564" lon="1.3593">
        <ele>75</ele>
        <time>2017-07-04T16:55:00Z</time>
      </trkpt>
      <trkpt lat="49.45644" lon="1.35928">
        <ele>75</ele>
        <time>2017-07-04T16:55:00Z</time>
      </trkpt>
      <trkpt lat="49.45647" lon="1.35927">
        <ele>75</ele>
        <time>2017-07-04T16:55:15Z</time>
      </trkpt>
      <trkpt lat="49.45651" lon="1.35925">
        <ele>75</ele>
        <time>2017-07-04T16:55:15Z</time>
      </trkpt>
      <trkpt lat="49.45657" lon="1.35919">
        <ele>75</ele>
        <time>2017-07-04T16:55:15Z</time>
      </trkpt>
      <trkpt lat="49.45659" lon="1.35916">
        <ele>75</ele>
        <time>2017-07-04T16:55:15Z</time>
      </trkpt>
      <trkpt lat="49.45665" lon="1.35915">
        <ele>75</ele>
        <time>2017-07-04T16:55:32Z</time>
      </trkpt>
      <trkpt lat="49.45669" lon="1.35912">
        <ele>75</ele>
        <time>2017-07-04T16:55:32Z</time>
      </trkpt>
      <trkpt lat="49.45675" lon="1.35906">
        <ele>75</ele>
        <time>2017-07-04T16:55:32Z</time>
      </trkpt>
      <trkpt lat="49.45677" lon="1.359">
        <ele>75</ele>
        <time>2017-07-04T16:55:32Z</time>
      </trkpt>
      <trkpt lat="49.4568" lon="1.35894">
        <ele>75</ele>
        <time>2017-07-04T16:55:47Z</time>
      </trkpt>
      <trkpt lat="49.45684" lon="1.35892">
        <ele>75</ele>
        <time>2017-07-04T16:55:47Z</time>
      </trkpt>
      <trkpt lat="49.45686" lon="1.35887">
        <ele>75</ele>
        <time>2017-07-04T16:55:47Z</time>
      </trkpt>
      <trkpt lat="49.45689" lon="1.35883">
        <ele>75</ele>
        <time>2017-07-04T16:55:47Z</time>
      </trkpt>
      <trkpt lat="49.45694" lon="1.35879">
        <ele>75</ele>
        <time>2017-07-04T16:56:03Z</time>
      </trkpt>
      <trkpt lat="49.45697" lon="1.35876">
        <ele>75</ele>
        <time>2017-07-04T16:56:03Z</time>
      </trkpt>
      <trkpt lat="49.457" lon="1.35872">
        <ele>89</ele>
        <time>2017-07-04T16:56:03Z</time>
      </trkpt>
      <trkpt lat="49.45703" lon="1.35868">
        <ele>89</ele>
        <time>2017-07-04T16:56:03Z</time>
      </trkpt>
      <trkpt lat="49.45706" lon="1.35861">
        <ele>89</ele>
        <time>2017-07-04T16:56:20Z</time>
      </trkpt>
      <trkpt lat="49.4571" lon="1.35856">
        <ele>85</ele>
        <time>2017-07-04T16:56:20Z</time>
      </trkpt>
      <trkpt lat="49.45715" lon="1.35852">
        <ele>85</ele>
        <time>2017-07-04T16:56:20Z</time>
      </trkpt>
      <trkpt lat="49.45721" lon="1.35847">
        <ele>85</ele>
        <time>2017-07-04T16:56:20Z</time>
      </trkpt>
      <trkpt lat="49.45724" lon="1.35844">
        <ele>85</ele>
        <time>2017-07-04T16:56:35Z</time>
      </trkpt>
      <trkpt lat="49.45728" lon="1.3584">
        <ele>85</ele>
        <time>2017-07-04T16:56:35Z</time>
      </trkpt>
      <trkpt lat="49.45731" lon="1.35838">
        <ele>85</ele>
        <time>2017-07-04T16:56:35Z</time>
      </trkpt>
      <trkpt lat="49.45734" lon="1.35834">
        <ele>85</ele>
        <time>2017-07-04T16:56:35Z</time>
      </trkpt>
      <trkpt lat="49.45739" lon="1.35831">
        <ele>85</ele>
        <time>2017-07-04T16:56:51Z</time>
      </trkpt>
      <trkpt lat="49.45741" lon="1.35828">
        <ele>85</ele>
        <time>2017-07-04T16:56:51Z</time>
      </trkpt>
      <trkpt lat="49.45745" lon="1.35823">
        <ele>85</ele>
        <time>2017-07-04T16:56:51Z</time>
      </trkpt>
      <trkpt lat="49.45748" lon="1.35821">
        <ele>85</ele>
        <time>2017-07-04T16:56:51Z</time>
      </trkpt>
      <trkpt lat="49.45751" lon="1.35818">
        <ele>85</ele>
        <time>2017-07-04T16:57:06Z</time>
      </trkpt>
      <trkpt lat="49.45755" lon="1.35815">
        <ele>85</ele>
        <time>2017-07-04T16:57:06Z</time>
      </trkpt>
      <trkpt lat="49.45761" lon="1.35812">
        <ele>85</ele>
        <time>2017-07-04T16:57:06Z</time>
      </trkpt>
      <trkpt lat="49.45763" lon="1.35811">
        <ele>85</ele>
        <time>2017-07-04T16:57:06Z</time>
      </trkpt>
      <trkpt lat="49.45768" lon="1.35806">
        <ele>85</ele>
        <time>2017-07-04T16:57:23Z</time>
      </trkpt>
      <trkpt lat="49.45771" lon="1.35804">
        <ele>85</ele>
        <time>2017-07-04T16:57:23Z</time>
      </trkpt>
      <trkpt lat="49.45776" lon="1.35799">
        <ele>85</ele>
        <time>2017-07-04T16:57:23Z</time>
      </trkpt>
      <trkpt lat="49.45779" lon="1.35798">
        <ele>85</ele>
        <time>2017-07-04T16:57:23Z</time>
      </trkpt>
      <trkpt lat="49.45785" lon="1.35793">
        <ele>85</ele>
        <time>2017-07-04T16:57:39Z</time>
      </trkpt>
      <trkpt lat="49.45788" lon="1.3579">
        <ele>105</ele>
        <time>2017-07-04T16:57:39Z</time>
      </trkpt>
      <trkpt lat="49.45792" lon="1.35787">
        <ele>98</ele>
        <time>2017-07-04T16:57:39Z</time>
      </trkpt>
      <trkpt lat="49.45796" lon="1.35783">
        <ele>98</ele>
        <time>2017-07-04T16:57:39Z</time>
      </trkpt>
      <trkpt lat="49.45801" lon="1.35779">
        <ele>98</ele>
        <time>2017-07-04T16:57:55Z</time>
      </trkpt>
      <trkpt lat="49.45804" lon="1.35776">
        <ele>98</ele>
        <time>2017-07-04T16:57:55Z</time>
      </trkpt>
      <trkpt lat="49.45809" lon="1.35776">
        <ele>98</ele>
        <time>2017-07-04T16:57:55Z</time>
      </trkpt>
      <trkpt lat="49.45812" lon="1.35776">
        <ele>98</ele>
        <time>2017-07-04T16:57:55Z</time>
      </trkpt>
      <trkpt lat="49.45816" lon="1.35771">
        <ele>98</ele>
        <time>2017-07-04T16:58:12Z</time>
      </trkpt>
      <trkpt lat="49.45819" lon="1.3577">
        <ele>98</ele>
        <time>2017-07-04T16:58:12Z</time>
      </trkpt>
      <trkpt lat="49.45822" lon="1.35768">
        <ele>98</ele>
        <time>2017-07-04T16:58:12Z</time>
      </trkpt>
      <trkpt lat="49.45828" lon="1.35765">
        <ele>98</ele>
        <time>2017-07-04T16:58:12Z</time>
      </trkpt>
      <trkpt lat="49.4583" lon="1.35763">
        <ele>98</ele>
        <time>2017-07-04T16:58:28Z</time>
      </trkpt>
      <trkpt lat="49.45837" lon="1.35758">
        <ele>98</ele>
        <time>2017-07-04T16:58:28Z</time>
      </trkpt>
      <trkpt lat="49.45841" lon="1.35756">
        <ele>98</ele>
        <time>2017-07-04T16:58:28Z</time>
      </trkpt>
      <trkpt lat="49.45845" lon="1.35754">
        <ele>98</ele>
        <time>2017-07-04T16:58:28Z</time>
      </trkpt>
      <trkpt lat="49.45848" lon="1.35752">
        <ele>98</ele>
        <time>2017-07-04T16:58:44Z</time>
      </trkpt>
      <trkpt lat="49.45854" lon="1.3575">
        <ele>98</ele>
        <time>2017-07-04T16:58:44Z</time>
      </trkpt>
      <trkpt lat="49.45857" lon="1.35748">
        <ele>98</ele>
        <time>2017-07-04T16:58:44Z</time>
      </trkpt>
      <trkpt lat="49.45862" lon="1.35746">
        <ele>98</ele>
        <time>2017-07-04T16:58:44Z</time>
      </trkpt>
      <trkpt lat="49.45865" lon="1.35744">
        <ele>98</ele>
        <time>2017-07-04T16:59:03Z</time>
      </trkpt>
      <trkpt lat="49.45868" lon="1.35748">
        <ele>98</ele>
        <time>2017-07-04T16:59:03Z</time>
      </trkpt>
      <trkpt lat="49.45869" lon="1.35749">
        <ele>98</ele>
        <time>2017-07-04T16:59:03Z</time>
      </trkpt>
      <trkpt lat="49.45874" lon="1.35745">
        <ele>98</ele>
        <time>2017-07-04T16:59:03Z</time>
      </trkpt>
      <trkpt lat="49.45876" lon="1.35744">
        <ele>86</ele>
        <time>2017-07-04T16:59:03Z</time>
      </trkpt>
      <trkpt lat="49.45873" lon="1.35742">
        <ele>98</ele>
        <time>2017-07-04T16:59:19Z</time>
      </trkpt>
      <trkpt lat="49.45873" lon="1.35733">
        <ele>98</ele>
        <time>2017-07-04T16:59:19Z</time>
      </trkpt>
      <trkpt lat="49.45873" lon="1.35728">
        <ele>98</ele>
        <time>2017-07-04T16:59:19Z</time>
      </trkpt>
      <trkpt lat="49.45874" lon="1.35723">
        <ele>98</ele>
        <time>2017-07-04T16:59:19Z</time>
      </trkpt>
      <trkpt lat="49.45878" lon="1.35715">
        <ele>86</ele>
        <time>2017-07-04T16:59:35Z</time>
      </trkpt>
      <trkpt lat="49.45881" lon="1.3571">
        <ele>86</ele>
        <time>2017-07-04T16:59:35Z</time>
      </trkpt>
      <trkpt lat="49.45885" lon="1.35705">
        <ele>103</ele>
        <time>2017-07-04T16:59:35Z</time>
      </trkpt>
      <trkpt lat="49.45888" lon="1.35702">
        <ele>103</ele>
        <time>2017-07-04T16:59:35Z</time>
      </trkpt>
      <trkpt lat="49.45892" lon="1.35697">
        <ele>103</ele>
        <time>2017-07-04T16:59:52Z</time>
      </trkpt>
      <trkpt lat="49.45896" lon="1.35692">
        <ele>103</ele>
        <time>2017-07-04T16:59:52Z</time>
      </trkpt>
      <trkpt lat="49.45897" lon="1.35688">
        <ele>103</ele>
        <time>2017-07-04T16:59:52Z</time>
      </trkpt>
      <trkpt lat="49.459" lon="1.35683">
        <ele>103</ele>
        <time>2017-07-04T16:59:52Z</time>
      </trkpt>
      <trkpt lat="49.45904" lon="1.35686">
        <ele>103</ele>
        <time>2017-07-04T17:00:07Z</time>
      </trkpt>
      <trkpt lat="49.45916" lon="1.35694">
        <ele>103</ele>
        <time>2017-07-04T17:00:07Z</time>
      </trkpt>
      <trkpt lat="49.45918" lon="1.3569">
        <ele>103</ele>
        <time>2017-07-04T17:00:07Z</time>
      </trkpt>
      <trkpt lat="49.45919" lon="1.35683">
        <ele>103</ele>
        <time>2017-07-04T17:00:07Z</time>
      </trkpt>
      <trkpt lat="49.45917" lon="1.35673">
        <ele>103</ele>
        <time>2017-07-04T17:00:23Z</time>
      </trkpt>
      <trkpt lat="49.45915" lon="1.35667">
        <ele>103</ele>
        <time>2017-07-04T17:00:23Z</time>
      </trkpt>
      <trkpt lat="49.45913" lon="1.35658">
        <ele>103</ele>
        <time>2017-07-04T17:00:23Z</time>
      </trkpt>
      <trkpt lat="49.45913" lon="1.35653">
        <ele>103</ele>
        <time>2017-07-04T17:00:23Z</time>
      </trkpt>
      <trkpt lat="49.45912" lon="1.35645">
        <ele>103</ele>
        <time>2017-07-04T17:00:39Z</time>
      </trkpt>
      <trkpt lat="49.45912" lon="1.35638">
        <ele>103</ele>
        <time>2017-07-04T17:00:39Z</time>
      </trkpt>
      <trkpt lat="49.45912" lon="1.35632">
        <ele>103</ele>
        <time>2017-07-04T17:00:39Z</time>
      </trkpt>
      <trkpt lat="49.45914" lon="1.3563">
        <ele>103</ele>
        <time>2017-07-04T17:00:39Z</time>
      </trkpt>
      <trkpt lat="49.45908" lon="1.35634">
        <ele>103</ele>
        <time>2017-07-04T17:00:55Z</time>
      </trkpt>
      <trkpt lat="49.45905" lon="1.35633">
        <ele>103</ele>
        <time>2017-07-04T17:00:55Z</time>
      </trkpt>
      <trkpt lat="49.45902" lon="1.35626">
        <ele>103</ele>
        <time>2017-07-04T17:00:55Z</time>
      </trkpt>
      <trkpt lat="49.459" lon="1.35622">
        <ele>113</ele>
        <time>2017-07-04T17:00:55Z</time>
      </trkpt>
      <trkpt lat="49.45894" lon="1.35626">
        <ele>103</ele>
        <time>2017-07-04T17:01:20Z</time>
      </trkpt>
      <trkpt lat="49.45891" lon="1.35625">
        <ele>113</ele>
        <time>2017-07-04T17:01:20Z</time>
      </trkpt>
      <trkpt lat="49.4589" lon="1.3562">
        <ele>113</ele>
        <time>2017-07-04T17:01:20Z</time>
      </trkpt>
      <trkpt lat="49.4589" lon="1.35617">
        <ele>113</ele>
        <time>2017-07-04T17:01:20Z</time>
      </trkpt>
      <trkpt lat="49.45891" lon="1.35609">
        <ele>113</ele>
        <time>2017-07-04T17:01:20Z</time>
      </trkpt>
      <trkpt lat="49.45891" lon="1.35603">
        <ele>113</ele>
        <time>2017-07-04T17:01:40Z</time>
      </trkpt>
      <trkpt lat="49.4589" lon="1.35599">
        <ele>113</ele>
        <time>2017-07-04T17:01:40Z</time>
      </trkpt>
      <trkpt lat="49.4589" lon="1.35595">
        <ele>113</ele>
        <time>2017-07-04T17:01:40Z</time>
      </trkpt>
      <trkpt lat="49.45891" lon="1.35591">
        <ele>113</ele>
        <time>2017-07-04T17:01:40Z</time>
      </trkpt>
      <trkpt lat="49.45895" lon="1.35584">
        <ele>113</ele>
        <time>2017-07-04T17:01:40Z</time>
      </trkpt>
      <trkpt lat="49.45895" lon="1.35581">
        <ele>113</ele>
        <time>2017-07-04T17:01:55Z</time>
      </trkpt>
      <trkpt lat="49.45895" lon="1.35574">
        <ele>113</ele>
        <time>2017-07-04T17:01:55Z</time>
      </trkpt>
      <trkpt lat="49.45895" lon="1.35568">
        <ele>113</ele>
        <time>2017-07-04T17:01:55Z</time>
      </trkpt>
      <trkpt lat="49.45893" lon="1.35563">
        <ele>113</ele>
        <time>2017-07-04T17:01:55Z</time>
      </trkpt>
      <trkpt lat="49.45893" lon="1.35558">
        <ele>113</ele>
        <time>2017-07-04T17:02:10Z</time>
      </trkpt>
      <trkpt lat="49.45893" lon="1.35552">
        <ele>113</ele>
        <time>2017-07-04T17:02:10Z</time>
      </trkpt>
      <trkpt lat="49.45892" lon="1.35544">
        <ele>113</ele>
        <time>2017-07-04T17:02:10Z</time>
      </trkpt>
      <trkpt lat="49.45891" lon="1.3554">
        <ele>120</ele>
        <time>2017-07-04T17:02:10Z</time>
      </trkpt>
      <trkpt lat="49.45889" lon="1.35536">
        <ele>120</ele>
        <time>2017-07-04T17:02:31Z</time>
      </trkpt>
      <trkpt lat="49.4589" lon="1.35534">
        <ele>120</ele>
        <time>2017-07-04T17:02:31Z</time>
      </trkpt>
      <trkpt lat="49.45891" lon="1.35529">
        <ele>120</ele>
        <time>2017-07-04T17:02:31Z</time>
      </trkpt>
      <trkpt lat="49.45891" lon="1.35525">
        <ele>120</ele>
        <time>2017-07-04T17:02:31Z</time>
      </trkpt>
      <trkpt lat="49.4589" lon="1.35521">
        <ele>120</ele>
        <time>2017-07-04T17:02:31Z</time>
      </trkpt>
      <trkpt lat="49.4589" lon="1.35516">
        <ele>120</ele>
        <time>2017-07-04T17:02:47Z</time>
      </trkpt>
      <trkpt lat="49.4589" lon="1.35511">
        <ele>120</ele>
        <time>2017-07-04T17:02:47Z</time>
      </trkpt>
      <trkpt lat="49.4589" lon="1.35504">
        <ele>120</ele>
        <time>2017-07-04T17:02:47Z</time>
      </trkpt>
      <trkpt lat="49.4589" lon="1.355">
        <ele>120</ele>
        <time>2017-07-04T17:02:47Z</time>
      </trkpt>
      <trkpt lat="49.45889" lon="1.35493">
        <ele>120</ele>
        <time>2017-07-04T17:03:03Z</time>
      </trkpt>
      <trkpt lat="49.45888" lon="1.35489">
        <ele>120</ele>
        <time>2017-07-04T17:03:03Z</time>
      </trkpt>
      <trkpt lat="49.45886" lon="1.35481">
        <ele>120</ele>
        <time>2017-07-04T17:03:03Z</time>
      </trkpt>
      <trkpt lat="49.45885" lon="1.35477">
        <ele>120</ele>
        <time>2017-07-04T17:03:03Z</time>
      </trkpt>
      <trkpt lat="49.45883" lon="1.35469">
        <ele>120</ele>
        <time>2017-07-04T17:03:19Z</time>
      </trkpt>
      <trkpt lat="49.45882" lon="1.35464">
        <ele>120</ele>
        <time>2017-07-04T17:03:19Z</time>
      </trkpt>
      <trkpt lat="49.4588" lon="1.35458">
        <ele>120</ele>
        <time>2017-07-04T17:03:19Z</time>
      </trkpt>
      <trkpt lat="49.45877" lon="1.35454">
        <ele>123</ele>
        <time>2017-07-04T17:03:19Z</time>
      </trkpt>
      <trkpt lat="49.45878" lon="1.35448">
        <ele>123</ele>
        <time>2017-07-04T17:03:39Z</time>
      </trkpt>
      <trkpt lat="49.45876" lon="1.35445">
        <ele>123</ele>
        <time>2017-07-04T17:03:39Z</time>
      </trkpt>
      <trkpt lat="49.45876" lon="1.35443">
        <ele>123</ele>
        <time>2017-07-04T17:03:39Z</time>
      </trkpt>
      <trkpt lat="49.45875" lon="1.3544">
        <ele>127</ele>
        <time>2017-07-04T17:03:39Z</time>
      </trkpt>
      <trkpt lat="49.45872" lon="1.35434">
        <ele>127</ele>
        <time>2017-07-04T17:03:39Z</time>
      </trkpt>
      <trkpt lat="49.45869" lon="1.35429">
        <ele>127</ele>
        <time>2017-07-04T17:03:55Z</time>
      </trkpt>
      <trkpt lat="49.45869" lon="1.35426">
        <ele>127</ele>
        <time>2017-07-04T17:03:55Z</time>
      </trkpt>
      <trkpt lat="49.45867" lon="1.3542">
        <ele>127</ele>
        <time>2017-07-04T17:03:55Z</time>
      </trkpt>
      <trkpt lat="49.45866" lon="1.35415">
        <ele>127</ele>
        <time>2017-07-04T17:03:55Z</time>
      </trkpt>
      <trkpt lat="49.45867" lon="1.35413">
        <ele>127</ele>
        <time>2017-07-04T17:04:11Z</time>
      </trkpt>
      <trkpt lat="49.45869" lon="1.35407">
        <ele>127</ele>
        <time>2017-07-04T17:04:11Z</time>
      </trkpt>
      <trkpt lat="49.4587" lon="1.35401">
        <ele>127</ele>
        <time>2017-07-04T17:04:11Z</time>
      </trkpt>
      <trkpt lat="49.4587" lon="1.35395">
        <ele>127</ele>
        <time>2017-07-04T17:04:11Z</time>
      </trkpt>
      <trkpt lat="49.45871" lon="1.3539">
        <ele>127</ele>
        <time>2017-07-04T17:04:27Z</time>
      </trkpt>
      <trkpt lat="49.45872" lon="1.35386">
        <ele>127</ele>
        <time>2017-07-04T17:04:27Z</time>
      </trkpt>
      <trkpt lat="49.45875" lon="1.35379">
        <ele>127</ele>
        <time>2017-07-04T17:04:27Z</time>
      </trkpt>
      <trkpt lat="49.45876" lon="1.35373">
        <ele>127</ele>
        <time>2017-07-04T17:04:27Z</time>
      </trkpt>
      <trkpt lat="49.45877" lon="1.35365">
        <ele>127</ele>
        <time>2017-07-04T17:04:43Z</time>
      </trkpt>
      <trkpt lat="49.45879" lon="1.35362">
        <ele>127</ele>
        <time>2017-07-04T17:04:43Z</time>
      </trkpt>
      <trkpt lat="49.45881" lon="1.35356">
        <ele>127</ele>
        <time>2017-07-04T17:04:43Z</time>
      </trkpt>
      <trkpt lat="49.45882" lon="1.35352">
        <ele>127</ele>
        <time>2017-07-04T17:04:43Z</time>
      </trkpt>
      <trkpt lat="49.45884" lon="1.35344">
        <ele>127</ele>
        <time>2017-07-04T17:04:59Z</time>
      </trkpt>
      <trkpt lat="49.45887" lon="1.35341">
        <ele>127</ele>
        <time>2017-07-04T17:04:59Z</time>
      </trkpt>
      <trkpt lat="49.45889" lon="1.35338">
        <ele>127</ele>
        <time>2017-07-04T17:04:59Z</time>
      </trkpt>
      <trkpt lat="49.45891" lon="1.35333">
        <ele>127</ele>
        <time>2017-07-04T17:04:59Z</time>
      </trkpt>
      <trkpt lat="49.45891" lon="1.35327">
        <ele>127</ele>
        <time>2017-07-04T17:05:16Z</time>
      </trkpt>
      <trkpt lat="49.45893" lon="1.35323">
        <ele>127</ele>
        <time>2017-07-04T17:05:16Z</time>
      </trkpt>
      <trkpt lat="49.45894" lon="1.35318">
        <ele>127</ele>
        <time>2017-07-04T17:05:16Z</time>
      </trkpt>
      <trkpt lat="49.45895" lon="1.35312">
        <ele>127</ele>
        <time>2017-07-04T17:05:16Z</time>
      </trkpt>
      <trkpt lat="49.45897" lon="1.35297">
        <ele>127</ele>
        <time>2017-07-04T17:12:18Z</time>
      </trkpt>
      <trkpt lat="49.45898" lon="1.35297">
        <ele>127</ele>
        <time>2017-07-04T17:12:18Z</time>
      </trkpt>
      <trkpt lat="49.45898" lon="1.35297">
        <ele>127</ele>
        <time>2017-07-04T17:12:18Z</time>
      </trkpt>
      <trkpt lat="49.45899" lon="1.35292">
        <ele>127</ele>
        <time>2017-07-04T17:12:18Z</time>
      </trkpt>
      <trkpt lat="49.459" lon="1.35287">
        <ele>131</ele>
        <time>2017-07-04T17:12:18Z</time>
      </trkpt>
      <trkpt lat="49.45898" lon="1.35279">
        <ele>131</ele>
        <time>2017-07-04T17:12:39Z</time>
      </trkpt>
      <trkpt lat="49.45899" lon="1.35275">
        <ele>131</ele>
        <time>2017-07-04T17:12:39Z</time>
      </trkpt>
      <trkpt lat="49.45899" lon="1.3527">
        <ele>131</ele>
        <time>2017-07-04T17:12:39Z</time>
      </trkpt>
      <trkpt lat="49.459" lon="1.35266">
        <ele>131</ele>
        <time>2017-07-04T17:12:39Z</time>
      </trkpt>
      <trkpt lat="49.45902" lon="1.35262">
        <ele>131</ele>
        <time>2017-07-04T17:12:39Z</time>
      </trkpt>
      <trkpt lat="49.45903" lon="1.35255">
        <ele>131</ele>
        <time>2017-07-04T17:12:54Z</time>
      </trkpt>
      <trkpt lat="49.45904" lon="1.35251">
        <ele>131</ele>
        <time>2017-07-04T17:12:54Z</time>
      </trkpt>
      <trkpt lat="49.45904" lon="1.35245">
        <ele>131</ele>
        <time>2017-07-04T17:12:54Z</time>
      </trkpt>
      <trkpt lat="49.45904" lon="1.35238">
        <ele>131</ele>
        <time>2017-07-04T17:12:55Z</time>
      </trkpt>
      <trkpt lat="49.45904" lon="1.3523">
        <ele>131</ele>
        <time>2017-07-04T17:13:12Z</time>
      </trkpt>
      <trkpt lat="49.45904" lon="1.35223">
        <ele>131</ele>
        <time>2017-07-04T17:13:12Z</time>
      </trkpt>
      <trkpt lat="49.45904" lon="1.35219">
        <ele>131</ele>
        <time>2017-07-04T17:13:12Z</time>
      </trkpt>
      <trkpt lat="49.45904" lon="1.35213">
        <ele>131</ele>
        <time>2017-07-04T17:13:12Z</time>
      </trkpt>
      <trkpt lat="49.45905" lon="1.35207">
        <ele>134</ele>
        <time>2017-07-04T17:13:27Z</time>
      </trkpt>
      <trkpt lat="49.45905" lon="1.35197">
        <ele>134</ele>
        <time>2017-07-04T17:13:27Z</time>
      </trkpt>
      <trkpt lat="49.45905" lon="1.35192">
        <ele>134</ele>
        <time>2017-07-04T17:13:27Z</time>
      </trkpt>
      <trkpt lat="49.45903" lon="1.35184">
        <ele>134</ele>
        <time>2017-07-04T17:13:27Z</time>
      </trkpt>
      <trkpt lat="49.45903" lon="1.35179">
        <ele>134</ele>
        <time>2017-07-04T17:13:43Z</time>
      </trkpt>
      <trkpt lat="49.45904" lon="1.35172">
        <ele>134</ele>
        <time>2017-07-04T17:13:43Z</time>
      </trkpt>
      <trkpt lat="49.45905" lon="1.35166">
        <ele>134</ele>
        <time>2017-07-04T17:13:43Z</time>
      </trkpt>
      <trkpt lat="49.45905" lon="1.3516">
        <ele>134</ele>
        <time>2017-07-04T17:13:43Z</time>
      </trkpt>
      <trkpt lat="49.45905" lon="1.35151">
        <ele>134</ele>
        <time>2017-07-04T17:13:59Z</time>
      </trkpt>
      <trkpt lat="49.45905" lon="1.35145">
        <ele>134</ele>
        <time>2017-07-04T17:13:59Z</time>
      </trkpt>
      <trkpt lat="49.45906" lon="1.35137">
        <ele>134</ele>
        <time>2017-07-04T17:13:59Z</time>
      </trkpt>
      <trkpt lat="49.45907" lon="1.35132">
        <ele>134</ele>
        <time>2017-07-04T17:13:59Z</time>
      </trkpt>
      <trkpt lat="49.45907" lon="1.35123">
        <ele>135</ele>
        <time>2017-07-04T17:14:15Z</time>
      </trkpt>
      <trkpt lat="49.45908" lon="1.35119">
        <ele>135</ele>
        <time>2017-07-04T17:14:15Z</time>
      </trkpt>
      <trkpt lat="49.45909" lon="1.3511">
        <ele>135</ele>
        <time>2017-07-04T17:14:15Z</time>
      </trkpt>
      <trkpt lat="49.45909" lon="1.35105">
        <ele>135</ele>
        <time>2017-07-04T17:14:15Z</time>
      </trkpt>
      <trkpt lat="49.45909" lon="1.35097">
        <ele>135</ele>
        <time>2017-07-04T17:14:32Z</time>
      </trkpt>
      <trkpt lat="49.45908" lon="1.35089">
        <ele>135</ele>
        <time>2017-07-04T17:14:32Z</time>
      </trkpt>
      <trkpt lat="49.45908" lon="1.35083">
        <ele>135</ele>
        <time>2017-07-04T17:14:32Z</time>
      </trkpt>
      <trkpt lat="49.45909" lon="1.35076">
        <ele>135</ele>
        <time>2017-07-04T17:14:32Z</time>
      </trkpt>
      <trkpt lat="49.45909" lon="1.35071">
        <ele>135</ele>
        <time>2017-07-04T17:14:47Z</time>
      </trkpt>
      <trkpt lat="49.45911" lon="1.35062">
        <ele>135</ele>
        <time>2017-07-04T17:14:47Z</time>
      </trkpt>
      <trkpt lat="49.45911" lon="1.35058">
        <ele>135</ele>
        <time>2017-07-04T17:14:47Z</time>
      </trkpt>
      <trkpt lat="49.45913" lon="1.35051">
        <ele>135</ele>
        <time>2017-07-04T17:14:47Z</time>
      </trkpt>
      <trkpt lat="49.45913" lon="1.35043">
        <ele>135</ele>
        <time>2017-07-04T17:15:02Z</time>
      </trkpt>
      <trkpt lat="49.45912" lon="1.35038">
        <ele>137</ele>
        <time>2017-07-04T17:15:02Z</time>
      </trkpt>
      <trkpt lat="49.45913" lon="1.35031">
        <ele>137</ele>
        <time>2017-07-04T17:15:02Z</time>
      </trkpt>
      <trkpt lat="49.45914" lon="1.35025">
        <ele>137</ele>
        <time>2017-07-04T17:15:02Z</time>
      </trkpt>
      <trkpt lat="49.45914" lon="1.35013">
        <ele>137</ele>
        <time>2017-07-04T17:15:20Z</time>
      </trkpt>
      <trkpt lat="49.45915" lon="1.3501">
        <ele>137</ele>
        <time>2017-07-04T17:15:20Z</time>
      </trkpt>
      <trkpt lat="49.45916" lon="1.35002">
        <ele>137</ele>
        <time>2017-07-04T17:15:20Z</time>
      </trkpt>
      <trkpt lat="49.45915" lon="1.34997">
        <ele>137</ele>
        <time>2017-07-04T17:15:20Z</time>
      </trkpt>
      <trkpt lat="49.45914" lon="1.34992">
        <ele>137</ele>
        <time>2017-07-04T17:15:34Z</time>
      </trkpt>
      <trkpt lat="49.45914" lon="1.34984">
        <ele>137</ele>
        <time>2017-07-04T17:15:34Z</time>
      </trkpt>
      <trkpt lat="49.45915" lon="1.34976">
        <ele>137</ele>
        <time>2017-07-04T17:15:34Z</time>
      </trkpt>
      <trkpt lat="49.45915" lon="1.34971">
        <ele>137</ele>
        <time>2017-07-04T17:15:34Z</time>
      </trkpt>
      <trkpt lat="49.45915" lon="1.34962">
        <ele>137</ele>
        <time>2017-07-04T17:15:51Z</time>
      </trkpt>
      <trkpt lat="49.45914" lon="1.34954">
        <ele>138</ele>
        <time>2017-07-04T17:15:51Z</time>
      </trkpt>
      <trkpt lat="49.45914" lon="1.34947">
        <ele>138</ele>
        <time>2017-07-04T17:15:51Z</time>
      </trkpt>
      <trkpt lat="49.45913" lon="1.3494">
        <ele>138</ele>
        <time>2017-07-04T17:15:51Z</time>
      </trkpt>
      <trkpt lat="49.45912" lon="1.3493">
        <ele>138</ele>
        <time>2017-07-04T17:16:07Z</time>
      </trkpt>
      <trkpt lat="49.4591" lon="1.34924">
        <ele>138</ele>
        <time>2017-07-04T17:16:07Z</time>
      </trkpt>
      <trkpt lat="49.45908" lon="1.34915">
        <ele>138</ele>
        <time>2017-07-04T17:16:07Z</time>
      </trkpt>
      <trkpt lat="49.45908" lon="1.34911">
        <ele>138</ele>
        <time>2017-07-04T17:16:07Z</time>
      </trkpt>
      <trkpt lat="49.45906" lon="1.349">
        <ele>138</ele>
        <time>2017-07-04T17:16:23Z</time>
      </trkpt>
      <trkpt lat="49.45905" lon="1.34893">
        <ele>138</ele>
        <time>2017-07-04T17:16:23Z</time>
      </trkpt>
      <trkpt lat="49.45903" lon="1.34887">
        <ele>138</ele>
        <time>2017-07-04T17:16:23Z</time>
      </trkpt>
      <trkpt lat="49.45903" lon="1.34879">
        <ele>138</ele>
        <time>2017-07-04T17:16:23Z</time>
      </trkpt>
      <trkpt lat="49.45902" lon="1.34872">
        <ele>139</ele>
        <time>2017-07-04T17:16:40Z</time>
      </trkpt>
      <trkpt lat="49.45901" lon="1.34861">
        <ele>139</ele>
        <time>2017-07-04T17:16:40Z</time>
      </trkpt>
      <trkpt lat="49.459" lon="1.34854">
        <ele>139</ele>
        <time>2017-07-04T17:16:40Z</time>
      </trkpt>
      <trkpt lat="49.45899" lon="1.34847">
        <ele>139</ele>
        <time>2017-07-04T17:16:40Z</time>
      </trkpt>
      <trkpt lat="49.45898" lon="1.34841">
        <ele>139</ele>
        <time>2017-07-04T17:16:55Z</time>
      </trkpt>
      <trkpt lat="49.45897" lon="1.34833">
        <ele>139</ele>
        <time>2017-07-04T17:16:55Z</time>
      </trkpt>
      <trkpt lat="49.45896" lon="1.34827">
        <ele>139</ele>
        <time>2017-07-04T17:16:55Z</time>
      </trkpt>
      <trkpt lat="49.45895" lon="1.34817">
        <ele>139</ele>
        <time>2017-07-04T17:16:55Z</time>
      </trkpt>
      <trkpt lat="49.45893" lon="1.34811">
        <ele>139</ele>
        <time>2017-07-04T17:17:12Z</time>
      </trkpt>
      <trkpt lat="49.45892" lon="1.348">
        <ele>139</ele>
        <time>2017-07-04T17:17:12Z</time>
      </trkpt>
      <trkpt lat="49.45892" lon="1.34795">
        <ele>139</ele>
        <time>2017-07-04T17:17:12Z</time>
      </trkpt>
      <trkpt lat="49.45891" lon="1.34787">
        <ele>138</ele>
        <time>2017-07-04T17:17:12Z</time>
      </trkpt>
      <trkpt lat="49.4589" lon="1.3478">
        <ele>138</ele>
        <time>2017-07-04T17:17:28Z</time>
      </trkpt>
      <trkpt lat="49.45887" lon="1.34771">
        <ele>138</ele>
        <time>2017-07-04T17:17:28Z</time>
      </trkpt>
      <trkpt lat="49.45886" lon="1.34767">
        <ele>138</ele>
        <time>2017-07-04T17:17:28Z</time>
      </trkpt>
      <trkpt lat="49.45883" lon="1.34757">
        <ele>138</ele>
        <time>2017-07-04T17:17:28Z</time>
      </trkpt>
      <trkpt lat="49.45882" lon="1.34753">
        <ele>138</ele>
        <time>2017-07-04T17:17:43Z</time>
      </trkpt>
      <trkpt lat="49.4588" lon="1.34746">
        <ele>138</ele>
        <time>2017-07-04T17:17:43Z</time>
      </trkpt>
      <trkpt lat="49.45879" lon="1.34741">
        <ele>138</ele>
        <time>2017-07-04T17:17:43Z</time>
      </trkpt>
      <trkpt lat="49.45877" lon="1.34734">
        <ele>138</ele>
        <time>2017-07-04T17:17:43Z</time>
      </trkpt>
      <trkpt lat="49.45875" lon="1.34729">
        <ele>140</ele>
        <time>2017-07-04T17:17:58Z</time>
      </trkpt>
      <trkpt lat="49.45874" lon="1.34726">
        <ele>140</ele>
        <time>2017-07-04T17:17:58Z</time>
      </trkpt>
      <trkpt lat="49.45872" lon="1.34718">
        <ele>140</ele>
        <time>2017-07-04T17:17:58Z</time>
      </trkpt>
      <trkpt lat="49.4587" lon="1.34711">
        <ele>140</ele>
        <time>2017-07-04T17:17:58Z</time>
      </trkpt>
      <trkpt lat="49.45867" lon="1.34703">
        <ele>139</ele>
        <time>2017-07-04T17:18:14Z</time>
      </trkpt>
      <trkpt lat="49.45863" lon="1.34695">
        <ele>139</ele>
        <time>2017-07-04T17:18:14Z</time>
      </trkpt>
      <trkpt lat="49.45861" lon="1.34688">
        <ele>139</ele>
        <time>2017-07-04T17:18:14Z</time>
      </trkpt>
      <trkpt lat="49.4586" lon="1.34683">
        <ele>139</ele>
        <time>2017-07-04T17:18:14Z</time>
      </trkpt>
      <trkpt lat="49.45859" lon="1.34677">
        <ele>139</ele>
        <time>2017-07-04T17:18:31Z</time>
      </trkpt>
      <trkpt lat="49.45857" lon="1.3467">
        <ele>139</ele>
        <time>2017-07-04T17:18:31Z</time>
      </trkpt>
      <trkpt lat="49.45856" lon="1.34664">
        <ele>139</ele>
        <time>2017-07-04T17:18:31Z</time>
      </trkpt>
      <trkpt lat="49.45855" lon="1.34656">
        <ele>139</ele>
        <time>2017-07-04T17:18:31Z</time>
      </trkpt>
      <trkpt lat="49.45854" lon="1.34647">
        <ele>139</ele>
        <time>2017-07-04T17:18:48Z</time>
      </trkpt>
      <trkpt lat="49.45853" lon="1.34639">
        <ele>139</ele>
        <time>2017-07-04T17:18:48Z</time>
      </trkpt>
      <trkpt lat="49.45852" lon="1.34633">
        <ele>139</ele>
        <time>2017-07-04T17:18:48Z</time>
      </trkpt>
      <trkpt lat="49.45851" lon="1.34625">
        <ele>138</ele>
        <time>2017-07-04T17:18:48Z</time>
      </trkpt>
      <trkpt lat="49.45851" lon="1.34622">
        <ele>138</ele>
        <time>2017-07-04T17:19:03Z</time>
      </trkpt>
      <trkpt lat="49.4585" lon="1.34614">
        <ele>138</ele>
        <time>2017-07-04T17:19:03Z</time>
      </trkpt>
      <trkpt lat="49.45849" lon="1.34604">
        <ele>138</ele>
        <time>2017-07-04T17:19:03Z</time>
      </trkpt>
      <trkpt lat="49.45848" lon="1.34599">
        <ele>138</ele>
        <time>2017-07-04T17:19:03Z</time>
      </trkpt>
      <trkpt lat="49.45846" lon="1.34589">
        <ele>138</ele>
        <time>2017-07-04T17:19:19Z</time>
      </trkpt>
      <trkpt lat="49.45845" lon="1.34584">
        <ele>138</ele>
        <time>2017-07-04T17:19:19Z</time>
      </trkpt>
      <trkpt lat="49.45844" lon="1.34576">
        <ele>138</ele>
        <time>2017-07-04T17:19:19Z</time>
      </trkpt>
      <trkpt lat="49.45843" lon="1.34568">
        <ele>138</ele>
        <time>2017-07-04T17:19:19Z</time>
      </trkpt>
      <trkpt lat="49.45842" lon="1.34556">
        <ele>138</ele>
        <time>2017-07-04T17:19:35Z</time>
      </trkpt>
      <trkpt lat="49.45842" lon="1.34551">
        <ele>138</ele>
        <time>2017-07-04T17:19:35Z</time>
      </trkpt>
      <trkpt lat="49.45841" lon="1.34541">
        <ele>139</ele>
        <time>2017-07-04T17:19:35Z</time>
      </trkpt>
      <trkpt lat="49.4584" lon="1.34535">
        <ele>139</ele>
        <time>2017-07-04T17:19:35Z</time>
      </trkpt>
      <trkpt lat="49.45838" lon="1.34528">
        <ele>139</ele>
        <time>2017-07-04T17:19:50Z</time>
      </trkpt>
      <trkpt lat="49.45837" lon="1.34521">
        <ele>139</ele>
        <time>2017-07-04T17:19:50Z</time>
      </trkpt>
      <trkpt lat="49.45837" lon="1.34513">
        <ele>139</ele>
        <time>2017-07-04T17:19:50Z</time>
      </trkpt>
      <trkpt lat="49.45837" lon="1.34506">
        <ele>139</ele>
        <time>2017-07-04T17:19:50Z</time>
      </trkpt>
      <trkpt lat="49.45837" lon="1.34496">
        <ele>139</ele>
        <time>2017-07-04T17:20:08Z</time>
      </trkpt>
      <trkpt lat="49.45836" lon="1.34491">
        <ele>139</ele>
        <time>2017-07-04T17:20:08Z</time>
      </trkpt>
      <trkpt lat="49.45835" lon="1.34483">
        <ele>139</ele>
        <time>2017-07-04T17:20:08Z</time>
      </trkpt>
      <trkpt lat="49.45834" lon="1.34475">
        <ele>139</ele>
        <time>2017-07-04T17:20:08Z</time>
      </trkpt>
      <trkpt lat="49.45834" lon="1.3447">
        <ele>139</ele>
        <time>2017-07-04T17:20:23Z</time>
      </trkpt>
      <trkpt lat="49.45835" lon="1.34462">
        <ele>139</ele>
        <time>2017-07-04T17:20:23Z</time>
      </trkpt>
      <trkpt lat="49.45834" lon="1.34458">
        <ele>138</ele>
        <time>2017-07-04T17:20:23Z</time>
      </trkpt>
      <trkpt lat="49.45834" lon="1.34452">
        <ele>138</ele>
        <time>2017-07-04T17:20:23Z</time>
      </trkpt>
      <trkpt lat="49.45835" lon="1.34444">
        <ele>138</ele>
        <time>2017-07-04T17:20:40Z</time>
      </trkpt>
      <trkpt lat="49.45834" lon="1.34436">
        <ele>138</ele>
        <time>2017-07-04T17:20:40Z</time>
      </trkpt>
      <trkpt lat="49.45835" lon="1.34426">
        <ele>138</ele>
        <time>2017-07-04T17:20:40Z</time>
      </trkpt>
      <trkpt lat="49.45836" lon="1.34417">
        <ele>138</ele>
        <time>2017-07-04T17:20:40Z</time>
      </trkpt>
      <trkpt lat="49.45837" lon="1.34412">
        <ele>138</ele>
        <time>2017-07-04T17:20:56Z</time>
      </trkpt>
      <trkpt lat="49.45838" lon="1.34403">
        <ele>138</ele>
        <time>2017-07-04T17:20:56Z</time>
      </trkpt>
      <trkpt lat="49.45839" lon="1.34398">
        <ele>138</ele>
        <time>2017-07-04T17:20:56Z</time>
      </trkpt>
      <trkpt lat="49.4584" lon="1.34388">
        <ele>138</ele>
        <time>2017-07-04T17:20:56Z</time>
      </trkpt>
      <trkpt lat="49.4584" lon="1.34385">
        <ele>138</ele>
        <time>2017-07-04T17:21:10Z</time>
      </trkpt>
      <trkpt lat="49.45842" lon="1.34377">
        <ele>138</ele>
        <time>2017-07-04T17:21:10Z</time>
      </trkpt>
      <trkpt lat="49.45843" lon="1.34373">
        <ele>139</ele>
        <time>2017-07-04T17:21:10Z</time>
      </trkpt>
      <trkpt lat="49.45844" lon="1.34365">
        <ele>139</ele>
        <time>2017-07-04T17:21:10Z</time>
      </trkpt>
      <trkpt lat="49.45845" lon="1.34355">
        <ele>139</ele>
        <time>2017-07-04T17:21:28Z</time>
      </trkpt>
      <trkpt lat="49.45846" lon="1.34348">
        <ele>139</ele>
        <time>2017-07-04T17:21:28Z</time>
      </trkpt>
      <trkpt lat="49.45847" lon="1.34342">
        <ele>139</ele>
        <time>2017-07-04T17:21:28Z</time>
      </trkpt>
      <trkpt lat="49.45847" lon="1.34334">
        <ele>139</ele>
        <time>2017-07-04T17:21:28Z</time>
      </trkpt>
      <trkpt lat="49.45846" lon="1.34329">
        <ele>139</ele>
        <time>2017-07-04T17:21:44Z</time>
      </trkpt>
      <trkpt lat="49.45844" lon="1.34323">
        <ele>139</ele>
        <time>2017-07-04T17:21:44Z</time>
      </trkpt>
      <trkpt lat="49.45842" lon="1.3432">
        <ele>139</ele>
        <time>2017-07-04T17:21:44Z</time>
      </trkpt>
      <trkpt lat="49.45838" lon="1.34312">
        <ele>139</ele>
        <time>2017-07-04T17:21:44Z</time>
      </trkpt>
      <trkpt lat="49.45835" lon="1.34308">
        <ele>139</ele>
        <time>2017-07-04T17:21:59Z</time>
      </trkpt>
      <trkpt lat="49.45833" lon="1.34305">
        <ele>139</ele>
        <time>2017-07-04T17:21:59Z</time>
      </trkpt>
      <trkpt lat="49.45829" lon="1.34296">
        <ele>139</ele>
        <time>2017-07-04T17:21:59Z</time>
      </trkpt>
      <trkpt lat="49.45828" lon="1.34293">
        <ele>139</ele>
        <time>2017-07-04T17:21:59Z</time>
      </trkpt>
      <trkpt lat="49.45824" lon="1.34284">
        <ele>139</ele>
        <time>2017-07-04T17:22:15Z</time>
      </trkpt>
      <trkpt lat="49.45821" lon="1.34278">
        <ele>139</ele>
        <time>2017-07-04T17:22:15Z</time>
      </trkpt>
      <trkpt lat="49.45817" lon="1.34267">
        <ele>139</ele>
        <time>2017-07-04T17:22:15Z</time>
      </trkpt>
      <trkpt lat="49.45816" lon="1.3426">
        <ele>139</ele>
        <time>2017-07-04T17:22:15Z</time>
      </trkpt>
      <trkpt lat="49.45814" lon="1.34251">
        <ele>139</ele>
        <time>2017-07-04T17:22:31Z</time>
      </trkpt>
      <trkpt lat="49.45812" lon="1.34245">
        <ele>139</ele>
        <time>2017-07-04T17:22:31Z</time>
      </trkpt>
      <trkpt lat="49.45809" lon="1.34242">
        <ele>139</ele>
        <time>2017-07-04T17:22:31Z</time>
      </trkpt>
      <trkpt lat="49.45804" lon="1.34243">
        <ele>139</ele>
        <time>2017-07-04T17:22:31Z</time>
      </trkpt>
      <trkpt lat="49.45799" lon="1.34245">
        <ele>139</ele>
        <time>2017-07-04T17:22:46Z</time>
      </trkpt>
      <trkpt lat="49.45795" lon="1.34246">
        <ele>139</ele>
        <time>2017-07-04T17:22:46Z</time>
      </trkpt>
      <trkpt lat="49.45789" lon="1.34253">
        <ele>133</ele>
        <time>2017-07-04T17:22:46Z</time>
      </trkpt>
      <trkpt lat="49.45787" lon="1.34257">
        <ele>133</ele>
        <time>2017-07-04T17:22:46Z</time>
      </trkpt>
      <trkpt lat="49.45782" lon="1.34261">
        <ele>133</ele>
        <time>2017-07-04T17:23:03Z</time>
      </trkpt>
      <trkpt lat="49.45778" lon="1.34266">
        <ele>133</ele>
        <time>2017-07-04T17:23:03Z</time>
      </trkpt>
      <trkpt lat="49.45776" lon="1.34272">
        <ele>133</ele>
        <time>2017-07-04T17:23:03Z</time>
      </trkpt>
      <trkpt lat="49.45772" lon="1.34277">
        <ele>133</ele>
        <time>2017-07-04T17:23:03Z</time>
      </trkpt>
      <trkpt lat="49.45769" lon="1.34282">
        <ele>133</ele>
        <time>2017-07-04T17:23:19Z</time>
      </trkpt>
      <trkpt lat="49.45766" lon="1.34287">
        <ele>133</ele>
        <time>2017-07-04T17:23:19Z</time>
      </trkpt>
      <trkpt lat="49.4576" lon="1.34296">
        <ele>131</ele>
        <time>2017-07-04T17:23:19Z</time>
      </trkpt>
      <trkpt lat="49.45757" lon="1.34301">
        <ele>131</ele>
        <time>2017-07-04T17:23:19Z</time>
      </trkpt>
      <trkpt lat="49.45752" lon="1.34308">
        <ele>131</ele>
        <time>2017-07-04T17:23:35Z</time>
      </trkpt>
      <trkpt lat="49.4575" lon="1.34311">
        <ele>131</ele>
        <time>2017-07-04T17:23:35Z</time>
      </trkpt>
      <trkpt lat="49.45747" lon="1.34319">
        <ele>131</ele>
        <time>2017-07-04T17:23:35Z</time>
      </trkpt>
      <trkpt lat="49.45746" lon="1.34323">
        <ele>131</ele>
        <time>2017-07-04T17:23:35Z</time>
      </trkpt>
      <trkpt lat="49.45743" lon="1.34329">
        <ele>131</ele>
        <time>2017-07-04T17:23:50Z</time>
      </trkpt>
      <trkpt lat="49.45741" lon="1.34332">
        <ele>131</ele>
        <time>2017-07-04T17:23:50Z</time>
      </trkpt>
      <trkpt lat="49.45737" lon="1.34338">
        <ele>131</ele>
        <time>2017-07-04T17:23:50Z</time>
      </trkpt>
      <trkpt lat="49.45733" lon="1.34343">
        <ele>131</ele>
        <time>2017-07-04T17:23:50Z</time>
      </trkpt>
      <trkpt lat="49.4573" lon="1.34349">
        <ele>131</ele>
        <time>2017-07-04T17:24:08Z</time>
      </trkpt>
      <trkpt lat="49.45726" lon="1.34356">
        <ele>131</ele>
        <time>2017-07-04T17:24:08Z</time>
      </trkpt>
      <trkpt lat="49.45722" lon="1.34362">
        <ele>131</ele>
        <time>2017-07-04T17:24:08Z</time>
      </trkpt>
      <trkpt lat="49.45718" lon="1.34367">
        <ele>131</ele>
        <time>2017-07-04T17:24:08Z</time>
      </trkpt>
      <trkpt lat="49.45716" lon="1.34372">
        <ele>131</ele>
        <time>2017-07-04T17:24:23Z</time>
      </trkpt>
      <trkpt lat="49.45712" lon="1.3438">
        <ele>130</ele>
        <time>2017-07-04T17:24:23Z</time>
      </trkpt>
      <trkpt lat="49.4571" lon="1.34383">
        <ele>130</ele>
        <time>2017-07-04T17:24:23Z</time>
      </trkpt>
      <trkpt lat="49.45706" lon="1.3439">
        <ele>122</ele>
        <time>2017-07-04T17:24:23Z</time>
      </trkpt>
      <trkpt lat="49.45703" lon="1.34395">
        <ele>122</ele>
        <time>2017-07-04T17:24:39Z</time>
      </trkpt>
      <trkpt lat="49.45701" lon="1.34398">
        <ele>122</ele>
        <time>2017-07-04T17:24:39Z</time>
      </trkpt>
      <trkpt lat="49.45697" lon="1.34404">
        <ele>122</ele>
        <time>2017-07-04T17:24:39Z</time>
      </trkpt>
      <trkpt lat="49.45693" lon="1.34409">
        <ele>122</ele>
        <time>2017-07-04T17:24:39Z</time>
      </trkpt>
      <trkpt lat="49.4569" lon="1.34414">
        <ele>122</ele>
        <time>2017-07-04T17:24:54Z</time>
      </trkpt>
      <trkpt lat="49.45687" lon="1.34421">
        <ele>122</ele>
        <time>2017-07-04T17:24:54Z</time>
      </trkpt>
      <trkpt lat="49.45684" lon="1.34425">
        <ele>122</ele>
        <time>2017-07-04T17:24:54Z</time>
      </trkpt>
      <trkpt lat="49.45681" lon="1.34429">
        <ele>122</ele>
        <time>2017-07-04T17:24:54Z</time>
      </trkpt>
      <trkpt lat="49.45677" lon="1.34436">
        <ele>122</ele>
        <time>2017-07-04T17:25:11Z</time>
      </trkpt>
      <trkpt lat="49.45675" lon="1.34441">
        <ele>122</ele>
        <time>2017-07-04T17:25:11Z</time>
      </trkpt>
      <trkpt lat="49.45672" lon="1.34447">
        <ele>122</ele>
        <time>2017-07-04T17:25:11Z</time>
      </trkpt>
      <trkpt lat="49.45668" lon="1.34453">
        <ele>122</ele>
        <time>2017-07-04T17:25:11Z</time>
      </trkpt>
      <trkpt lat="49.45663" lon="1.34461">
        <ele>125</ele>
        <time>2017-07-04T17:25:28Z</time>
      </trkpt>
      <trkpt lat="49.45661" lon="1.34465">
        <ele>125</ele>
        <time>2017-07-04T17:25:28Z</time>
      </trkpt>
      <trkpt lat="49.45657" lon="1.3447">
        <ele>125</ele>
        <time>2017-07-04T17:25:28Z</time>
      </trkpt>
      <trkpt lat="49.45652" lon="1.34474">
        <ele>125</ele>
        <time>2017-07-04T17:25:28Z</time>
      </trkpt>
      <trkpt lat="49.4565" lon="1.34478">
        <ele>125</ele>
        <time>2017-07-04T17:25:44Z</time>
      </trkpt>
      <trkpt lat="49.45644" lon="1.34482">
        <ele>125</ele>
        <time>2017-07-04T17:25:44Z</time>
      </trkpt>
      <trkpt lat="49.45641" lon="1.34481">
        <ele>125</ele>
        <time>2017-07-04T17:25:44Z</time>
      </trkpt>
      <trkpt lat="49.45636" lon="1.34476">
        <ele>125</ele>
        <time>2017-07-04T17:25:44Z</time>
      </trkpt>
      <trkpt lat="49.45633" lon="1.34473">
        <ele>125</ele>
        <time>2017-07-04T17:25:58Z</time>
      </trkpt>
      <trkpt lat="49.45628" lon="1.34467">
        <ele>125</ele>
        <time>2017-07-04T17:25:58Z</time>
      </trkpt>
      <trkpt lat="49.45626" lon="1.34463">
        <ele>125</ele>
        <time>2017-07-04T17:25:58Z</time>
      </trkpt>
      <trkpt lat="49.45623" lon="1.34455">
        <ele>131</ele>
        <time>2017-07-04T17:25:58Z</time>
      </trkpt>
      <trkpt lat="49.4562" lon="1.34449">
        <ele>131</ele>
        <time>2017-07-04T17:26:15Z</time>
      </trkpt>
      <trkpt lat="49.45617" lon="1.34444">
        <ele>131</ele>
        <time>2017-07-04T17:26:15Z</time>
      </trkpt>
      <trkpt lat="49.45613" lon="1.34436">
        <ele>131</ele>
        <time>2017-07-04T17:26:15Z</time>
      </trkpt>
      <trkpt lat="49.45611" lon="1.3443">
        <ele>131</ele>
        <time>2017-07-04T17:26:15Z</time>
      </trkpt>
      <trkpt lat="49.45611" lon="1.34423">
        <ele>131</ele>
        <time>2017-07-04T17:26:31Z</time>
      </trkpt>
      <trkpt lat="49.4561" lon="1.34418">
        <ele>131</ele>
        <time>2017-07-04T17:26:31Z</time>
      </trkpt>
      <trkpt lat="49.45606" lon="1.34408">
        <ele>131</ele>
        <time>2017-07-04T17:26:31Z</time>
      </trkpt>
      <trkpt lat="49.45604" lon="1.34403">
        <ele>131</ele>
        <time>2017-07-04T17:26:31Z</time>
      </trkpt>
      <trkpt lat="49.456" lon="1.34394">
        <ele>131</ele>
        <time>2017-07-04T17:26:47Z</time>
      </trkpt>
      <trkpt lat="49.45598" lon="1.34389">
        <ele>131</ele>
        <time>2017-07-04T17:26:47Z</time>
      </trkpt>
      <trkpt lat="49.45595" lon="1.34383">
        <ele>131</ele>
        <time>2017-07-04T17:26:47Z</time>
      </trkpt>
      <trkpt lat="49.45593" lon="1.34378">
        <ele>131</ele>
        <time>2017-07-04T17:26:47Z</time>
      </trkpt>
      <trkpt lat="49.4559" lon="1.34367">
        <ele>126</ele>
        <time>2017-07-04T17:27:03Z</time>
      </trkpt>
      <trkpt lat="49.45588" lon="1.34362">
        <ele>126</ele>
        <time>2017-07-04T17:27:03Z</time>
      </trkpt>
      <trkpt lat="49.45585" lon="1.34351">
        <ele>126</ele>
        <time>2017-07-04T17:27:03Z</time>
      </trkpt>
      <trkpt lat="49.45583" lon="1.34347">
        <ele>126</ele>
        <time>2017-07-04T17:27:03Z</time>
      </trkpt>
      <trkpt lat="49.45579" lon="1.34339">
        <ele>126</ele>
        <time>2017-07-04T17:27:19Z</time>
      </trkpt>
      <trkpt lat="49.45577" lon="1.34335">
        <ele>126</ele>
        <time>2017-07-04T17:27:19Z</time>
      </trkpt>
      <trkpt lat="49.45572" lon="1.34328">
        <ele>126</ele>
        <time>2017-07-04T17:27:19Z</time>
      </trkpt>
      <trkpt lat="49.4557" lon="1.34322">
        <ele>126</ele>
        <time>2017-07-04T17:27:19Z</time>
      </trkpt>
      <trkpt lat="49.45566" lon="1.34315">
        <ele>126</ele>
        <time>2017-07-04T17:27:35Z</time>
      </trkpt>
      <trkpt lat="49.45563" lon="1.3431">
        <ele>126</ele>
        <time>2017-07-04T17:27:35Z</time>
      </trkpt>
      <trkpt lat="49.4556" lon="1.34302">
        <ele>126</ele>
        <time>2017-07-04T17:27:35Z</time>
      </trkpt>
      <trkpt lat="49.45558" lon="1.34296">
        <ele>126</ele>
        <time>2017-07-04T17:27:35Z</time>
      </trkpt>
      <trkpt lat="49.45558" lon="1.34289">
        <ele>128</ele>
        <time>2017-07-04T17:27:51Z</time>
      </trkpt>
      <trkpt lat="49.45556" lon="1.34283">
        <ele>128</ele>
        <time>2017-07-04T17:27:51Z</time>
      </trkpt>
      <trkpt lat="49.45554" lon="1.34279">
        <ele>128</ele>
        <time>2017-07-04T17:27:51Z</time>
      </trkpt>
      <trkpt lat="49.45551" lon="1.34273">
        <ele>128</ele>
        <time>2017-07-04T17:27:51Z</time>
      </trkpt>
      <trkpt lat="49.45549" lon="1.34268">
        <ele>128</ele>
        <time>2017-07-04T17:28:07Z</time>
      </trkpt>
      <trkpt lat="49.45546" lon="1.34263">
        <ele>128</ele>
        <time>2017-07-04T17:28:07Z</time>
      </trkpt>
      <trkpt lat="49.45544" lon="1.34258">
        <ele>128</ele>
        <time>2017-07-04T17:28:07Z</time>
      </trkpt>
      <trkpt lat="49.45542" lon="1.34255">
        <ele>128</ele>
        <time>2017-07-04T17:28:07Z</time>
      </trkpt>
      <trkpt lat="49.45539" lon="1.34251">
        <ele>134</ele>
        <time>2017-07-04T17:28:23Z</time>
      </trkpt>
      <trkpt lat="49.45538" lon="1.34246">
        <ele>134</ele>
        <time>2017-07-04T17:28:23Z</time>
      </trkpt>
      <trkpt lat="49.45535" lon="1.34241">
        <ele>134</ele>
        <time>2017-07-04T17:28:23Z</time>
      </trkpt>
      <trkpt lat="49.45534" lon="1.34234">
        <ele>134</ele>
        <time>2017-07-04T17:28:23Z</time>
      </trkpt>
      <trkpt lat="49.45535" lon="1.3423">
        <ele>134</ele>
        <time>2017-07-04T17:28:40Z</time>
      </trkpt>
      <trkpt lat="49.45534" lon="1.34219">
        <ele>134</ele>
        <time>2017-07-04T17:28:40Z</time>
      </trkpt>
      <trkpt lat="49.45533" lon="1.34216">
        <ele>134</ele>
        <time>2017-07-04T17:28:40Z</time>
      </trkpt>
      <trkpt lat="49.45531" lon="1.34209">
        <ele>134</ele>
        <time>2017-07-04T17:28:40Z</time>
      </trkpt>
      <trkpt lat="49.45529" lon="1.34201">
        <ele>131</ele>
        <time>2017-07-04T17:28:54Z</time>
      </trkpt>
      <trkpt lat="49.45527" lon="1.34189">
        <ele>131</ele>
        <time>2017-07-04T17:28:54Z</time>
      </trkpt>
      <trkpt lat="49.45524" lon="1.3418">
        <ele>131</ele>
        <time>2017-07-04T17:28:54Z</time>
      </trkpt>
      <trkpt lat="49.45522" lon="1.34175">
        <ele>131</ele>
        <time>2017-07-04T17:28:54Z</time>
      </trkpt>
      <trkpt lat="49.4552" lon="1.34168">
        <ele>131</ele>
        <time>2017-07-04T17:29:11Z</time>
      </trkpt>
      <trkpt lat="49.45517" lon="1.34151">
        <ele>131</ele>
        <time>2017-07-04T17:29:11Z</time>
      </trkpt>
      <trkpt lat="49.45516" lon="1.34147">
        <ele>131</ele>
        <time>2017-07-04T17:29:11Z</time>
      </trkpt>
      <trkpt lat="49.45515" lon="1.34138">
        <ele>131</ele>
        <time>2017-07-04T17:29:11Z</time>
      </trkpt>
      <trkpt lat="49.45514" lon="1.3413">
        <ele>131</ele>
        <time>2017-07-04T17:29:28Z</time>
      </trkpt>
      <trkpt lat="49.45512" lon="1.34126">
        <ele>131</ele>
        <time>2017-07-04T17:29:28Z</time>
      </trkpt>
      <trkpt lat="49.4551" lon="1.34118">
        <ele>132</ele>
        <time>2017-07-04T17:29:28Z</time>
      </trkpt>
      <trkpt lat="49.45509" lon="1.34111">
        <ele>132</ele>
        <time>2017-07-04T17:29:28Z</time>
      </trkpt>
      <trkpt lat="49.45508" lon="1.34105">
        <ele>132</ele>
        <time>2017-07-04T17:29:43Z</time>
      </trkpt>
      <trkpt lat="49.45506" lon="1.34094">
        <ele>132</ele>
        <time>2017-07-04T17:29:43Z</time>
      </trkpt>
      <trkpt lat="49.45505" lon="1.34087">
        <ele>132</ele>
        <time>2017-07-04T17:29:43Z</time>
      </trkpt>
      <trkpt lat="49.45506" lon="1.34081">
        <ele>132</ele>
        <time>2017-07-04T17:29:43Z</time>
      </trkpt>
      <trkpt lat="49.45506" lon="1.34072">
        <ele>132</ele>
        <time>2017-07-04T17:29:59Z</time>
      </trkpt>
      <trkpt lat="49.45506" lon="1.34065">
        <ele>132</ele>
        <time>2017-07-04T17:29:59Z</time>
      </trkpt>
      <trkpt lat="49.45506" lon="1.34061">
        <ele>132</ele>
        <time>2017-07-04T17:29:59Z</time>
      </trkpt>
      <trkpt lat="49.45506" lon="1.34052">
        <ele>132</ele>
        <time>2017-07-04T17:29:59Z</time>
      </trkpt>
      <trkpt lat="49.45505" lon="1.34044">
        <ele>132</ele>
        <time>2017-07-04T17:30:15Z</time>
      </trkpt>
      <trkpt lat="49.45503" lon="1.34035">
        <ele>134</ele>
        <time>2017-07-04T17:30:15Z</time>
      </trkpt>
      <trkpt lat="49.45503" lon="1.34031">
        <ele>134</ele>
        <time>2017-07-04T17:30:15Z</time>
      </trkpt>
      <trkpt lat="49.45503" lon="1.34022">
        <ele>134</ele>
        <time>2017-07-04T17:30:15Z</time>
      </trkpt>
      <trkpt lat="49.45503" lon="1.34012">
        <ele>134</ele>
        <time>2017-07-04T17:30:31Z</time>
      </trkpt>
      <trkpt lat="49.45503" lon="1.34006">
        <ele>134</ele>
        <time>2017-07-04T17:30:31Z</time>
      </trkpt>
      <trkpt lat="49.45502" lon="1.34">
        <ele>134</ele>
        <time>2017-07-04T17:30:31Z</time>
      </trkpt>
      <trkpt lat="49.45502" lon="1.33991">
        <ele>134</ele>
        <time>2017-07-04T17:30:31Z</time>
      </trkpt>
      <trkpt lat="49.45501" lon="1.33985">
        <ele>134</ele>
        <time>2017-07-04T17:30:48Z</time>
      </trkpt>
      <trkpt lat="49.45499" lon="1.33977">
        <ele>134</ele>
        <time>2017-07-04T17:30:48Z</time>
      </trkpt>
      <trkpt lat="49.45498" lon="1.33965">
        <ele>134</ele>
        <time>2017-07-04T17:30:48Z</time>
      </trkpt>
      <trkpt lat="49.45498" lon="1.33957">
        <ele>134</ele>
        <time>2017-07-04T17:30:48Z</time>
      </trkpt>
      <trkpt lat="49.45498" lon="1.33952">
        <ele>134</ele>
        <time>2017-07-04T17:31:02Z</time>
      </trkpt>
      <trkpt lat="49.45497" lon="1.33946">
        <ele>134</ele>
        <time>2017-07-04T17:31:02Z</time>
      </trkpt>
      <trkpt lat="49.45497" lon="1.3394">
        <ele>134</ele>
        <time>2017-07-04T17:31:02Z</time>
      </trkpt>
      <trkpt lat="49.45497" lon="1.33932">
        <ele>134</ele>
        <time>2017-07-04T17:31:02Z</time>
      </trkpt>
      <trkpt lat="49.45495" lon="1.33921">
        <ele>134</ele>
        <time>2017-07-04T17:31:19Z</time>
      </trkpt>
      <trkpt lat="49.45495" lon="1.33916">
        <ele>134</ele>
        <time>2017-07-04T17:31:19Z</time>
      </trkpt>
      <trkpt lat="49.45494" lon="1.33907">
        <ele>134</ele>
        <time>2017-07-04T17:31:19Z</time>
      </trkpt>
      <trkpt lat="49.45494" lon="1.33898">
        <ele>134</ele>
        <time>2017-07-04T17:31:19Z</time>
      </trkpt>
      <trkpt lat="49.45493" lon="1.33888">
        <ele>134</ele>
        <time>2017-07-04T17:31:35Z</time>
      </trkpt>
      <trkpt lat="49.45493" lon="1.33883">
        <ele>134</ele>
        <time>2017-07-04T17:31:35Z</time>
      </trkpt>
      <trkpt lat="49.45492" lon="1.33877">
        <ele>134</ele>
        <time>2017-07-04T17:31:35Z</time>
      </trkpt>
      <trkpt lat="49.45492" lon="1.33868">
        <ele>134</ele>
        <time>2017-07-04T17:31:35Z</time>
      </trkpt>
      <trkpt lat="49.45492" lon="1.33859">
        <ele>134</ele>
        <time>2017-07-04T17:31:51Z</time>
      </trkpt>
      <trkpt lat="49.45491" lon="1.33852">
        <ele>134</ele>
        <time>2017-07-04T17:31:51Z</time>
      </trkpt>
      <trkpt lat="49.45491" lon="1.33845">
        <ele>134</ele>
        <time>2017-07-04T17:31:51Z</time>
      </trkpt>
      <trkpt lat="49.4549" lon="1.33834">
        <ele>134</ele>
        <time>2017-07-04T17:31:51Z</time>
      </trkpt>
      <trkpt lat="49.4549" lon="1.33828">
        <ele>134</ele>
        <time>2017-07-04T17:32:08Z</time>
      </trkpt>
      <trkpt lat="49.45489" lon="1.33822">
        <ele>134</ele>
        <time>2017-07-04T17:32:08Z</time>
      </trkpt>
      <trkpt lat="49.45484" lon="1.33821">
        <ele>134</ele>
        <time>2017-07-04T17:32:08Z</time>
      </trkpt>
      <trkpt lat="49.45481" lon="1.33818">
        <ele>134</ele>
        <time>2017-07-04T17:32:08Z</time>
      </trkpt>
      <trkpt lat="49.45479" lon="1.33818">
        <ele>134</ele>
        <time>2017-07-04T17:32:27Z</time>
      </trkpt>
      <trkpt lat="49.45476" lon="1.33821">
        <ele>134</ele>
        <time>2017-07-04T17:32:27Z</time>
      </trkpt>
      <trkpt lat="49.45474" lon="1.33822">
        <ele>134</ele>
        <time>2017-07-04T17:32:27Z</time>
      </trkpt>
      <trkpt lat="49.45471" lon="1.33823">
        <ele>134</ele>
        <time>2017-07-04T17:32:27Z</time>
      </trkpt>
      <trkpt lat="49.45467" lon="1.33823">
        <ele>134</ele>
        <time>2017-07-04T17:32:27Z</time>
      </trkpt>
      <trkpt lat="49.45462" lon="1.33824">
        <ele>134</ele>
        <time>2017-07-04T17:32:44Z</time>
      </trkpt>
      <trkpt lat="49.45458" lon="1.33825">
        <ele>138</ele>
        <time>2017-07-04T17:32:44Z</time>
      </trkpt>
      <trkpt lat="49.45454" lon="1.33825">
        <ele>138</ele>
        <time>2017-07-04T17:32:44Z</time>
      </trkpt>
      <trkpt lat="49.45448" lon="1.33825">
        <ele>138</ele>
        <time>2017-07-04T17:32:44Z</time>
      </trkpt>
      <trkpt lat="49.45445" lon="1.33825">
        <ele>138</ele>
        <time>2017-07-04T17:32:59Z</time>
      </trkpt>
      <trkpt lat="49.4544" lon="1.33825">
        <ele>138</ele>
        <time>2017-07-04T17:32:59Z</time>
      </trkpt>
      <trkpt lat="49.45438" lon="1.33826">
        <ele>138</ele>
        <time>2017-07-04T17:32:59Z</time>
      </trkpt>
      <trkpt lat="49.45433" lon="1.33828">
        <ele>138</ele>
        <time>2017-07-04T17:32:59Z</time>
      </trkpt>
      <trkpt lat="49.4543" lon="1.33829">
        <ele>138</ele>
        <time>2017-07-04T17:33:15Z</time>
      </trkpt>
      <trkpt lat="49.45425" lon="1.3383">
        <ele>138</ele>
        <time>2017-07-04T17:33:15Z</time>
      </trkpt>
      <trkpt lat="49.4542" lon="1.33831">
        <ele>138</ele>
        <time>2017-07-04T17:33:15Z</time>
      </trkpt>
      <trkpt lat="49.45415" lon="1.33832">
        <ele>138</ele>
        <time>2017-07-04T17:33:15Z</time>
      </trkpt>
      <trkpt lat="49.4541" lon="1.33833">
        <ele>138</ele>
        <time>2017-07-04T17:34:52Z</time>
      </trkpt>
      <trkpt lat="49.45408" lon="1.33833">
        <ele>138</ele>
        <time>2017-07-04T17:34:52Z</time>
      </trkpt>
      <trkpt lat="49.45404" lon="1.33835">
        <ele>138</ele>
        <time>2017-07-04T17:34:52Z</time>
      </trkpt>
      <trkpt lat="49.45402" lon="1.33841">
        <ele>138</ele>
        <time>2017-07-04T17:34:52Z</time>
      </trkpt>
      <trkpt lat="49.45399" lon="1.33843">
        <ele>138</ele>
        <time>2017-07-04T17:34:52Z</time>
      </trkpt>
      <trkpt lat="49.45399" lon="1.33838">
        <ele>138</ele>
        <time>2017-07-04T17:35:19Z</time>
      </trkpt>
      <trkpt lat="49.45397" lon="1.33838">
        <ele>138</ele>
        <time>2017-07-04T17:35:19Z</time>
      </trkpt>
      <trkpt lat="49.45395" lon="1.33839">
        <ele>138</ele>
        <time>2017-07-04T17:35:19Z</time>
      </trkpt>
      <trkpt lat="49.45389" lon="1.33842">
        <ele>138</ele>
        <time>2017-07-04T17:35:19Z</time>
      </trkpt>
      <trkpt lat="49.45387" lon="1.33843">
        <ele>138</ele>
        <time>2017-07-04T17:35:19Z</time>
      </trkpt>
      <trkpt lat="49.45382" lon="1.33845">
        <ele>138</ele>
        <time>2017-07-04T17:35:43Z</time>
      </trkpt>
      <trkpt lat="49.45379" lon="1.33845">
        <ele>138</ele>
        <time>2017-07-04T17:35:43Z</time>
      </trkpt>
      <trkpt lat="49.45375" lon="1.33844">
        <ele>138</ele>
        <time>2017-07-04T17:35:43Z</time>
      </trkpt>
      <trkpt lat="49.45361" lon="1.33844">
        <ele>143</ele>
        <time>2017-07-04T17:35:43Z</time>
      </trkpt>
      <trkpt lat="49.45355" lon="1.33844">
        <ele>143</ele>
        <time>2017-07-04T17:35:59Z</time>
      </trkpt>
      <trkpt lat="49.45351" lon="1.33846">
        <ele>143</ele>
        <time>2017-07-04T17:35:59Z</time>
      </trkpt>
      <trkpt lat="49.45347" lon="1.33847">
        <ele>143</ele>
        <time>2017-07-04T17:35:59Z</time>
      </trkpt>
      <trkpt lat="49.45344" lon="1.33849">
        <ele>143</ele>
        <time>2017-07-04T17:35:59Z</time>
      </trkpt>
      <trkpt lat="49.45341" lon="1.3385">
        <ele>143</ele>
        <time>2017-07-04T17:36:16Z</time>
      </trkpt>
      <trkpt lat="49.45337" lon="1.3385">
        <ele>143</ele>
        <time>2017-07-04T17:36:16Z</time>
      </trkpt>
      <trkpt lat="49.45333" lon="1.33851">
        <ele>143</ele>
        <time>2017-07-04T17:36:16Z</time>
      </trkpt>
      <trkpt lat="49.45327" lon="1.33852">
        <ele>143</ele>
        <time>2017-07-04T17:36:16Z</time>
      </trkpt>
      <trkpt lat="49.45324" lon="1.33855">
        <ele>143</ele>
        <time>2017-07-04T17:36:31Z</time>
      </trkpt>
      <trkpt lat="49.45322" lon="1.33861">
        <ele>143</ele>
        <time>2017-07-04T17:36:31Z</time>
      </trkpt>
      <trkpt lat="49.45319" lon="1.33864">
        <ele>143</ele>
        <time>2017-07-04T17:36:31Z</time>
      </trkpt>
      <trkpt lat="49.45314" lon="1.33864">
        <ele>143</ele>
        <time>2017-07-04T17:36:31Z</time>
      </trkpt>
      <trkpt lat="49.4531" lon="1.33866">
        <ele>143</ele>
        <time>2017-07-04T17:36:47Z</time>
      </trkpt>
      <trkpt lat="49.45305" lon="1.33869">
        <ele>143</ele>
        <time>2017-07-04T17:36:47Z</time>
      </trkpt>
      <trkpt lat="49.45303" lon="1.33871">
        <ele>143</ele>
        <time>2017-07-04T17:36:47Z</time>
      </trkpt>
      <trkpt lat="49.45298" lon="1.33871">
        <ele>143</ele>
        <time>2017-07-04T17:36:47Z</time>
      </trkpt>
      <trkpt lat="49.45294" lon="1.33873">
        <ele>143</ele>
        <time>2017-07-04T17:37:02Z</time>
      </trkpt>
      <trkpt lat="49.45288" lon="1.33874">
        <ele>145</ele>
        <time>2017-07-04T17:37:02Z</time>
      </trkpt>
      <trkpt lat="49.45282" lon="1.33878">
        <ele>145</ele>
        <time>2017-07-04T17:37:02Z</time>
      </trkpt>
      <trkpt lat="49.45278" lon="1.33879">
        <ele>145</ele>
        <time>2017-07-04T17:37:02Z</time>
      </trkpt>
      <trkpt lat="49.45272" lon="1.3388">
        <ele>145</ele>
        <time>2017-07-04T17:37:20Z</time>
      </trkpt>
      <trkpt lat="49.45268" lon="1.3388">
        <ele>145</ele>
        <time>2017-07-04T17:37:20Z</time>
      </trkpt>
      <trkpt lat="49.45262" lon="1.33881">
        <ele>145</ele>
        <time>2017-07-04T17:37:20Z</time>
      </trkpt>
      <trkpt lat="49.45258" lon="1.33881">
        <ele>145</ele>
        <time>2017-07-04T17:37:20Z</time>
      </trkpt>
      <trkpt lat="49.45254" lon="1.33882">
        <ele>145</ele>
        <time>2017-07-04T17:37:34Z</time>
      </trkpt>
      <trkpt lat="49.45248" lon="1.33881">
        <ele>145</ele>
        <time>2017-07-04T17:37:34Z</time>
      </trkpt>
      <trkpt lat="49.45245" lon="1.33882">
        <ele>145</ele>
        <time>2017-07-04T17:37:34Z</time>
      </trkpt>
      <trkpt lat="49.45239" lon="1.33883">
        <ele>145</ele>
        <time>2017-07-04T17:37:34Z</time>
      </trkpt>
      <trkpt lat="49.45233" lon="1.33884">
        <ele>145</ele>
        <time>2017-07-04T17:37:51Z</time>
      </trkpt>
      <trkpt lat="49.45228" lon="1.33883">
        <ele>145</ele>
        <time>2017-07-04T17:37:51Z</time>
      </trkpt>
      <trkpt lat="49.45221" lon="1.33884">
        <ele>145</ele>
        <time>2017-07-04T17:37:51Z</time>
      </trkpt>
      <trkpt lat="49.45216" lon="1.33885">
        <ele>145</ele>
        <time>2017-07-04T17:37:51Z</time>
      </trkpt>
      <trkpt lat="49.45213" lon="1.33883">
        <ele>145</ele>
        <time>2017-07-04T17:38:07Z</time>
      </trkpt>
      <trkpt lat="49.45208" lon="1.33884">
        <ele>145</ele>
        <time>2017-07-04T17:38:07Z</time>
      </trkpt>
      <trkpt lat="49.45205" lon="1.33884">
        <ele>145</ele>
        <time>2017-07-04T17:38:07Z</time>
      </trkpt>
      <trkpt lat="49.45201" lon="1.33885">
        <ele>145</ele>
        <time>2017-07-04T17:38:07Z</time>
      </trkpt>
      <trkpt lat="49.45196" lon="1.33885">
        <ele>145</ele>
        <time>2017-07-04T17:38:24Z</time>
      </trkpt>
      <trkpt lat="49.4519" lon="1.33885">
        <ele>145</ele>
        <time>2017-07-04T17:38:24Z</time>
      </trkpt>
      <trkpt lat="49.45186" lon="1.33886">
        <ele>145</ele>
        <time>2017-07-04T17:38:24Z</time>
      </trkpt>
      <trkpt lat="49.45179" lon="1.3389">
        <ele>145</ele>
        <time>2017-07-04T17:38:24Z</time>
      </trkpt>
      <trkpt lat="49.45176" lon="1.33891">
        <ele>145</ele>
        <time>2017-07-04T17:38:39Z</time>
      </trkpt>
      <trkpt lat="49.45172" lon="1.33893">
        <ele>145</ele>
        <time>2017-07-04T17:38:39Z</time>
      </trkpt>
      <trkpt lat="49.45168" lon="1.33894">
        <ele>145</ele>
        <time>2017-07-04T17:38:39Z</time>
      </trkpt>
      <trkpt lat="49.45163" lon="1.33897">
        <ele>145</ele>
        <time>2017-07-04T17:38:39Z</time>
      </trkpt>
      <trkpt lat="49.45157" lon="1.339">
        <ele>145</ele>
        <time>2017-07-04T17:38:55Z</time>
      </trkpt>
      <trkpt lat="49.45153" lon="1.33902">
        <ele>145</ele>
        <time>2017-07-04T17:38:55Z</time>
      </trkpt>
      <trkpt lat="49.45147" lon="1.33906">
        <ele>145</ele>
        <time>2017-07-04T17:38:55Z</time>
      </trkpt>
      <trkpt lat="49.45143" lon="1.33908">
        <ele>145</ele>
        <time>2017-07-04T17:38:55Z</time>
      </trkpt>
      <trkpt lat="49.45139" lon="1.3391">
        <ele>145</ele>
        <time>2017-07-04T17:39:11Z</time>
      </trkpt>
      <trkpt lat="49.45134" lon="1.33911">
        <ele>145</ele>
        <time>2017-07-04T17:39:11Z</time>
      </trkpt>
      <trkpt lat="49.45128" lon="1.33913">
        <ele>145</ele>
        <time>2017-07-04T17:39:11Z</time>
      </trkpt>
      <trkpt lat="49.45124" lon="1.33914">
        <ele>143</ele>
        <time>2017-07-04T17:39:11Z</time>
      </trkpt>
      <trkpt lat="49.4512" lon="1.33915">
        <ele>143</ele>
        <time>2017-07-04T17:39:27Z</time>
      </trkpt>
      <trkpt lat="49.45114" lon="1.33916">
        <ele>143</ele>
        <time>2017-07-04T17:39:27Z</time>
      </trkpt>
      <trkpt lat="49.45108" lon="1.33918">
        <ele>143</ele>
        <time>2017-07-04T17:39:27Z</time>
      </trkpt>
      <trkpt lat="49.45106" lon="1.33919">
        <ele>143</ele>
        <time>2017-07-04T17:39:27Z</time>
      </trkpt>
      <trkpt lat="49.45101" lon="1.33923">
        <ele>143</ele>
        <time>2017-07-04T17:39:44Z</time>
      </trkpt>
      <trkpt lat="49.45097" lon="1.33929">
        <ele>143</ele>
        <time>2017-07-04T17:39:44Z</time>
      </trkpt>
      <trkpt lat="49.45093" lon="1.33933">
        <ele>143</ele>
        <time>2017-07-04T17:39:44Z</time>
      </trkpt>
      <trkpt lat="49.45089" lon="1.3394">
        <ele>143</ele>
        <time>2017-07-04T17:39:44Z</time>
      </trkpt>
      <trkpt lat="49.45086" lon="1.33945">
        <ele>143</ele>
        <time>2017-07-04T17:40:00Z</time>
      </trkpt>
      <trkpt lat="49.45083" lon="1.33946">
        <ele>143</ele>
        <time>2017-07-04T17:40:00Z</time>
      </trkpt>
      <trkpt lat="49.45081" lon="1.33951">
        <ele>143</ele>
        <time>2017-07-04T17:40:00Z</time>
      </trkpt>
      <trkpt lat="49.45079" lon="1.33955">
        <ele>143</ele>
        <time>2017-07-04T17:40:00Z</time>
      </trkpt>
      <trkpt lat="49.45076" lon="1.33953">
        <ele>143</ele>
        <time>2017-07-04T17:40:15Z</time>
      </trkpt>
      <trkpt lat="49.45071" lon="1.33955">
        <ele>143</ele>
        <time>2017-07-04T17:40:15Z</time>
      </trkpt>
      <trkpt lat="49.45068" lon="1.33958">
        <ele>143</ele>
        <time>2017-07-04T17:40:15Z</time>
      </trkpt>
      <trkpt lat="49.45063" lon="1.33962">
        <ele>146</ele>
        <time>2017-07-04T17:40:15Z</time>
      </trkpt>
      <trkpt lat="49.4506" lon="1.33964">
        <ele>146</ele>
        <time>2017-07-04T17:40:31Z</time>
      </trkpt>
      <trkpt lat="49.45056" lon="1.33968">
        <ele>146</ele>
        <time>2017-07-04T17:40:31Z</time>
      </trkpt>
      <trkpt lat="49.4505" lon="1.33972">
        <ele>146</ele>
        <time>2017-07-04T17:40:31Z</time>
      </trkpt>
      <trkpt lat="49.45048" lon="1.33975">
        <ele>146</ele>
        <time>2017-07-04T17:40:31Z</time>
      </trkpt>
      <trkpt lat="49.45043" lon="1.33979">
        <ele>146</ele>
        <time>2017-07-04T17:40:47Z</time>
      </trkpt>
      <trkpt lat="49.45038" lon="1.33982">
        <ele>141</ele>
        <time>2017-07-04T17:40:47Z</time>
      </trkpt>
      <trkpt lat="49.45035" lon="1.33986">
        <ele>141</ele>
        <time>2017-07-04T17:40:47Z</time>
      </trkpt>
      <trkpt lat="49.45031" lon="1.33991">
        <ele>141</ele>
        <time>2017-07-04T17:40:48Z</time>
      </trkpt>
      <trkpt lat="49.45029" lon="1.33994">
        <ele>141</ele>
        <time>2017-07-04T17:41:02Z</time>
      </trkpt>
      <trkpt lat="49.45025" lon="1.33998">
        <ele>141</ele>
        <time>2017-07-04T17:41:02Z</time>
      </trkpt>
      <trkpt lat="49.45021" lon="1.34002">
        <ele>141</ele>
        <time>2017-07-04T17:41:02Z</time>
      </trkpt>
      <trkpt lat="49.45017" lon="1.34005">
        <ele>141</ele>
        <time>2017-07-04T17:41:02Z</time>
      </trkpt>
      <trkpt lat="49.45012" lon="1.3401">
        <ele>141</ele>
        <time>2017-07-04T17:41:19Z</time>
      </trkpt>
      <trkpt lat="49.45008" lon="1.34012">
        <ele>141</ele>
        <time>2017-07-04T17:41:19Z</time>
      </trkpt>
      <trkpt lat="49.45004" lon="1.34012">
        <ele>141</ele>
        <time>2017-07-04T17:41:19Z</time>
      </trkpt>
      <trkpt lat="49.45" lon="1.34009">
        <ele>141</ele>
        <time>2017-07-04T17:41:19Z</time>
      </trkpt>
      <trkpt lat="49.44998" lon="1.34003">
        <ele>141</ele>
        <time>2017-07-04T17:41:35Z</time>
      </trkpt>
      <trkpt lat="49.44996" lon="1.33998">
        <ele>141</ele>
        <time>2017-07-04T17:41:35Z</time>
      </trkpt>
      <trkpt lat="49.44995" lon="1.33993">
        <ele>141</ele>
        <time>2017-07-04T17:41:35Z</time>
      </trkpt>
      <trkpt lat="49.44993" lon="1.33984">
        <ele>141</ele>
        <time>2017-07-04T17:41:35Z</time>
      </trkpt>
      <trkpt lat="49.44991" lon="1.33977">
        <ele>141</ele>
        <time>2017-07-04T17:41:51Z</time>
      </trkpt>
      <trkpt lat="49.44989" lon="1.33969">
        <ele>141</ele>
        <time>2017-07-04T17:41:51Z</time>
      </trkpt>
      <trkpt lat="49.44988" lon="1.33963">
        <ele>141</ele>
        <time>2017-07-04T17:41:51Z</time>
      </trkpt>
      <trkpt lat="49.44986" lon="1.33953">
        <ele>140</ele>
        <time>2017-07-04T17:41:51Z</time>
      </trkpt>
      <trkpt lat="49.44983" lon="1.33947">
        <ele>140</ele>
        <time>2017-07-04T17:42:08Z</time>
      </trkpt>
      <trkpt lat="49.44981" lon="1.33942">
        <ele>140</ele>
        <time>2017-07-04T17:42:08Z</time>
      </trkpt>
      <trkpt lat="49.4498" lon="1.33935">
        <ele>140</ele>
        <time>2017-07-04T17:42:08Z</time>
      </trkpt>
      <trkpt lat="49.44978" lon="1.33924">
        <ele>140</ele>
        <time>2017-07-04T17:42:08Z</time>
      </trkpt>
      <trkpt lat="49.44977" lon="1.33918">
        <ele>140</ele>
        <time>2017-07-04T17:42:23Z</time>
      </trkpt>
      <trkpt lat="49.44975" lon="1.3391">
        <ele>140</ele>
        <time>2017-07-04T17:42:23Z</time>
      </trkpt>
      <trkpt lat="49.44974" lon="1.33905">
        <ele>140</ele>
        <time>2017-07-04T17:42:23Z</time>
      </trkpt>
      <trkpt lat="49.44972" lon="1.33898">
        <ele>140</ele>
        <time>2017-07-04T17:42:23Z</time>
      </trkpt>
      <trkpt lat="49.4497" lon="1.33888">
        <ele>140</ele>
        <time>2017-07-04T17:42:39Z</time>
      </trkpt>
      <trkpt lat="49.44969" lon="1.33883">
        <ele>140</ele>
        <time>2017-07-04T17:42:39Z</time>
      </trkpt>
      <trkpt lat="49.44969" lon="1.3388">
        <ele>140</ele>
        <time>2017-07-04T17:42:39Z</time>
      </trkpt>
      <trkpt lat="49.44968" lon="1.33872">
        <ele>142</ele>
        <time>2017-07-04T17:42:39Z</time>
      </trkpt>
      <trkpt lat="49.44967" lon="1.33865">
        <ele>142</ele>
        <time>2017-07-04T17:42:56Z</time>
      </trkpt>
      <trkpt lat="49.44964" lon="1.33856">
        <ele>142</ele>
        <time>2017-07-04T17:42:56Z</time>
      </trkpt>
      <trkpt lat="49.44963" lon="1.33851">
        <ele>142</ele>
        <time>2017-07-04T17:42:56Z</time>
      </trkpt>
      <trkpt lat="49.4496" lon="1.33839">
        <ele>142</ele>
        <time>2017-07-04T17:42:56Z</time>
      </trkpt>
      <trkpt lat="49.4496" lon="1.33833">
        <ele>142</ele>
        <time>2017-07-04T17:43:12Z</time>
      </trkpt>
      <trkpt lat="49.44959" lon="1.33828">
        <ele>142</ele>
        <time>2017-07-04T17:43:12Z</time>
      </trkpt>
      <trkpt lat="49.44958" lon="1.3382">
        <ele>144</ele>
        <time>2017-07-04T17:43:12Z</time>
      </trkpt>
      <trkpt lat="49.44956" lon="1.33811">
        <ele>144</ele>
        <time>2017-07-04T17:43:12Z</time>
      </trkpt>
      <trkpt lat="49.44955" lon="1.33806">
        <ele>144</ele>
        <time>2017-07-04T17:43:28Z</time>
      </trkpt>
      <trkpt lat="49.44953" lon="1.33796">
        <ele>144</ele>
        <time>2017-07-04T17:43:28Z</time>
      </trkpt>
      <trkpt lat="49.44951" lon="1.33791">
        <ele>144</ele>
        <time>2017-07-04T17:43:28Z</time>
      </trkpt>
      <trkpt lat="49.44948" lon="1.33782">
        <ele>144</ele>
        <time>2017-07-04T17:43:28Z</time>
      </trkpt>
      <trkpt lat="49.44947" lon="1.33775">
        <ele>144</ele>
        <time>2017-07-04T17:43:43Z</time>
      </trkpt>
      <trkpt lat="49.44946" lon="1.3377">
        <ele>144</ele>
        <time>2017-07-04T17:43:43Z</time>
      </trkpt>
      <trkpt lat="49.44945" lon="1.3376">
        <ele>144</ele>
        <time>2017-07-04T17:43:43Z</time>
      </trkpt>
      <trkpt lat="49.44945" lon="1.33757">
        <ele>144</ele>
        <time>2017-07-04T17:43:43Z</time>
      </trkpt>
      <trkpt lat="49.44944" lon="1.33749">
        <ele>144</ele>
        <time>2017-07-04T17:43:59Z</time>
      </trkpt>
      <trkpt lat="49.44944" lon="1.3374">
        <ele>144</ele>
        <time>2017-07-04T17:43:59Z</time>
      </trkpt>
      <trkpt lat="49.44944" lon="1.33731">
        <ele>144</ele>
        <time>2017-07-04T17:43:59Z</time>
      </trkpt>
      <trkpt lat="49.44944" lon="1.33723">
        <ele>144</ele>
        <time>2017-07-04T17:43:59Z</time>
      </trkpt>
      <trkpt lat="49.44941" lon="1.33716">
        <ele>144</ele>
        <time>2017-07-04T17:44:15Z</time>
      </trkpt>
      <trkpt lat="49.4494" lon="1.33709">
        <ele>144</ele>
        <time>2017-07-04T17:44:15Z</time>
      </trkpt>
      <trkpt lat="49.44938" lon="1.33703">
        <ele>144</ele>
        <time>2017-07-04T17:44:16Z</time>
      </trkpt>
      <trkpt lat="49.44936" lon="1.33697">
        <ele>144</ele>
        <time>2017-07-04T17:44:16Z</time>
      </trkpt>
      <trkpt lat="49.44935" lon="1.33691">
        <ele>144</ele>
        <time>2017-07-04T17:44:31Z</time>
      </trkpt>
      <trkpt lat="49.44934" lon="1.33686">
        <ele>144</ele>
        <time>2017-07-04T17:44:31Z</time>
      </trkpt>
      <trkpt lat="49.44934" lon="1.3368">
        <ele>144</ele>
        <time>2017-07-04T17:44:31Z</time>
      </trkpt>
      <trkpt lat="49.44933" lon="1.33675">
        <ele>144</ele>
        <time>2017-07-04T17:44:31Z</time>
      </trkpt>
      <trkpt lat="49.44933" lon="1.33664">
        <ele>144</ele>
        <time>2017-07-04T17:44:47Z</time>
      </trkpt>
      <trkpt lat="49.44932" lon="1.33659">
        <ele>144</ele>
        <time>2017-07-04T17:44:47Z</time>
      </trkpt>
      <trkpt lat="49.44931" lon="1.33653">
        <ele>144</ele>
        <time>2017-07-04T17:44:47Z</time>
      </trkpt>
      <trkpt lat="49.44929" lon="1.33642">
        <ele>144</ele>
        <time>2017-07-04T17:44:47Z</time>
      </trkpt>
      <trkpt lat="49.44929" lon="1.33636">
        <ele>144</ele>
        <time>2017-07-04T17:45:03Z</time>
      </trkpt>
      <trkpt lat="49.44929" lon="1.33631">
        <ele>144</ele>
        <time>2017-07-04T17:45:03Z</time>
      </trkpt>
      <trkpt lat="49.44927" lon="1.33624">
        <ele>145</ele>
        <time>2017-07-04T17:45:03Z</time>
      </trkpt>
      <trkpt lat="49.44927" lon="1.33614">
        <ele>145</ele>
        <time>2017-07-04T17:45:03Z</time>
      </trkpt>
      <trkpt lat="49.44926" lon="1.33606">
        <ele>145</ele>
        <time>2017-07-04T17:45:19Z</time>
      </trkpt>
      <trkpt lat="49.44926" lon="1.33597">
        <ele>145</ele>
        <time>2017-07-04T17:45:19Z</time>
      </trkpt>
      <trkpt lat="49.44925" lon="1.3359">
        <ele>145</ele>
        <time>2017-07-04T17:45:19Z</time>
      </trkpt>
      <trkpt lat="49.44924" lon="1.33582">
        <ele>145</ele>
        <time>2017-07-04T17:45:19Z</time>
      </trkpt>
      <trkpt lat="49.44922" lon="1.33571">
        <ele>145</ele>
        <time>2017-07-04T17:45:35Z</time>
      </trkpt>
      <trkpt lat="49.44921" lon="1.33564">
        <ele>145</ele>
        <time>2017-07-04T17:45:35Z</time>
      </trkpt>
      <trkpt lat="49.4492" lon="1.33559">
        <ele>145</ele>
        <time>2017-07-04T17:45:35Z</time>
      </trkpt>
      <trkpt lat="49.4492" lon="1.33555">
        <ele>145</ele>
        <time>2017-07-04T17:45:35Z</time>
      </trkpt>
      <trkpt lat="49.4492" lon="1.33547">
        <ele>145</ele>
        <time>2017-07-04T17:45:50Z</time>
      </trkpt>
      <trkpt lat="49.44919" lon="1.33542">
        <ele>145</ele>
        <time>2017-07-04T17:45:50Z</time>
      </trkpt>
      <trkpt lat="49.44919" lon="1.33534">
        <ele>145</ele>
        <time>2017-07-04T17:45:51Z</time>
      </trkpt>
      <trkpt lat="49.44919" lon="1.33526">
        <ele>145</ele>
        <time>2017-07-04T17:45:51Z</time>
      </trkpt>
      <trkpt lat="49.44919" lon="1.33519">
        <ele>145</ele>
        <time>2017-07-04T17:46:06Z</time>
      </trkpt>
      <trkpt lat="49.44918" lon="1.33512">
        <ele>145</ele>
        <time>2017-07-04T17:46:06Z</time>
      </trkpt>
      <trkpt lat="49.44918" lon="1.33503">
        <ele>145</ele>
        <time>2017-07-04T17:46:06Z</time>
      </trkpt>
      <trkpt lat="49.44918" lon="1.33493">
        <ele>145</ele>
        <time>2017-07-04T17:46:06Z</time>
      </trkpt>
      <trkpt lat="49.44918" lon="1.33483">
        <ele>145</ele>
        <time>2017-07-04T17:46:22Z</time>
      </trkpt>
      <trkpt lat="49.44918" lon="1.33477">
        <ele>145</ele>
        <time>2017-07-04T17:46:22Z</time>
      </trkpt>
      <trkpt lat="49.44918" lon="1.33468">
        <ele>145</ele>
        <time>2017-07-04T17:46:22Z</time>
      </trkpt>
      <trkpt lat="49.44918" lon="1.33462">
        <ele>145</ele>
        <time>2017-07-04T17:46:22Z</time>
      </trkpt>
      <trkpt lat="49.44918" lon="1.33452">
        <ele>146</ele>
        <time>2017-07-04T17:46:39Z</time>
      </trkpt>
      <trkpt lat="49.44917" lon="1.33445">
        <ele>146</ele>
        <time>2017-07-04T17:46:39Z</time>
      </trkpt>
      <trkpt lat="49.44917" lon="1.33433">
        <ele>146</ele>
        <time>2017-07-04T17:46:39Z</time>
      </trkpt>
      <trkpt lat="49.44918" lon="1.33427">
        <ele>146</ele>
        <time>2017-07-04T17:46:39Z</time>
      </trkpt>
      <trkpt lat="49.44917" lon="1.3342">
        <ele>146</ele>
        <time>2017-07-04T17:46:55Z</time>
      </trkpt>
      <trkpt lat="49.44917" lon="1.33416">
        <ele>146</ele>
        <time>2017-07-04T17:46:55Z</time>
      </trkpt>
      <trkpt lat="49.44916" lon="1.33408">
        <ele>146</ele>
        <time>2017-07-04T17:46:55Z</time>
      </trkpt>
      <trkpt lat="49.44916" lon="1.334">
        <ele>146</ele>
        <time>2017-07-04T17:46:55Z</time>
      </trkpt>
      <trkpt lat="49.44916" lon="1.33391">
        <ele>146</ele>
        <time>2017-07-04T17:47:11Z</time>
      </trkpt>
      <trkpt lat="49.44917" lon="1.33383">
        <ele>146</ele>
        <time>2017-07-04T17:47:11Z</time>
      </trkpt>
      <trkpt lat="49.44916" lon="1.33377">
        <ele>146</ele>
        <time>2017-07-04T17:47:11Z</time>
      </trkpt>
      <trkpt lat="49.44915" lon="1.3337">
        <ele>146</ele>
        <time>2017-07-04T17:47:11Z</time>
      </trkpt>
      <trkpt lat="49.44914" lon="1.3336">
        <ele>146</ele>
        <time>2017-07-04T17:47:27Z</time>
      </trkpt>
      <trkpt lat="49.44914" lon="1.33354">
        <ele>146</ele>
        <time>2017-07-04T17:47:27Z</time>
      </trkpt>
      <trkpt lat="49.44913" lon="1.33346">
        <ele>146</ele>
        <time>2017-07-04T17:47:27Z</time>
      </trkpt>
      <trkpt lat="49.44912" lon="1.33339">
        <ele>146</ele>
        <time>2017-07-04T17:47:27Z</time>
      </trkpt>
      <trkpt lat="49.44911" lon="1.33336">
        <ele>146</ele>
        <time>2017-07-04T17:47:44Z</time>
      </trkpt>
      <trkpt lat="49.4491" lon="1.33328">
        <ele>146</ele>
        <time>2017-07-04T17:47:44Z</time>
      </trkpt>
      <trkpt lat="49.4491" lon="1.33322">
        <ele>146</ele>
        <time>2017-07-04T17:47:44Z</time>
      </trkpt>
      <trkpt lat="49.4491" lon="1.33311">
        <ele>146</ele>
        <time>2017-07-04T17:47:44Z</time>
      </trkpt>
      <trkpt lat="49.44909" lon="1.33306">
        <ele>146</ele>
        <time>2017-07-04T17:47:59Z</time>
      </trkpt>
      <trkpt lat="49.44909" lon="1.33301">
        <ele>146</ele>
        <time>2017-07-04T17:47:59Z</time>
      </trkpt>
      <trkpt lat="49.4491" lon="1.33291">
        <ele>146</ele>
        <time>2017-07-04T17:47:59Z</time>
      </trkpt>
      <trkpt lat="49.4491" lon="1.33284">
        <ele>146</ele>
        <time>2017-07-04T17:47:59Z</time>
      </trkpt>
      <trkpt lat="49.4491" lon="1.33276">
        <ele>146</ele>
        <time>2017-07-04T17:48:15Z</time>
      </trkpt>
      <trkpt lat="49.44911" lon="1.33268">
        <ele>146</ele>
        <time>2017-07-04T17:48:15Z</time>
      </trkpt>
      <trkpt lat="49.44911" lon="1.33258">
        <ele>146</ele>
        <time>2017-07-04T17:48:15Z</time>
      </trkpt>
      <trkpt lat="49.44911" lon="1.33246">
        <ele>146</ele>
        <time>2017-07-04T17:48:15Z</time>
      </trkpt>
      <trkpt lat="49.44911" lon="1.33239">
        <ele>146</ele>
        <time>2017-07-04T17:48:32Z</time>
      </trkpt>
      <trkpt lat="49.44911" lon="1.3323">
        <ele>146</ele>
        <time>2017-07-04T17:48:32Z</time>
      </trkpt>
      <trkpt lat="49.44911" lon="1.33225">
        <ele>146</ele>
        <time>2017-07-04T17:48:32Z</time>
      </trkpt>
      <trkpt lat="49.44912" lon="1.33215">
        <ele>146</ele>
        <time>2017-07-04T17:48:32Z</time>
      </trkpt>
      <trkpt lat="49.44912" lon="1.33207">
        <ele>147</ele>
        <time>2017-07-04T17:48:47Z</time>
      </trkpt>
      <trkpt lat="49.44913" lon="1.33203">
        <ele>147</ele>
        <time>2017-07-04T17:48:47Z</time>
      </trkpt>
      <trkpt lat="49.44914" lon="1.33193">
        <ele>147</ele>
        <time>2017-07-04T17:48:47Z</time>
      </trkpt>
      <trkpt lat="49.44915" lon="1.33184">
        <ele>147</ele>
        <time>2017-07-04T17:48:47Z</time>
      </trkpt>
      <trkpt lat="49.44916" lon="1.33175">
        <ele>147</ele>
        <time>2017-07-04T17:49:03Z</time>
      </trkpt>
      <trkpt lat="49.44916" lon="1.3317">
        <ele>147</ele>
        <time>2017-07-04T17:49:03Z</time>
      </trkpt>
      <trkpt lat="49.44918" lon="1.33165">
        <ele>147</ele>
        <time>2017-07-04T17:49:03Z</time>
      </trkpt>
      <trkpt lat="49.44919" lon="1.33156">
        <ele>147</ele>
        <time>2017-07-04T17:49:03Z</time>
      </trkpt>
      <trkpt lat="49.4492" lon="1.33147">
        <ele>147</ele>
        <time>2017-07-04T17:49:19Z</time>
      </trkpt>
      <trkpt lat="49.4492" lon="1.33141">
        <ele>147</ele>
        <time>2017-07-04T17:49:19Z</time>
      </trkpt>
      <trkpt lat="49.44921" lon="1.33133">
        <ele>147</ele>
        <time>2017-07-04T17:49:19Z</time>
      </trkpt>
      <trkpt lat="49.44922" lon="1.33129">
        <ele>147</ele>
        <time>2017-07-04T17:49:19Z</time>
      </trkpt>
      <trkpt lat="49.44921" lon="1.33118">
        <ele>147</ele>
        <time>2017-07-04T17:49:36Z</time>
      </trkpt>
      <trkpt lat="49.44923" lon="1.33112">
        <ele>147</ele>
        <time>2017-07-04T17:49:36Z</time>
      </trkpt>
      <trkpt lat="49.44923" lon="1.33103">
        <ele>147</ele>
        <time>2017-07-04T17:49:36Z</time>
      </trkpt>
      <trkpt lat="49.44924" lon="1.33093">
        <ele>147</ele>
        <time>2017-07-04T17:49:36Z</time>
      </trkpt>
      <trkpt lat="49.44924" lon="1.3309">
        <ele>147</ele>
        <time>2017-07-04T17:49:51Z</time>
      </trkpt>
      <trkpt lat="49.44924" lon="1.33081">
        <ele>147</ele>
        <time>2017-07-04T17:49:51Z</time>
      </trkpt>
      <trkpt lat="49.44924" lon="1.33076">
        <ele>147</ele>
        <time>2017-07-04T17:49:51Z</time>
      </trkpt>
      <trkpt lat="49.44924" lon="1.33068">
        <ele>147</ele>
        <time>2017-07-04T17:49:51Z</time>
      </trkpt>
      <trkpt lat="49.44923" lon="1.3306">
        <ele>147</ele>
        <time>2017-07-04T17:50:08Z</time>
      </trkpt>
      <trkpt lat="49.44923" lon="1.33053">
        <ele>147</ele>
        <time>2017-07-04T17:50:08Z</time>
      </trkpt>
      <trkpt lat="49.44923" lon="1.33043">
        <ele>147</ele>
        <time>2017-07-04T17:50:08Z</time>
      </trkpt>
      <trkpt lat="49.44923" lon="1.33037">
        <ele>148</ele>
        <time>2017-07-04T17:50:08Z</time>
      </trkpt>
      <trkpt lat="49.44924" lon="1.33034">
        <ele>148</ele>
        <time>2017-07-04T17:50:23Z</time>
      </trkpt>
      <trkpt lat="49.44923" lon="1.33022">
        <ele>148</ele>
        <time>2017-07-04T17:50:23Z</time>
      </trkpt>
      <trkpt lat="49.44923" lon="1.33017">
        <ele>148</ele>
        <time>2017-07-04T17:50:23Z</time>
      </trkpt>
      <trkpt lat="49.44924" lon="1.33006">
        <ele>148</ele>
        <time>2017-07-04T17:50:23Z</time>
      </trkpt>
      <trkpt lat="49.44924" lon="1.32999">
        <ele>148</ele>
        <time>2017-07-04T17:50:40Z</time>
      </trkpt>
      <trkpt lat="49.44925" lon="1.32989">
        <ele>148</ele>
        <time>2017-07-04T17:50:40Z</time>
      </trkpt>
      <trkpt lat="49.44925" lon="1.32983">
        <ele>148</ele>
        <time>2017-07-04T17:50:40Z</time>
      </trkpt>
      <trkpt lat="49.44925" lon="1.32974">
        <ele>148</ele>
        <time>2017-07-04T17:50:40Z</time>
      </trkpt>
      <trkpt lat="49.44925" lon="1.3297">
        <ele>148</ele>
        <time>2017-07-04T17:50:54Z</time>
      </trkpt>
      <trkpt lat="49.44926" lon="1.32965">
        <ele>148</ele>
        <time>2017-07-04T17:50:54Z</time>
      </trkpt>
      <trkpt lat="49.44926" lon="1.32957">
        <ele>148</ele>
        <time>2017-07-04T17:50:54Z</time>
      </trkpt>
      <trkpt lat="49.44927" lon="1.32947">
        <ele>148</ele>
        <time>2017-07-04T17:50:54Z</time>
      </trkpt>
      <trkpt lat="49.44927" lon="1.32936">
        <ele>148</ele>
        <time>2017-07-04T17:51:10Z</time>
      </trkpt>
      <trkpt lat="49.44927" lon="1.3293">
        <ele>148</ele>
        <time>2017-07-04T17:51:10Z</time>
      </trkpt>
      <trkpt lat="49.44927" lon="1.32922">
        <ele>148</ele>
        <time>2017-07-04T17:51:10Z</time>
      </trkpt>
      <trkpt lat="49.44927" lon="1.32917">
        <ele>148</ele>
        <time>2017-07-04T17:51:10Z</time>
      </trkpt>
      <trkpt lat="49.44927" lon="1.32909">
        <ele>148</ele>
        <time>2017-07-04T17:51:27Z</time>
      </trkpt>
      <trkpt lat="49.44927" lon="1.32905">
        <ele>148</ele>
        <time>2017-07-04T17:51:27Z</time>
      </trkpt>
      <trkpt lat="49.44926" lon="1.32897">
        <ele>148</ele>
        <time>2017-07-04T17:51:27Z</time>
      </trkpt>
      <trkpt lat="49.44927" lon="1.32889">
        <ele>148</ele>
        <time>2017-07-04T17:51:27Z</time>
      </trkpt>
      <trkpt lat="49.44927" lon="1.32879">
        <ele>148</ele>
        <time>2017-07-04T17:51:42Z</time>
      </trkpt>
      <trkpt lat="49.44927" lon="1.32874">
        <ele>147</ele>
        <time>2017-07-04T17:51:42Z</time>
      </trkpt>
      <trkpt lat="49.44928" lon="1.32865">
        <ele>147</ele>
        <time>2017-07-04T17:51:42Z</time>
      </trkpt>
      <trkpt lat="49.44928" lon="1.32859">
        <ele>147</ele>
        <time>2017-07-04T17:51:42Z</time>
      </trkpt>
      <trkpt lat="49.44927" lon="1.32853">
        <ele>147</ele>
        <time>2017-07-04T17:51:58Z</time>
      </trkpt>
      <trkpt lat="49.44927" lon="1.32845">
        <ele>147</ele>
        <time>2017-07-04T17:51:58Z</time>
      </trkpt>
      <trkpt lat="49.44928" lon="1.3284">
        <ele>147</ele>
        <time>2017-07-04T17:51:58Z</time>
      </trkpt>
      <trkpt lat="49.44927" lon="1.32835">
        <ele>147</ele>
        <time>2017-07-04T17:51:58Z</time>
      </trkpt>
      <trkpt lat="49.44927" lon="1.32827">
        <ele>147</ele>
        <time>2017-07-04T17:52:15Z</time>
      </trkpt>
      <trkpt lat="49.44928" lon="1.32819">
        <ele>147</ele>
        <time>2017-07-04T17:52:15Z</time>
      </trkpt>
      <trkpt lat="49.44928" lon="1.32812">
        <ele>147</ele>
        <time>2017-07-04T17:52:15Z</time>
      </trkpt>
      <trkpt lat="49.44928" lon="1.328">
        <ele>147</ele>
        <time>2017-07-04T17:52:15Z</time>
      </trkpt>
      <trkpt lat="49.4493" lon="1.32791">
        <ele>145</ele>
        <time>2017-07-04T17:52:32Z</time>
      </trkpt>
      <trkpt lat="49.44931" lon="1.32785">
        <ele>145</ele>
        <time>2017-07-04T17:52:32Z</time>
      </trkpt>
      <trkpt lat="49.44931" lon="1.32778">
        <ele>145</ele>
        <time>2017-07-04T17:52:32Z</time>
      </trkpt>
      <trkpt lat="49.4493" lon="1.32771">
        <ele>145</ele>
        <time>2017-07-04T17:52:32Z</time>
      </trkpt>
      <trkpt lat="49.4493" lon="1.32767">
        <ele>145</ele>
        <time>2017-07-04T17:52:46Z</time>
      </trkpt>
      <trkpt lat="49.4493" lon="1.3276">
        <ele>145</ele>
        <time>2017-07-04T17:52:46Z</time>
      </trkpt>
      <trkpt lat="49.44931" lon="1.32752">
        <ele>145</ele>
        <time>2017-07-04T17:52:46Z</time>
      </trkpt>
      <trkpt lat="49.44931" lon="1.32745">
        <ele>145</ele>
        <time>2017-07-04T17:52:46Z</time>
      </trkpt>
      <trkpt lat="49.44931" lon="1.3274">
        <ele>145</ele>
        <time>2017-07-04T17:53:03Z</time>
      </trkpt>
      <trkpt lat="49.4493" lon="1.32733">
        <ele>145</ele>
        <time>2017-07-04T17:53:03Z</time>
      </trkpt>
      <trkpt lat="49.44929" lon="1.32724">
        <ele>145</ele>
        <time>2017-07-04T17:53:03Z</time>
      </trkpt>
      <trkpt lat="49.4493" lon="1.32721">
        <ele>145</ele>
        <time>2017-07-04T17:53:03Z</time>
      </trkpt>
      <trkpt lat="49.44932" lon="1.32716">
        <ele>145</ele>
        <time>2017-07-04T17:53:19Z</time>
      </trkpt>
      <trkpt lat="49.44933" lon="1.32713">
        <ele>145</ele>
        <time>2017-07-04T17:53:19Z</time>
      </trkpt>
      <trkpt lat="49.44934" lon="1.32702">
        <ele>145</ele>
        <time>2017-07-04T17:53:19Z</time>
      </trkpt>
      <trkpt lat="49.44934" lon="1.32698">
        <ele>145</ele>
        <time>2017-07-04T17:53:19Z</time>
      </trkpt>
      <trkpt lat="49.44934" lon="1.32688">
        <ele>145</ele>
        <time>2017-07-04T17:53:34Z</time>
      </trkpt>
      <trkpt lat="49.44935" lon="1.32684">
        <ele>145</ele>
        <time>2017-07-04T17:53:34Z</time>
      </trkpt>
      <trkpt lat="49.44937" lon="1.32677">
        <ele>145</ele>
        <time>2017-07-04T17:53:34Z</time>
      </trkpt>
      <trkpt lat="49.44938" lon="1.3267">
        <ele>145</ele>
        <time>2017-07-04T17:53:34Z</time>
      </trkpt>
      <trkpt lat="49.44939" lon="1.32663">
        <ele>145</ele>
        <time>2017-07-04T17:53:55Z</time>
      </trkpt>
      <trkpt lat="49.44938" lon="1.3266">
        <ele>145</ele>
        <time>2017-07-04T17:53:55Z</time>
      </trkpt>
      <trkpt lat="49.44939" lon="1.32656">
        <ele>145</ele>
        <time>2017-07-04T17:53:55Z</time>
      </trkpt>
      <trkpt lat="49.4494" lon="1.32653">
        <ele>145</ele>
        <time>2017-07-04T17:53:55Z</time>
      </trkpt>
      <trkpt lat="49.4494" lon="1.32645">
        <ele>145</ele>
        <time>2017-07-04T17:53:55Z</time>
      </trkpt>
      <trkpt lat="49.4494" lon="1.3264">
        <ele>145</ele>
        <time>2017-07-04T17:54:10Z</time>
      </trkpt>
      <trkpt lat="49.44941" lon="1.32632">
        <ele>145</ele>
        <time>2017-07-04T17:54:10Z</time>
      </trkpt>
      <trkpt lat="49.44942" lon="1.32628">
        <ele>145</ele>
        <time>2017-07-04T17:54:10Z</time>
      </trkpt>
      <trkpt lat="49.44943" lon="1.32624">
        <ele>145</ele>
        <time>2017-07-04T17:54:10Z</time>
      </trkpt>
      <trkpt lat="49.44944" lon="1.32615">
        <ele>145</ele>
        <time>2017-07-04T17:54:26Z</time>
      </trkpt>
      <trkpt lat="49.44946" lon="1.32605">
        <ele>145</ele>
        <time>2017-07-04T17:54:26Z</time>
      </trkpt>
      <trkpt lat="49.44947" lon="1.32599">
        <ele>145</ele>
        <time>2017-07-04T17:54:26Z</time>
      </trkpt>
      <trkpt lat="49.44948" lon="1.32595">
        <ele>145</ele>
        <time>2017-07-04T17:54:26Z</time>
      </trkpt>
      <trkpt lat="49.44948" lon="1.32585">
        <ele>145</ele>
        <time>2017-07-04T17:54:51Z</time>
      </trkpt>
      <trkpt lat="49.44948" lon="1.32581">
        <ele>145</ele>
        <time>2017-07-04T17:54:51Z</time>
      </trkpt>
      <trkpt lat="49.44949" lon="1.32579">
        <ele>145</ele>
        <time>2017-07-04T17:54:51Z</time>
      </trkpt>
      <trkpt lat="49.4495" lon="1.32575">
        <ele>145</ele>
        <time>2017-07-04T17:54:51Z</time>
      </trkpt>
      <trkpt lat="49.44951" lon="1.3257">
        <ele>145</ele>
        <time>2017-07-04T17:54:51Z</time>
      </trkpt>
      <trkpt lat="49.44952" lon="1.32563">
        <ele>145</ele>
        <time>2017-07-04T17:55:10Z</time>
      </trkpt>
      <trkpt lat="49.44953" lon="1.32558">
        <ele>145</ele>
        <time>2017-07-04T17:55:10Z</time>
      </trkpt>
      <trkpt lat="49.44955" lon="1.32556">
        <ele>145</ele>
        <time>2017-07-04T17:55:10Z</time>
      </trkpt>
      <trkpt lat="49.44956" lon="1.32551">
        <ele>145</ele>
        <time>2017-07-04T17:55:10Z</time>
      </trkpt>
      <trkpt lat="49.44957" lon="1.32547">
        <ele>145</ele>
        <time>2017-07-04T17:55:10Z</time>
      </trkpt>
      <trkpt lat="49.44958" lon="1.32537">
        <ele>144</ele>
        <time>2017-07-04T17:55:31Z</time>
      </trkpt>
      <trkpt lat="49.44958" lon="1.32535">
        <ele>144</ele>
        <time>2017-07-04T17:55:31Z</time>
      </trkpt>
      <trkpt lat="49.44958" lon="1.3253">
        <ele>145</ele>
        <time>2017-07-04T17:55:31Z</time>
      </trkpt>
      <trkpt lat="49.44959" lon="1.32525">
        <ele>145</ele>
        <time>2017-07-04T17:55:31Z</time>
      </trkpt>
      <trkpt lat="49.4496" lon="1.32518">
        <ele>145</ele>
        <time>2017-07-04T17:55:31Z</time>
      </trkpt>
      <trkpt lat="49.4496" lon="1.32513">
        <ele>145</ele>
        <time>2017-07-04T17:55:47Z</time>
      </trkpt>
      <trkpt lat="49.44961" lon="1.32506">
        <ele>145</ele>
        <time>2017-07-04T17:55:47Z</time>
      </trkpt>
      <trkpt lat="49.44961" lon="1.32502">
        <ele>145</ele>
        <time>2017-07-04T17:55:47Z</time>
      </trkpt>
      <trkpt lat="49.44961" lon="1.32498">
        <ele>145</ele>
        <time>2017-07-04T17:55:47Z</time>
      </trkpt>
      <trkpt lat="49.44964" lon="1.32493">
        <ele>145</ele>
        <time>2017-07-04T17:56:03Z</time>
      </trkpt>
      <trkpt lat="49.44964" lon="1.32488">
        <ele>145</ele>
        <time>2017-07-04T17:56:03Z</time>
      </trkpt>
      <trkpt lat="49.44965" lon="1.32483">
        <ele>145</ele>
        <time>2017-07-04T17:56:03Z</time>
      </trkpt>
      <trkpt lat="49.44964" lon="1.32474">
        <ele>145</ele>
        <time>2017-07-04T17:56:03Z</time>
      </trkpt>
      <trkpt lat="49.44963" lon="1.32468">
        <ele>145</ele>
        <time>2017-07-04T17:56:19Z</time>
      </trkpt>
      <trkpt lat="49.44963" lon="1.32462">
        <ele>145</ele>
        <time>2017-07-04T17:56:19Z</time>
      </trkpt>
      <trkpt lat="49.44962" lon="1.32457">
        <ele>145</ele>
        <time>2017-07-04T17:56:19Z</time>
      </trkpt>
      <trkpt lat="49.44962" lon="1.32453">
        <ele>145</ele>
        <time>2017-07-04T17:56:19Z</time>
      </trkpt>
      <trkpt lat="49.44965" lon="1.3245">
        <ele>145</ele>
        <time>2017-07-04T17:56:39Z</time>
      </trkpt>
      <trkpt lat="49.44966" lon="1.32446">
        <ele>145</ele>
        <time>2017-07-04T17:56:39Z</time>
      </trkpt>
      <trkpt lat="49.44966" lon="1.32441">
        <ele>145</ele>
        <time>2017-07-04T17:56:39Z</time>
      </trkpt>
      <trkpt lat="49.44968" lon="1.32437">
        <ele>145</ele>
        <time>2017-07-04T17:56:39Z</time>
      </trkpt>
      <trkpt lat="49.44968" lon="1.32435">
        <ele>145</ele>
        <time>2017-07-04T17:56:39Z</time>
      </trkpt>
      <trkpt lat="49.44969" lon="1.3243">
        <ele>145</ele>
        <time>2017-07-04T17:56:55Z</time>
      </trkpt>
      <trkpt lat="49.4497" lon="1.32423">
        <ele>145</ele>
        <time>2017-07-04T17:56:55Z</time>
      </trkpt>
      <trkpt lat="49.44971" lon="1.32414">
        <ele>145</ele>
        <time>2017-07-04T17:56:55Z</time>
      </trkpt>
      <trkpt lat="49.44971" lon="1.32408">
        <ele>145</ele>
        <time>2017-07-04T17:56:55Z</time>
      </trkpt>
      <trkpt lat="49.44973" lon="1.324">
        <ele>145</ele>
        <time>2017-07-04T17:57:10Z</time>
      </trkpt>
      <trkpt lat="49.44975" lon="1.32393">
        <ele>145</ele>
        <time>2017-07-04T17:57:10Z</time>
      </trkpt>
      <trkpt lat="49.44974" lon="1.32384">
        <ele>145</ele>
        <time>2017-07-04T17:57:10Z</time>
      </trkpt>
      <trkpt lat="49.44972" lon="1.3238">
        <ele>145</ele>
        <time>2017-07-04T17:57:10Z</time>
      </trkpt>
      <trkpt lat="49.44973" lon="1.32373">
        <ele>145</ele>
        <time>2017-07-04T17:57:28Z</time>
      </trkpt>
      <trkpt lat="49.44974" lon="1.32369">
        <ele>145</ele>
        <time>2017-07-04T17:57:28Z</time>
      </trkpt>
      <trkpt lat="49.44974" lon="1.32362">
        <ele>145</ele>
        <time>2017-07-04T17:57:28Z</time>
      </trkpt>
      <trkpt lat="49.44974" lon="1.32353">
        <ele>145</ele>
        <time>2017-07-04T17:57:28Z</time>
      </trkpt>
      <trkpt lat="49.44975" lon="1.32348">
        <ele>145</ele>
        <time>2017-07-04T17:57:42Z</time>
      </trkpt>
      <trkpt lat="49.44976" lon="1.32341">
        <ele>145</ele>
        <time>2017-07-04T17:57:42Z</time>
      </trkpt>
      <trkpt lat="49.44977" lon="1.32335">
        <ele>145</ele>
        <time>2017-07-04T17:57:42Z</time>
      </trkpt>
      <trkpt lat="49.44978" lon="1.32331">
        <ele>145</ele>
        <time>2017-07-04T17:57:42Z</time>
      </trkpt>
      <trkpt lat="49.44978" lon="1.32322">
        <ele>145</ele>
        <time>2017-07-04T17:57:59Z</time>
      </trkpt>
      <trkpt lat="49.44978" lon="1.32317">
        <ele>145</ele>
        <time>2017-07-04T17:57:59Z</time>
      </trkpt>
      <trkpt lat="49.44979" lon="1.32308">
        <ele>145</ele>
        <time>2017-07-04T17:57:59Z</time>
      </trkpt>
      <trkpt lat="49.4498" lon="1.32301">
        <ele>145</ele>
        <time>2017-07-04T17:57:59Z</time>
      </trkpt>
      <trkpt lat="49.4498" lon="1.32294">
        <ele>145</ele>
        <time>2017-07-04T17:58:16Z</time>
      </trkpt>
      <trkpt lat="49.44981" lon="1.32286">
        <ele>144</ele>
        <time>2017-07-04T17:58:16Z</time>
      </trkpt>
      <trkpt lat="49.44982" lon="1.3228">
        <ele>144</ele>
        <time>2017-07-04T17:58:16Z</time>
      </trkpt>
      <trkpt lat="49.44982" lon="1.32273">
        <ele>144</ele>
        <time>2017-07-04T17:58:16Z</time>
      </trkpt>
      <trkpt lat="49.44982" lon="1.32267">
        <ele>144</ele>
        <time>2017-07-04T17:58:31Z</time>
      </trkpt>
      <trkpt lat="49.44982" lon="1.32259">
        <ele>144</ele>
        <time>2017-07-04T17:58:31Z</time>
      </trkpt>
      <trkpt lat="49.44982" lon="1.32253">
        <ele>144</ele>
        <time>2017-07-04T17:58:31Z</time>
      </trkpt>
      <trkpt lat="49.44982" lon="1.3224">
        <ele>144</ele>
        <time>2017-07-04T17:58:31Z</time>
      </trkpt>
      <trkpt lat="49.44983" lon="1.32229">
        <ele>144</ele>
        <time>2017-07-04T17:58:47Z</time>
      </trkpt>
      <trkpt lat="49.44983" lon="1.32223">
        <ele>144</ele>
        <time>2017-07-04T17:58:47Z</time>
      </trkpt>
      <trkpt lat="49.44982" lon="1.32217">
        <ele>144</ele>
        <time>2017-07-04T17:58:47Z</time>
      </trkpt>
      <trkpt lat="49.44983" lon="1.3221">
        <ele>144</ele>
        <time>2017-07-04T17:58:47Z</time>
      </trkpt>
      <trkpt lat="49.44987" lon="1.32198">
        <ele>144</ele>
        <time>2017-07-04T18:01:15Z</time>
      </trkpt>
      <trkpt lat="49.44985" lon="1.32191">
        <ele>144</ele>
        <time>2017-07-04T18:01:15Z</time>
      </trkpt>
      <trkpt lat="49.44983" lon="1.32184">
        <ele>144</ele>
        <time>2017-07-04T18:01:15Z</time>
      </trkpt>
      <trkpt lat="49.44982" lon="1.32178">
        <ele>144</ele>
        <time>2017-07-04T18:01:15Z</time>
      </trkpt>
      <trkpt lat="49.44981" lon="1.32168">
        <ele>144</ele>
        <time>2017-07-04T18:01:15Z</time>
      </trkpt>
      <trkpt lat="49.44982" lon="1.32165">
        <ele>144</ele>
        <time>2017-07-04T18:01:31Z</time>
      </trkpt>
      <trkpt lat="49.44981" lon="1.3216">
        <ele>144</ele>
        <time>2017-07-04T18:01:31Z</time>
      </trkpt>
      <trkpt lat="49.44981" lon="1.32153">
        <ele>144</ele>
        <time>2017-07-04T18:01:31Z</time>
      </trkpt>
      <trkpt lat="49.44983" lon="1.32143">
        <ele>144</ele>
        <time>2017-07-04T18:01:31Z</time>
      </trkpt>
      <trkpt lat="49.44982" lon="1.32137">
        <ele>144</ele>
        <time>2017-07-04T18:01:47Z</time>
      </trkpt>
      <trkpt lat="49.44982" lon="1.32131">
        <ele>144</ele>
        <time>2017-07-04T18:01:47Z</time>
      </trkpt>
      <trkpt lat="49.44982" lon="1.32124">
        <ele>145</ele>
        <time>2017-07-04T18:01:47Z</time>
      </trkpt>
      <trkpt lat="49.44981" lon="1.32116">
        <ele>145</ele>
        <time>2017-07-04T18:01:47Z</time>
      </trkpt>
      <trkpt lat="49.4498" lon="1.3211">
        <ele>145</ele>
        <time>2017-07-04T18:02:03Z</time>
      </trkpt>
      <trkpt lat="49.44979" lon="1.32102">
        <ele>145</ele>
        <time>2017-07-04T18:02:03Z</time>
      </trkpt>
      <trkpt lat="49.44979" lon="1.32099">
        <ele>145</ele>
        <time>2017-07-04T18:02:03Z</time>
      </trkpt>
      <trkpt lat="49.44978" lon="1.32094">
        <ele>145</ele>
        <time>2017-07-04T18:02:03Z</time>
      </trkpt>
      <trkpt lat="49.44978" lon="1.32085">
        <ele>145</ele>
        <time>2017-07-04T18:02:19Z</time>
      </trkpt>
      <trkpt lat="49.44977" lon="1.32077">
        <ele>145</ele>
        <time>2017-07-04T18:02:19Z</time>
      </trkpt>
      <trkpt lat="49.44976" lon="1.32069">
        <ele>145</ele>
        <time>2017-07-04T18:02:19Z</time>
      </trkpt>
      <trkpt lat="49.44976" lon="1.32066">
        <ele>145</ele>
        <time>2017-07-04T18:02:19Z</time>
      </trkpt>
      <trkpt lat="49.44977" lon="1.32058">
        <ele>145</ele>
        <time>2017-07-04T18:02:35Z</time>
      </trkpt>
      <trkpt lat="49.44976" lon="1.32052">
        <ele>145</ele>
        <time>2017-07-04T18:02:35Z</time>
      </trkpt>
      <trkpt lat="49.44975" lon="1.32042">
        <ele>145</ele>
        <time>2017-07-04T18:02:35Z</time>
      </trkpt>
      <trkpt lat="49.44975" lon="1.32038">
        <ele>147</ele>
        <time>2017-07-04T18:02:35Z</time>
      </trkpt>
      <trkpt lat="49.44975" lon="1.32029">
        <ele>147</ele>
        <time>2017-07-04T18:02:51Z</time>
      </trkpt>
      <trkpt lat="49.44973" lon="1.3202">
        <ele>147</ele>
        <time>2017-07-04T18:02:51Z</time>
      </trkpt>
      <trkpt lat="49.44973" lon="1.32013">
        <ele>147</ele>
        <time>2017-07-04T18:02:51Z</time>
      </trkpt>
      <trkpt lat="49.44972" lon="1.32006">
        <ele>147</ele>
        <time>2017-07-04T18:02:51Z</time>
      </trkpt>
      <trkpt lat="49.44971" lon="1.31998">
        <ele>147</ele>
        <time>2017-07-04T18:03:07Z</time>
      </trkpt>
      <trkpt lat="49.4497" lon="1.31985">
        <ele>147</ele>
        <time>2017-07-04T18:03:07Z</time>
      </trkpt>
      <trkpt lat="49.44969" lon="1.3198">
        <ele>147</ele>
        <time>2017-07-04T18:03:07Z</time>
      </trkpt>
      <trkpt lat="49.44969" lon="1.31974">
        <ele>147</ele>
        <time>2017-07-04T18:03:07Z</time>
      </trkpt>
      <trkpt lat="49.44969" lon="1.31966">
        <ele>147</ele>
        <time>2017-07-04T18:03:23Z</time>
      </trkpt>
      <trkpt lat="49.44968" lon="1.31959">
        <ele>147</ele>
        <time>2017-07-04T18:03:23Z</time>
      </trkpt>
      <trkpt lat="49.44969" lon="1.31955">
        <ele>147</ele>
        <time>2017-07-04T18:03:23Z</time>
      </trkpt>
      <trkpt lat="49.44969" lon="1.31949">
        <ele>147</ele>
        <time>2017-07-04T18:03:23Z</time>
      </trkpt>
      <trkpt lat="49.4497" lon="1.3194">
        <ele>147</ele>
        <time>2017-07-04T18:03:39Z</time>
      </trkpt>
      <trkpt lat="49.44972" lon="1.31932">
        <ele>147</ele>
        <time>2017-07-04T18:03:39Z</time>
      </trkpt>
      <trkpt lat="49.44972" lon="1.31925">
        <ele>147</ele>
        <time>2017-07-04T18:03:39Z</time>
      </trkpt>
      <trkpt lat="49.44972" lon="1.31921">
        <ele>147</ele>
        <time>2017-07-04T18:03:39Z</time>
      </trkpt>
      <trkpt lat="49.44972" lon="1.31916">
        <ele>147</ele>
        <time>2017-07-04T18:03:55Z</time>
      </trkpt>
      <trkpt lat="49.44971" lon="1.31909">
        <ele>147</ele>
        <time>2017-07-04T18:03:55Z</time>
      </trkpt>
      <trkpt lat="49.44972" lon="1.31901">
        <ele>147</ele>
        <time>2017-07-04T18:03:55Z</time>
      </trkpt>
      <trkpt lat="49.44972" lon="1.3189">
        <ele>147</ele>
        <time>2017-07-04T18:03:55Z</time>
      </trkpt>
      <trkpt lat="49.44973" lon="1.31883">
        <ele>147</ele>
        <time>2017-07-04T18:04:11Z</time>
      </trkpt>
      <trkpt lat="49.44973" lon="1.31878">
        <ele>147</ele>
        <time>2017-07-04T18:04:11Z</time>
      </trkpt>
      <trkpt lat="49.44973" lon="1.31869">
        <ele>146</ele>
        <time>2017-07-04T18:04:11Z</time>
      </trkpt>
      <trkpt lat="49.44974" lon="1.31861">
        <ele>146</ele>
        <time>2017-07-04T18:04:11Z</time>
      </trkpt>
      <trkpt lat="49.44973" lon="1.31854">
        <ele>146</ele>
        <time>2017-07-04T18:04:27Z</time>
      </trkpt>
      <trkpt lat="49.44973" lon="1.31849">
        <ele>146</ele>
        <time>2017-07-04T18:04:27Z</time>
      </trkpt>
      <trkpt lat="49.44973" lon="1.31848">
        <ele>146</ele>
        <time>2017-07-04T18:04:27Z</time>
      </trkpt>
      <trkpt lat="49.44974" lon="1.31838">
        <ele>146</ele>
        <time>2017-07-04T18:04:27Z</time>
      </trkpt>
      <trkpt lat="49.44974" lon="1.31831">
        <ele>146</ele>
        <time>2017-07-04T18:04:42Z</time>
      </trkpt>
      <trkpt lat="49.44974" lon="1.31822">
        <ele>146</ele>
        <time>2017-07-04T18:04:42Z</time>
      </trkpt>
      <trkpt lat="49.44974" lon="1.31816">
        <ele>146</ele>
        <time>2017-07-04T18:04:42Z</time>
      </trkpt>
      <trkpt lat="49.44975" lon="1.31807">
        <ele>146</ele>
        <time>2017-07-04T18:04:42Z</time>
      </trkpt>
      <trkpt lat="49.44975" lon="1.31801">
        <ele>146</ele>
        <time>2017-07-04T18:04:59Z</time>
      </trkpt>
      <trkpt lat="49.44976" lon="1.31792">
        <ele>146</ele>
        <time>2017-07-04T18:04:59Z</time>
      </trkpt>
      <trkpt lat="49.44977" lon="1.31784">
        <ele>146</ele>
        <time>2017-07-04T18:04:59Z</time>
      </trkpt>
      <trkpt lat="49.44976" lon="1.31777">
        <ele>146</ele>
        <time>2017-07-04T18:04:59Z</time>
      </trkpt>
      <trkpt lat="49.44977" lon="1.31774">
        <ele>146</ele>
        <time>2017-07-04T18:05:14Z</time>
      </trkpt>
      <trkpt lat="49.44978" lon="1.31768">
        <ele>146</ele>
        <time>2017-07-04T18:05:14Z</time>
      </trkpt>
      <trkpt lat="49.44978" lon="1.31758">
        <ele>146</ele>
        <time>2017-07-04T18:05:14Z</time>
      </trkpt>
      <trkpt lat="49.44979" lon="1.31751">
        <ele>146</ele>
        <time>2017-07-04T18:05:14Z</time>
      </trkpt>
      <trkpt lat="49.44979" lon="1.31745">
        <ele>146</ele>
        <time>2017-07-04T18:05:32Z</time>
      </trkpt>
      <trkpt lat="49.4498" lon="1.31737">
        <ele>146</ele>
        <time>2017-07-04T18:05:32Z</time>
      </trkpt>
      <trkpt lat="49.44981" lon="1.31731">
        <ele>146</ele>
        <time>2017-07-04T18:05:32Z</time>
      </trkpt>
      <trkpt lat="49.44982" lon="1.31721">
        <ele>146</ele>
        <time>2017-07-04T18:05:32Z</time>
      </trkpt>
      <trkpt lat="49.44984" lon="1.31714">
        <ele>146</ele>
        <time>2017-07-04T18:05:48Z</time>
      </trkpt>
      <trkpt lat="49.44985" lon="1.31706">
        <ele>146</ele>
        <time>2017-07-04T18:05:48Z</time>
      </trkpt>
      <trkpt lat="49.44987" lon="1.31701">
        <ele>146</ele>
        <time>2017-07-04T18:05:48Z</time>
      </trkpt>
      <trkpt lat="49.44989" lon="1.31693">
        <ele>146</ele>
        <time>2017-07-04T18:05:48Z</time>
      </trkpt>
      <trkpt lat="49.44991" lon="1.31689">
        <ele>146</ele>
        <time>2017-07-04T18:06:03Z</time>
      </trkpt>
      <trkpt lat="49.44993" lon="1.31679">
        <ele>146</ele>
        <time>2017-07-04T18:06:03Z</time>
      </trkpt>
      <trkpt lat="49.44995" lon="1.3167">
        <ele>146</ele>
        <time>2017-07-04T18:06:03Z</time>
      </trkpt>
      <trkpt lat="49.44996" lon="1.31661">
        <ele>146</ele>
        <time>2017-07-04T18:06:03Z</time>
      </trkpt>
      <trkpt lat="49.44997" lon="1.31655">
        <ele>146</ele>
        <time>2017-07-04T18:06:19Z</time>
      </trkpt>
      <trkpt lat="49.44997" lon="1.31647">
        <ele>146</ele>
        <time>2017-07-04T18:06:19Z</time>
      </trkpt>
      <trkpt lat="49.44998" lon="1.31636">
        <ele>146</ele>
        <time>2017-07-04T18:06:19Z</time>
      </trkpt>
      <trkpt lat="49.44999" lon="1.3163">
        <ele>146</ele>
        <time>2017-07-04T18:06:19Z</time>
      </trkpt>
      <trkpt lat="49.45" lon="1.31622">
        <ele>144</ele>
        <time>2017-07-04T18:06:35Z</time>
      </trkpt>
      <trkpt lat="49.45001" lon="1.31613">
        <ele>144</ele>
        <time>2017-07-04T18:06:35Z</time>
      </trkpt>
      <trkpt lat="49.45002" lon="1.31608">
        <ele>144</ele>
        <time>2017-07-04T18:06:35Z</time>
      </trkpt>
      <trkpt lat="49.45003" lon="1.31598">
        <ele>144</ele>
        <time>2017-07-04T18:06:35Z</time>
      </trkpt>
      <trkpt lat="49.45003" lon="1.31593">
        <ele>144</ele>
        <time>2017-07-04T18:06:50Z</time>
      </trkpt>
      <trkpt lat="49.45003" lon="1.31588">
        <ele>144</ele>
        <time>2017-07-04T18:06:50Z</time>
      </trkpt>
      <trkpt lat="49.45004" lon="1.31582">
        <ele>144</ele>
        <time>2017-07-04T18:06:50Z</time>
      </trkpt>
      <trkpt lat="49.45005" lon="1.31574">
        <ele>144</ele>
        <time>2017-07-04T18:06:50Z</time>
      </trkpt>
      <trkpt lat="49.45007" lon="1.31564">
        <ele>144</ele>
        <time>2017-07-04T18:07:06Z</time>
      </trkpt>
      <trkpt lat="49.45009" lon="1.31559">
        <ele>144</ele>
        <time>2017-07-04T18:07:06Z</time>
      </trkpt>
      <trkpt lat="49.4501" lon="1.31551">
        <ele>144</ele>
        <time>2017-07-04T18:07:06Z</time>
      </trkpt>
      <trkpt lat="49.45011" lon="1.31544">
        <ele>144</ele>
        <time>2017-07-04T18:07:06Z</time>
      </trkpt>
      <trkpt lat="49.45012" lon="1.31535">
        <ele>143</ele>
        <time>2017-07-04T18:07:22Z</time>
      </trkpt>
      <trkpt lat="49.45013" lon="1.31528">
        <ele>143</ele>
        <time>2017-07-04T18:07:22Z</time>
      </trkpt>
      <trkpt lat="49.45013" lon="1.31523">
        <ele>143</ele>
        <time>2017-07-04T18:07:22Z</time>
      </trkpt>
      <trkpt lat="49.45013" lon="1.31518">
        <ele>143</ele>
        <time>2017-07-04T18:07:22Z</time>
      </trkpt>
      <trkpt lat="49.45014" lon="1.3151">
        <ele>143</ele>
        <time>2017-07-04T18:07:39Z</time>
      </trkpt>
      <trkpt lat="49.45015" lon="1.31502">
        <ele>143</ele>
        <time>2017-07-04T18:07:39Z</time>
      </trkpt>
      <trkpt lat="49.45017" lon="1.31491">
        <ele>143</ele>
        <time>2017-07-04T18:07:39Z</time>
      </trkpt>
      <trkpt lat="49.45019" lon="1.31485">
        <ele>143</ele>
        <time>2017-07-04T18:07:39Z</time>
      </trkpt>
      <trkpt lat="49.4502" lon="1.31477">
        <ele>143</ele>
        <time>2017-07-04T18:07:54Z</time>
      </trkpt>
      <trkpt lat="49.45022" lon="1.31467">
        <ele>143</ele>
        <time>2017-07-04T18:07:54Z</time>
      </trkpt>
      <trkpt lat="49.45021" lon="1.31463">
        <ele>143</ele>
        <time>2017-07-04T18:07:54Z</time>
      </trkpt>
      <trkpt lat="49.45018" lon="1.31454">
        <ele>140</ele>
        <time>2017-07-04T18:07:54Z</time>
      </trkpt>
      <trkpt lat="49.45013" lon="1.31448">
        <ele>140</ele>
        <time>2017-07-04T18:08:11Z</time>
      </trkpt>
      <trkpt lat="49.45008" lon="1.31441">
        <ele>140</ele>
        <time>2017-07-04T18:08:11Z</time>
      </trkpt>
      <trkpt lat="49.45004" lon="1.31435">
        <ele>140</ele>
        <time>2017-07-04T18:08:11Z</time>
      </trkpt>
      <trkpt lat="49.45003" lon="1.31433">
        <ele>140</ele>
        <time>2017-07-04T18:08:11Z</time>
      </trkpt>
      <trkpt lat="49.45" lon="1.31425">
        <ele>140</ele>
        <time>2017-07-04T18:08:28Z</time>
      </trkpt>
      <trkpt lat="49.44998" lon="1.3142">
        <ele>140</ele>
        <time>2017-07-04T18:08:28Z</time>
      </trkpt>
      <trkpt lat="49.44995" lon="1.31413">
        <ele>140</ele>
        <time>2017-07-04T18:08:28Z</time>
      </trkpt>
      <trkpt lat="49.44991" lon="1.31409">
        <ele>140</ele>
        <time>2017-07-04T18:08:28Z</time>
      </trkpt>
      <trkpt lat="49.44988" lon="1.31406">
        <ele>140</ele>
        <time>2017-07-04T18:08:44Z</time>
      </trkpt>
      <trkpt lat="49.44986" lon="1.314">
        <ele>140</ele>
        <time>2017-07-04T18:08:44Z</time>
      </trkpt>
      <trkpt lat="49.44985" lon="1.31394">
        <ele>140</ele>
        <time>2017-07-04T18:08:44Z</time>
      </trkpt>
      <trkpt lat="49.44981" lon="1.31386">
        <ele>140</ele>
        <time>2017-07-04T18:08:44Z</time>
      </trkpt>
      <trkpt lat="49.44978" lon="1.31385">
        <ele>140</ele>
        <time>2017-07-04T18:09:00Z</time>
      </trkpt>
      <trkpt lat="49.44972" lon="1.31378">
        <ele>140</ele>
        <time>2017-07-04T18:09:00Z</time>
      </trkpt>
      <trkpt lat="49.44969" lon="1.31375">
        <ele>140</ele>
        <time>2017-07-04T18:09:00Z</time>
      </trkpt>
      <trkpt lat="49.44962" lon="1.31374">
        <ele>133</ele>
        <time>2017-07-04T18:09:00Z</time>
      </trkpt>
      <trkpt lat="49.44957" lon="1.31372">
        <ele>131</ele>
        <time>2017-07-04T18:09:16Z</time>
      </trkpt>
      <trkpt lat="49.44952" lon="1.31373">
        <ele>131</ele>
        <time>2017-07-04T18:09:16Z</time>
      </trkpt>
      <trkpt lat="49.44946" lon="1.31374">
        <ele>131</ele>
        <time>2017-07-04T18:09:16Z</time>
      </trkpt>
      <trkpt lat="49.44939" lon="1.31371">
        <ele>131</ele>
        <time>2017-07-04T18:09:16Z</time>
      </trkpt>
      <trkpt lat="49.44934" lon="1.31367">
        <ele>131</ele>
        <time>2017-07-04T18:09:31Z</time>
      </trkpt>
      <trkpt lat="49.44929" lon="1.31366">
        <ele>131</ele>
        <time>2017-07-04T18:09:31Z</time>
      </trkpt>
      <trkpt lat="49.44925" lon="1.31363">
        <ele>131</ele>
        <time>2017-07-04T18:09:31Z</time>
      </trkpt>
      <trkpt lat="49.44923" lon="1.31363">
        <ele>131</ele>
        <time>2017-07-04T18:09:31Z</time>
      </trkpt>
      <trkpt lat="49.4492" lon="1.31366">
        <ele>131</ele>
        <time>2017-07-04T18:09:47Z</time>
      </trkpt>
      <trkpt lat="49.44914" lon="1.31364">
        <ele>131</ele>
        <time>2017-07-04T18:09:47Z</time>
      </trkpt>
      <trkpt lat="49.44912" lon="1.3136">
        <ele>131</ele>
        <time>2017-07-04T18:09:47Z</time>
      </trkpt>
      <trkpt lat="49.4491" lon="1.31361">
        <ele>131</ele>
        <time>2017-07-04T18:09:47Z</time>
      </trkpt>
      <trkpt lat="49.44907" lon="1.31356">
        <ele>131</ele>
        <time>2017-07-04T18:10:03Z</time>
      </trkpt>
      <trkpt lat="49.44902" lon="1.31355">
        <ele>131</ele>
        <time>2017-07-04T18:10:03Z</time>
      </trkpt>
      <trkpt lat="49.44896" lon="1.31351">
        <ele>131</ele>
        <time>2017-07-04T18:10:03Z</time>
      </trkpt>
      <trkpt lat="49.44891" lon="1.3135">
        <ele>131</ele>
        <time>2017-07-04T18:10:03Z</time>
      </trkpt>
      <trkpt lat="49.44886" lon="1.31347">
        <ele>131</ele>
        <time>2017-07-04T18:10:20Z</time>
      </trkpt>
      <trkpt lat="49.44883" lon="1.31344">
        <ele>131</ele>
        <time>2017-07-04T18:10:20Z</time>
      </trkpt>
      <trkpt lat="49.44878" lon="1.31343">
        <ele>131</ele>
        <time>2017-07-04T18:10:20Z</time>
      </trkpt>
      <trkpt lat="49.44872" lon="1.31339">
        <ele>129</ele>
        <time>2017-07-04T18:10:20Z</time>
      </trkpt>
      <trkpt lat="49.44868" lon="1.31337">
        <ele>129</ele>
        <time>2017-07-04T18:10:35Z</time>
      </trkpt>
      <trkpt lat="49.44865" lon="1.31335">
        <ele>129</ele>
        <time>2017-07-04T18:10:35Z</time>
      </trkpt>
      <trkpt lat="49.4486" lon="1.31333">
        <ele>129</ele>
        <time>2017-07-04T18:10:35Z</time>
      </trkpt>
      <trkpt lat="49.44857" lon="1.31331">
        <ele>129</ele>
        <time>2017-07-04T18:10:35Z</time>
      </trkpt>
      <trkpt lat="49.44852" lon="1.3133">
        <ele>129</ele>
        <time>2017-07-04T18:10:51Z</time>
      </trkpt>
      <trkpt lat="49.44848" lon="1.31328">
        <ele>129</ele>
        <time>2017-07-04T18:10:51Z</time>
      </trkpt>
      <trkpt lat="49.44842" lon="1.31325">
        <ele>129</ele>
        <time>2017-07-04T18:10:51Z</time>
      </trkpt>
      <trkpt lat="49.44838" lon="1.31323">
        <ele>129</ele>
        <time>2017-07-04T18:10:51Z</time>
      </trkpt>
      <trkpt lat="49.44833" lon="1.3132">
        <ele>129</ele>
        <time>2017-07-04T18:11:07Z</time>
      </trkpt>
      <trkpt lat="49.4483" lon="1.31317">
        <ele>129</ele>
        <time>2017-07-04T18:11:07Z</time>
      </trkpt>
      <trkpt lat="49.44825" lon="1.31315">
        <ele>129</ele>
        <time>2017-07-04T18:11:07Z</time>
      </trkpt>
      <trkpt lat="49.44821" lon="1.31313">
        <ele>129</ele>
        <time>2017-07-04T18:11:07Z</time>
      </trkpt>
      <trkpt lat="49.44817" lon="1.31311">
        <ele>129</ele>
        <time>2017-07-04T18:11:23Z</time>
      </trkpt>
      <trkpt lat="49.44814" lon="1.31309">
        <ele>129</ele>
        <time>2017-07-04T18:11:23Z</time>
      </trkpt>
      <trkpt lat="49.44808" lon="1.31306">
        <ele>129</ele>
        <time>2017-07-04T18:11:23Z</time>
      </trkpt>
      <trkpt lat="49.44805" lon="1.31304">
        <ele>129</ele>
        <time>2017-07-04T18:11:23Z</time>
      </trkpt>
      <trkpt lat="49.448" lon="1.31301">
        <ele>129</ele>
        <time>2017-07-04T18:11:39Z</time>
      </trkpt>
      <trkpt lat="49.44795" lon="1.31299">
        <ele>129</ele>
        <time>2017-07-04T18:11:39Z</time>
      </trkpt>
      <trkpt lat="49.44791" lon="1.31297">
        <ele>132</ele>
        <time>2017-07-04T18:11:39Z</time>
      </trkpt>
      <trkpt lat="49.44784" lon="1.31294">
        <ele>132</ele>
        <time>2017-07-04T18:11:39Z</time>
      </trkpt>
      <trkpt lat="49.44781" lon="1.31293">
        <ele>132</ele>
        <time>2017-07-04T18:11:56Z</time>
      </trkpt>
      <trkpt lat="49.44773" lon="1.3129">
        <ele>127</ele>
        <time>2017-07-04T18:11:56Z</time>
      </trkpt>
      <trkpt lat="49.44769" lon="1.31288">
        <ele>127</ele>
        <time>2017-07-04T18:11:56Z</time>
      </trkpt>
      <trkpt lat="49.44765" lon="1.31286">
        <ele>127</ele>
        <time>2017-07-04T18:11:56Z</time>
      </trkpt>
      <trkpt lat="49.44762" lon="1.31285">
        <ele>127</ele>
        <time>2017-07-04T18:12:11Z</time>
      </trkpt>
      <trkpt lat="49.44757" lon="1.31283">
        <ele>127</ele>
        <time>2017-07-04T18:12:11Z</time>
      </trkpt>
      <trkpt lat="49.44754" lon="1.31283">
        <ele>127</ele>
        <time>2017-07-04T18:12:11Z</time>
      </trkpt>
      <trkpt lat="49.44752" lon="1.31284">
        <ele>127</ele>
        <time>2017-07-04T18:12:11Z</time>
      </trkpt>
      <trkpt lat="49.44748" lon="1.31283">
        <ele>127</ele>
        <time>2017-07-04T18:12:28Z</time>
      </trkpt>
      <trkpt lat="49.44745" lon="1.31282">
        <ele>127</ele>
        <time>2017-07-04T18:12:28Z</time>
      </trkpt>
      <trkpt lat="49.44741" lon="1.3128">
        <ele>127</ele>
        <time>2017-07-04T18:12:28Z</time>
      </trkpt>
      <trkpt lat="49.44734" lon="1.31279">
        <ele>127</ele>
        <time>2017-07-04T18:12:28Z</time>
      </trkpt>
      <trkpt lat="49.44732" lon="1.31279">
        <ele>127</ele>
        <time>2017-07-04T18:12:44Z</time>
      </trkpt>
      <trkpt lat="49.44726" lon="1.31277">
        <ele>127</ele>
        <time>2017-07-04T18:12:44Z</time>
      </trkpt>
      <trkpt lat="49.44721" lon="1.31276">
        <ele>127</ele>
        <time>2017-07-04T18:12:44Z</time>
      </trkpt>
      <trkpt lat="49.44715" lon="1.31274">
        <ele>127</ele>
        <time>2017-07-04T18:12:44Z</time>
      </trkpt>
      <trkpt lat="49.44712" lon="1.31272">
        <ele>127</ele>
        <time>2017-07-04T18:12:59Z</time>
      </trkpt>
      <trkpt lat="49.44706" lon="1.3127">
        <ele>126</ele>
        <time>2017-07-04T18:12:59Z</time>
      </trkpt>
      <trkpt lat="49.44703" lon="1.31268">
        <ele>126</ele>
        <time>2017-07-04T18:12:59Z</time>
      </trkpt>
      <trkpt lat="49.44697" lon="1.31267">
        <ele>126</ele>
        <time>2017-07-04T18:12:59Z</time>
      </trkpt>
      <trkpt lat="49.44689" lon="1.31267">
        <ele>126</ele>
        <time>2017-07-04T18:13:15Z</time>
      </trkpt>
      <trkpt lat="49.44683" lon="1.31266">
        <ele>126</ele>
        <time>2017-07-04T18:13:15Z</time>
      </trkpt>
      <trkpt lat="49.44678" lon="1.31262">
        <ele>126</ele>
        <time>2017-07-04T18:13:15Z</time>
      </trkpt>
      <trkpt lat="49.44676" lon="1.31261">
        <ele>126</ele>
        <time>2017-07-04T18:13:15Z</time>
      </trkpt>
      <trkpt lat="49.44668" lon="1.3126">
        <ele>126</ele>
        <time>2017-07-04T18:13:31Z</time>
      </trkpt>
      <trkpt lat="49.44664" lon="1.31261">
        <ele>126</ele>
        <time>2017-07-04T18:13:31Z</time>
      </trkpt>
      <trkpt lat="49.44661" lon="1.31266">
        <ele>126</ele>
        <time>2017-07-04T18:13:31Z</time>
      </trkpt>
      <trkpt lat="49.44657" lon="1.31265">
        <ele>126</ele>
        <time>2017-07-04T18:13:31Z</time>
      </trkpt>
      <trkpt lat="49.44651" lon="1.31265">
        <ele>126</ele>
        <time>2017-07-04T18:13:47Z</time>
      </trkpt>
      <trkpt lat="49.44646" lon="1.31265">
        <ele>126</ele>
        <time>2017-07-04T18:13:47Z</time>
      </trkpt>
      <trkpt lat="49.44642" lon="1.31264">
        <ele>126</ele>
        <time>2017-07-04T18:13:47Z</time>
      </trkpt>
      <trkpt lat="49.44638" lon="1.31263">
        <ele>126</ele>
        <time>2017-07-04T18:13:47Z</time>
      </trkpt>
      <trkpt lat="49.44634" lon="1.31262">
        <ele>126</ele>
        <time>2017-07-04T18:14:04Z</time>
      </trkpt>
      <trkpt lat="49.44629" lon="1.31263">
        <ele>126</ele>
        <time>2017-07-04T18:14:04Z</time>
      </trkpt>
      <trkpt lat="49.44623" lon="1.31263">
        <ele>123</ele>
        <time>2017-07-04T18:14:04Z</time>
      </trkpt>
      <trkpt lat="49.44617" lon="1.31264">
        <ele>123</ele>
        <time>2017-07-04T18:14:04Z</time>
      </trkpt>
      <trkpt lat="49.44614" lon="1.31264">
        <ele>123</ele>
        <time>2017-07-04T18:14:20Z</time>
      </trkpt>
      <trkpt lat="49.44607" lon="1.31265">
        <ele>123</ele>
        <time>2017-07-04T18:14:20Z</time>
      </trkpt>
      <trkpt lat="49.44603" lon="1.31264">
        <ele>123</ele>
        <time>2017-07-04T18:14:20Z</time>
      </trkpt>
      <trkpt lat="49.44597" lon="1.31261">
        <ele>123</ele>
        <time>2017-07-04T18:14:20Z</time>
      </trkpt>
      <trkpt lat="49.44592" lon="1.31257">
        <ele>123</ele>
        <time>2017-07-04T18:14:35Z</time>
      </trkpt>
      <trkpt lat="49.4459" lon="1.31255">
        <ele>123</ele>
        <time>2017-07-04T18:14:35Z</time>
      </trkpt>
      <trkpt lat="49.44586" lon="1.31252">
        <ele>123</ele>
        <time>2017-07-04T18:14:35Z</time>
      </trkpt>
      <trkpt lat="49.44582" lon="1.31249">
        <ele>123</ele>
        <time>2017-07-04T18:14:35Z</time>
      </trkpt>
      <trkpt lat="49.44577" lon="1.31245">
        <ele>123</ele>
        <time>2017-07-04T18:14:51Z</time>
      </trkpt>
      <trkpt lat="49.44573" lon="1.31241">
        <ele>123</ele>
        <time>2017-07-04T18:14:51Z</time>
      </trkpt>
      <trkpt lat="49.44568" lon="1.31238">
        <ele>123</ele>
        <time>2017-07-04T18:14:51Z</time>
      </trkpt>
      <trkpt lat="49.44563" lon="1.31235">
        <ele>123</ele>
        <time>2017-07-04T18:14:51Z</time>
      </trkpt>
      <trkpt lat="49.44559" lon="1.31233">
        <ele>123</ele>
        <time>2017-07-04T18:15:07Z</time>
      </trkpt>
      <trkpt lat="49.44552" lon="1.31228">
        <ele>123</ele>
        <time>2017-07-04T18:15:07Z</time>
      </trkpt>
      <trkpt lat="49.44547" lon="1.31224">
        <ele>123</ele>
        <time>2017-07-04T18:15:07Z</time>
      </trkpt>
      <trkpt lat="49.44543" lon="1.31221">
        <ele>123</ele>
        <time>2017-07-04T18:15:07Z</time>
      </trkpt>
      <trkpt lat="49.44539" lon="1.31218">
        <ele>124</ele>
        <time>2017-07-04T18:15:23Z</time>
      </trkpt>
      <trkpt lat="49.44535" lon="1.31215">
        <ele>124</ele>
        <time>2017-07-04T18:15:23Z</time>
      </trkpt>
      <trkpt lat="49.44531" lon="1.31211">
        <ele>124</ele>
        <time>2017-07-04T18:15:23Z</time>
      </trkpt>
      <trkpt lat="49.44527" lon="1.31206">
        <ele>131</ele>
        <time>2017-07-04T18:15:23Z</time>
      </trkpt>
      <trkpt lat="49.44523" lon="1.31202">
        <ele>131</ele>
        <time>2017-07-04T18:15:40Z</time>
      </trkpt>
      <trkpt lat="49.44516" lon="1.31198">
        <ele>131</ele>
        <time>2017-07-04T18:15:40Z</time>
      </trkpt>
      <trkpt lat="49.44514" lon="1.31196">
        <ele>131</ele>
        <time>2017-07-04T18:15:40Z</time>
      </trkpt>
      <trkpt lat="49.4451" lon="1.3119">
        <ele>131</ele>
        <time>2017-07-04T18:15:40Z</time>
      </trkpt>
      <trkpt lat="49.44507" lon="1.31188">
        <ele>131</ele>
        <time>2017-07-04T18:15:55Z</time>
      </trkpt>
      <trkpt lat="49.44502" lon="1.31184">
        <ele>131</ele>
        <time>2017-07-04T18:15:55Z</time>
      </trkpt>
      <trkpt lat="49.44497" lon="1.31181">
        <ele>131</ele>
        <time>2017-07-04T18:15:55Z</time>
      </trkpt>
      <trkpt lat="49.44494" lon="1.31178">
        <ele>131</ele>
        <time>2017-07-04T18:15:55Z</time>
      </trkpt>
      <trkpt lat="49.44491" lon="1.31176">
        <ele>131</ele>
        <time>2017-07-04T18:16:11Z</time>
      </trkpt>
      <trkpt lat="49.44489" lon="1.31174">
        <ele>131</ele>
        <time>2017-07-04T18:16:11Z</time>
      </trkpt>
      <trkpt lat="49.44484" lon="1.31168">
        <ele>131</ele>
        <time>2017-07-04T18:16:11Z</time>
      </trkpt>
      <trkpt lat="49.44482" lon="1.31167">
        <ele>131</ele>
        <time>2017-07-04T18:16:11Z</time>
      </trkpt>
      <trkpt lat="49.44478" lon="1.31165">
        <ele>131</ele>
        <time>2017-07-04T18:16:27Z</time>
      </trkpt>
      <trkpt lat="49.44474" lon="1.31163">
        <ele>131</ele>
        <time>2017-07-04T18:16:27Z</time>
      </trkpt>
      <trkpt lat="49.44467" lon="1.31161">
        <ele>131</ele>
        <time>2017-07-04T18:16:27Z</time>
      </trkpt>
      <trkpt lat="49.44463" lon="1.31158">
        <ele>131</ele>
        <time>2017-07-04T18:16:27Z</time>
      </trkpt>
      <trkpt lat="49.44459" lon="1.31154">
        <ele>131</ele>
        <time>2017-07-04T18:16:43Z</time>
      </trkpt>
      <trkpt lat="49.44454" lon="1.31151">
        <ele>142</ele>
        <time>2017-07-04T18:16:43Z</time>
      </trkpt>
      <trkpt lat="49.44449" lon="1.31149">
        <ele>142</ele>
        <time>2017-07-04T18:16:43Z</time>
      </trkpt>
      <trkpt lat="49.44445" lon="1.31148">
        <ele>142</ele>
        <time>2017-07-04T18:16:43Z</time>
      </trkpt>
      <trkpt lat="49.44443" lon="1.31146">
        <ele>142</ele>
        <time>2017-07-04T18:16:59Z</time>
      </trkpt>
      <trkpt lat="49.44439" lon="1.31142">
        <ele>142</ele>
        <time>2017-07-04T18:16:59Z</time>
      </trkpt>
      <trkpt lat="49.44437" lon="1.31139">
        <ele>142</ele>
        <time>2017-07-04T18:16:59Z</time>
      </trkpt>
      <trkpt lat="49.44433" lon="1.31134">
        <ele>142</ele>
        <time>2017-07-04T18:16:59Z</time>
      </trkpt>
      <trkpt lat="49.44421" lon="1.31128">
        <ele>142</ele>
        <time>2017-07-04T18:17:38Z</time>
      </trkpt>
      <trkpt lat="49.4442" lon="1.31128">
        <ele>142</ele>
        <time>2017-07-04T18:17:38Z</time>
      </trkpt>
      <trkpt lat="49.44418" lon="1.31128">
        <ele>142</ele>
        <time>2017-07-04T18:17:38Z</time>
      </trkpt>
      <trkpt lat="49.44415" lon="1.31128">
        <ele>142</ele>
        <time>2017-07-04T18:17:38Z</time>
      </trkpt>
      <trkpt lat="49.44413" lon="1.31128">
        <ele>142</ele>
        <time>2017-07-04T18:17:38Z</time>
      </trkpt>
      <trkpt lat="49.44408" lon="1.31128">
        <ele>142</ele>
        <time>2017-07-04T18:17:56Z</time>
      </trkpt>
      <trkpt lat="49.44406" lon="1.31129">
        <ele>142</ele>
        <time>2017-07-04T18:17:56Z</time>
      </trkpt>
      <trkpt lat="49.44402" lon="1.31127">
        <ele>142</ele>
        <time>2017-07-04T18:17:56Z</time>
      </trkpt>
      <trkpt lat="49.44396" lon="1.31127">
        <ele>142</ele>
        <time>2017-07-04T18:17:56Z</time>
      </trkpt>
      <trkpt lat="49.44393" lon="1.31128">
        <ele>142</ele>
        <time>2017-07-04T18:18:11Z</time>
      </trkpt>
      <trkpt lat="49.44387" lon="1.3113">
        <ele>142</ele>
        <time>2017-07-04T18:18:11Z</time>
      </trkpt>
      <trkpt lat="49.44381" lon="1.3113">
        <ele>142</ele>
        <time>2017-07-04T18:18:11Z</time>
      </trkpt>
      <trkpt lat="49.44379" lon="1.3113">
        <ele>142</ele>
        <time>2017-07-04T18:18:11Z</time>
      </trkpt>
      <trkpt lat="49.44374" lon="1.31131">
        <ele>145</ele>
        <time>2017-07-04T18:18:27Z</time>
      </trkpt>
      <trkpt lat="49.44373" lon="1.31133">
        <ele>145</ele>
        <time>2017-07-04T18:18:27Z</time>
      </trkpt>
      <trkpt lat="49.44369" lon="1.31132">
        <ele>145</ele>
        <time>2017-07-04T18:18:27Z</time>
      </trkpt>
      <trkpt lat="49.44364" lon="1.3113">
        <ele>145</ele>
        <time>2017-07-04T18:18:27Z</time>
      </trkpt>
      <trkpt lat="49.44362" lon="1.31127">
        <ele>145</ele>
        <time>2017-07-04T18:18:43Z</time>
      </trkpt>
      <trkpt lat="49.44358" lon="1.31125">
        <ele>145</ele>
        <time>2017-07-04T18:18:43Z</time>
      </trkpt>
      <trkpt lat="49.44354" lon="1.3112">
        <ele>145</ele>
        <time>2017-07-04T18:18:43Z</time>
      </trkpt>
      <trkpt lat="49.44351" lon="1.31118">
        <ele>145</ele>
        <time>2017-07-04T18:18:43Z</time>
      </trkpt>
      <trkpt lat="49.44347" lon="1.31115">
        <ele>145</ele>
        <time>2017-07-04T18:18:59Z</time>
      </trkpt>
      <trkpt lat="49.44343" lon="1.31114">
        <ele>145</ele>
        <time>2017-07-04T18:18:59Z</time>
      </trkpt>
      <trkpt lat="49.44338" lon="1.31111">
        <ele>145</ele>
        <time>2017-07-04T18:18:59Z</time>
      </trkpt>
      <trkpt lat="49.44335" lon="1.31108">
        <ele>145</ele>
        <time>2017-07-04T18:18:59Z</time>
      </trkpt>
      <trkpt lat="49.44331" lon="1.31105">
        <ele>145</ele>
        <time>2017-07-04T18:19:15Z</time>
      </trkpt>
      <trkpt lat="49.44328" lon="1.31103">
        <ele>145</ele>
        <time>2017-07-04T18:19:15Z</time>
      </trkpt>
      <trkpt lat="49.44323" lon="1.31098">
        <ele>145</ele>
        <time>2017-07-04T18:19:15Z</time>
      </trkpt>
      <trkpt lat="49.4432" lon="1.31096">
        <ele>145</ele>
        <time>2017-07-04T18:19:15Z</time>
      </trkpt>
      <trkpt lat="49.44316" lon="1.31094">
        <ele>145</ele>
        <time>2017-07-04T18:19:31Z</time>
      </trkpt>
      <trkpt lat="49.44313" lon="1.31093">
        <ele>145</ele>
        <time>2017-07-04T18:19:31Z</time>
      </trkpt>
      <trkpt lat="49.44308" lon="1.31091">
        <ele>145</ele>
        <time>2017-07-04T18:19:31Z</time>
      </trkpt>
      <trkpt lat="49.44306" lon="1.31089">
        <ele>145</ele>
        <time>2017-07-04T18:19:31Z</time>
      </trkpt>
      <trkpt lat="49.44302" lon="1.31086">
        <ele>145</ele>
        <time>2017-07-04T18:19:47Z</time>
      </trkpt>
      <trkpt lat="49.44299" lon="1.31084">
        <ele>145</ele>
        <time>2017-07-04T18:19:47Z</time>
      </trkpt>
      <trkpt lat="49.44295" lon="1.31082">
        <ele>145</ele>
        <time>2017-07-04T18:19:47Z</time>
      </trkpt>
      <trkpt lat="49.44291" lon="1.3108">
        <ele>146</ele>
        <time>2017-07-04T18:19:47Z</time>
      </trkpt>
      <trkpt lat="49.44287" lon="1.31078">
        <ele>146</ele>
        <time>2017-07-04T18:20:03Z</time>
      </trkpt>
      <trkpt lat="49.44283" lon="1.31076">
        <ele>146</ele>
        <time>2017-07-04T18:20:03Z</time>
      </trkpt>
      <trkpt lat="49.44277" lon="1.31072">
        <ele>146</ele>
        <time>2017-07-04T18:20:03Z</time>
      </trkpt>
      <trkpt lat="49.44273" lon="1.31068">
        <ele>146</ele>
        <time>2017-07-04T18:20:03Z</time>
      </trkpt>
      <trkpt lat="49.44269" lon="1.31062">
        <ele>146</ele>
        <time>2017-07-04T18:20:19Z</time>
      </trkpt>
      <trkpt lat="49.44268" lon="1.31058">
        <ele>146</ele>
        <time>2017-07-04T18:20:19Z</time>
      </trkpt>
      <trkpt lat="49.44264" lon="1.31051">
        <ele>146</ele>
        <time>2017-07-04T18:20:19Z</time>
      </trkpt>
      <trkpt lat="49.44262" lon="1.31047">
        <ele>146</ele>
        <time>2017-07-04T18:20:19Z</time>
      </trkpt>
    </trkseg>
  </trk>
</gpx>